<?xml version='1.0' encoding='UTF-8'?>
<gpx version="1.1" creator="https://www.komoot.de" xmlns="http://www.topografix.com/GPX/1/1" xmlns:xsi="http://www.w3.org/2001/XMLSchema-instance" xsi:schemaLocation="http://www.topografix.com/GPX/1/1 http://www.topografix.com/GPX/1/1/gpx.xsd">
  <metadata>
    <name>Day 4: Voreppe to Maison bel canto</name>
    <author>
      <link href="https://www.komoot.de">
        <text>komoot</text>
        <type>text/html</type>
      </link>
    </author>
  </metadata>
  <trk>
    <name>Day 4: Voreppe to Maison bel canto</name>
    <trkseg>
      <trkpt lat="45.272675" lon="5.629796">
        <ele>251.433735</ele>
        <time>2017-06-04T07:45:40.000Z</time>
      </trkpt>
      <trkpt lat="45.272705" lon="5.629666">
        <ele>251.433735</ele>
        <time>2017-06-04T07:45:42.000Z</time>
      </trkpt>
      <trkpt lat="45.272810" lon="5.629681">
        <ele>251.433735</ele>
        <time>2017-06-04T07:55:35.000Z</time>
      </trkpt>
      <trkpt lat="45.272903" lon="5.629684">
        <ele>251.433735</ele>
        <time>2017-06-04T07:55:47.000Z</time>
      </trkpt>
      <trkpt lat="45.272960" lon="5.629582">
        <ele>251.433735</ele>
        <time>2017-06-04T08:00:18.000Z</time>
      </trkpt>
      <trkpt lat="45.273033" lon="5.629456">
        <ele>251.433735</ele>
        <time>2017-06-04T08:00:22.000Z</time>
      </trkpt>
      <trkpt lat="45.273040" lon="5.629301">
        <ele>251.433735</ele>
        <time>2017-06-04T08:00:26.000Z</time>
      </trkpt>
      <trkpt lat="45.273020" lon="5.629140">
        <ele>251.433735</ele>
        <time>2017-06-04T08:00:30.000Z</time>
      </trkpt>
      <trkpt lat="45.273052" lon="5.629006">
        <ele>251.433735</ele>
        <time>2017-06-04T08:00:34.000Z</time>
      </trkpt>
      <trkpt lat="45.273060" lon="5.628848">
        <ele>251.573684</ele>
        <time>2017-06-04T08:00:38.000Z</time>
      </trkpt>
      <trkpt lat="45.273064" lon="5.628691">
        <ele>251.986991</ele>
        <time>2017-06-04T08:00:42.000Z</time>
      </trkpt>
      <trkpt lat="45.273052" lon="5.628521">
        <ele>252.436472</ele>
        <time>2017-06-04T08:00:46.000Z</time>
      </trkpt>
      <trkpt lat="45.273045" lon="5.628389">
        <ele>252.784723</ele>
        <time>2017-06-04T08:00:49.000Z</time>
      </trkpt>
      <trkpt lat="45.273033" lon="5.628233">
        <ele>253.197574</ele>
        <time>2017-06-04T08:00:53.000Z</time>
      </trkpt>
      <trkpt lat="45.272990" lon="5.628106">
        <ele>253.568346</ele>
        <time>2017-06-04T08:00:57.000Z</time>
      </trkpt>
      <trkpt lat="45.272934" lon="5.627966">
        <ele>253.991999</ele>
        <time>2017-06-04T08:01:02.000Z</time>
      </trkpt>
      <trkpt lat="45.272880" lon="5.627823">
        <ele>254.418946</ele>
        <time>2017-06-04T08:01:07.000Z</time>
      </trkpt>
      <trkpt lat="45.272860" lon="5.627694">
        <ele>254.766459</ele>
        <time>2017-06-04T08:01:11.000Z</time>
      </trkpt>
      <trkpt lat="45.272884" lon="5.627537">
        <ele>255.189130</ele>
        <time>2017-06-04T08:01:16.000Z</time>
      </trkpt>
      <trkpt lat="45.272934" lon="5.627397">
        <ele>255.602160</ele>
        <time>2017-06-04T08:01:21.000Z</time>
      </trkpt>
      <trkpt lat="45.272995" lon="5.627272">
        <ele>256.002342</ele>
        <time>2017-06-04T08:01:26.000Z</time>
      </trkpt>
      <trkpt lat="45.273090" lon="5.627199">
        <ele>256.406089</ele>
        <time>2017-06-04T08:01:31.000Z</time>
      </trkpt>
      <trkpt lat="45.273180" lon="5.627128">
        <ele>256.790915</ele>
        <time>2017-06-04T08:01:36.000Z</time>
      </trkpt>
      <trkpt lat="45.273250" lon="5.627033">
        <ele>257.152775</ele>
        <time>2017-06-04T08:01:43.000Z</time>
      </trkpt>
      <trkpt lat="45.273216" lon="5.626885">
        <ele>257.562355</ele>
        <time>2017-06-04T08:01:49.000Z</time>
      </trkpt>
      <trkpt lat="45.273200" lon="5.626759">
        <ele>257.899189</ele>
        <time>2017-06-04T08:01:52.000Z</time>
      </trkpt>
      <trkpt lat="45.273144" lon="5.626653">
        <ele>258.120049</ele>
        <time>2017-06-04T08:01:55.000Z</time>
      </trkpt>
      <trkpt lat="45.273052" lon="5.626560">
        <ele>257.943533</ele>
        <time>2017-06-04T08:01:59.000Z</time>
      </trkpt>
      <trkpt lat="45.272950" lon="5.626537">
        <ele>257.782068</ele>
        <time>2017-06-04T08:02:03.000Z</time>
      </trkpt>
      <trkpt lat="45.272842" lon="5.626534">
        <ele>257.613186</ele>
        <time>2017-06-04T08:02:07.000Z</time>
      </trkpt>
      <trkpt lat="45.272750" lon="5.626489">
        <ele>257.461068</ele>
        <time>2017-06-04T08:02:10.000Z</time>
      </trkpt>
      <trkpt lat="45.272686" lon="5.626397">
        <ele>257.318739</ele>
        <time>2017-06-04T08:02:13.000Z</time>
      </trkpt>
      <trkpt lat="45.272648" lon="5.626265">
        <ele>257.161826</ele>
        <time>2017-06-04T08:02:16.000Z</time>
      </trkpt>
      <trkpt lat="45.272625" lon="5.626138">
        <ele>257.017544</ele>
        <time>2017-06-04T08:02:19.000Z</time>
      </trkpt>
      <trkpt lat="45.272600" lon="5.625989">
        <ele>256.849014</ele>
        <time>2017-06-04T08:02:23.000Z</time>
      </trkpt>
      <trkpt lat="45.272568" lon="5.625824">
        <ele>256.660707</ele>
        <time>2017-06-04T08:02:27.000Z</time>
      </trkpt>
      <trkpt lat="45.272533" lon="5.625683">
        <ele>256.496206</ele>
        <time>2017-06-04T08:02:30.000Z</time>
      </trkpt>
      <trkpt lat="45.272500" lon="5.625548">
        <ele>256.338969</ele>
        <time>2017-06-04T08:02:33.000Z</time>
      </trkpt>
      <trkpt lat="45.272472" lon="5.625420">
        <ele>256.191491</ele>
        <time>2017-06-04T08:02:36.000Z</time>
      </trkpt>
      <trkpt lat="45.272440" lon="5.625288">
        <ele>256.037884</ele>
        <time>2017-06-04T08:02:39.000Z</time>
      </trkpt>
      <trkpt lat="45.272434" lon="5.625148">
        <ele>255.883565</ele>
        <time>2017-06-04T08:02:42.000Z</time>
      </trkpt>
      <trkpt lat="45.272410" lon="5.625017">
        <ele>255.734630</ele>
        <time>2017-06-04T08:02:45.000Z</time>
      </trkpt>
      <trkpt lat="45.272324" lon="5.624905">
        <ele>255.552249</ele>
        <time>2017-06-04T08:03:17.000Z</time>
      </trkpt>
      <trkpt lat="45.272280" lon="5.624783">
        <ele>255.401419</ele>
        <time>2017-06-04T08:03:30.000Z</time>
      </trkpt>
      <trkpt lat="45.272274" lon="5.624655">
        <ele>255.528480</ele>
        <time>2017-06-04T08:03:33.000Z</time>
      </trkpt>
      <trkpt lat="45.272263" lon="5.624502">
        <ele>255.890511</ele>
        <time>2017-06-04T08:03:36.000Z</time>
      </trkpt>
      <trkpt lat="45.272285" lon="5.624332">
        <ele>256.297393</ele>
        <time>2017-06-04T08:03:39.000Z</time>
      </trkpt>
      <trkpt lat="45.272330" lon="5.624192">
        <ele>256.659695</ele>
        <time>2017-06-04T08:03:42.000Z</time>
      </trkpt>
      <trkpt lat="45.272370" lon="5.624054">
        <ele>257.011016</ele>
        <time>2017-06-04T08:03:45.000Z</time>
      </trkpt>
      <trkpt lat="45.272354" lon="5.623900">
        <ele>257.377455</ele>
        <time>2017-06-04T08:03:48.000Z</time>
      </trkpt>
      <trkpt lat="45.272293" lon="5.623779">
        <ele>257.727826</ele>
        <time>2017-06-04T08:03:51.000Z</time>
      </trkpt>
      <trkpt lat="45.272236" lon="5.623666">
        <ele>258.055097</ele>
        <time>2017-06-04T08:03:54.000Z</time>
      </trkpt>
      <trkpt lat="45.272210" lon="5.623527">
        <ele>258.393658</ele>
        <time>2017-06-04T08:04:51.000Z</time>
      </trkpt>
      <trkpt lat="45.272175" lon="5.623381">
        <ele>258.756729</ele>
        <time>2017-06-04T08:04:56.000Z</time>
      </trkpt>
      <trkpt lat="45.272102" lon="5.623259">
        <ele>259.133688</ele>
        <time>2017-06-04T08:05:00.000Z</time>
      </trkpt>
      <trkpt lat="45.272000" lon="5.623192">
        <ele>259.509561</ele>
        <time>2017-06-04T08:05:04.000Z</time>
      </trkpt>
      <trkpt lat="45.271946" lon="5.623082">
        <ele>259.825273</ele>
        <time>2017-06-04T08:05:07.000Z</time>
      </trkpt>
      <trkpt lat="45.271910" lon="5.622956">
        <ele>260.145386</ele>
        <time>2017-06-04T08:05:10.000Z</time>
      </trkpt>
      <trkpt lat="45.271877" lon="5.622834">
        <ele>260.453054</ele>
        <time>2017-06-04T08:05:13.000Z</time>
      </trkpt>
      <trkpt lat="45.271847" lon="5.622706">
        <ele>260.770633</ele>
        <time>2017-06-04T08:05:16.000Z</time>
      </trkpt>
      <trkpt lat="45.271828" lon="5.622579">
        <ele>261.076269</ele>
        <time>2017-06-04T08:05:19.000Z</time>
      </trkpt>
      <trkpt lat="45.271896" lon="5.622454">
        <ele>261.459235</ele>
        <time>2017-06-04T08:05:24.000Z</time>
      </trkpt>
      <trkpt lat="45.271984" lon="5.622389">
        <ele>261.833565</ele>
        <time>2017-06-04T08:05:27.000Z</time>
      </trkpt>
      <trkpt lat="45.272090" lon="5.622315">
        <ele>262.279316</ele>
        <time>2017-06-04T08:05:30.000Z</time>
      </trkpt>
      <trkpt lat="45.272175" lon="5.622259">
        <ele>262.632935</ele>
        <time>2017-06-04T08:05:32.000Z</time>
      </trkpt>
      <trkpt lat="45.272290" lon="5.622206">
        <ele>263.089237</ele>
        <time>2017-06-04T08:05:35.000Z</time>
      </trkpt>
      <trkpt lat="45.272408" lon="5.622142">
        <ele>263.565943</ele>
        <time>2017-06-04T08:05:38.000Z</time>
      </trkpt>
      <trkpt lat="45.272533" lon="5.622090">
        <ele>264.057531</ele>
        <time>2017-06-04T08:05:41.000Z</time>
      </trkpt>
      <trkpt lat="45.272625" lon="5.622046">
        <ele>264.423906</ele>
        <time>2017-06-04T08:05:43.000Z</time>
      </trkpt>
      <trkpt lat="45.272740" lon="5.621978">
        <ele>264.894029</ele>
        <time>2017-06-04T08:05:46.000Z</time>
      </trkpt>
      <trkpt lat="45.272846" lon="5.621912">
        <ele>265.330825</ele>
        <time>2017-06-04T08:05:49.000Z</time>
      </trkpt>
      <trkpt lat="45.272950" lon="5.621839">
        <ele>265.768629</ele>
        <time>2017-06-04T08:05:52.000Z</time>
      </trkpt>
      <trkpt lat="45.273067" lon="5.621763">
        <ele>266.254172</ele>
        <time>2017-06-04T08:05:55.000Z</time>
      </trkpt>
      <trkpt lat="45.273155" lon="5.621716">
        <ele>266.608995</ele>
        <time>2017-06-04T08:05:57.000Z</time>
      </trkpt>
      <trkpt lat="45.273290" lon="5.621670">
        <ele>267.132969</ele>
        <time>2017-06-04T08:06:00.000Z</time>
      </trkpt>
      <trkpt lat="45.273380" lon="5.621647">
        <ele>267.478104</ele>
        <time>2017-06-04T08:06:02.000Z</time>
      </trkpt>
      <trkpt lat="45.273495" lon="5.621589">
        <ele>267.938676</ele>
        <time>2017-06-04T08:06:05.000Z</time>
      </trkpt>
      <trkpt lat="45.273590" lon="5.621554">
        <ele>267.999337</ele>
        <time>2017-06-04T08:06:07.000Z</time>
      </trkpt>
      <trkpt lat="45.273690" lon="5.621542">
        <ele>267.637588</ele>
        <time>2017-06-04T08:06:09.000Z</time>
      </trkpt>
      <trkpt lat="45.273785" lon="5.621534">
        <ele>267.294544</ele>
        <time>2017-06-04T08:06:11.000Z</time>
      </trkpt>
      <trkpt lat="45.273920" lon="5.621492">
        <ele>266.796388</ele>
        <time>2017-06-04T08:06:14.000Z</time>
      </trkpt>
      <trkpt lat="45.274006" lon="5.621471">
        <ele>266.481844</ele>
        <time>2017-06-04T08:06:16.000Z</time>
      </trkpt>
      <trkpt lat="45.274097" lon="5.621440">
        <ele>266.144525</ele>
        <time>2017-06-04T08:06:18.000Z</time>
      </trkpt>
      <trkpt lat="45.274197" lon="5.621424">
        <ele>265.781781</ele>
        <time>2017-06-04T08:06:20.000Z</time>
      </trkpt>
      <trkpt lat="45.274292" lon="5.621430">
        <ele>265.439000</ele>
        <time>2017-06-04T08:06:22.000Z</time>
      </trkpt>
      <trkpt lat="45.274387" lon="5.621438">
        <ele>265.095956</ele>
        <time>2017-06-04T08:06:24.000Z</time>
      </trkpt>
      <trkpt lat="45.274483" lon="5.621405">
        <ele>264.739928</ele>
        <time>2017-06-04T08:06:26.000Z</time>
      </trkpt>
      <trkpt lat="45.274574" lon="5.621367">
        <ele>264.398034</ele>
        <time>2017-06-04T08:06:28.000Z</time>
      </trkpt>
      <trkpt lat="45.274670" lon="5.621332">
        <ele>264.040779</ele>
        <time>2017-06-04T08:06:30.000Z</time>
      </trkpt>
      <trkpt lat="45.274776" lon="5.621314">
        <ele>263.655966</ele>
        <time>2017-06-04T08:06:32.000Z</time>
      </trkpt>
      <trkpt lat="45.274887" lon="5.621328">
        <ele>263.254276</ele>
        <time>2017-06-04T08:06:34.000Z</time>
      </trkpt>
      <trkpt lat="45.274994" lon="5.621353">
        <ele>262.863398</ele>
        <time>2017-06-04T08:06:36.000Z</time>
      </trkpt>
      <trkpt lat="45.275097" lon="5.621375">
        <ele>262.487947</ele>
        <time>2017-06-04T08:06:38.000Z</time>
      </trkpt>
      <trkpt lat="45.275192" lon="5.621390">
        <ele>262.143397</ele>
        <time>2017-06-04T08:06:40.000Z</time>
      </trkpt>
      <trkpt lat="45.275288" lon="5.621419">
        <ele>261.789617</ele>
        <time>2017-06-04T08:06:42.000Z</time>
      </trkpt>
      <trkpt lat="45.275387" lon="5.621443">
        <ele>261.673479</ele>
        <time>2017-06-04T08:06:44.000Z</time>
      </trkpt>
      <trkpt lat="45.275497" lon="5.621459">
        <ele>261.684011</ele>
        <time>2017-06-04T08:06:46.000Z</time>
      </trkpt>
      <trkpt lat="45.275604" lon="5.621450">
        <ele>261.694220</ele>
        <time>2017-06-04T08:06:48.000Z</time>
      </trkpt>
      <trkpt lat="45.275715" lon="5.621431">
        <ele>261.704869</ele>
        <time>2017-06-04T08:06:50.000Z</time>
      </trkpt>
      <trkpt lat="45.275818" lon="5.621394">
        <ele>261.714987</ele>
        <time>2017-06-04T08:06:52.000Z</time>
      </trkpt>
      <trkpt lat="45.275930" lon="5.621385">
        <ele>261.725672</ele>
        <time>2017-06-04T08:06:54.000Z</time>
      </trkpt>
      <trkpt lat="45.276040" lon="5.621341">
        <ele>261.736556</ele>
        <time>2017-06-04T08:06:56.000Z</time>
      </trkpt>
      <trkpt lat="45.276134" lon="5.621290">
        <ele>261.746139</ele>
        <time>2017-06-04T08:06:58.000Z</time>
      </trkpt>
      <trkpt lat="45.276222" lon="5.621244">
        <ele>261.755070</ele>
        <time>2017-06-04T08:07:00.000Z</time>
      </trkpt>
      <trkpt lat="45.276310" lon="5.621202">
        <ele>261.763911</ele>
        <time>2017-06-04T08:07:02.000Z</time>
      </trkpt>
      <trkpt lat="45.276410" lon="5.621171">
        <ele>261.773660</ele>
        <time>2017-06-04T08:07:04.000Z</time>
      </trkpt>
      <trkpt lat="45.276512" lon="5.621160">
        <ele>261.783403</ele>
        <time>2017-06-04T08:07:06.000Z</time>
      </trkpt>
      <trkpt lat="45.276604" lon="5.621168">
        <ele>261.792182</ele>
        <time>2017-06-04T08:07:08.000Z</time>
      </trkpt>
      <trkpt lat="45.276695" lon="5.621133">
        <ele>261.801161</ele>
        <time>2017-06-04T08:07:10.000Z</time>
      </trkpt>
      <trkpt lat="45.276794" lon="5.621115">
        <ele>261.810667</ele>
        <time>2017-06-04T08:07:12.000Z</time>
      </trkpt>
      <trkpt lat="45.276900" lon="5.621109">
        <ele>261.820771</ele>
        <time>2017-06-04T08:07:14.000Z</time>
      </trkpt>
      <trkpt lat="45.276993" lon="5.621079">
        <ele>261.829854</ele>
        <time>2017-06-04T08:07:16.000Z</time>
      </trkpt>
      <trkpt lat="45.277092" lon="5.621033">
        <ele>261.833904</ele>
        <time>2017-06-04T08:07:18.000Z</time>
      </trkpt>
      <trkpt lat="45.277200" lon="5.620946">
        <ele>261.792872</ele>
        <time>2017-06-04T08:07:21.000Z</time>
      </trkpt>
      <trkpt lat="45.277290" lon="5.620957">
        <ele>261.763016</ele>
        <time>2017-06-04T08:07:23.000Z</time>
      </trkpt>
      <trkpt lat="45.277393" lon="5.620955">
        <ele>261.728970</ele>
        <time>2017-06-04T08:07:25.000Z</time>
      </trkpt>
      <trkpt lat="45.277490" lon="5.620935">
        <ele>261.696574</ele>
        <time>2017-06-04T08:07:27.000Z</time>
      </trkpt>
      <trkpt lat="45.277620" lon="5.620890">
        <ele>261.652351</ele>
        <time>2017-06-04T08:07:30.000Z</time>
      </trkpt>
      <trkpt lat="45.277744" lon="5.620852">
        <ele>261.610425</ele>
        <time>2017-06-04T08:07:33.000Z</time>
      </trkpt>
      <trkpt lat="45.277830" lon="5.620801">
        <ele>261.579626</ele>
        <time>2017-06-04T08:07:35.000Z</time>
      </trkpt>
      <trkpt lat="45.277924" lon="5.620768">
        <ele>261.547623</ele>
        <time>2017-06-04T08:07:37.000Z</time>
      </trkpt>
      <trkpt lat="45.278023" lon="5.620754">
        <ele>261.514741</ele>
        <time>2017-06-04T08:07:39.000Z</time>
      </trkpt>
      <trkpt lat="45.278120" lon="5.620730">
        <ele>261.482199</ele>
        <time>2017-06-04T08:07:41.000Z</time>
      </trkpt>
      <trkpt lat="45.278217" lon="5.620723">
        <ele>261.450098</ele>
        <time>2017-06-04T08:07:43.000Z</time>
      </trkpt>
      <trkpt lat="45.278316" lon="5.620718">
        <ele>261.417356</ele>
        <time>2017-06-04T08:07:45.000Z</time>
      </trkpt>
      <trkpt lat="45.278416" lon="5.620696">
        <ele>261.383911</ele>
        <time>2017-06-04T08:07:47.000Z</time>
      </trkpt>
      <trkpt lat="45.278510" lon="5.620661">
        <ele>261.351794</ele>
        <time>2017-06-04T08:07:49.000Z</time>
      </trkpt>
      <trkpt lat="45.278660" lon="5.620660">
        <ele>261.302216</ele>
        <time>2017-06-04T08:07:52.000Z</time>
      </trkpt>
      <trkpt lat="45.278755" lon="5.620678">
        <ele>261.270539</ele>
        <time>2017-06-04T08:07:54.000Z</time>
      </trkpt>
      <trkpt lat="45.278854" lon="5.620661">
        <ele>261.260322</ele>
        <time>2017-06-04T08:07:56.000Z</time>
      </trkpt>
      <trkpt lat="45.279022" lon="5.620668">
        <ele>261.402066</ele>
        <time>2017-06-04T08:07:59.000Z</time>
      </trkpt>
      <trkpt lat="45.279130" lon="5.620674">
        <ele>261.493218</ele>
        <time>2017-06-04T08:08:01.000Z</time>
      </trkpt>
      <trkpt lat="45.279232" lon="5.620654">
        <ele>261.580055</ele>
        <time>2017-06-04T08:08:03.000Z</time>
      </trkpt>
      <trkpt lat="45.279335" lon="5.620648">
        <ele>261.666993</ele>
        <time>2017-06-04T08:08:05.000Z</time>
      </trkpt>
      <trkpt lat="45.279438" lon="5.620636">
        <ele>261.754149</ele>
        <time>2017-06-04T08:08:07.000Z</time>
      </trkpt>
      <trkpt lat="45.279533" lon="5.620628">
        <ele>261.834408</ele>
        <time>2017-06-04T08:08:09.000Z</time>
      </trkpt>
      <trkpt lat="45.279640" lon="5.620642">
        <ele>261.925029</ele>
        <time>2017-06-04T08:08:11.000Z</time>
      </trkpt>
      <trkpt lat="45.279780" lon="5.620641">
        <ele>262.043099</ele>
        <time>2017-06-04T08:08:14.000Z</time>
      </trkpt>
      <trkpt lat="45.279877" lon="5.620647">
        <ele>262.124982</ele>
        <time>2017-06-04T08:08:16.000Z</time>
      </trkpt>
      <trkpt lat="45.280003" lon="5.620625">
        <ele>262.232043</ele>
        <time>2017-06-04T08:08:19.000Z</time>
      </trkpt>
      <trkpt lat="45.280100" lon="5.620609">
        <ele>262.314397</ele>
        <time>2017-06-04T08:08:21.000Z</time>
      </trkpt>
      <trkpt lat="45.280193" lon="5.620596">
        <ele>262.393207</ele>
        <time>2017-06-04T08:08:23.000Z</time>
      </trkpt>
      <trkpt lat="45.280327" lon="5.620608">
        <ele>262.506441</ele>
        <time>2017-06-04T08:08:26.000Z</time>
      </trkpt>
      <trkpt lat="45.280426" lon="5.620596">
        <ele>262.590236</ele>
        <time>2017-06-04T08:08:28.000Z</time>
      </trkpt>
      <trkpt lat="45.280552" lon="5.620584">
        <ele>262.696736</ele>
        <time>2017-06-04T08:08:31.000Z</time>
      </trkpt>
      <trkpt lat="45.280670" lon="5.620583">
        <ele>262.673756</ele>
        <time>2017-06-04T08:08:34.000Z</time>
      </trkpt>
      <trkpt lat="45.280800" lon="5.620555">
        <ele>262.400726</ele>
        <time>2017-06-04T08:08:37.000Z</time>
      </trkpt>
      <trkpt lat="45.280933" lon="5.620540">
        <ele>262.123680</ele>
        <time>2017-06-04T08:08:40.000Z</time>
      </trkpt>
      <trkpt lat="45.281075" lon="5.620535">
        <ele>261.828724</ele>
        <time>2017-06-04T08:08:43.000Z</time>
      </trkpt>
      <trkpt lat="45.281174" lon="5.620528">
        <ele>261.622894</ele>
        <time>2017-06-04T08:08:45.000Z</time>
      </trkpt>
      <trkpt lat="45.281260" lon="5.620496">
        <ele>261.438294</ele>
        <time>2017-06-04T08:08:47.000Z</time>
      </trkpt>
      <trkpt lat="45.281353" lon="5.620460">
        <ele>261.238142</ele>
        <time>2017-06-04T08:08:49.000Z</time>
      </trkpt>
      <trkpt lat="45.281460" lon="5.620450">
        <ele>261.015475</ele>
        <time>2017-06-04T08:08:51.000Z</time>
      </trkpt>
      <trkpt lat="45.281560" lon="5.620431">
        <ele>260.805975</ele>
        <time>2017-06-04T08:08:53.000Z</time>
      </trkpt>
      <trkpt lat="45.281654" lon="5.620421">
        <ele>260.610236</ele>
        <time>2017-06-04T08:08:55.000Z</time>
      </trkpt>
      <trkpt lat="45.281757" lon="5.620412">
        <ele>260.395951</ele>
        <time>2017-06-04T08:08:57.000Z</time>
      </trkpt>
      <trkpt lat="45.281850" lon="5.620392">
        <ele>260.200636</ele>
        <time>2017-06-04T08:08:59.000Z</time>
      </trkpt>
      <trkpt lat="45.281940" lon="5.620362">
        <ele>260.008678</ele>
        <time>2017-06-04T08:09:01.000Z</time>
      </trkpt>
      <trkpt lat="45.282036" lon="5.620361">
        <ele>259.809326</ele>
        <time>2017-06-04T08:09:03.000Z</time>
      </trkpt>
      <trkpt lat="45.282173" lon="5.620351">
        <ele>259.524468</ele>
        <time>2017-06-04T08:09:06.000Z</time>
      </trkpt>
      <trkpt lat="45.282270" lon="5.620325">
        <ele>259.319495</ele>
        <time>2017-06-04T08:09:08.000Z</time>
      </trkpt>
      <trkpt lat="45.282360" lon="5.620290">
        <ele>259.125738</ele>
        <time>2017-06-04T08:09:10.000Z</time>
      </trkpt>
      <trkpt lat="45.282444" lon="5.620246">
        <ele>258.953737</ele>
        <time>2017-06-04T08:09:12.000Z</time>
      </trkpt>
      <trkpt lat="45.282540" lon="5.620231">
        <ele>258.785553</ele>
        <time>2017-06-04T08:09:14.000Z</time>
      </trkpt>
      <trkpt lat="45.282673" lon="5.620202">
        <ele>258.551234</ele>
        <time>2017-06-04T08:09:17.000Z</time>
      </trkpt>
      <trkpt lat="45.282770" lon="5.620176">
        <ele>258.379339</ele>
        <time>2017-06-04T08:09:19.000Z</time>
      </trkpt>
      <trkpt lat="45.282898" lon="5.620143">
        <ele>258.152799</ele>
        <time>2017-06-04T08:09:22.000Z</time>
      </trkpt>
      <trkpt lat="45.282997" lon="5.620135">
        <ele>257.980120</ele>
        <time>2017-06-04T08:09:24.000Z</time>
      </trkpt>
      <trkpt lat="45.283120" lon="5.620106">
        <ele>257.762998</ele>
        <time>2017-06-04T08:09:27.000Z</time>
      </trkpt>
      <trkpt lat="45.283210" lon="5.620082">
        <ele>257.603536</ele>
        <time>2017-06-04T08:09:29.000Z</time>
      </trkpt>
      <trkpt lat="45.283306" lon="5.620060">
        <ele>257.434200</ele>
        <time>2017-06-04T08:09:31.000Z</time>
      </trkpt>
      <trkpt lat="45.283410" lon="5.620050">
        <ele>257.252678</ele>
        <time>2017-06-04T08:09:33.000Z</time>
      </trkpt>
      <trkpt lat="45.283510" lon="5.620045">
        <ele>257.078428</ele>
        <time>2017-06-04T08:09:35.000Z</time>
      </trkpt>
      <trkpt lat="45.283607" lon="5.620018">
        <ele>256.906302</ele>
        <time>2017-06-04T08:09:37.000Z</time>
      </trkpt>
      <trkpt lat="45.283703" lon="5.619997">
        <ele>256.737157</ele>
        <time>2017-06-04T08:09:39.000Z</time>
      </trkpt>
      <trkpt lat="45.283790" lon="5.619964">
        <ele>256.580350</ele>
        <time>2017-06-04T08:09:41.000Z</time>
      </trkpt>
      <trkpt lat="45.283886" lon="5.619936">
        <ele>256.409690</ele>
        <time>2017-06-04T08:09:43.000Z</time>
      </trkpt>
      <trkpt lat="45.283978" lon="5.619916">
        <ele>256.247616</ele>
        <time>2017-06-04T08:09:45.000Z</time>
      </trkpt>
      <trkpt lat="45.284070" lon="5.619898">
        <ele>256.085895</ele>
        <time>2017-06-04T08:09:47.000Z</time>
      </trkpt>
      <trkpt lat="45.284195" lon="5.619875">
        <ele>255.901594</ele>
        <time>2017-06-04T08:09:50.000Z</time>
      </trkpt>
      <trkpt lat="45.284283" lon="5.619865">
        <ele>255.945627</ele>
        <time>2017-06-04T08:09:52.000Z</time>
      </trkpt>
      <trkpt lat="45.284410" lon="5.619841">
        <ele>256.009529</ele>
        <time>2017-06-04T08:09:55.000Z</time>
      </trkpt>
      <trkpt lat="45.284504" lon="5.619844">
        <ele>256.056425</ele>
        <time>2017-06-04T08:09:58.000Z</time>
      </trkpt>
      <trkpt lat="45.284610" lon="5.619833">
        <ele>256.109436</ele>
        <time>2017-06-04T08:10:01.000Z</time>
      </trkpt>
      <trkpt lat="45.284720" lon="5.619802">
        <ele>256.165370</ele>
        <time>2017-06-04T08:10:04.000Z</time>
      </trkpt>
      <trkpt lat="45.284832" lon="5.619790">
        <ele>256.221391</ele>
        <time>2017-06-04T08:10:07.000Z</time>
      </trkpt>
      <trkpt lat="45.284924" lon="5.619766">
        <ele>256.268045</ele>
        <time>2017-06-04T08:10:09.000Z</time>
      </trkpt>
      <trkpt lat="45.285010" lon="5.619725">
        <ele>256.313289</ele>
        <time>2017-06-04T08:10:11.000Z</time>
      </trkpt>
      <trkpt lat="45.285150" lon="5.619709">
        <ele>256.383343</ele>
        <time>2017-06-04T08:10:14.000Z</time>
      </trkpt>
      <trkpt lat="45.285248" lon="5.619694">
        <ele>256.432505</ele>
        <time>2017-06-04T08:10:16.000Z</time>
      </trkpt>
      <trkpt lat="45.285360" lon="5.619664">
        <ele>256.489351</ele>
        <time>2017-06-04T08:10:19.000Z</time>
      </trkpt>
      <trkpt lat="45.285484" lon="5.619647">
        <ele>256.551487</ele>
        <time>2017-06-04T08:10:22.000Z</time>
      </trkpt>
      <trkpt lat="45.285618" lon="5.619618">
        <ele>256.619093</ele>
        <time>2017-06-04T08:10:25.000Z</time>
      </trkpt>
      <trkpt lat="45.285740" lon="5.619595">
        <ele>256.680477</ele>
        <time>2017-06-04T08:10:28.000Z</time>
      </trkpt>
      <trkpt lat="45.285840" lon="5.619568">
        <ele>256.731246</ele>
        <time>2017-06-04T08:10:30.000Z</time>
      </trkpt>
      <trkpt lat="45.285927" lon="5.619533">
        <ele>256.776344</ele>
        <time>2017-06-04T08:10:32.000Z</time>
      </trkpt>
      <trkpt lat="45.286022" lon="5.619513">
        <ele>256.817568</ele>
        <time>2017-06-04T08:10:34.000Z</time>
      </trkpt>
      <trkpt lat="45.286118" lon="5.619471">
        <ele>256.857642</ele>
        <time>2017-06-04T08:10:36.000Z</time>
      </trkpt>
      <trkpt lat="45.286205" lon="5.619422">
        <ele>256.894978</ele>
        <time>2017-06-04T08:10:38.000Z</time>
      </trkpt>
      <trkpt lat="45.286297" lon="5.619384">
        <ele>256.933201</ele>
        <time>2017-06-04T08:10:40.000Z</time>
      </trkpt>
      <trkpt lat="45.286400" lon="5.619355">
        <ele>256.975093</ele>
        <time>2017-06-04T08:10:42.000Z</time>
      </trkpt>
      <trkpt lat="45.286507" lon="5.619335">
        <ele>257.018150</ele>
        <time>2017-06-04T08:10:44.000Z</time>
      </trkpt>
      <trkpt lat="45.286606" lon="5.619316">
        <ele>257.058006</ele>
        <time>2017-06-04T08:10:46.000Z</time>
      </trkpt>
      <trkpt lat="45.286705" lon="5.619298">
        <ele>257.097826</ele>
        <time>2017-06-04T08:10:48.000Z</time>
      </trkpt>
      <trkpt lat="45.286797" lon="5.619278">
        <ele>257.134958</ele>
        <time>2017-06-04T08:10:50.000Z</time>
      </trkpt>
      <trkpt lat="45.286892" lon="5.619250">
        <ele>257.173666</ele>
        <time>2017-06-04T08:10:52.000Z</time>
      </trkpt>
      <trkpt lat="45.286990" lon="5.619225">
        <ele>257.213389</ele>
        <time>2017-06-04T08:10:54.000Z</time>
      </trkpt>
      <trkpt lat="45.287090" lon="5.619204">
        <ele>257.253719</ele>
        <time>2017-06-04T08:10:56.000Z</time>
      </trkpt>
      <trkpt lat="45.287193" lon="5.619186">
        <ele>257.295122</ele>
        <time>2017-06-04T08:10:58.000Z</time>
      </trkpt>
      <trkpt lat="45.287296" lon="5.619165">
        <ele>257.336636</ele>
        <time>2017-06-04T08:11:00.000Z</time>
      </trkpt>
      <trkpt lat="45.287395" lon="5.619138">
        <ele>257.376854</ele>
        <time>2017-06-04T08:11:02.000Z</time>
      </trkpt>
      <trkpt lat="45.287490" lon="5.619112">
        <ele>257.415452</ele>
        <time>2017-06-04T08:11:04.000Z</time>
      </trkpt>
      <trkpt lat="45.287594" lon="5.619093">
        <ele>257.457286</ele>
        <time>2017-06-04T08:11:06.000Z</time>
      </trkpt>
      <trkpt lat="45.287690" lon="5.619075">
        <ele>257.495918</ele>
        <time>2017-06-04T08:11:08.000Z</time>
      </trkpt>
      <trkpt lat="45.287792" lon="5.619057">
        <ele>257.475753</ele>
        <time>2017-06-04T08:11:10.000Z</time>
      </trkpt>
      <trkpt lat="45.287884" lon="5.619031">
        <ele>257.432709</ele>
        <time>2017-06-04T08:11:12.000Z</time>
      </trkpt>
      <trkpt lat="45.287983" lon="5.619003">
        <ele>257.386388</ele>
        <time>2017-06-04T08:11:14.000Z</time>
      </trkpt>
      <trkpt lat="45.288070" lon="5.618984">
        <ele>257.345996</ele>
        <time>2017-06-04T08:11:16.000Z</time>
      </trkpt>
      <trkpt lat="45.288170" lon="5.618959">
        <ele>257.299403</ele>
        <time>2017-06-04T08:11:18.000Z</time>
      </trkpt>
      <trkpt lat="45.288265" lon="5.618942">
        <ele>257.255464</ele>
        <time>2017-06-04T08:11:20.000Z</time>
      </trkpt>
      <trkpt lat="45.288360" lon="5.618920">
        <ele>257.211294</ele>
        <time>2017-06-04T08:11:22.000Z</time>
      </trkpt>
      <trkpt lat="45.288452" lon="5.618896">
        <ele>257.168371</ele>
        <time>2017-06-04T08:11:24.000Z</time>
      </trkpt>
      <trkpt lat="45.288548" lon="5.618880">
        <ele>257.124016</ele>
        <time>2017-06-04T08:11:26.000Z</time>
      </trkpt>
      <trkpt lat="45.288643" lon="5.618852">
        <ele>257.079494</ele>
        <time>2017-06-04T08:11:28.000Z</time>
      </trkpt>
      <trkpt lat="45.288740" lon="5.618832">
        <ele>257.034516</ele>
        <time>2017-06-04T08:11:30.000Z</time>
      </trkpt>
      <trkpt lat="45.288837" lon="5.618812">
        <ele>256.989538</ele>
        <time>2017-06-04T08:11:32.000Z</time>
      </trkpt>
      <trkpt lat="45.288937" lon="5.618790">
        <ele>256.943102</ele>
        <time>2017-06-04T08:11:34.000Z</time>
      </trkpt>
      <trkpt lat="45.289043" lon="5.618773">
        <ele>256.894151</ele>
        <time>2017-06-04T08:11:36.000Z</time>
      </trkpt>
      <trkpt lat="45.289146" lon="5.618744">
        <ele>256.845967</ele>
        <time>2017-06-04T08:11:38.000Z</time>
      </trkpt>
      <trkpt lat="45.289246" lon="5.618711">
        <ele>256.798858</ele>
        <time>2017-06-04T08:11:40.000Z</time>
      </trkpt>
      <trkpt lat="45.289352" lon="5.618687">
        <ele>256.749602</ele>
        <time>2017-06-04T08:11:42.000Z</time>
      </trkpt>
      <trkpt lat="45.289463" lon="5.618651">
        <ele>256.697356</ele>
        <time>2017-06-04T08:11:44.000Z</time>
      </trkpt>
      <trkpt lat="45.289566" lon="5.618633">
        <ele>256.739581</ele>
        <time>2017-06-04T08:11:46.000Z</time>
      </trkpt>
      <trkpt lat="45.289665" lon="5.618607">
        <ele>256.817802</ele>
        <time>2017-06-04T08:11:48.000Z</time>
      </trkpt>
      <trkpt lat="45.289764" lon="5.618574">
        <ele>256.896808</ele>
        <time>2017-06-04T08:11:50.000Z</time>
      </trkpt>
      <trkpt lat="45.289867" lon="5.618558">
        <ele>256.977312</ele>
        <time>2017-06-04T08:11:52.000Z</time>
      </trkpt>
      <trkpt lat="45.289963" lon="5.618545">
        <ele>257.052238</ele>
        <time>2017-06-04T08:11:54.000Z</time>
      </trkpt>
      <trkpt lat="45.290062" lon="5.618525">
        <ele>257.129930</ele>
        <time>2017-06-04T08:11:56.000Z</time>
      </trkpt>
      <trkpt lat="45.290165" lon="5.618501">
        <ele>257.211025</ele>
        <time>2017-06-04T08:11:58.000Z</time>
      </trkpt>
      <trkpt lat="45.290264" lon="5.618467">
        <ele>257.290158</ele>
        <time>2017-06-04T08:12:00.000Z</time>
      </trkpt>
      <trkpt lat="45.290360" lon="5.618442">
        <ele>257.365988</ele>
        <time>2017-06-04T08:12:02.000Z</time>
      </trkpt>
      <trkpt lat="45.290460" lon="5.618434">
        <ele>257.443807</ele>
        <time>2017-06-04T08:12:04.000Z</time>
      </trkpt>
      <trkpt lat="45.290565" lon="5.618413">
        <ele>257.526191</ele>
        <time>2017-06-04T08:12:06.000Z</time>
      </trkpt>
      <trkpt lat="45.290665" lon="5.618392">
        <ele>257.604731</ele>
        <time>2017-06-04T08:12:08.000Z</time>
      </trkpt>
      <trkpt lat="45.290760" lon="5.618369">
        <ele>257.679605</ele>
        <time>2017-06-04T08:12:10.000Z</time>
      </trkpt>
      <trkpt lat="45.290867" lon="5.618357">
        <ele>257.762999</ele>
        <time>2017-06-04T08:12:12.000Z</time>
      </trkpt>
      <trkpt lat="45.290966" lon="5.618334">
        <ele>257.840938</ele>
        <time>2017-06-04T08:12:14.000Z</time>
      </trkpt>
      <trkpt lat="45.291080" lon="5.618323">
        <ele>257.929716</ele>
        <time>2017-06-04T08:12:16.000Z</time>
      </trkpt>
      <trkpt lat="45.291183" lon="5.618302">
        <ele>258.010562</ele>
        <time>2017-06-04T08:12:18.000Z</time>
      </trkpt>
      <trkpt lat="45.291290" lon="5.618281">
        <ele>258.114563</ele>
        <time>2017-06-04T08:12:20.000Z</time>
      </trkpt>
      <trkpt lat="45.291393" lon="5.618263">
        <ele>258.311553</ele>
        <time>2017-06-04T08:12:22.000Z</time>
      </trkpt>
      <trkpt lat="45.291492" lon="5.618249">
        <ele>258.500406</ele>
        <time>2017-06-04T08:12:24.000Z</time>
      </trkpt>
      <trkpt lat="45.291590" lon="5.618223">
        <ele>258.689645</ele>
        <time>2017-06-04T08:12:26.000Z</time>
      </trkpt>
      <trkpt lat="45.291683" lon="5.618198">
        <ele>258.869309</ele>
        <time>2017-06-04T08:12:28.000Z</time>
      </trkpt>
      <trkpt lat="45.291775" lon="5.618174">
        <ele>259.046863</ele>
        <time>2017-06-04T08:12:30.000Z</time>
      </trkpt>
      <trkpt lat="45.291878" lon="5.618156">
        <ele>259.243853</ele>
        <time>2017-06-04T08:12:32.000Z</time>
      </trkpt>
      <trkpt lat="45.291977" lon="5.618132">
        <ele>259.434491</ele>
        <time>2017-06-04T08:12:34.000Z</time>
      </trkpt>
      <trkpt lat="45.292080" lon="5.618107">
        <ele>259.632839</ele>
        <time>2017-06-04T08:12:36.000Z</time>
      </trkpt>
      <trkpt lat="45.292180" lon="5.618084">
        <ele>259.825131</ele>
        <time>2017-06-04T08:12:38.000Z</time>
      </trkpt>
      <trkpt lat="45.292286" lon="5.618063">
        <ele>260.028288</ele>
        <time>2017-06-04T08:12:40.000Z</time>
      </trkpt>
      <trkpt lat="45.292397" lon="5.618034">
        <ele>260.242522</ele>
        <time>2017-06-04T08:12:42.000Z</time>
      </trkpt>
      <trkpt lat="45.292507" lon="5.618008">
        <ele>260.454194</ele>
        <time>2017-06-04T08:12:44.000Z</time>
      </trkpt>
      <trkpt lat="45.292610" lon="5.617968">
        <ele>260.656877</ele>
        <time>2017-06-04T08:12:46.000Z</time>
      </trkpt>
      <trkpt lat="45.292717" lon="5.617925">
        <ele>260.867949</ele>
        <time>2017-06-04T08:12:48.000Z</time>
      </trkpt>
      <trkpt lat="45.292816" lon="5.617878">
        <ele>261.066077</ele>
        <time>2017-06-04T08:12:50.000Z</time>
      </trkpt>
      <trkpt lat="45.292923" lon="5.617844">
        <ele>261.274201</ele>
        <time>2017-06-04T08:12:52.000Z</time>
      </trkpt>
      <trkpt lat="45.293030" lon="5.617806">
        <ele>261.483555</ele>
        <time>2017-06-04T08:12:54.000Z</time>
      </trkpt>
      <trkpt lat="45.293140" lon="5.617789">
        <ele>261.814846</ele>
        <time>2017-06-04T08:12:56.000Z</time>
      </trkpt>
      <trkpt lat="45.293240" lon="5.617767">
        <ele>262.124103</ele>
        <time>2017-06-04T08:12:58.000Z</time>
      </trkpt>
      <trkpt lat="45.293346" lon="5.617738">
        <ele>262.454003</ele>
        <time>2017-06-04T08:13:00.000Z</time>
      </trkpt>
      <trkpt lat="45.293457" lon="5.617715">
        <ele>262.796824</ele>
        <time>2017-06-04T08:13:02.000Z</time>
      </trkpt>
      <trkpt lat="45.293556" lon="5.617678">
        <ele>263.109669</ele>
        <time>2017-06-04T08:13:04.000Z</time>
      </trkpt>
      <trkpt lat="45.293667" lon="5.617664">
        <ele>263.450238</ele>
        <time>2017-06-04T08:13:06.000Z</time>
      </trkpt>
      <trkpt lat="45.293770" lon="5.617633">
        <ele>263.772003</ele>
        <time>2017-06-04T08:13:08.000Z</time>
      </trkpt>
      <trkpt lat="45.293860" lon="5.617613">
        <ele>264.050400</ele>
        <time>2017-06-04T08:13:10.000Z</time>
      </trkpt>
      <trkpt lat="45.293995" lon="5.617571">
        <ele>264.472750</ele>
        <time>2017-06-04T08:13:13.000Z</time>
      </trkpt>
      <trkpt lat="45.294090" lon="5.617564">
        <ele>264.763477</ele>
        <time>2017-06-04T08:13:15.000Z</time>
      </trkpt>
      <trkpt lat="45.294193" lon="5.617561">
        <ele>265.078330</ele>
        <time>2017-06-04T08:13:17.000Z</time>
      </trkpt>
      <trkpt lat="45.294290" lon="5.617532">
        <ele>265.381265</ele>
        <time>2017-06-04T08:13:19.000Z</time>
      </trkpt>
      <trkpt lat="45.294407" lon="5.617506">
        <ele>265.743181</ele>
        <time>2017-06-04T08:13:22.000Z</time>
      </trkpt>
      <trkpt lat="45.294510" lon="5.617493">
        <ele>266.059206</ele>
        <time>2017-06-04T08:13:24.000Z</time>
      </trkpt>
      <trkpt lat="45.294600" lon="5.617468">
        <ele>266.339464</ele>
        <time>2017-06-04T08:13:26.000Z</time>
      </trkpt>
      <trkpt lat="45.294740" lon="5.617462">
        <ele>266.767524</ele>
        <time>2017-06-04T08:13:29.000Z</time>
      </trkpt>
      <trkpt lat="45.294865" lon="5.617431">
        <ele>266.922829</ele>
        <time>2017-06-04T08:13:32.000Z</time>
      </trkpt>
      <trkpt lat="45.294960" lon="5.617395">
        <ele>266.796097</ele>
        <time>2017-06-04T08:13:34.000Z</time>
      </trkpt>
      <trkpt lat="45.295050" lon="5.617377">
        <ele>266.678944</ele>
        <time>2017-06-04T08:13:36.000Z</time>
      </trkpt>
      <trkpt lat="45.295143" lon="5.617353">
        <ele>266.557107</ele>
        <time>2017-06-04T08:13:38.000Z</time>
      </trkpt>
      <trkpt lat="45.295254" lon="5.617328">
        <ele>266.412242</ele>
        <time>2017-06-04T08:13:40.000Z</time>
      </trkpt>
      <trkpt lat="45.295350" lon="5.617300">
        <ele>266.285920</ele>
        <time>2017-06-04T08:13:42.000Z</time>
      </trkpt>
      <trkpt lat="45.295440" lon="5.617267">
        <ele>266.166113</ele>
        <time>2017-06-04T08:13:44.000Z</time>
      </trkpt>
      <trkpt lat="45.295567" lon="5.617224">
        <ele>265.997830</ele>
        <time>2017-06-04T08:13:47.000Z</time>
      </trkpt>
      <trkpt lat="45.295670" lon="5.617232">
        <ele>265.864864</ele>
        <time>2017-06-04T08:13:49.000Z</time>
      </trkpt>
      <trkpt lat="45.295803" lon="5.617203">
        <ele>265.691421</ele>
        <time>2017-06-04T08:13:52.000Z</time>
      </trkpt>
      <trkpt lat="45.295900" lon="5.617178">
        <ele>265.564350</ele>
        <time>2017-06-04T08:13:54.000Z</time>
      </trkpt>
      <trkpt lat="45.296030" lon="5.617144">
        <ele>265.393966</ele>
        <time>2017-06-04T08:13:57.000Z</time>
      </trkpt>
      <trkpt lat="45.296154" lon="5.617083">
        <ele>265.224830</ele>
        <time>2017-06-04T08:14:00.000Z</time>
      </trkpt>
      <trkpt lat="45.296240" lon="5.617019">
        <ele>265.099705</ele>
        <time>2017-06-04T08:14:02.000Z</time>
      </trkpt>
      <trkpt lat="45.296350" lon="5.616923">
        <ele>264.933326</ele>
        <time>2017-06-04T08:14:05.000Z</time>
      </trkpt>
      <trkpt lat="45.296455" lon="5.616842">
        <ele>264.779337</ele>
        <time>2017-06-04T08:14:08.000Z</time>
      </trkpt>
      <trkpt lat="45.296560" lon="5.616752">
        <ele>264.649876</ele>
        <time>2017-06-04T08:14:11.000Z</time>
      </trkpt>
      <trkpt lat="45.296627" lon="5.616671">
        <ele>264.598771</ele>
        <time>2017-06-04T08:14:13.000Z</time>
      </trkpt>
      <trkpt lat="45.296738" lon="5.616575">
        <ele>264.523277</ele>
        <time>2017-06-04T08:14:16.000Z</time>
      </trkpt>
      <trkpt lat="45.296820" lon="5.616495">
        <ele>264.465490</ele>
        <time>2017-06-04T08:14:18.000Z</time>
      </trkpt>
      <trkpt lat="45.296898" lon="5.616418">
        <ele>264.410312</ele>
        <time>2017-06-04T08:14:20.000Z</time>
      </trkpt>
      <trkpt lat="45.297010" lon="5.616351">
        <ele>264.339707</ele>
        <time>2017-06-04T08:14:23.000Z</time>
      </trkpt>
      <trkpt lat="45.297085" lon="5.616286">
        <ele>264.288669</ele>
        <time>2017-06-04T08:14:25.000Z</time>
      </trkpt>
      <trkpt lat="45.297165" lon="5.616219">
        <ele>264.234718</ele>
        <time>2017-06-04T08:14:27.000Z</time>
      </trkpt>
      <trkpt lat="45.297250" lon="5.616151">
        <ele>264.178045</ele>
        <time>2017-06-04T08:14:29.000Z</time>
      </trkpt>
      <trkpt lat="45.297325" lon="5.616074">
        <ele>264.124291</ele>
        <time>2017-06-04T08:14:31.000Z</time>
      </trkpt>
      <trkpt lat="45.297436" lon="5.615977">
        <ele>264.048583</ele>
        <time>2017-06-04T08:14:34.000Z</time>
      </trkpt>
      <trkpt lat="45.297530" lon="5.615921">
        <ele>263.989362</ele>
        <time>2017-06-04T08:14:38.000Z</time>
      </trkpt>
      <trkpt lat="45.297615" lon="5.615875">
        <ele>263.936515</ele>
        <time>2017-06-04T08:14:59.000Z</time>
      </trkpt>
      <trkpt lat="45.297690" lon="5.615792">
        <ele>263.881289</ele>
        <time>2017-06-04T08:15:27.000Z</time>
      </trkpt>
      <trkpt lat="45.297760" lon="5.615706">
        <ele>263.827532</ele>
        <time>2017-06-04T08:15:37.000Z</time>
      </trkpt>
      <trkpt lat="45.297874" lon="5.615577">
        <ele>263.742870</ele>
        <time>2017-06-04T08:15:42.000Z</time>
      </trkpt>
      <trkpt lat="45.297960" lon="5.615496">
        <ele>263.682927</ele>
        <time>2017-06-04T08:15:45.000Z</time>
      </trkpt>
      <trkpt lat="45.298080" lon="5.615365">
        <ele>263.361393</ele>
        <time>2017-06-04T08:15:49.000Z</time>
      </trkpt>
      <trkpt lat="45.298180" lon="5.615249">
        <ele>262.758973</ele>
        <time>2017-06-04T08:15:52.000Z</time>
      </trkpt>
      <trkpt lat="45.298252" lon="5.615170">
        <ele>262.334458</ele>
        <time>2017-06-04T08:15:54.000Z</time>
      </trkpt>
      <trkpt lat="45.298363" lon="5.615051">
        <ele>261.685556</ele>
        <time>2017-06-04T08:15:57.000Z</time>
      </trkpt>
      <trkpt lat="45.298440" lon="5.614965">
        <ele>261.228507</ele>
        <time>2017-06-04T08:15:59.000Z</time>
      </trkpt>
      <trkpt lat="45.298510" lon="5.614874">
        <ele>260.785770</ele>
        <time>2017-06-04T08:16:01.000Z</time>
      </trkpt>
      <trkpt lat="45.298622" lon="5.614778">
        <ele>260.175339</ele>
        <time>2017-06-04T08:16:04.000Z</time>
      </trkpt>
      <trkpt lat="45.298725" lon="5.614674">
        <ele>259.585664</ele>
        <time>2017-06-04T08:16:07.000Z</time>
      </trkpt>
      <trkpt lat="45.298836" lon="5.614558">
        <ele>258.942647</ele>
        <time>2017-06-04T08:16:10.000Z</time>
      </trkpt>
      <trkpt lat="45.298910" lon="5.614486">
        <ele>258.524102</ele>
        <time>2017-06-04T08:16:12.000Z</time>
      </trkpt>
      <trkpt lat="45.299015" lon="5.614374">
        <ele>257.911399</ele>
        <time>2017-06-04T08:16:15.000Z</time>
      </trkpt>
      <trkpt lat="45.299088" lon="5.614295">
        <ele>257.483181</ele>
        <time>2017-06-04T08:16:17.000Z</time>
      </trkpt>
      <trkpt lat="45.299164" lon="5.614218">
        <ele>257.047583</ele>
        <time>2017-06-04T08:16:19.000Z</time>
      </trkpt>
      <trkpt lat="45.299270" lon="5.614115">
        <ele>256.448298</ele>
        <time>2017-06-04T08:16:22.000Z</time>
      </trkpt>
      <trkpt lat="45.299380" lon="5.614008">
        <ele>255.826188</ele>
        <time>2017-06-04T08:16:25.000Z</time>
      </trkpt>
      <trkpt lat="45.299460" lon="5.613928">
        <ele>255.369662</ele>
        <time>2017-06-04T08:16:27.000Z</time>
      </trkpt>
      <trkpt lat="45.299526" lon="5.613817">
        <ele>255.243662</ele>
        <time>2017-06-04T08:16:29.000Z</time>
      </trkpt>
      <trkpt lat="45.299595" lon="5.613708">
        <ele>255.258741</ele>
        <time>2017-06-04T08:16:31.000Z</time>
      </trkpt>
      <trkpt lat="45.299660" lon="5.613596">
        <ele>255.273673</ele>
        <time>2017-06-04T08:16:33.000Z</time>
      </trkpt>
      <trkpt lat="45.299732" lon="5.613487">
        <ele>255.289049</ele>
        <time>2017-06-04T08:16:35.000Z</time>
      </trkpt>
      <trkpt lat="45.299810" lon="5.613380">
        <ele>255.304896</ele>
        <time>2017-06-04T08:16:37.000Z</time>
      </trkpt>
      <trkpt lat="45.299877" lon="5.613263">
        <ele>255.320410</ele>
        <time>2017-06-04T08:16:39.000Z</time>
      </trkpt>
      <trkpt lat="45.299946" lon="5.613146">
        <ele>255.336111</ele>
        <time>2017-06-04T08:16:41.000Z</time>
      </trkpt>
      <trkpt lat="45.300000" lon="5.613028">
        <ele>255.350587</ele>
        <time>2017-06-04T08:16:43.000Z</time>
      </trkpt>
      <trkpt lat="45.300060" lon="5.612902">
        <ele>255.366234</ele>
        <time>2017-06-04T08:16:45.000Z</time>
      </trkpt>
      <trkpt lat="45.300114" lon="5.612776">
        <ele>255.381407</ele>
        <time>2017-06-04T08:16:47.000Z</time>
      </trkpt>
      <trkpt lat="45.300167" lon="5.612656">
        <ele>255.395978</ele>
        <time>2017-06-04T08:16:49.000Z</time>
      </trkpt>
      <trkpt lat="45.300220" lon="5.612536">
        <ele>255.410549</ele>
        <time>2017-06-04T08:16:51.000Z</time>
      </trkpt>
      <trkpt lat="45.300280" lon="5.612404">
        <ele>255.426710</ele>
        <time>2017-06-04T08:16:53.000Z</time>
      </trkpt>
      <trkpt lat="45.300346" lon="5.612287">
        <ele>255.442133</ele>
        <time>2017-06-04T08:16:55.000Z</time>
      </trkpt>
      <trkpt lat="45.300404" lon="5.612151">
        <ele>255.458488</ele>
        <time>2017-06-04T08:16:57.000Z</time>
      </trkpt>
      <trkpt lat="45.300450" lon="5.612008">
        <ele>255.474657</ele>
        <time>2017-06-04T08:16:59.000Z</time>
      </trkpt>
      <trkpt lat="45.300490" lon="5.611872">
        <ele>255.489816</ele>
        <time>2017-06-04T08:17:01.000Z</time>
      </trkpt>
      <trkpt lat="45.300550" lon="5.611753">
        <ele>255.501991</ele>
        <time>2017-06-04T08:17:03.000Z</time>
      </trkpt>
      <trkpt lat="45.300594" lon="5.611635">
        <ele>255.511291</ele>
        <time>2017-06-04T08:17:05.000Z</time>
      </trkpt>
      <trkpt lat="45.300648" lon="5.611513">
        <ele>255.521328</ele>
        <time>2017-06-04T08:17:07.000Z</time>
      </trkpt>
      <trkpt lat="45.300713" lon="5.611378">
        <ele>255.532720</ele>
        <time>2017-06-04T08:17:09.000Z</time>
      </trkpt>
      <trkpt lat="45.300774" lon="5.611238">
        <ele>255.544187</ele>
        <time>2017-06-04T08:17:11.000Z</time>
      </trkpt>
      <trkpt lat="45.300823" lon="5.611102">
        <ele>255.554827</ele>
        <time>2017-06-04T08:17:13.000Z</time>
      </trkpt>
      <trkpt lat="45.300877" lon="5.610972">
        <ele>255.565340</ele>
        <time>2017-06-04T08:17:15.000Z</time>
      </trkpt>
      <trkpt lat="45.300934" lon="5.610854">
        <ele>255.575308</ele>
        <time>2017-06-04T08:17:17.000Z</time>
      </trkpt>
      <trkpt lat="45.300983" lon="5.610724">
        <ele>255.585578</ele>
        <time>2017-06-04T08:17:19.000Z</time>
      </trkpt>
      <trkpt lat="45.301037" lon="5.610616">
        <ele>255.594804</ele>
        <time>2017-06-04T08:17:21.000Z</time>
      </trkpt>
      <trkpt lat="45.301094" lon="5.610514">
        <ele>255.603875</ele>
        <time>2017-06-04T08:17:23.000Z</time>
      </trkpt>
      <trkpt lat="45.301140" lon="5.610372">
        <ele>255.614761</ele>
        <time>2017-06-04T08:17:26.000Z</time>
      </trkpt>
      <trkpt lat="45.301197" lon="5.610234">
        <ele>255.625905</ele>
        <time>2017-06-04T08:17:30.000Z</time>
      </trkpt>
      <trkpt lat="45.301247" lon="5.610095">
        <ele>255.636776</ele>
        <time>2017-06-04T08:17:34.000Z</time>
      </trkpt>
      <trkpt lat="45.301292" lon="5.609963">
        <ele>255.646990</ele>
        <time>2017-06-04T08:17:37.000Z</time>
      </trkpt>
      <trkpt lat="45.301334" lon="5.609822">
        <ele>255.657652</ele>
        <time>2017-06-04T08:17:40.000Z</time>
      </trkpt>
      <trkpt lat="45.301390" lon="5.609678">
        <ele>255.669109</ele>
        <time>2017-06-04T08:17:43.000Z</time>
      </trkpt>
      <trkpt lat="45.301453" lon="5.609547">
        <ele>255.678715</ele>
        <time>2017-06-04T08:17:46.000Z</time>
      </trkpt>
      <trkpt lat="45.301517" lon="5.609408">
        <ele>255.687567</ele>
        <time>2017-06-04T08:17:49.000Z</time>
      </trkpt>
      <trkpt lat="45.301580" lon="5.609258">
        <ele>255.696876</ele>
        <time>2017-06-04T08:17:52.000Z</time>
      </trkpt>
      <trkpt lat="45.301643" lon="5.609090">
        <ele>255.707020</ele>
        <time>2017-06-04T08:17:55.000Z</time>
      </trkpt>
      <trkpt lat="45.301690" lon="5.608979">
        <ele>255.713923</ele>
        <time>2017-06-04T08:17:57.000Z</time>
      </trkpt>
      <trkpt lat="45.301754" lon="5.608808">
        <ele>255.724244</ele>
        <time>2017-06-04T08:18:00.000Z</time>
      </trkpt>
      <trkpt lat="45.301807" lon="5.608696">
        <ele>255.731437</ele>
        <time>2017-06-04T08:18:02.000Z</time>
      </trkpt>
      <trkpt lat="45.301850" lon="5.608578">
        <ele>255.738518</ele>
        <time>2017-06-04T08:18:04.000Z</time>
      </trkpt>
      <trkpt lat="45.301890" lon="5.608465">
        <ele>255.745258</ele>
        <time>2017-06-04T08:18:06.000Z</time>
      </trkpt>
      <trkpt lat="45.301950" lon="5.608341">
        <ele>255.753278</ele>
        <time>2017-06-04T08:18:08.000Z</time>
      </trkpt>
      <trkpt lat="45.302006" lon="5.608229">
        <ele>255.760599</ele>
        <time>2017-06-04T08:18:10.000Z</time>
      </trkpt>
      <trkpt lat="45.302048" lon="5.608114">
        <ele>255.767504</ele>
        <time>2017-06-04T08:18:12.000Z</time>
      </trkpt>
      <trkpt lat="45.302097" lon="5.607989">
        <ele>255.775128</ele>
        <time>2017-06-04T08:18:14.000Z</time>
      </trkpt>
      <trkpt lat="45.302140" lon="5.607870">
        <ele>255.782257</ele>
        <time>2017-06-04T08:18:16.000Z</time>
      </trkpt>
      <trkpt lat="45.302174" lon="5.607751">
        <ele>255.789101</ele>
        <time>2017-06-04T08:18:18.000Z</time>
      </trkpt>
      <trkpt lat="45.302240" lon="5.607579">
        <ele>255.799540</ele>
        <time>2017-06-04T08:18:21.000Z</time>
      </trkpt>
      <trkpt lat="45.302284" lon="5.607455">
        <ele>255.806940</ele>
        <time>2017-06-04T08:18:23.000Z</time>
      </trkpt>
      <trkpt lat="45.302340" lon="5.607336">
        <ele>255.817800</ele>
        <time>2017-06-04T08:18:25.000Z</time>
      </trkpt>
      <trkpt lat="45.302380" lon="5.607198">
        <ele>255.831714</ele>
        <time>2017-06-04T08:18:27.000Z</time>
      </trkpt>
      <trkpt lat="45.302420" lon="5.607071">
        <ele>255.844687</ele>
        <time>2017-06-04T08:18:29.000Z</time>
      </trkpt>
      <trkpt lat="45.302464" lon="5.606931">
        <ele>255.858982</ele>
        <time>2017-06-04T08:18:31.000Z</time>
      </trkpt>
      <trkpt lat="45.302510" lon="5.606805">
        <ele>255.872216</ele>
        <time>2017-06-04T08:18:33.000Z</time>
      </trkpt>
      <trkpt lat="45.302550" lon="5.606684">
        <ele>255.884680</ele>
        <time>2017-06-04T08:18:35.000Z</time>
      </trkpt>
      <trkpt lat="45.302590" lon="5.606560">
        <ele>255.897398</ele>
        <time>2017-06-04T08:18:37.000Z</time>
      </trkpt>
      <trkpt lat="45.302630" lon="5.606431">
        <ele>255.910540</ele>
        <time>2017-06-04T08:18:39.000Z</time>
      </trkpt>
      <trkpt lat="45.302658" lon="5.606286">
        <ele>255.924558</ele>
        <time>2017-06-04T08:18:41.000Z</time>
      </trkpt>
      <trkpt lat="45.302696" lon="5.606097">
        <ele>255.942883</ele>
        <time>2017-06-04T08:18:44.000Z</time>
      </trkpt>
      <trkpt lat="45.302730" lon="5.605962">
        <ele>255.956251</ele>
        <time>2017-06-04T08:18:46.000Z</time>
      </trkpt>
      <trkpt lat="45.302757" lon="5.605830">
        <ele>255.969066</ele>
        <time>2017-06-04T08:18:48.000Z</time>
      </trkpt>
      <trkpt lat="45.302776" lon="5.605696">
        <ele>255.981810</ele>
        <time>2017-06-04T08:18:50.000Z</time>
      </trkpt>
      <trkpt lat="45.302790" lon="5.605564">
        <ele>255.994254</ele>
        <time>2017-06-04T08:18:52.000Z</time>
      </trkpt>
      <trkpt lat="45.302807" lon="5.605419">
        <ele>256.007958</ele>
        <time>2017-06-04T08:18:54.000Z</time>
      </trkpt>
      <trkpt lat="45.302820" lon="5.605291">
        <ele>256.020015</ele>
        <time>2017-06-04T08:18:56.000Z</time>
      </trkpt>
      <trkpt lat="45.302834" lon="5.605151">
        <ele>256.033197</ele>
        <time>2017-06-04T08:18:58.000Z</time>
      </trkpt>
      <trkpt lat="45.302845" lon="5.605000">
        <ele>256.047349</ele>
        <time>2017-06-04T08:19:00.000Z</time>
      </trkpt>
      <trkpt lat="45.302864" lon="5.604847">
        <ele>256.113487</ele>
        <time>2017-06-04T08:19:02.000Z</time>
      </trkpt>
      <trkpt lat="45.302890" lon="5.604710">
        <ele>256.178560</ele>
        <time>2017-06-04T08:19:04.000Z</time>
      </trkpt>
      <trkpt lat="45.302914" lon="5.604557">
        <ele>256.250447</ele>
        <time>2017-06-04T08:19:06.000Z</time>
      </trkpt>
      <trkpt lat="45.302944" lon="5.604409">
        <ele>256.321079</ele>
        <time>2017-06-04T08:19:08.000Z</time>
      </trkpt>
      <trkpt lat="45.302963" lon="5.604256">
        <ele>256.392328</ele>
        <time>2017-06-04T08:19:10.000Z</time>
      </trkpt>
      <trkpt lat="45.302975" lon="5.604116">
        <ele>256.457004</ele>
        <time>2017-06-04T08:19:12.000Z</time>
      </trkpt>
      <trkpt lat="45.302986" lon="5.603952">
        <ele>256.532553</ele>
        <time>2017-06-04T08:19:14.000Z</time>
      </trkpt>
      <trkpt lat="45.303010" lon="5.603780">
        <ele>256.612967</ele>
        <time>2017-06-04T08:19:16.000Z</time>
      </trkpt>
      <trkpt lat="45.303020" lon="5.603621">
        <ele>256.686172</ele>
        <time>2017-06-04T08:19:18.000Z</time>
      </trkpt>
      <trkpt lat="45.303032" lon="5.603460">
        <ele>256.760417</ele>
        <time>2017-06-04T08:19:20.000Z</time>
      </trkpt>
      <trkpt lat="45.303060" lon="5.603301">
        <ele>256.835583</ele>
        <time>2017-06-04T08:19:22.000Z</time>
      </trkpt>
      <trkpt lat="45.303080" lon="5.603149">
        <ele>256.906496</ele>
        <time>2017-06-04T08:19:24.000Z</time>
      </trkpt>
      <trkpt lat="45.303085" lon="5.602997">
        <ele>256.976277</ele>
        <time>2017-06-04T08:19:26.000Z</time>
      </trkpt>
      <trkpt lat="45.303100" lon="5.602865">
        <ele>257.037595</ele>
        <time>2017-06-04T08:19:28.000Z</time>
      </trkpt>
      <trkpt lat="45.303100" lon="5.602705">
        <ele>257.110968</ele>
        <time>2017-06-04T08:19:30.000Z</time>
      </trkpt>
      <trkpt lat="45.303116" lon="5.602567">
        <ele>257.175106</ele>
        <time>2017-06-04T08:19:32.000Z</time>
      </trkpt>
      <trkpt lat="45.303123" lon="5.602419">
        <ele>257.197229</ele>
        <time>2017-06-04T08:19:34.000Z</time>
      </trkpt>
      <trkpt lat="45.303140" lon="5.602264">
        <ele>257.117535</ele>
        <time>2017-06-04T08:19:36.000Z</time>
      </trkpt>
      <trkpt lat="45.303140" lon="5.602096">
        <ele>257.032189</ele>
        <time>2017-06-04T08:19:38.000Z</time>
      </trkpt>
      <trkpt lat="45.303146" lon="5.601917">
        <ele>256.941152</ele>
        <time>2017-06-04T08:19:40.000Z</time>
      </trkpt>
      <trkpt lat="45.303150" lon="5.601749">
        <ele>256.855757</ele>
        <time>2017-06-04T08:19:42.000Z</time>
      </trkpt>
      <trkpt lat="45.303173" lon="5.601582">
        <ele>256.769308</ele>
        <time>2017-06-04T08:19:44.000Z</time>
      </trkpt>
      <trkpt lat="45.303177" lon="5.601410">
        <ele>256.681882</ele>
        <time>2017-06-04T08:19:46.000Z</time>
      </trkpt>
      <trkpt lat="45.303190" lon="5.601231">
        <ele>256.590465</ele>
        <time>2017-06-04T08:19:48.000Z</time>
      </trkpt>
      <trkpt lat="45.303200" lon="5.601045">
        <ele>256.495699</ele>
        <time>2017-06-04T08:19:50.000Z</time>
      </trkpt>
      <trkpt lat="45.303200" lon="5.600865">
        <ele>256.404257</ele>
        <time>2017-06-04T08:19:52.000Z</time>
      </trkpt>
      <trkpt lat="45.303200" lon="5.600677">
        <ele>256.308751</ele>
        <time>2017-06-04T08:19:54.000Z</time>
      </trkpt>
      <trkpt lat="45.303190" lon="5.600504">
        <ele>256.220568</ele>
        <time>2017-06-04T08:19:56.000Z</time>
      </trkpt>
      <trkpt lat="45.303185" lon="5.600334">
        <ele>256.134131</ele>
        <time>2017-06-04T08:19:58.000Z</time>
      </trkpt>
      <trkpt lat="45.303180" lon="5.600128">
        <ele>256.029418</ele>
        <time>2017-06-04T08:20:00.000Z</time>
      </trkpt>
      <trkpt lat="45.303190" lon="5.599924">
        <ele>255.925532</ele>
        <time>2017-06-04T08:20:02.000Z</time>
      </trkpt>
      <trkpt lat="45.303192" lon="5.599765">
        <ele>255.736920</ele>
        <time>2017-06-04T08:20:04.000Z</time>
      </trkpt>
      <trkpt lat="45.303207" lon="5.599594">
        <ele>255.527584</ele>
        <time>2017-06-04T08:20:07.000Z</time>
      </trkpt>
      <trkpt lat="45.303240" lon="5.599447">
        <ele>255.340137</ele>
        <time>2017-06-04T08:20:10.000Z</time>
      </trkpt>
      <trkpt lat="45.303280" lon="5.599277">
        <ele>255.122376</ele>
        <time>2017-06-04T08:20:14.000Z</time>
      </trkpt>
      <trkpt lat="45.303270" lon="5.599093">
        <ele>254.898191</ele>
        <time>2017-06-04T08:20:17.000Z</time>
      </trkpt>
      <trkpt lat="45.303272" lon="5.598959">
        <ele>254.735374</ele>
        <time>2017-06-04T08:20:19.000Z</time>
      </trkpt>
      <trkpt lat="45.303295" lon="5.598774">
        <ele>254.507157</ele>
        <time>2017-06-04T08:20:22.000Z</time>
      </trkpt>
      <trkpt lat="45.303310" lon="5.598640">
        <ele>254.342329</ele>
        <time>2017-06-04T08:20:24.000Z</time>
      </trkpt>
      <trkpt lat="45.303330" lon="5.598494">
        <ele>254.161639</ele>
        <time>2017-06-04T08:20:26.000Z</time>
      </trkpt>
      <trkpt lat="45.303333" lon="5.598360">
        <ele>253.998777</ele>
        <time>2017-06-04T08:20:28.000Z</time>
      </trkpt>
      <trkpt lat="45.303330" lon="5.598207">
        <ele>253.812844</ele>
        <time>2017-06-04T08:20:30.000Z</time>
      </trkpt>
      <trkpt lat="45.303333" lon="5.598052">
        <ele>253.624483</ele>
        <time>2017-06-04T08:20:32.000Z</time>
      </trkpt>
      <trkpt lat="45.303337" lon="5.597907">
        <ele>253.448205</ele>
        <time>2017-06-04T08:20:34.000Z</time>
      </trkpt>
      <trkpt lat="45.303340" lon="5.597765">
        <ele>253.275629</ele>
        <time>2017-06-04T08:20:36.000Z</time>
      </trkpt>
      <trkpt lat="45.303337" lon="5.597621">
        <ele>253.100625</ele>
        <time>2017-06-04T08:20:38.000Z</time>
      </trkpt>
      <trkpt lat="45.303320" lon="5.597463">
        <ele>252.906458</ele>
        <time>2017-06-04T08:20:40.000Z</time>
      </trkpt>
      <trkpt lat="45.303310" lon="5.597306">
        <ele>252.804914</ele>
        <time>2017-06-04T08:20:42.000Z</time>
      </trkpt>
      <trkpt lat="45.303295" lon="5.597158">
        <ele>252.785338</ele>
        <time>2017-06-04T08:20:44.000Z</time>
      </trkpt>
      <trkpt lat="45.303280" lon="5.597017">
        <ele>252.766668</ele>
        <time>2017-06-04T08:20:46.000Z</time>
      </trkpt>
      <trkpt lat="45.303257" lon="5.596877">
        <ele>252.747846</ele>
        <time>2017-06-04T08:20:48.000Z</time>
      </trkpt>
      <trkpt lat="45.303230" lon="5.596732">
        <ele>252.728209</ele>
        <time>2017-06-04T08:20:50.000Z</time>
      </trkpt>
      <trkpt lat="45.303220" lon="5.596591">
        <ele>252.709656</ele>
        <time>2017-06-04T08:20:52.000Z</time>
      </trkpt>
      <trkpt lat="45.303200" lon="5.596447">
        <ele>252.690439</ele>
        <time>2017-06-04T08:20:54.000Z</time>
      </trkpt>
      <trkpt lat="45.303190" lon="5.596289">
        <ele>252.669671</ele>
        <time>2017-06-04T08:20:56.000Z</time>
      </trkpt>
      <trkpt lat="45.303180" lon="5.596145">
        <ele>252.650726</ele>
        <time>2017-06-04T08:20:58.000Z</time>
      </trkpt>
      <trkpt lat="45.303165" lon="5.596001">
        <ele>252.631669</ele>
        <time>2017-06-04T08:21:00.000Z</time>
      </trkpt>
      <trkpt lat="45.303146" lon="5.595871">
        <ele>252.614285</ele>
        <time>2017-06-04T08:21:02.000Z</time>
      </trkpt>
      <trkpt lat="45.303130" lon="5.595733">
        <ele>252.595975</ele>
        <time>2017-06-04T08:21:04.000Z</time>
      </trkpt>
      <trkpt lat="45.303143" lon="5.595579">
        <ele>252.575669</ele>
        <time>2017-06-04T08:21:06.000Z</time>
      </trkpt>
      <trkpt lat="45.303146" lon="5.595450">
        <ele>252.558771</ele>
        <time>2017-06-04T08:21:08.000Z</time>
      </trkpt>
      <trkpt lat="45.303146" lon="5.595306">
        <ele>252.539918</ele>
        <time>2017-06-04T08:21:10.000Z</time>
      </trkpt>
      <trkpt lat="45.303140" lon="5.595169">
        <ele>252.521948</ele>
        <time>2017-06-04T08:21:12.000Z</time>
      </trkpt>
      <trkpt lat="45.303127" lon="5.595036">
        <ele>252.504368</ele>
        <time>2017-06-04T08:21:14.000Z</time>
      </trkpt>
      <trkpt lat="45.303130" lon="5.594873">
        <ele>252.483021</ele>
        <time>2017-06-04T08:21:16.000Z</time>
      </trkpt>
      <trkpt lat="45.303127" lon="5.594676">
        <ele>252.676716</ele>
        <time>2017-06-04T08:21:19.000Z</time>
      </trkpt>
      <trkpt lat="45.303140" lon="5.594507">
        <ele>252.860026</ele>
        <time>2017-06-04T08:21:21.000Z</time>
      </trkpt>
      <trkpt lat="45.303146" lon="5.594348">
        <ele>253.031713</ele>
        <time>2017-06-04T08:21:23.000Z</time>
      </trkpt>
      <trkpt lat="45.303154" lon="5.594185">
        <ele>253.207895</ele>
        <time>2017-06-04T08:21:25.000Z</time>
      </trkpt>
      <trkpt lat="45.303170" lon="5.594052">
        <ele>253.353384</ele>
        <time>2017-06-04T08:21:27.000Z</time>
      </trkpt>
      <trkpt lat="45.303177" lon="5.593899">
        <ele>253.518704</ele>
        <time>2017-06-04T08:21:29.000Z</time>
      </trkpt>
      <trkpt lat="45.303173" lon="5.593742">
        <ele>253.688099</ele>
        <time>2017-06-04T08:21:31.000Z</time>
      </trkpt>
      <trkpt lat="45.303154" lon="5.593590">
        <ele>253.854561</ele>
        <time>2017-06-04T08:21:33.000Z</time>
      </trkpt>
      <trkpt lat="45.303135" lon="5.593428">
        <ele>254.031648</ele>
        <time>2017-06-04T08:21:35.000Z</time>
      </trkpt>
      <trkpt lat="45.303120" lon="5.593264">
        <ele>254.209970</ele>
        <time>2017-06-04T08:21:37.000Z</time>
      </trkpt>
      <trkpt lat="45.303097" lon="5.593113">
        <ele>254.376559</ele>
        <time>2017-06-04T08:21:39.000Z</time>
      </trkpt>
      <trkpt lat="45.303080" lon="5.592941">
        <ele>254.563839</ele>
        <time>2017-06-04T08:21:41.000Z</time>
      </trkpt>
      <trkpt lat="45.303050" lon="5.592789">
        <ele>254.734063</ele>
        <time>2017-06-04T08:21:43.000Z</time>
      </trkpt>
      <trkpt lat="45.303013" lon="5.592646">
        <ele>254.898355</ele>
        <time>2017-06-04T08:21:45.000Z</time>
      </trkpt>
      <trkpt lat="45.302986" lon="5.592501">
        <ele>255.060087</ele>
        <time>2017-06-04T08:21:47.000Z</time>
      </trkpt>
      <trkpt lat="45.302956" lon="5.592344">
        <ele>255.235508</ele>
        <time>2017-06-04T08:21:49.000Z</time>
      </trkpt>
      <trkpt lat="45.302914" lon="5.592197">
        <ele>255.126005</ele>
        <time>2017-06-04T08:21:51.000Z</time>
      </trkpt>
      <trkpt lat="45.302880" lon="5.592042">
        <ele>255.009167</ele>
        <time>2017-06-04T08:21:53.000Z</time>
      </trkpt>
      <trkpt lat="45.302834" lon="5.591895">
        <ele>254.893386</ele>
        <time>2017-06-04T08:21:55.000Z</time>
      </trkpt>
      <trkpt lat="45.302807" lon="5.591735">
        <ele>254.774980</ele>
        <time>2017-06-04T08:21:57.000Z</time>
      </trkpt>
      <trkpt lat="45.302773" lon="5.591586">
        <ele>254.662256</ele>
        <time>2017-06-04T08:21:59.000Z</time>
      </trkpt>
      <trkpt lat="45.302757" lon="5.591433">
        <ele>254.550944</ele>
        <time>2017-06-04T08:22:01.000Z</time>
      </trkpt>
      <trkpt lat="45.302734" lon="5.591277">
        <ele>254.436244</ele>
        <time>2017-06-04T08:22:03.000Z</time>
      </trkpt>
      <trkpt lat="45.302690" lon="5.591124">
        <ele>254.317295</ele>
        <time>2017-06-04T08:22:05.000Z</time>
      </trkpt>
      <trkpt lat="45.302654" lon="5.590972">
        <ele>254.201879</ele>
        <time>2017-06-04T08:22:07.000Z</time>
      </trkpt>
      <trkpt lat="45.302620" lon="5.590813">
        <ele>254.082289</ele>
        <time>2017-06-04T08:22:09.000Z</time>
      </trkpt>
      <trkpt lat="45.302586" lon="5.590659">
        <ele>253.966136</ele>
        <time>2017-06-04T08:22:11.000Z</time>
      </trkpt>
      <trkpt lat="45.302547" lon="5.590512">
        <ele>253.853077</ele>
        <time>2017-06-04T08:22:13.000Z</time>
      </trkpt>
      <trkpt lat="45.302513" lon="5.590350">
        <ele>253.731419</ele>
        <time>2017-06-04T08:22:15.000Z</time>
      </trkpt>
      <trkpt lat="45.302467" lon="5.590188">
        <ele>253.605700</ele>
        <time>2017-06-04T08:22:17.000Z</time>
      </trkpt>
      <trkpt lat="45.302410" lon="5.590038">
        <ele>253.483010</ele>
        <time>2017-06-04T08:22:19.000Z</time>
      </trkpt>
      <trkpt lat="45.302357" lon="5.589891">
        <ele>253.290269</ele>
        <time>2017-06-04T08:22:21.000Z</time>
      </trkpt>
      <trkpt lat="45.302300" lon="5.589760">
        <ele>252.938304</ele>
        <time>2017-06-04T08:22:23.000Z</time>
      </trkpt>
      <trkpt lat="45.302258" lon="5.589611">
        <ele>252.571532</ele>
        <time>2017-06-04T08:22:25.000Z</time>
      </trkpt>
      <trkpt lat="45.302210" lon="5.589463">
        <ele>252.199148</ele>
        <time>2017-06-04T08:22:27.000Z</time>
      </trkpt>
      <trkpt lat="45.302160" lon="5.589324">
        <ele>251.842423</ele>
        <time>2017-06-04T08:22:29.000Z</time>
      </trkpt>
      <trkpt lat="45.302105" lon="5.589187">
        <ele>251.481990</ele>
        <time>2017-06-04T08:22:31.000Z</time>
      </trkpt>
      <trkpt lat="45.302048" lon="5.589059">
        <ele>251.135834</ele>
        <time>2017-06-04T08:22:33.000Z</time>
      </trkpt>
      <trkpt lat="45.301970" lon="5.588929">
        <ele>250.745404</ele>
        <time>2017-06-04T08:22:35.000Z</time>
      </trkpt>
      <trkpt lat="45.301914" lon="5.588781">
        <ele>250.361410</ele>
        <time>2017-06-04T08:22:37.000Z</time>
      </trkpt>
      <trkpt lat="45.301853" lon="5.588646">
        <ele>249.994781</ele>
        <time>2017-06-04T08:22:39.000Z</time>
      </trkpt>
      <trkpt lat="45.301792" lon="5.588509">
        <ele>249.624298</ele>
        <time>2017-06-04T08:22:41.000Z</time>
      </trkpt>
      <trkpt lat="45.301730" lon="5.588381">
        <ele>249.269187</ele>
        <time>2017-06-04T08:22:43.000Z</time>
      </trkpt>
      <trkpt lat="45.301670" lon="5.588253">
        <ele>248.917720</ele>
        <time>2017-06-04T08:22:45.000Z</time>
      </trkpt>
      <trkpt lat="45.301600" lon="5.588129">
        <ele>248.554422</ele>
        <time>2017-06-04T08:22:47.000Z</time>
      </trkpt>
      <trkpt lat="45.301530" lon="5.588009">
        <ele>248.198205</ele>
        <time>2017-06-04T08:22:49.000Z</time>
      </trkpt>
      <trkpt lat="45.301440" lon="5.587884">
        <ele>247.789481</ele>
        <time>2017-06-04T08:22:51.000Z</time>
      </trkpt>
      <trkpt lat="45.301373" lon="5.587755">
        <ele>247.551674</ele>
        <time>2017-06-04T08:22:53.000Z</time>
      </trkpt>
      <trkpt lat="45.301304" lon="5.587615">
        <ele>247.541343</ele>
        <time>2017-06-04T08:22:55.000Z</time>
      </trkpt>
      <trkpt lat="45.301220" lon="5.587486">
        <ele>247.530718</ele>
        <time>2017-06-04T08:22:57.000Z</time>
      </trkpt>
      <trkpt lat="45.301160" lon="5.587374">
        <ele>247.522210</ele>
        <time>2017-06-04T08:22:59.000Z</time>
      </trkpt>
      <trkpt lat="45.301100" lon="5.587254">
        <ele>247.513312</ele>
        <time>2017-06-04T08:23:01.000Z</time>
      </trkpt>
      <trkpt lat="45.301025" lon="5.587133">
        <ele>247.503564</ele>
        <time>2017-06-04T08:23:03.000Z</time>
      </trkpt>
      <trkpt lat="45.300945" lon="5.587020">
        <ele>247.493875</ele>
        <time>2017-06-04T08:23:05.000Z</time>
      </trkpt>
      <trkpt lat="45.300870" lon="5.586899">
        <ele>247.484127</ele>
        <time>2017-06-04T08:23:07.000Z</time>
      </trkpt>
      <trkpt lat="45.300793" lon="5.586785">
        <ele>247.474575</ele>
        <time>2017-06-04T08:23:09.000Z</time>
      </trkpt>
      <trkpt lat="45.300705" lon="5.586659">
        <ele>247.463844</ele>
        <time>2017-06-04T08:23:11.000Z</time>
      </trkpt>
      <trkpt lat="45.300617" lon="5.586535">
        <ele>247.453198</ele>
        <time>2017-06-04T08:23:13.000Z</time>
      </trkpt>
      <trkpt lat="45.300533" lon="5.586412">
        <ele>247.442836</ele>
        <time>2017-06-04T08:23:15.000Z</time>
      </trkpt>
      <trkpt lat="45.300450" lon="5.586289">
        <ele>247.432535</ele>
        <time>2017-06-04T08:23:17.000Z</time>
      </trkpt>
      <trkpt lat="45.300373" lon="5.586178">
        <ele>247.423113</ele>
        <time>2017-06-04T08:23:19.000Z</time>
      </trkpt>
      <trkpt lat="45.300304" lon="5.586077">
        <ele>247.414603</ele>
        <time>2017-06-04T08:23:21.000Z</time>
      </trkpt>
      <trkpt lat="45.300243" lon="5.585980">
        <ele>247.406739</ele>
        <time>2017-06-04T08:23:23.000Z</time>
      </trkpt>
      <trkpt lat="45.300170" lon="5.585876">
        <ele>247.441955</ele>
        <time>2017-06-04T08:23:25.000Z</time>
      </trkpt>
      <trkpt lat="45.300087" lon="5.585765">
        <ele>247.588462</ele>
        <time>2017-06-04T08:23:27.000Z</time>
      </trkpt>
      <trkpt lat="45.300007" lon="5.585660">
        <ele>247.728448</ele>
        <time>2017-06-04T08:23:29.000Z</time>
      </trkpt>
      <trkpt lat="45.299927" lon="5.585552">
        <ele>247.870288</ele>
        <time>2017-06-04T08:23:31.000Z</time>
      </trkpt>
      <trkpt lat="45.299862" lon="5.585443">
        <ele>247.999520</ele>
        <time>2017-06-04T08:23:33.000Z</time>
      </trkpt>
      <trkpt lat="45.299797" lon="5.585316">
        <ele>248.141559</ele>
        <time>2017-06-04T08:23:35.000Z</time>
      </trkpt>
      <trkpt lat="45.299698" lon="5.585188">
        <ele>248.313608</ele>
        <time>2017-06-04T08:23:38.000Z</time>
      </trkpt>
      <trkpt lat="45.299633" lon="5.585098">
        <ele>248.430264</ele>
        <time>2017-06-04T08:23:40.000Z</time>
      </trkpt>
      <trkpt lat="45.299560" lon="5.585004">
        <ele>248.556895</ele>
        <time>2017-06-04T08:23:42.000Z</time>
      </trkpt>
      <trkpt lat="45.299477" lon="5.584909">
        <ele>248.693895</ele>
        <time>2017-06-04T08:23:44.000Z</time>
      </trkpt>
      <trkpt lat="45.299408" lon="5.584798">
        <ele>248.827861</ele>
        <time>2017-06-04T08:23:46.000Z</time>
      </trkpt>
      <trkpt lat="45.299335" lon="5.584691">
        <ele>248.962667</ele>
        <time>2017-06-04T08:23:48.000Z</time>
      </trkpt>
      <trkpt lat="45.299255" lon="5.584592">
        <ele>249.099031</ele>
        <time>2017-06-04T08:23:50.000Z</time>
      </trkpt>
      <trkpt lat="45.299183" lon="5.584499">
        <ele>249.224103</ele>
        <time>2017-06-04T08:23:52.000Z</time>
      </trkpt>
      <trkpt lat="45.299126" lon="5.584383">
        <ele>249.352071</ele>
        <time>2017-06-04T08:23:54.000Z</time>
      </trkpt>
      <trkpt lat="45.299057" lon="5.584269">
        <ele>249.488082</ele>
        <time>2017-06-04T08:23:56.000Z</time>
      </trkpt>
      <trkpt lat="45.298980" lon="5.584161">
        <ele>249.627152</ele>
        <time>2017-06-04T08:23:58.000Z</time>
      </trkpt>
      <trkpt lat="45.298897" lon="5.584039">
        <ele>249.707612</ele>
        <time>2017-06-04T08:24:00.000Z</time>
      </trkpt>
      <trkpt lat="45.298817" lon="5.583921">
        <ele>249.695511</ele>
        <time>2017-06-04T08:24:02.000Z</time>
      </trkpt>
      <trkpt lat="45.298733" lon="5.583817">
        <ele>249.683818</ele>
        <time>2017-06-04T08:24:04.000Z</time>
      </trkpt>
      <trkpt lat="45.298656" lon="5.583700">
        <ele>249.671986</ele>
        <time>2017-06-04T08:24:06.000Z</time>
      </trkpt>
      <trkpt lat="45.298576" lon="5.583592">
        <ele>249.660405</ele>
        <time>2017-06-04T08:24:08.000Z</time>
      </trkpt>
      <trkpt lat="45.298496" lon="5.583492">
        <ele>249.649222</ele>
        <time>2017-06-04T08:24:10.000Z</time>
      </trkpt>
      <trkpt lat="45.298424" lon="5.583383">
        <ele>249.638181</ele>
        <time>2017-06-04T08:24:12.000Z</time>
      </trkpt>
      <trkpt lat="45.298355" lon="5.583265">
        <ele>249.626850</ele>
        <time>2017-06-04T08:24:14.000Z</time>
      </trkpt>
      <trkpt lat="45.298283" lon="5.583154">
        <ele>249.615700</ele>
        <time>2017-06-04T08:24:16.000Z</time>
      </trkpt>
      <trkpt lat="45.298210" lon="5.583050">
        <ele>249.604851</ele>
        <time>2017-06-04T08:24:18.000Z</time>
      </trkpt>
      <trkpt lat="45.298138" lon="5.582923">
        <ele>249.592807</ele>
        <time>2017-06-04T08:24:20.000Z</time>
      </trkpt>
      <trkpt lat="45.298060" lon="5.582798">
        <ele>249.580468</ele>
        <time>2017-06-04T08:24:22.000Z</time>
      </trkpt>
      <trkpt lat="45.297974" lon="5.582676">
        <ele>249.567714</ele>
        <time>2017-06-04T08:24:24.000Z</time>
      </trkpt>
      <trkpt lat="45.297897" lon="5.582579">
        <ele>249.556914</ele>
        <time>2017-06-04T08:24:26.000Z</time>
      </trkpt>
      <trkpt lat="45.297825" lon="5.582465">
        <ele>249.545601</ele>
        <time>2017-06-04T08:24:28.000Z</time>
      </trkpt>
      <trkpt lat="45.297737" lon="5.582344">
        <ele>249.532749</ele>
        <time>2017-06-04T08:24:30.000Z</time>
      </trkpt>
      <trkpt lat="45.297657" lon="5.582238">
        <ele>249.508388</ele>
        <time>2017-06-04T08:24:32.000Z</time>
      </trkpt>
      <trkpt lat="45.297580" lon="5.582121">
        <ele>249.446457</ele>
        <time>2017-06-04T08:24:34.000Z</time>
      </trkpt>
      <trkpt lat="45.297504" lon="5.582007">
        <ele>249.385748</ele>
        <time>2017-06-04T08:24:36.000Z</time>
      </trkpt>
      <trkpt lat="45.297432" lon="5.581883">
        <ele>249.323599</ele>
        <time>2017-06-04T08:24:38.000Z</time>
      </trkpt>
      <trkpt lat="45.297350" lon="5.581783">
        <ele>249.264233</ele>
        <time>2017-06-04T08:24:40.000Z</time>
      </trkpt>
      <trkpt lat="45.297287" lon="5.581666">
        <ele>249.207280</ele>
        <time>2017-06-04T08:24:42.000Z</time>
      </trkpt>
      <trkpt lat="45.297222" lon="5.581548">
        <ele>249.149349</ele>
        <time>2017-06-04T08:24:44.000Z</time>
      </trkpt>
      <trkpt lat="45.297165" lon="5.581427">
        <ele>249.093060</ele>
        <time>2017-06-04T08:24:46.000Z</time>
      </trkpt>
      <trkpt lat="45.297115" lon="5.581298">
        <ele>249.036130</ele>
        <time>2017-06-04T08:24:48.000Z</time>
      </trkpt>
      <trkpt lat="45.297054" lon="5.581175">
        <ele>248.977959</ele>
        <time>2017-06-04T08:24:50.000Z</time>
      </trkpt>
      <trkpt lat="45.296993" lon="5.581051">
        <ele>248.919471</ele>
        <time>2017-06-04T08:24:52.000Z</time>
      </trkpt>
      <trkpt lat="45.296936" lon="5.580914">
        <ele>248.857947</ele>
        <time>2017-06-04T08:24:54.000Z</time>
      </trkpt>
      <trkpt lat="45.296894" lon="5.580780">
        <ele>248.801243</ele>
        <time>2017-06-04T08:24:56.000Z</time>
      </trkpt>
      <trkpt lat="45.296850" lon="5.580646">
        <ele>248.744083</ele>
        <time>2017-06-04T08:24:58.000Z</time>
      </trkpt>
      <trkpt lat="45.296803" lon="5.580504">
        <ele>248.683423</ele>
        <time>2017-06-04T08:25:00.000Z</time>
      </trkpt>
      <trkpt lat="45.296776" lon="5.580348">
        <ele>248.621326</ele>
        <time>2017-06-04T08:25:02.000Z</time>
      </trkpt>
      <trkpt lat="45.296734" lon="5.580189">
        <ele>248.555677</ele>
        <time>2017-06-04T08:25:04.000Z</time>
      </trkpt>
      <trkpt lat="45.296696" lon="5.580036">
        <ele>248.603873</ele>
        <time>2017-06-04T08:25:06.000Z</time>
      </trkpt>
      <trkpt lat="45.296654" lon="5.579884">
        <ele>248.703527</ele>
        <time>2017-06-04T08:25:08.000Z</time>
      </trkpt>
      <trkpt lat="45.296620" lon="5.579735">
        <ele>248.799116</ele>
        <time>2017-06-04T08:25:10.000Z</time>
      </trkpt>
      <trkpt lat="45.296604" lon="5.579580">
        <ele>248.894715</ele>
        <time>2017-06-04T08:25:12.000Z</time>
      </trkpt>
      <trkpt lat="45.296574" lon="5.579433">
        <ele>248.988117</ele>
        <time>2017-06-04T08:25:14.000Z</time>
      </trkpt>
      <trkpt lat="45.296543" lon="5.579274">
        <ele>249.088802</ele>
        <time>2017-06-04T08:25:16.000Z</time>
      </trkpt>
      <trkpt lat="45.296510" lon="5.579129">
        <ele>249.181801</ele>
        <time>2017-06-04T08:25:18.000Z</time>
      </trkpt>
      <trkpt lat="45.296467" lon="5.579005">
        <ele>249.266165</ele>
        <time>2017-06-04T08:25:20.000Z</time>
      </trkpt>
      <trkpt lat="45.296440" lon="5.578879">
        <ele>249.346542</ele>
        <time>2017-06-04T08:25:22.000Z</time>
      </trkpt>
      <trkpt lat="45.296410" lon="5.578706">
        <ele>249.455273</ele>
        <time>2017-06-04T08:25:25.000Z</time>
      </trkpt>
      <trkpt lat="45.296394" lon="5.578516">
        <ele>249.572045</ele>
        <time>2017-06-04T08:25:28.000Z</time>
      </trkpt>
      <trkpt lat="45.296390" lon="5.578385">
        <ele>249.652061</ele>
        <time>2017-06-04T08:25:30.000Z</time>
      </trkpt>
      <trkpt lat="45.296383" lon="5.578255">
        <ele>249.731623</ele>
        <time>2017-06-04T08:25:32.000Z</time>
      </trkpt>
      <trkpt lat="45.296380" lon="5.578125">
        <ele>249.810996</ele>
        <time>2017-06-04T08:25:34.000Z</time>
      </trkpt>
      <trkpt lat="45.296383" lon="5.577986">
        <ele>249.895858</ele>
        <time>2017-06-04T08:25:36.000Z</time>
      </trkpt>
      <trkpt lat="45.296380" lon="5.577847">
        <ele>249.980720</ele>
        <time>2017-06-04T08:25:38.000Z</time>
      </trkpt>
      <trkpt lat="45.296380" lon="5.577708">
        <ele>250.065543</ele>
        <time>2017-06-04T08:25:40.000Z</time>
      </trkpt>
      <trkpt lat="45.296387" lon="5.577562">
        <ele>250.214365</ele>
        <time>2017-06-04T08:25:42.000Z</time>
      </trkpt>
      <trkpt lat="45.296387" lon="5.577414">
        <ele>250.396488</ele>
        <time>2017-06-04T08:25:44.000Z</time>
      </trkpt>
      <trkpt lat="45.296394" lon="5.577267">
        <ele>250.577795</ele>
        <time>2017-06-04T08:25:46.000Z</time>
      </trkpt>
      <trkpt lat="45.296410" lon="5.577111">
        <ele>250.771792</ele>
        <time>2017-06-04T08:25:48.000Z</time>
      </trkpt>
      <trkpt lat="45.296432" lon="5.576962">
        <ele>250.959141</ele>
        <time>2017-06-04T08:25:50.000Z</time>
      </trkpt>
      <trkpt lat="45.296436" lon="5.576806">
        <ele>251.151235</ele>
        <time>2017-06-04T08:25:52.000Z</time>
      </trkpt>
      <trkpt lat="45.296432" lon="5.576671">
        <ele>251.317508</ele>
        <time>2017-06-04T08:25:54.000Z</time>
      </trkpt>
      <trkpt lat="45.296448" lon="5.576527">
        <ele>251.496905</ele>
        <time>2017-06-04T08:25:56.000Z</time>
      </trkpt>
      <trkpt lat="45.296486" lon="5.576382">
        <ele>251.687317</ele>
        <time>2017-06-04T08:25:58.000Z</time>
      </trkpt>
      <trkpt lat="45.296516" lon="5.576225">
        <ele>251.887516</ele>
        <time>2017-06-04T08:26:00.000Z</time>
      </trkpt>
      <trkpt lat="45.296543" lon="5.576078">
        <ele>252.074472</ele>
        <time>2017-06-04T08:26:02.000Z</time>
      </trkpt>
      <trkpt lat="45.296585" lon="5.575923">
        <ele>252.278870</ele>
        <time>2017-06-04T08:26:04.000Z</time>
      </trkpt>
      <trkpt lat="45.296623" lon="5.575749">
        <ele>252.503068</ele>
        <time>2017-06-04T08:26:06.000Z</time>
      </trkpt>
      <trkpt lat="45.296658" lon="5.575583">
        <ele>252.716319</ele>
        <time>2017-06-04T08:26:08.000Z</time>
      </trkpt>
      <trkpt lat="45.296707" lon="5.575428">
        <ele>252.925431</ele>
        <time>2017-06-04T08:26:10.000Z</time>
      </trkpt>
      <trkpt lat="45.296750" lon="5.575277">
        <ele>253.125893</ele>
        <time>2017-06-04T08:26:12.000Z</time>
      </trkpt>
      <trkpt lat="45.296795" lon="5.575140">
        <ele>253.196613</ele>
        <time>2017-06-04T08:26:14.000Z</time>
      </trkpt>
      <trkpt lat="45.296825" lon="5.575018">
        <ele>253.090617</ele>
        <time>2017-06-04T08:26:16.000Z</time>
      </trkpt>
      <trkpt lat="45.296870" lon="5.574841">
        <ele>252.936258</ele>
        <time>2017-06-04T08:26:19.000Z</time>
      </trkpt>
      <trkpt lat="45.296920" lon="5.574673">
        <ele>252.786647</ele>
        <time>2017-06-04T08:26:22.000Z</time>
      </trkpt>
      <trkpt lat="45.296963" lon="5.574521">
        <ele>252.652279</ele>
        <time>2017-06-04T08:26:25.000Z</time>
      </trkpt>
      <trkpt lat="45.297000" lon="5.574388">
        <ele>252.534978</ele>
        <time>2017-06-04T08:26:28.000Z</time>
      </trkpt>
      <trkpt lat="45.297043" lon="5.574261">
        <ele>252.419380</ele>
        <time>2017-06-04T08:26:31.000Z</time>
      </trkpt>
      <trkpt lat="45.297092" lon="5.574126">
        <ele>252.294789</ele>
        <time>2017-06-04T08:26:35.000Z</time>
      </trkpt>
      <trkpt lat="45.297130" lon="5.573998">
        <ele>252.180843</ele>
        <time>2017-06-04T08:26:39.000Z</time>
      </trkpt>
      <trkpt lat="45.297173" lon="5.573854">
        <ele>252.052540</ele>
        <time>2017-06-04T08:26:42.000Z</time>
      </trkpt>
      <trkpt lat="45.297215" lon="5.573682">
        <ele>251.903215</ele>
        <time>2017-06-04T08:26:45.000Z</time>
      </trkpt>
      <trkpt lat="45.297260" lon="5.573483">
        <ele>251.731779</ele>
        <time>2017-06-04T08:26:48.000Z</time>
      </trkpt>
      <trkpt lat="45.297287" lon="5.573343">
        <ele>251.612721</ele>
        <time>2017-06-04T08:26:50.000Z</time>
      </trkpt>
      <trkpt lat="45.297318" lon="5.573201">
        <ele>251.490779</ele>
        <time>2017-06-04T08:26:52.000Z</time>
      </trkpt>
      <trkpt lat="45.297356" lon="5.573064">
        <ele>251.369999</ele>
        <time>2017-06-04T08:26:54.000Z</time>
      </trkpt>
      <trkpt lat="45.297394" lon="5.572937">
        <ele>251.256808</ele>
        <time>2017-06-04T08:26:56.000Z</time>
      </trkpt>
      <trkpt lat="45.297440" lon="5.572786">
        <ele>251.147815</ele>
        <time>2017-06-04T08:26:58.000Z</time>
      </trkpt>
      <trkpt lat="45.297466" lon="5.572638">
        <ele>251.159248</ele>
        <time>2017-06-04T08:27:00.000Z</time>
      </trkpt>
      <trkpt lat="45.297490" lon="5.572503">
        <ele>251.169684</ele>
        <time>2017-06-04T08:27:02.000Z</time>
      </trkpt>
      <trkpt lat="45.297535" lon="5.572368">
        <ele>251.180880</ele>
        <time>2017-06-04T08:27:04.000Z</time>
      </trkpt>
      <trkpt lat="45.297573" lon="5.572225">
        <ele>251.192337</ele>
        <time>2017-06-04T08:27:06.000Z</time>
      </trkpt>
      <trkpt lat="45.297600" lon="5.572088">
        <ele>251.203000</ele>
        <time>2017-06-04T08:27:08.000Z</time>
      </trkpt>
      <trkpt lat="45.297640" lon="5.571906">
        <ele>251.217290</ele>
        <time>2017-06-04T08:27:11.000Z</time>
      </trkpt>
      <trkpt lat="45.297695" lon="5.571767">
        <ele>251.229243</ele>
        <time>2017-06-04T08:27:14.000Z</time>
      </trkpt>
      <trkpt lat="45.297737" lon="5.571643">
        <ele>251.239557</ele>
        <time>2017-06-04T08:27:29.000Z</time>
      </trkpt>
      <trkpt lat="45.297770" lon="5.571471">
        <ele>251.252919</ele>
        <time>2017-06-04T08:30:40.000Z</time>
      </trkpt>
      <trkpt lat="45.297817" lon="5.571324">
        <ele>251.265021</ele>
        <time>2017-06-04T08:30:44.000Z</time>
      </trkpt>
      <trkpt lat="45.297863" lon="5.571192">
        <ele>251.276061</ele>
        <time>2017-06-04T08:30:47.000Z</time>
      </trkpt>
      <trkpt lat="45.297905" lon="5.571033">
        <ele>251.288790</ele>
        <time>2017-06-04T08:30:50.000Z</time>
      </trkpt>
      <trkpt lat="45.297935" lon="5.570903">
        <ele>251.299044</ele>
        <time>2017-06-04T08:30:52.000Z</time>
      </trkpt>
      <trkpt lat="45.297977" lon="5.570738">
        <ele>251.312195</ele>
        <time>2017-06-04T08:30:55.000Z</time>
      </trkpt>
      <trkpt lat="45.298004" lon="5.570614">
        <ele>251.321923</ele>
        <time>2017-06-04T08:30:57.000Z</time>
      </trkpt>
      <trkpt lat="45.298030" lon="5.570470">
        <ele>251.333066</ele>
        <time>2017-06-04T08:30:59.000Z</time>
      </trkpt>
      <trkpt lat="45.298073" lon="5.570329">
        <ele>251.427971</ele>
        <time>2017-06-04T08:31:01.000Z</time>
      </trkpt>
      <trkpt lat="45.298103" lon="5.570203">
        <ele>251.551739</ele>
        <time>2017-06-04T08:31:03.000Z</time>
      </trkpt>
      <trkpt lat="45.298140" lon="5.570073">
        <ele>251.682220</ele>
        <time>2017-06-04T08:31:05.000Z</time>
      </trkpt>
      <trkpt lat="45.298180" lon="5.569942">
        <ele>251.815095</ele>
        <time>2017-06-04T08:31:07.000Z</time>
      </trkpt>
      <trkpt lat="45.298233" lon="5.569815">
        <ele>251.952489</ele>
        <time>2017-06-04T08:31:09.000Z</time>
      </trkpt>
      <trkpt lat="45.298267" lon="5.569693">
        <ele>252.074586</ele>
        <time>2017-06-04T08:31:11.000Z</time>
      </trkpt>
      <trkpt lat="45.298325" lon="5.569531">
        <ele>252.243715</ele>
        <time>2017-06-04T08:31:14.000Z</time>
      </trkpt>
      <trkpt lat="45.298350" lon="5.569408">
        <ele>252.362839</ele>
        <time>2017-06-04T08:31:16.000Z</time>
      </trkpt>
      <trkpt lat="45.298390" lon="5.569288">
        <ele>252.486392</ele>
        <time>2017-06-04T08:31:18.000Z</time>
      </trkpt>
      <trkpt lat="45.298443" lon="5.569125">
        <ele>252.653470</ele>
        <time>2017-06-04T08:31:21.000Z</time>
      </trkpt>
      <trkpt lat="45.298473" lon="5.568990">
        <ele>252.785196</ele>
        <time>2017-06-04T08:31:23.000Z</time>
      </trkpt>
      <trkpt lat="45.298492" lon="5.568860">
        <ele>252.908734</ele>
        <time>2017-06-04T08:31:25.000Z</time>
      </trkpt>
      <trkpt lat="45.298523" lon="5.568718">
        <ele>253.047071</ele>
        <time>2017-06-04T08:31:27.000Z</time>
      </trkpt>
      <trkpt lat="45.298570" lon="5.568568">
        <ele>253.199854</ele>
        <time>2017-06-04T08:31:29.000Z</time>
      </trkpt>
      <trkpt lat="45.298588" lon="5.568424">
        <ele>253.335933</ele>
        <time>2017-06-04T08:31:31.000Z</time>
      </trkpt>
      <trkpt lat="45.298622" lon="5.568285">
        <ele>253.472858</ele>
        <time>2017-06-04T08:31:33.000Z</time>
      </trkpt>
      <trkpt lat="45.298668" lon="5.568124">
        <ele>253.634541</ele>
        <time>2017-06-04T08:31:35.000Z</time>
      </trkpt>
      <trkpt lat="45.298717" lon="5.567954">
        <ele>253.610631</ele>
        <time>2017-06-04T08:31:37.000Z</time>
      </trkpt>
      <trkpt lat="45.298756" lon="5.567787">
        <ele>253.416289</ele>
        <time>2017-06-04T08:31:39.000Z</time>
      </trkpt>
      <trkpt lat="45.298790" lon="5.567635">
        <ele>253.240129</ele>
        <time>2017-06-04T08:31:41.000Z</time>
      </trkpt>
      <trkpt lat="45.298820" lon="5.567487">
        <ele>253.070019</ele>
        <time>2017-06-04T08:31:43.000Z</time>
      </trkpt>
      <trkpt lat="45.298843" lon="5.567334">
        <ele>252.897223</ele>
        <time>2017-06-04T08:31:45.000Z</time>
      </trkpt>
      <trkpt lat="45.298862" lon="5.567172">
        <ele>252.715832</ele>
        <time>2017-06-04T08:31:47.000Z</time>
      </trkpt>
      <trkpt lat="45.298885" lon="5.567001">
        <ele>252.523550</ele>
        <time>2017-06-04T08:31:49.000Z</time>
      </trkpt>
      <trkpt lat="45.298904" lon="5.566836">
        <ele>252.338891</ele>
        <time>2017-06-04T08:31:51.000Z</time>
      </trkpt>
      <trkpt lat="45.298916" lon="5.566670">
        <ele>252.154587</ele>
        <time>2017-06-04T08:31:53.000Z</time>
      </trkpt>
      <trkpt lat="45.298943" lon="5.566392">
        <ele>251.844639</ele>
        <time>2017-06-04T08:31:56.000Z</time>
      </trkpt>
      <trkpt lat="45.298958" lon="5.566216">
        <ele>251.648835</ele>
        <time>2017-06-04T08:31:58.000Z</time>
      </trkpt>
      <trkpt lat="45.298940" lon="5.566042">
        <ele>251.454594</ele>
        <time>2017-06-04T08:32:00.000Z</time>
      </trkpt>
      <trkpt lat="45.298927" lon="5.565774">
        <ele>251.157900</ele>
        <time>2017-06-04T08:32:03.000Z</time>
      </trkpt>
      <trkpt lat="45.298916" lon="5.565609">
        <ele>250.974850</ele>
        <time>2017-06-04T08:32:05.000Z</time>
      </trkpt>
      <trkpt lat="45.298916" lon="5.565435">
        <ele>250.664492</ele>
        <time>2017-06-04T08:32:07.000Z</time>
      </trkpt>
      <trkpt lat="45.298893" lon="5.565272">
        <ele>250.282886</ele>
        <time>2017-06-04T08:32:09.000Z</time>
      </trkpt>
      <trkpt lat="45.298862" lon="5.565032">
        <ele>249.722775</ele>
        <time>2017-06-04T08:32:12.000Z</time>
      </trkpt>
      <trkpt lat="45.298832" lon="5.564867">
        <ele>249.331583</ele>
        <time>2017-06-04T08:32:14.000Z</time>
      </trkpt>
      <trkpt lat="45.298800" lon="5.564711">
        <ele>248.958582</ele>
        <time>2017-06-04T08:32:16.000Z</time>
      </trkpt>
      <trkpt lat="45.298767" lon="5.564558">
        <ele>248.591243</ele>
        <time>2017-06-04T08:32:18.000Z</time>
      </trkpt>
      <trkpt lat="45.298733" lon="5.564410">
        <ele>248.233861</ele>
        <time>2017-06-04T08:32:20.000Z</time>
      </trkpt>
      <trkpt lat="45.298695" lon="5.564273">
        <ele>247.895822</ele>
        <time>2017-06-04T08:32:22.000Z</time>
      </trkpt>
      <trkpt lat="45.298650" lon="5.564148">
        <ele>247.573499</ele>
        <time>2017-06-04T08:32:24.000Z</time>
      </trkpt>
      <trkpt lat="45.298607" lon="5.564018">
        <ele>247.243748</ele>
        <time>2017-06-04T08:32:26.000Z</time>
      </trkpt>
      <trkpt lat="45.298557" lon="5.563900">
        <ele>246.927540</ele>
        <time>2017-06-04T08:32:28.000Z</time>
      </trkpt>
      <trkpt lat="45.298515" lon="5.563784">
        <ele>246.628066</ele>
        <time>2017-06-04T08:32:30.000Z</time>
      </trkpt>
      <trkpt lat="45.298473" lon="5.563666">
        <ele>246.324503</ele>
        <time>2017-06-04T08:32:32.000Z</time>
      </trkpt>
      <trkpt lat="45.298405" lon="5.563505">
        <ele>245.893435</ele>
        <time>2017-06-04T08:32:35.000Z</time>
      </trkpt>
      <trkpt lat="45.298350" lon="5.563398">
        <ele>245.589234</ele>
        <time>2017-06-04T08:32:37.000Z</time>
      </trkpt>
      <trkpt lat="45.298300" lon="5.563291">
        <ele>245.294365</ele>
        <time>2017-06-04T08:32:39.000Z</time>
      </trkpt>
      <trkpt lat="45.298220" lon="5.563144">
        <ele>245.060957</ele>
        <time>2017-06-04T08:32:42.000Z</time>
      </trkpt>
      <trkpt lat="45.298170" lon="5.563042">
        <ele>245.131174</ele>
        <time>2017-06-04T08:32:44.000Z</time>
      </trkpt>
      <trkpt lat="45.298107" lon="5.562937">
        <ele>245.209120</ele>
        <time>2017-06-04T08:32:46.000Z</time>
      </trkpt>
      <trkpt lat="45.298050" lon="5.562829">
        <ele>245.285378</ele>
        <time>2017-06-04T08:32:48.000Z</time>
      </trkpt>
      <trkpt lat="45.297997" lon="5.562721">
        <ele>245.359753</ele>
        <time>2017-06-04T08:32:50.000Z</time>
      </trkpt>
      <trkpt lat="45.297905" lon="5.562584">
        <ele>245.466729</ele>
        <time>2017-06-04T08:32:53.000Z</time>
      </trkpt>
      <trkpt lat="45.297844" lon="5.562491">
        <ele>245.538547</ele>
        <time>2017-06-04T08:32:55.000Z</time>
      </trkpt>
      <trkpt lat="45.297764" lon="5.562392">
        <ele>245.623708</ele>
        <time>2017-06-04T08:32:57.000Z</time>
      </trkpt>
      <trkpt lat="45.297688" lon="5.562296">
        <ele>245.705339</ele>
        <time>2017-06-04T08:32:59.000Z</time>
      </trkpt>
      <trkpt lat="45.297610" lon="5.562209">
        <ele>245.784942</ele>
        <time>2017-06-04T08:33:01.000Z</time>
      </trkpt>
      <trkpt lat="45.297535" lon="5.562127">
        <ele>245.860911</ele>
        <time>2017-06-04T08:33:03.000Z</time>
      </trkpt>
      <trkpt lat="45.297462" lon="5.562040">
        <ele>245.937397</ele>
        <time>2017-06-04T08:33:05.000Z</time>
      </trkpt>
      <trkpt lat="45.297386" lon="5.561956">
        <ele>246.014692</ele>
        <time>2017-06-04T08:33:07.000Z</time>
      </trkpt>
      <trkpt lat="45.297283" lon="5.561832">
        <ele>246.123064</ele>
        <time>2017-06-04T08:33:10.000Z</time>
      </trkpt>
      <trkpt lat="45.297215" lon="5.561743">
        <ele>246.197278</ele>
        <time>2017-06-04T08:33:12.000Z</time>
      </trkpt>
      <trkpt lat="45.297146" lon="5.561643">
        <ele>246.276394</ele>
        <time>2017-06-04T08:33:14.000Z</time>
      </trkpt>
      <trkpt lat="45.297073" lon="5.561558">
        <ele>246.352159</ele>
        <time>2017-06-04T08:33:16.000Z</time>
      </trkpt>
      <trkpt lat="45.296997" lon="5.561468">
        <ele>246.431580</ele>
        <time>2017-06-04T08:33:18.000Z</time>
      </trkpt>
      <trkpt lat="45.296930" lon="5.561378">
        <ele>246.401812</ele>
        <time>2017-06-04T08:33:20.000Z</time>
      </trkpt>
      <trkpt lat="45.296856" lon="5.561287">
        <ele>246.269241</ele>
        <time>2017-06-04T08:33:22.000Z</time>
      </trkpt>
      <trkpt lat="45.296776" lon="5.561193">
        <ele>246.128615</ele>
        <time>2017-06-04T08:33:24.000Z</time>
      </trkpt>
      <trkpt lat="45.296700" lon="5.561099">
        <ele>245.992123</ele>
        <time>2017-06-04T08:33:26.000Z</time>
      </trkpt>
      <trkpt lat="45.296627" lon="5.560996">
        <ele>245.852767</ele>
        <time>2017-06-04T08:33:28.000Z</time>
      </trkpt>
      <trkpt lat="45.296555" lon="5.560899">
        <ele>245.718365</ele>
        <time>2017-06-04T08:33:30.000Z</time>
      </trkpt>
      <trkpt lat="45.296474" lon="5.560809">
        <ele>245.579071</ele>
        <time>2017-06-04T08:33:32.000Z</time>
      </trkpt>
      <trkpt lat="45.296410" lon="5.560717">
        <ele>245.455750</ele>
        <time>2017-06-04T08:33:34.000Z</time>
      </trkpt>
      <trkpt lat="45.296330" lon="5.560616">
        <ele>245.310781</ele>
        <time>2017-06-04T08:33:36.000Z</time>
      </trkpt>
      <trkpt lat="45.296250" lon="5.560518">
        <ele>245.167696</ele>
        <time>2017-06-04T08:33:38.000Z</time>
      </trkpt>
      <trkpt lat="45.296177" lon="5.560431">
        <ele>245.038627</ele>
        <time>2017-06-04T08:33:40.000Z</time>
      </trkpt>
      <trkpt lat="45.296104" lon="5.560344">
        <ele>244.909559</ele>
        <time>2017-06-04T08:33:42.000Z</time>
      </trkpt>
      <trkpt lat="45.296030" lon="5.560260">
        <ele>244.781252</ele>
        <time>2017-06-04T08:33:44.000Z</time>
      </trkpt>
      <trkpt lat="45.295956" lon="5.560168">
        <ele>244.648054</ele>
        <time>2017-06-04T08:33:46.000Z</time>
      </trkpt>
      <trkpt lat="45.295887" lon="5.560075">
        <ele>244.519224</ele>
        <time>2017-06-04T08:33:48.000Z</time>
      </trkpt>
      <trkpt lat="45.295820" lon="5.559985">
        <ele>244.394328</ele>
        <time>2017-06-04T08:33:50.000Z</time>
      </trkpt>
      <trkpt lat="45.295742" lon="5.559893">
        <ele>244.257003</ele>
        <time>2017-06-04T08:33:52.000Z</time>
      </trkpt>
      <trkpt lat="45.295666" lon="5.559795">
        <ele>244.117978</ele>
        <time>2017-06-04T08:33:54.000Z</time>
      </trkpt>
      <trkpt lat="45.295586" lon="5.559695">
        <ele>244.008899</ele>
        <time>2017-06-04T08:33:56.000Z</time>
      </trkpt>
      <trkpt lat="45.295513" lon="5.559607">
        <ele>243.960398</ele>
        <time>2017-06-04T08:33:58.000Z</time>
      </trkpt>
      <trkpt lat="45.295440" lon="5.559508">
        <ele>243.909273</ele>
        <time>2017-06-04T08:34:00.000Z</time>
      </trkpt>
      <trkpt lat="45.295360" lon="5.559402">
        <ele>243.853855</ele>
        <time>2017-06-04T08:34:02.000Z</time>
      </trkpt>
      <trkpt lat="45.295284" lon="5.559307">
        <ele>243.802572</ele>
        <time>2017-06-04T08:34:04.000Z</time>
      </trkpt>
      <trkpt lat="45.295210" lon="5.559209">
        <ele>243.751323</ele>
        <time>2017-06-04T08:34:06.000Z</time>
      </trkpt>
      <trkpt lat="45.295140" lon="5.559106">
        <ele>243.700271</ele>
        <time>2017-06-04T08:34:08.000Z</time>
      </trkpt>
      <trkpt lat="45.295050" lon="5.559001">
        <ele>243.641272</ele>
        <time>2017-06-04T08:34:10.000Z</time>
      </trkpt>
      <trkpt lat="45.294980" lon="5.558885">
        <ele>243.586792</ele>
        <time>2017-06-04T08:34:12.000Z</time>
      </trkpt>
      <trkpt lat="45.294920" lon="5.558779">
        <ele>243.538293</ele>
        <time>2017-06-04T08:34:14.000Z</time>
      </trkpt>
      <trkpt lat="45.294853" lon="5.558667">
        <ele>243.485885</ele>
        <time>2017-06-04T08:34:16.000Z</time>
      </trkpt>
      <trkpt lat="45.294796" lon="5.558564">
        <ele>243.439169</ele>
        <time>2017-06-04T08:34:18.000Z</time>
      </trkpt>
      <trkpt lat="45.294740" lon="5.558458">
        <ele>243.391914</ele>
        <time>2017-06-04T08:34:20.000Z</time>
      </trkpt>
      <trkpt lat="45.294685" lon="5.558344">
        <ele>243.342638</ele>
        <time>2017-06-04T08:34:22.000Z</time>
      </trkpt>
      <trkpt lat="45.294636" lon="5.558234">
        <ele>243.296225</ele>
        <time>2017-06-04T08:34:24.000Z</time>
      </trkpt>
      <trkpt lat="45.294590" lon="5.558126">
        <ele>243.251220</ele>
        <time>2017-06-04T08:34:26.000Z</time>
      </trkpt>
      <trkpt lat="45.294537" lon="5.558015">
        <ele>243.203398</ele>
        <time>2017-06-04T08:34:28.000Z</time>
      </trkpt>
      <trkpt lat="45.294483" lon="5.557898">
        <ele>243.153516</ele>
        <time>2017-06-04T08:34:30.000Z</time>
      </trkpt>
      <trkpt lat="45.294434" lon="5.557786">
        <ele>243.129967</ele>
        <time>2017-06-04T08:34:32.000Z</time>
      </trkpt>
      <trkpt lat="45.294384" lon="5.557670">
        <ele>243.176096</ele>
        <time>2017-06-04T08:34:34.000Z</time>
      </trkpt>
      <trkpt lat="45.294334" lon="5.557547">
        <ele>243.224264</ele>
        <time>2017-06-04T08:34:36.000Z</time>
      </trkpt>
      <trkpt lat="45.294290" lon="5.557414">
        <ele>243.274099</ele>
        <time>2017-06-04T08:34:38.000Z</time>
      </trkpt>
      <trkpt lat="45.294243" lon="5.557292">
        <ele>243.321263</ele>
        <time>2017-06-04T08:34:40.000Z</time>
      </trkpt>
      <trkpt lat="45.294193" lon="5.557124">
        <ele>243.383115</ele>
        <time>2017-06-04T08:34:43.000Z</time>
      </trkpt>
      <trkpt lat="45.294140" lon="5.556950">
        <ele>243.447407</ele>
        <time>2017-06-04T08:34:46.000Z</time>
      </trkpt>
      <trkpt lat="45.294100" lon="5.556830">
        <ele>243.492433</ele>
        <time>2017-06-04T08:34:48.000Z</time>
      </trkpt>
      <trkpt lat="45.294064" lon="5.556703">
        <ele>243.538860</ele>
        <time>2017-06-04T08:34:50.000Z</time>
      </trkpt>
      <trkpt lat="45.294033" lon="5.556574">
        <ele>243.585082</ele>
        <time>2017-06-04T08:34:52.000Z</time>
      </trkpt>
      <trkpt lat="45.294003" lon="5.556451">
        <ele>243.629224</ele>
        <time>2017-06-04T08:34:54.000Z</time>
      </trkpt>
      <trkpt lat="45.293964" lon="5.556283">
        <ele>243.689210</ele>
        <time>2017-06-04T08:34:57.000Z</time>
      </trkpt>
      <trkpt lat="45.293930" lon="5.556140">
        <ele>243.740392</ele>
        <time>2017-06-04T08:35:00.000Z</time>
      </trkpt>
      <trkpt lat="45.293907" lon="5.556000">
        <ele>243.789140</ele>
        <time>2017-06-04T08:35:03.000Z</time>
      </trkpt>
      <trkpt lat="45.293873" lon="5.555842">
        <ele>243.845164</ele>
        <time>2017-06-04T08:35:06.000Z</time>
      </trkpt>
      <trkpt lat="45.293846" lon="5.555684">
        <ele>243.900296</ele>
        <time>2017-06-04T08:35:09.000Z</time>
      </trkpt>
      <trkpt lat="45.293830" lon="5.555533">
        <ele>243.952074</ele>
        <time>2017-06-04T08:35:12.000Z</time>
      </trkpt>
      <trkpt lat="45.293808" lon="5.555370">
        <ele>244.045396</ele>
        <time>2017-06-04T08:35:15.000Z</time>
      </trkpt>
      <trkpt lat="45.293793" lon="5.555220">
        <ele>244.179972</ele>
        <time>2017-06-04T08:35:18.000Z</time>
      </trkpt>
      <trkpt lat="45.293777" lon="5.555087">
        <ele>244.299822</ele>
        <time>2017-06-04T08:35:21.000Z</time>
      </trkpt>
      <trkpt lat="45.293762" lon="5.554950">
        <ele>244.422976</ele>
        <time>2017-06-04T08:35:24.000Z</time>
      </trkpt>
      <trkpt lat="45.293755" lon="5.554801">
        <ele>244.555619</ele>
        <time>2017-06-04T08:35:27.000Z</time>
      </trkpt>
      <trkpt lat="45.293747" lon="5.554640">
        <ele>244.698982</ele>
        <time>2017-06-04T08:35:30.000Z</time>
      </trkpt>
      <trkpt lat="45.293740" lon="5.554503">
        <ele>244.820991</ele>
        <time>2017-06-04T08:35:33.000Z</time>
      </trkpt>
      <trkpt lat="45.293740" lon="5.554365">
        <ele>244.943568</ele>
        <time>2017-06-04T08:35:36.000Z</time>
      </trkpt>
      <trkpt lat="45.293740" lon="5.554221">
        <ele>245.071474</ele>
        <time>2017-06-04T08:35:39.000Z</time>
      </trkpt>
      <trkpt lat="45.293747" lon="5.554063">
        <ele>245.212094</ele>
        <time>2017-06-04T08:35:42.000Z</time>
      </trkpt>
      <trkpt lat="45.293747" lon="5.553894">
        <ele>245.362207</ele>
        <time>2017-06-04T08:35:45.000Z</time>
      </trkpt>
      <trkpt lat="45.293755" lon="5.553716">
        <ele>245.520636</ele>
        <time>2017-06-04T08:35:48.000Z</time>
      </trkpt>
      <trkpt lat="45.293762" lon="5.553526">
        <ele>245.689632</ele>
        <time>2017-06-04T08:35:51.000Z</time>
      </trkpt>
      <trkpt lat="45.293770" lon="5.553392">
        <ele>245.809084</ele>
        <time>2017-06-04T08:35:53.000Z</time>
      </trkpt>
      <trkpt lat="45.293777" lon="5.553252">
        <ele>245.933752</ele>
        <time>2017-06-04T08:35:55.000Z</time>
      </trkpt>
      <trkpt lat="45.293785" lon="5.553107">
        <ele>246.062942</ele>
        <time>2017-06-04T08:35:57.000Z</time>
      </trkpt>
      <trkpt lat="45.293790" lon="5.552977">
        <ele>246.178585</ele>
        <time>2017-06-04T08:35:59.000Z</time>
      </trkpt>
      <trkpt lat="45.293797" lon="5.552839">
        <ele>246.222449</ele>
        <time>2017-06-04T08:36:01.000Z</time>
      </trkpt>
      <trkpt lat="45.293800" lon="5.552698">
        <ele>246.127419</ele>
        <time>2017-06-04T08:36:03.000Z</time>
      </trkpt>
      <trkpt lat="45.293804" lon="5.552559">
        <ele>246.033702</ele>
        <time>2017-06-04T08:36:05.000Z</time>
      </trkpt>
      <trkpt lat="45.293804" lon="5.552380">
        <ele>245.913117</ele>
        <time>2017-06-04T08:36:08.000Z</time>
      </trkpt>
      <trkpt lat="45.293810" lon="5.552204">
        <ele>245.794414</ele>
        <time>2017-06-04T08:36:11.000Z</time>
      </trkpt>
      <trkpt lat="45.293830" lon="5.552022">
        <ele>245.670322</ele>
        <time>2017-06-04T08:36:14.000Z</time>
      </trkpt>
      <trkpt lat="45.293850" lon="5.551888">
        <ele>245.578042</ele>
        <time>2017-06-04T08:36:16.000Z</time>
      </trkpt>
      <trkpt lat="45.293870" lon="5.551706">
        <ele>245.453949</ele>
        <time>2017-06-04T08:36:19.000Z</time>
      </trkpt>
      <trkpt lat="45.293870" lon="5.551571">
        <ele>245.363005</ele>
        <time>2017-06-04T08:36:21.000Z</time>
      </trkpt>
      <trkpt lat="45.293877" lon="5.551440">
        <ele>245.274502</ele>
        <time>2017-06-04T08:36:23.000Z</time>
      </trkpt>
      <trkpt lat="45.293896" lon="5.551256">
        <ele>245.149220</ele>
        <time>2017-06-04T08:36:26.000Z</time>
      </trkpt>
      <trkpt lat="45.293915" lon="5.551088">
        <ele>245.034593</ele>
        <time>2017-06-04T08:36:29.000Z</time>
      </trkpt>
      <trkpt lat="45.293926" lon="5.550921">
        <ele>244.921600</ele>
        <time>2017-06-04T08:36:32.000Z</time>
      </trkpt>
      <trkpt lat="45.293934" lon="5.550762">
        <ele>244.814215</ele>
        <time>2017-06-04T08:36:35.000Z</time>
      </trkpt>
      <trkpt lat="45.293950" lon="5.550594">
        <ele>244.700008</ele>
        <time>2017-06-04T08:36:38.000Z</time>
      </trkpt>
      <trkpt lat="45.293960" lon="5.550441">
        <ele>244.596494</ele>
        <time>2017-06-04T08:36:41.000Z</time>
      </trkpt>
      <trkpt lat="45.293957" lon="5.550293">
        <ele>244.510331</ele>
        <time>2017-06-04T08:36:44.000Z</time>
      </trkpt>
      <trkpt lat="45.293945" lon="5.550111">
        <ele>244.431940</ele>
        <time>2017-06-04T08:36:47.000Z</time>
      </trkpt>
      <trkpt lat="45.293926" lon="5.549933">
        <ele>244.354733</ele>
        <time>2017-06-04T08:36:50.000Z</time>
      </trkpt>
      <trkpt lat="45.293900" lon="5.549756">
        <ele>244.277191</ele>
        <time>2017-06-04T08:36:53.000Z</time>
      </trkpt>
      <trkpt lat="45.293884" lon="5.549577">
        <ele>244.199811</ele>
        <time>2017-06-04T08:36:56.000Z</time>
      </trkpt>
      <trkpt lat="45.293865" lon="5.549395">
        <ele>244.120908</ele>
        <time>2017-06-04T08:36:59.000Z</time>
      </trkpt>
      <trkpt lat="45.293860" lon="5.549260">
        <ele>244.062934</ele>
        <time>2017-06-04T08:37:01.000Z</time>
      </trkpt>
      <trkpt lat="45.293846" lon="5.549130">
        <ele>244.006535</ele>
        <time>2017-06-04T08:37:03.000Z</time>
      </trkpt>
      <trkpt lat="45.293835" lon="5.548990">
        <ele>243.946124</ele>
        <time>2017-06-04T08:37:05.000Z</time>
      </trkpt>
      <trkpt lat="45.293823" lon="5.548845">
        <ele>243.883514</ele>
        <time>2017-06-04T08:37:07.000Z</time>
      </trkpt>
      <trkpt lat="45.293808" lon="5.548707">
        <ele>243.823631</ele>
        <time>2017-06-04T08:37:09.000Z</time>
      </trkpt>
      <trkpt lat="45.293797" lon="5.548566">
        <ele>243.762794</ele>
        <time>2017-06-04T08:37:11.000Z</time>
      </trkpt>
      <trkpt lat="45.293780" lon="5.548428">
        <ele>243.702714</ele>
        <time>2017-06-04T08:37:13.000Z</time>
      </trkpt>
      <trkpt lat="45.293766" lon="5.548287">
        <ele>243.641648</ele>
        <time>2017-06-04T08:37:15.000Z</time>
      </trkpt>
      <trkpt lat="45.293755" lon="5.548136">
        <ele>243.576547</ele>
        <time>2017-06-04T08:37:17.000Z</time>
      </trkpt>
      <trkpt lat="45.293747" lon="5.547993">
        <ele>243.515029</ele>
        <time>2017-06-04T08:37:19.000Z</time>
      </trkpt>
      <trkpt lat="45.293720" lon="5.547854">
        <ele>243.453189</ele>
        <time>2017-06-04T08:37:21.000Z</time>
      </trkpt>
      <trkpt lat="45.293697" lon="5.547726">
        <ele>243.514826</ele>
        <time>2017-06-04T08:37:23.000Z</time>
      </trkpt>
      <trkpt lat="45.293680" lon="5.547589">
        <ele>243.626795</ele>
        <time>2017-06-04T08:37:25.000Z</time>
      </trkpt>
      <trkpt lat="45.293680" lon="5.547446">
        <ele>243.741892</ele>
        <time>2017-06-04T08:37:27.000Z</time>
      </trkpt>
      <trkpt lat="45.293670" lon="5.547310">
        <ele>243.851950</ele>
        <time>2017-06-04T08:37:29.000Z</time>
      </trkpt>
      <trkpt lat="45.293655" lon="5.547166">
        <ele>243.969115</ele>
        <time>2017-06-04T08:37:31.000Z</time>
      </trkpt>
      <trkpt lat="45.293650" lon="5.547017">
        <ele>244.089177</ele>
        <time>2017-06-04T08:37:33.000Z</time>
      </trkpt>
      <trkpt lat="45.293648" lon="5.546878">
        <ele>244.201078</ele>
        <time>2017-06-04T08:37:35.000Z</time>
      </trkpt>
      <trkpt lat="45.293636" lon="5.546735">
        <ele>244.316990</ele>
        <time>2017-06-04T08:37:37.000Z</time>
      </trkpt>
      <trkpt lat="45.293613" lon="5.546594">
        <ele>244.433488</ele>
        <time>2017-06-04T08:37:39.000Z</time>
      </trkpt>
      <trkpt lat="45.293606" lon="5.546454">
        <ele>244.546454</ele>
        <time>2017-06-04T08:37:41.000Z</time>
      </trkpt>
      <trkpt lat="45.293602" lon="5.546309">
        <ele>244.663251</ele>
        <time>2017-06-04T08:37:43.000Z</time>
      </trkpt>
      <trkpt lat="45.293580" lon="5.546176">
        <ele>244.773218</ele>
        <time>2017-06-04T08:37:45.000Z</time>
      </trkpt>
      <trkpt lat="45.293568" lon="5.546037">
        <ele>244.885934</ele>
        <time>2017-06-04T08:37:47.000Z</time>
      </trkpt>
      <trkpt lat="45.293560" lon="5.545898">
        <ele>244.998185</ele>
        <time>2017-06-04T08:37:49.000Z</time>
      </trkpt>
      <trkpt lat="45.293560" lon="5.545751">
        <ele>245.116502</ele>
        <time>2017-06-04T08:37:51.000Z</time>
      </trkpt>
      <trkpt lat="45.293540" lon="5.545604">
        <ele>245.237010</ele>
        <time>2017-06-04T08:37:53.000Z</time>
      </trkpt>
      <trkpt lat="45.293520" lon="5.545456">
        <ele>245.358309</ele>
        <time>2017-06-04T08:37:55.000Z</time>
      </trkpt>
      <trkpt lat="45.293500" lon="5.545300">
        <ele>245.485938</ele>
        <time>2017-06-04T08:37:57.000Z</time>
      </trkpt>
      <trkpt lat="45.293480" lon="5.545155">
        <ele>245.401949</ele>
        <time>2017-06-04T08:37:59.000Z</time>
      </trkpt>
      <trkpt lat="45.293457" lon="5.545010">
        <ele>245.299513</ele>
        <time>2017-06-04T08:38:01.000Z</time>
      </trkpt>
      <trkpt lat="45.293430" lon="5.544863">
        <ele>245.194812</ele>
        <time>2017-06-04T08:38:03.000Z</time>
      </trkpt>
      <trkpt lat="45.293407" lon="5.544712">
        <ele>245.088338</ele>
        <time>2017-06-04T08:38:05.000Z</time>
      </trkpt>
      <trkpt lat="45.293385" lon="5.544550">
        <ele>244.974634</ele>
        <time>2017-06-04T08:38:07.000Z</time>
      </trkpt>
      <trkpt lat="45.293358" lon="5.544395">
        <ele>244.864589</ele>
        <time>2017-06-04T08:38:09.000Z</time>
      </trkpt>
      <trkpt lat="45.293335" lon="5.544243">
        <ele>244.757442</ele>
        <time>2017-06-04T08:38:11.000Z</time>
      </trkpt>
      <trkpt lat="45.293312" lon="5.544090">
        <ele>244.649621</ele>
        <time>2017-06-04T08:38:13.000Z</time>
      </trkpt>
      <trkpt lat="45.293293" lon="5.543932">
        <ele>244.539155</ele>
        <time>2017-06-04T08:38:15.000Z</time>
      </trkpt>
      <trkpt lat="45.293262" lon="5.543787">
        <ele>244.434715</ele>
        <time>2017-06-04T08:38:17.000Z</time>
      </trkpt>
      <trkpt lat="45.293250" lon="5.543644">
        <ele>244.335467</ele>
        <time>2017-06-04T08:38:19.000Z</time>
      </trkpt>
      <trkpt lat="45.293224" lon="5.543485">
        <ele>244.222970</ele>
        <time>2017-06-04T08:38:21.000Z</time>
      </trkpt>
      <trkpt lat="45.293198" lon="5.543333">
        <ele>244.115167</ele>
        <time>2017-06-04T08:38:23.000Z</time>
      </trkpt>
      <trkpt lat="45.293180" lon="5.543189">
        <ele>244.014374</ele>
        <time>2017-06-04T08:38:25.000Z</time>
      </trkpt>
      <trkpt lat="45.293156" lon="5.543028">
        <ele>243.900956</ele>
        <time>2017-06-04T08:38:27.000Z</time>
      </trkpt>
      <trkpt lat="45.293133" lon="5.542875">
        <ele>243.793135</ele>
        <time>2017-06-04T08:38:29.000Z</time>
      </trkpt>
      <trkpt lat="45.293110" lon="5.542714">
        <ele>243.738829</ele>
        <time>2017-06-04T08:38:31.000Z</time>
      </trkpt>
      <trkpt lat="45.293100" lon="5.542567">
        <ele>243.748892</ele>
        <time>2017-06-04T08:38:33.000Z</time>
      </trkpt>
      <trkpt lat="45.293080" lon="5.542407">
        <ele>243.759964</ele>
        <time>2017-06-04T08:38:35.000Z</time>
      </trkpt>
      <trkpt lat="45.293053" lon="5.542246">
        <ele>243.771242</ele>
        <time>2017-06-04T08:38:37.000Z</time>
      </trkpt>
      <trkpt lat="45.293020" lon="5.542090">
        <ele>243.782341</ele>
        <time>2017-06-04T08:38:39.000Z</time>
      </trkpt>
      <trkpt lat="45.292988" lon="5.541937">
        <ele>243.793217</ele>
        <time>2017-06-04T08:38:41.000Z</time>
      </trkpt>
      <trkpt lat="45.292960" lon="5.541791">
        <ele>243.803528</ele>
        <time>2017-06-04T08:38:43.000Z</time>
      </trkpt>
      <trkpt lat="45.292930" lon="5.541639">
        <ele>243.814285</ele>
        <time>2017-06-04T08:38:45.000Z</time>
      </trkpt>
      <trkpt lat="45.292910" lon="5.541483">
        <ele>243.825089</ele>
        <time>2017-06-04T08:38:47.000Z</time>
      </trkpt>
      <trkpt lat="45.292885" lon="5.541325">
        <ele>243.836124</ele>
        <time>2017-06-04T08:38:49.000Z</time>
      </trkpt>
      <trkpt lat="45.292870" lon="5.541161">
        <ele>243.847392</ele>
        <time>2017-06-04T08:38:51.000Z</time>
      </trkpt>
      <trkpt lat="45.292843" lon="5.540999">
        <ele>243.858736</ele>
        <time>2017-06-04T08:38:53.000Z</time>
      </trkpt>
      <trkpt lat="45.292824" lon="5.540830">
        <ele>243.870397</ele>
        <time>2017-06-04T08:38:55.000Z</time>
      </trkpt>
      <trkpt lat="45.292790" lon="5.540668">
        <ele>243.881916</ele>
        <time>2017-06-04T08:38:57.000Z</time>
      </trkpt>
      <trkpt lat="45.292767" lon="5.540497">
        <ele>243.893779</ele>
        <time>2017-06-04T08:38:59.000Z</time>
      </trkpt>
      <trkpt lat="45.292740" lon="5.540344">
        <ele>243.904527</ele>
        <time>2017-06-04T08:39:01.000Z</time>
      </trkpt>
      <trkpt lat="45.292710" lon="5.540189">
        <ele>243.869882</ele>
        <time>2017-06-04T08:39:03.000Z</time>
      </trkpt>
      <trkpt lat="45.292686" lon="5.540034">
        <ele>243.817004</ele>
        <time>2017-06-04T08:39:05.000Z</time>
      </trkpt>
      <trkpt lat="45.292664" lon="5.539882">
        <ele>243.765300</ele>
        <time>2017-06-04T08:39:07.000Z</time>
      </trkpt>
      <trkpt lat="45.292633" lon="5.539735">
        <ele>243.714170</ele>
        <time>2017-06-04T08:39:09.000Z</time>
      </trkpt>
      <trkpt lat="45.292606" lon="5.539582">
        <ele>243.661615</ele>
        <time>2017-06-04T08:39:11.000Z</time>
      </trkpt>
      <trkpt lat="45.292583" lon="5.539427">
        <ele>243.608836</ele>
        <time>2017-06-04T08:39:13.000Z</time>
      </trkpt>
      <trkpt lat="45.292553" lon="5.539280">
        <ele>243.557840</ele>
        <time>2017-06-04T08:39:15.000Z</time>
      </trkpt>
      <trkpt lat="45.292522" lon="5.539135">
        <ele>243.507348</ele>
        <time>2017-06-04T08:39:17.000Z</time>
      </trkpt>
      <trkpt lat="45.292492" lon="5.538991">
        <ele>243.457311</ele>
        <time>2017-06-04T08:39:19.000Z</time>
      </trkpt>
      <trkpt lat="45.292460" lon="5.538852">
        <ele>243.408582</ele>
        <time>2017-06-04T08:39:21.000Z</time>
      </trkpt>
      <trkpt lat="45.292435" lon="5.538717">
        <ele>243.362071</ele>
        <time>2017-06-04T08:39:23.000Z</time>
      </trkpt>
      <trkpt lat="45.292408" lon="5.538576">
        <ele>243.313384</ele>
        <time>2017-06-04T08:39:25.000Z</time>
      </trkpt>
      <trkpt lat="45.292374" lon="5.538443">
        <ele>243.266236</ele>
        <time>2017-06-04T08:39:27.000Z</time>
      </trkpt>
      <trkpt lat="45.292350" lon="5.538299">
        <ele>243.216930</ele>
        <time>2017-06-04T08:39:29.000Z</time>
      </trkpt>
      <trkpt lat="45.292340" lon="5.538170">
        <ele>243.173690</ele>
        <time>2017-06-04T08:39:31.000Z</time>
      </trkpt>
      <trkpt lat="45.292310" lon="5.538038">
        <ele>243.127473</ele>
        <time>2017-06-04T08:39:33.000Z</time>
      </trkpt>
      <trkpt lat="45.292297" lon="5.537907">
        <ele>243.083394</ele>
        <time>2017-06-04T08:39:35.000Z</time>
      </trkpt>
      <trkpt lat="45.292250" lon="5.537775">
        <ele>243.097086</ele>
        <time>2017-06-04T08:39:37.000Z</time>
      </trkpt>
      <trkpt lat="45.292206" lon="5.537625">
        <ele>243.199483</ele>
        <time>2017-06-04T08:39:39.000Z</time>
      </trkpt>
      <trkpt lat="45.292194" lon="5.537481">
        <ele>243.290848</ele>
        <time>2017-06-04T08:39:41.000Z</time>
      </trkpt>
      <trkpt lat="45.292180" lon="5.537345">
        <ele>243.377450</ele>
        <time>2017-06-04T08:39:43.000Z</time>
      </trkpt>
      <trkpt lat="45.292164" lon="5.537156">
        <ele>243.497392</ele>
        <time>2017-06-04T08:39:46.000Z</time>
      </trkpt>
      <trkpt lat="45.292140" lon="5.536980">
        <ele>243.610348</ele>
        <time>2017-06-04T08:39:48.000Z</time>
      </trkpt>
      <trkpt lat="45.292114" lon="5.536820">
        <ele>243.713814</ele>
        <time>2017-06-04T08:39:50.000Z</time>
      </trkpt>
      <trkpt lat="45.292095" lon="5.536666">
        <ele>243.812326</ele>
        <time>2017-06-04T08:39:52.000Z</time>
      </trkpt>
      <trkpt lat="45.292060" lon="5.536522">
        <ele>243.908318</ele>
        <time>2017-06-04T08:39:54.000Z</time>
      </trkpt>
      <trkpt lat="45.292038" lon="5.536377">
        <ele>244.001779</ele>
        <time>2017-06-04T08:39:56.000Z</time>
      </trkpt>
      <trkpt lat="45.291996" lon="5.536241">
        <ele>244.095362</ele>
        <time>2017-06-04T08:39:58.000Z</time>
      </trkpt>
      <trkpt lat="45.291965" lon="5.536099">
        <ele>244.189041</ele>
        <time>2017-06-04T08:40:00.000Z</time>
      </trkpt>
      <trkpt lat="45.291950" lon="5.535941">
        <ele>244.289495</ele>
        <time>2017-06-04T08:40:02.000Z</time>
      </trkpt>
      <trkpt lat="45.291924" lon="5.535784">
        <ele>244.391120</ele>
        <time>2017-06-04T08:40:04.000Z</time>
      </trkpt>
      <trkpt lat="45.291890" lon="5.535638">
        <ele>244.488020</ele>
        <time>2017-06-04T08:40:06.000Z</time>
      </trkpt>
      <trkpt lat="45.291840" lon="5.535502">
        <ele>244.584706</ele>
        <time>2017-06-04T08:40:08.000Z</time>
      </trkpt>
      <trkpt lat="45.291800" lon="5.535368">
        <ele>244.660291</ele>
        <time>2017-06-04T08:40:10.000Z</time>
      </trkpt>
      <trkpt lat="45.291780" lon="5.535219">
        <ele>244.595483</ele>
        <time>2017-06-04T08:40:12.000Z</time>
      </trkpt>
      <trkpt lat="45.291763" lon="5.535059">
        <ele>244.526347</ele>
        <time>2017-06-04T08:40:14.000Z</time>
      </trkpt>
      <trkpt lat="45.291744" lon="5.534907">
        <ele>244.460388</ele>
        <time>2017-06-04T08:40:16.000Z</time>
      </trkpt>
      <trkpt lat="45.291720" lon="5.534748">
        <ele>244.390909</ele>
        <time>2017-06-04T08:40:18.000Z</time>
      </trkpt>
      <trkpt lat="45.291687" lon="5.534589">
        <ele>244.320082</ele>
        <time>2017-06-04T08:40:20.000Z</time>
      </trkpt>
      <trkpt lat="45.291656" lon="5.534436">
        <ele>244.252055</ele>
        <time>2017-06-04T08:40:22.000Z</time>
      </trkpt>
      <trkpt lat="45.291622" lon="5.534290">
        <ele>244.186348</ele>
        <time>2017-06-04T08:40:24.000Z</time>
      </trkpt>
      <trkpt lat="45.291595" lon="5.534164">
        <ele>244.130072</ele>
        <time>2017-06-04T08:40:26.000Z</time>
      </trkpt>
      <trkpt lat="45.291546" lon="5.534041">
        <ele>244.069679</ele>
        <time>2017-06-04T08:40:28.000Z</time>
      </trkpt>
      <trkpt lat="45.291527" lon="5.533906">
        <ele>244.010857</ele>
        <time>2017-06-04T08:40:30.000Z</time>
      </trkpt>
      <trkpt lat="45.291490" lon="5.533758">
        <ele>243.943750</ele>
        <time>2017-06-04T08:40:32.000Z</time>
      </trkpt>
      <trkpt lat="45.291450" lon="5.533602">
        <ele>243.872809</ele>
        <time>2017-06-04T08:40:34.000Z</time>
      </trkpt>
      <trkpt lat="45.291412" lon="5.533452">
        <ele>243.804693</ele>
        <time>2017-06-04T08:40:36.000Z</time>
      </trkpt>
      <trkpt lat="45.291374" lon="5.533306">
        <ele>243.738181</ele>
        <time>2017-06-04T08:40:38.000Z</time>
      </trkpt>
      <trkpt lat="45.291340" lon="5.533162">
        <ele>243.673284</ele>
        <time>2017-06-04T08:40:40.000Z</time>
      </trkpt>
      <trkpt lat="45.291300" lon="5.533024">
        <ele>243.609515</ele>
        <time>2017-06-04T08:40:42.000Z</time>
      </trkpt>
      <trkpt lat="45.291256" lon="5.532887">
        <ele>243.493036</ele>
        <time>2017-06-04T08:40:44.000Z</time>
      </trkpt>
      <trkpt lat="45.291218" lon="5.532754">
        <ele>243.322503</ele>
        <time>2017-06-04T08:40:46.000Z</time>
      </trkpt>
      <trkpt lat="45.291183" lon="5.532626">
        <ele>243.159362</ele>
        <time>2017-06-04T08:40:48.000Z</time>
      </trkpt>
      <trkpt lat="45.291150" lon="5.532499">
        <ele>242.998528</ele>
        <time>2017-06-04T08:40:50.000Z</time>
      </trkpt>
      <trkpt lat="45.291103" lon="5.532361">
        <ele>242.816388</ele>
        <time>2017-06-04T08:40:52.000Z</time>
      </trkpt>
      <trkpt lat="45.291073" lon="5.532217">
        <ele>242.637978</ele>
        <time>2017-06-04T08:40:54.000Z</time>
      </trkpt>
      <trkpt lat="45.291035" lon="5.532084">
        <ele>242.467445</ele>
        <time>2017-06-04T08:40:56.000Z</time>
      </trkpt>
      <trkpt lat="45.290985" lon="5.531948">
        <ele>242.285150</ele>
        <time>2017-06-04T08:40:58.000Z</time>
      </trkpt>
      <trkpt lat="45.290940" lon="5.531809">
        <ele>242.103377</ele>
        <time>2017-06-04T08:41:00.000Z</time>
      </trkpt>
      <trkpt lat="45.290882" lon="5.531679">
        <ele>241.920503</ele>
        <time>2017-06-04T08:41:02.000Z</time>
      </trkpt>
      <trkpt lat="45.290820" lon="5.531554">
        <ele>241.738810</ele>
        <time>2017-06-04T08:41:04.000Z</time>
      </trkpt>
      <trkpt lat="45.290760" lon="5.531429">
        <ele>241.559042</ele>
        <time>2017-06-04T08:41:06.000Z</time>
      </trkpt>
      <trkpt lat="45.290703" lon="5.531292">
        <ele>241.369957</ele>
        <time>2017-06-04T08:41:08.000Z</time>
      </trkpt>
      <trkpt lat="45.290640" lon="5.531154">
        <ele>241.174524</ele>
        <time>2017-06-04T08:41:10.000Z</time>
      </trkpt>
      <trkpt lat="45.290580" lon="5.531025">
        <ele>240.990811</ele>
        <time>2017-06-04T08:41:12.000Z</time>
      </trkpt>
      <trkpt lat="45.290512" lon="5.530904">
        <ele>240.806832</ele>
        <time>2017-06-04T08:41:14.000Z</time>
      </trkpt>
      <trkpt lat="45.290440" lon="5.530779">
        <ele>240.614912</ele>
        <time>2017-06-04T08:41:16.000Z</time>
      </trkpt>
      <trkpt lat="45.290375" lon="5.530652">
        <ele>240.573753</ele>
        <time>2017-06-04T08:41:18.000Z</time>
      </trkpt>
      <trkpt lat="45.290320" lon="5.530515">
        <ele>240.636689</ele>
        <time>2017-06-04T08:41:20.000Z</time>
      </trkpt>
      <trkpt lat="45.290245" lon="5.530397">
        <ele>240.700138</ele>
        <time>2017-06-04T08:41:22.000Z</time>
      </trkpt>
      <trkpt lat="45.290176" lon="5.530276">
        <ele>240.762284</ele>
        <time>2017-06-04T08:41:24.000Z</time>
      </trkpt>
      <trkpt lat="45.290104" lon="5.530148">
        <ele>240.827672</ele>
        <time>2017-06-04T08:41:26.000Z</time>
      </trkpt>
      <trkpt lat="45.290020" lon="5.530023">
        <ele>240.896643</ele>
        <time>2017-06-04T08:41:28.000Z</time>
      </trkpt>
      <trkpt lat="45.289936" lon="5.529902">
        <ele>240.964468</ele>
        <time>2017-06-04T08:41:30.000Z</time>
      </trkpt>
      <trkpt lat="45.289864" lon="5.529773">
        <ele>241.030169</ele>
        <time>2017-06-04T08:41:32.000Z</time>
      </trkpt>
      <trkpt lat="45.289787" lon="5.529647">
        <ele>241.096761</ele>
        <time>2017-06-04T08:41:34.000Z</time>
      </trkpt>
      <trkpt lat="45.289720" lon="5.529518">
        <ele>241.160737</ele>
        <time>2017-06-04T08:41:36.000Z</time>
      </trkpt>
      <trkpt lat="45.289646" lon="5.529398">
        <ele>241.224406</ele>
        <time>2017-06-04T08:41:38.000Z</time>
      </trkpt>
      <trkpt lat="45.289577" lon="5.529281">
        <ele>241.285321</ele>
        <time>2017-06-04T08:41:40.000Z</time>
      </trkpt>
      <trkpt lat="45.289497" lon="5.529172">
        <ele>241.348170</ele>
        <time>2017-06-04T08:41:42.000Z</time>
      </trkpt>
      <trkpt lat="45.289433" lon="5.529042">
        <ele>241.411478</ele>
        <time>2017-06-04T08:41:44.000Z</time>
      </trkpt>
      <trkpt lat="45.289356" lon="5.528926">
        <ele>241.475111</ele>
        <time>2017-06-04T08:41:46.000Z</time>
      </trkpt>
      <trkpt lat="45.289260" lon="5.528825">
        <ele>241.542848</ele>
        <time>2017-06-04T08:41:48.000Z</time>
      </trkpt>
      <trkpt lat="45.289165" lon="5.528729">
        <ele>241.537546</ele>
        <time>2017-06-04T08:41:50.000Z</time>
      </trkpt>
      <trkpt lat="45.289074" lon="5.528636">
        <ele>241.513287</ele>
        <time>2017-06-04T08:41:52.000Z</time>
      </trkpt>
      <trkpt lat="45.288980" lon="5.528555">
        <ele>241.489494</ele>
        <time>2017-06-04T08:41:54.000Z</time>
      </trkpt>
      <trkpt lat="45.288880" lon="5.528482">
        <ele>241.465162</ele>
        <time>2017-06-04T08:41:56.000Z</time>
      </trkpt>
      <trkpt lat="45.288776" lon="5.528425">
        <ele>241.441036</ele>
        <time>2017-06-04T08:41:58.000Z</time>
      </trkpt>
      <trkpt lat="45.288677" lon="5.528381">
        <ele>241.418585</ele>
        <time>2017-06-04T08:42:00.000Z</time>
      </trkpt>
      <trkpt lat="45.288570" lon="5.528343">
        <ele>241.394713</ele>
        <time>2017-06-04T08:42:02.000Z</time>
      </trkpt>
      <trkpt lat="45.288467" lon="5.528308">
        <ele>241.371791</ele>
        <time>2017-06-04T08:42:04.000Z</time>
      </trkpt>
      <trkpt lat="45.288372" lon="5.528254">
        <ele>241.349645</ele>
        <time>2017-06-04T08:42:06.000Z</time>
      </trkpt>
      <trkpt lat="45.288273" lon="5.528200">
        <ele>241.326693</ele>
        <time>2017-06-04T08:42:08.000Z</time>
      </trkpt>
      <trkpt lat="45.288185" lon="5.528172">
        <ele>241.307174</ele>
        <time>2017-06-04T08:42:10.000Z</time>
      </trkpt>
      <trkpt lat="45.288100" lon="5.528119">
        <ele>241.287084</ele>
        <time>2017-06-04T08:42:12.000Z</time>
      </trkpt>
      <trkpt lat="45.288017" lon="5.528070">
        <ele>241.267631</ele>
        <time>2017-06-04T08:42:14.000Z</time>
      </trkpt>
      <trkpt lat="45.287933" lon="5.528023">
        <ele>241.248091</ele>
        <time>2017-06-04T08:42:16.000Z</time>
      </trkpt>
      <trkpt lat="45.287853" lon="5.527964">
        <ele>241.228584</ele>
        <time>2017-06-04T08:42:18.000Z</time>
      </trkpt>
      <trkpt lat="45.287770" lon="5.527897">
        <ele>241.207923</ele>
        <time>2017-06-04T08:42:20.000Z</time>
      </trkpt>
      <trkpt lat="45.287680" lon="5.527818">
        <ele>241.185028</ele>
        <time>2017-06-04T08:42:22.000Z</time>
      </trkpt>
      <trkpt lat="45.287590" lon="5.527743">
        <ele>241.185584</ele>
        <time>2017-06-04T08:42:24.000Z</time>
      </trkpt>
      <trkpt lat="45.287510" lon="5.527655">
        <ele>241.255568</ele>
        <time>2017-06-04T08:42:26.000Z</time>
      </trkpt>
      <trkpt lat="45.287440" lon="5.527577">
        <ele>241.317103</ele>
        <time>2017-06-04T08:42:28.000Z</time>
      </trkpt>
      <trkpt lat="45.287334" lon="5.527478">
        <ele>241.404851</ele>
        <time>2017-06-04T08:42:32.000Z</time>
      </trkpt>
      <trkpt lat="45.287228" lon="5.527365">
        <ele>241.496518</ele>
        <time>2017-06-04T08:42:34.000Z</time>
      </trkpt>
      <trkpt lat="45.287125" lon="5.527249">
        <ele>241.587433</ele>
        <time>2017-06-04T08:42:37.000Z</time>
      </trkpt>
      <trkpt lat="45.287018" lon="5.527143">
        <ele>241.677664</ele>
        <time>2017-06-04T08:42:40.000Z</time>
      </trkpt>
      <trkpt lat="45.286920" lon="5.527038">
        <ele>241.762567</ele>
        <time>2017-06-04T08:42:43.000Z</time>
      </trkpt>
      <trkpt lat="45.286816" lon="5.526940">
        <ele>241.848892</ele>
        <time>2017-06-04T08:42:46.000Z</time>
      </trkpt>
      <trkpt lat="45.286736" lon="5.526855">
        <ele>241.917993</ele>
        <time>2017-06-04T08:42:49.000Z</time>
      </trkpt>
      <trkpt lat="45.286667" lon="5.526949">
        <ele>241.984114</ele>
        <time>2017-06-04T08:42:56.000Z</time>
      </trkpt>
      <trkpt lat="45.286564" lon="5.527010">
        <ele>242.061310</ele>
        <time>2017-06-04T08:43:00.000Z</time>
      </trkpt>
      <trkpt lat="45.286450" lon="5.526979">
        <ele>242.141608</ele>
        <time>2017-06-04T08:43:03.000Z</time>
      </trkpt>
      <trkpt lat="45.286350" lon="5.526885">
        <ele>242.224551</ele>
        <time>2017-06-04T08:43:06.000Z</time>
      </trkpt>
      <trkpt lat="45.286247" lon="5.526824">
        <ele>242.301747</ele>
        <time>2017-06-04T08:43:09.000Z</time>
      </trkpt>
      <trkpt lat="45.286137" lon="5.526784">
        <ele>242.380299</ele>
        <time>2017-06-04T08:43:11.000Z</time>
      </trkpt>
      <trkpt lat="45.286037" lon="5.526712">
        <ele>242.457195</ele>
        <time>2017-06-04T08:43:13.000Z</time>
      </trkpt>
      <trkpt lat="45.285920" lon="5.526640">
        <ele>242.544129</ele>
        <time>2017-06-04T08:43:16.000Z</time>
      </trkpt>
      <trkpt lat="45.285835" lon="5.526596">
        <ele>242.605811</ele>
        <time>2017-06-04T08:43:19.000Z</time>
      </trkpt>
      <trkpt lat="45.285744" lon="5.526529">
        <ele>242.675690</ele>
        <time>2017-06-04T08:43:23.000Z</time>
      </trkpt>
      <trkpt lat="45.285645" lon="5.526484">
        <ele>242.746562</ele>
        <time>2017-06-04T08:43:26.000Z</time>
      </trkpt>
      <trkpt lat="45.285522" lon="5.526448">
        <ele>242.832190</ele>
        <time>2017-06-04T08:43:29.000Z</time>
      </trkpt>
      <trkpt lat="45.285427" lon="5.526410">
        <ele>242.899483</ele>
        <time>2017-06-04T08:43:31.000Z</time>
      </trkpt>
      <trkpt lat="45.285340" lon="5.526380">
        <ele>242.960525</ele>
        <time>2017-06-04T08:43:33.000Z</time>
      </trkpt>
      <trkpt lat="45.285248" lon="5.526330">
        <ele>243.027686</ele>
        <time>2017-06-04T08:43:35.000Z</time>
      </trkpt>
      <trkpt lat="45.285156" lon="5.526281">
        <ele>243.094676</ele>
        <time>2017-06-04T08:43:37.000Z</time>
      </trkpt>
      <trkpt lat="45.285065" lon="5.526231">
        <ele>243.161201</ele>
        <time>2017-06-04T08:43:39.000Z</time>
      </trkpt>
      <trkpt lat="45.284977" lon="5.526189">
        <ele>243.224497</ele>
        <time>2017-06-04T08:43:41.000Z</time>
      </trkpt>
      <trkpt lat="45.284866" lon="5.526112">
        <ele>243.308716</ele>
        <time>2017-06-04T08:43:44.000Z</time>
      </trkpt>
      <trkpt lat="45.284780" lon="5.526063">
        <ele>243.371892</ele>
        <time>2017-06-04T08:43:47.000Z</time>
      </trkpt>
      <trkpt lat="45.284687" lon="5.526030">
        <ele>243.437251</ele>
        <time>2017-06-04T08:43:50.000Z</time>
      </trkpt>
      <trkpt lat="45.284576" lon="5.525982">
        <ele>243.516363</ele>
        <time>2017-06-04T08:43:53.000Z</time>
      </trkpt>
      <trkpt lat="45.284450" lon="5.525930">
        <ele>243.605825</ele>
        <time>2017-06-04T08:43:56.000Z</time>
      </trkpt>
      <trkpt lat="45.284360" lon="5.525897">
        <ele>243.628116</ele>
        <time>2017-06-04T08:43:58.000Z</time>
      </trkpt>
      <trkpt lat="45.284237" lon="5.525871">
        <ele>243.598631</ele>
        <time>2017-06-04T08:44:01.000Z</time>
      </trkpt>
      <trkpt lat="45.284140" lon="5.525847">
        <ele>243.575285</ele>
        <time>2017-06-04T08:44:07.000Z</time>
      </trkpt>
      <trkpt lat="45.284016" lon="5.525806">
        <ele>243.545099</ele>
        <time>2017-06-04T08:48:44.000Z</time>
      </trkpt>
      <trkpt lat="45.283920" lon="5.525753">
        <ele>243.520679</ele>
        <time>2017-06-04T08:48:48.000Z</time>
      </trkpt>
      <trkpt lat="45.283817" lon="5.525696">
        <ele>243.494471</ele>
        <time>2017-06-04T08:48:52.000Z</time>
      </trkpt>
      <trkpt lat="45.283707" lon="5.525653">
        <ele>243.467420</ele>
        <time>2017-06-04T08:48:56.000Z</time>
      </trkpt>
      <trkpt lat="45.283615" lon="5.525621">
        <ele>243.444963</ele>
        <time>2017-06-04T08:48:59.000Z</time>
      </trkpt>
      <trkpt lat="45.283512" lon="5.525590">
        <ele>243.419999</ele>
        <time>2017-06-04T08:49:02.000Z</time>
      </trkpt>
      <trkpt lat="45.283405" lon="5.525542">
        <ele>243.393394</ele>
        <time>2017-06-04T08:49:05.000Z</time>
      </trkpt>
      <trkpt lat="45.283283" lon="5.525508">
        <ele>243.363916</ele>
        <time>2017-06-04T08:49:08.000Z</time>
      </trkpt>
      <trkpt lat="45.283157" lon="5.525474">
        <ele>243.333506</ele>
        <time>2017-06-04T08:49:11.000Z</time>
      </trkpt>
      <trkpt lat="45.283070" lon="5.525448">
        <ele>243.312427</ele>
        <time>2017-06-04T08:49:13.000Z</time>
      </trkpt>
      <trkpt lat="45.282974" lon="5.525418">
        <ele>243.289120</ele>
        <time>2017-06-04T08:49:15.000Z</time>
      </trkpt>
      <trkpt lat="45.282883" lon="5.525401">
        <ele>243.267358</ele>
        <time>2017-06-04T08:49:17.000Z</time>
      </trkpt>
      <trkpt lat="45.282776" lon="5.525376">
        <ele>243.241647</ele>
        <time>2017-06-04T08:49:20.000Z</time>
      </trkpt>
      <trkpt lat="45.282673" lon="5.525350">
        <ele>243.216842</ele>
        <time>2017-06-04T08:49:23.000Z</time>
      </trkpt>
      <trkpt lat="45.282560" lon="5.525307">
        <ele>243.137703</ele>
        <time>2017-06-04T08:49:26.000Z</time>
      </trkpt>
      <trkpt lat="45.282440" lon="5.525272">
        <ele>243.044127</ele>
        <time>2017-06-04T08:49:29.000Z</time>
      </trkpt>
      <trkpt lat="45.282322" lon="5.525213">
        <ele>242.948572</ele>
        <time>2017-06-04T08:49:32.000Z</time>
      </trkpt>
      <trkpt lat="45.282220" lon="5.525183">
        <ele>242.869005</ele>
        <time>2017-06-04T08:49:35.000Z</time>
      </trkpt>
      <trkpt lat="45.282093" lon="5.525132">
        <ele>242.768193</ele>
        <time>2017-06-04T08:49:38.000Z</time>
      </trkpt>
      <trkpt lat="45.281980" lon="5.525091">
        <ele>242.679105</ele>
        <time>2017-06-04T08:49:41.000Z</time>
      </trkpt>
      <trkpt lat="45.281876" lon="5.525051">
        <ele>242.596803</ele>
        <time>2017-06-04T08:49:44.000Z</time>
      </trkpt>
      <trkpt lat="45.281760" lon="5.525007">
        <ele>242.505091</ele>
        <time>2017-06-04T08:49:47.000Z</time>
      </trkpt>
      <trkpt lat="45.281650" lon="5.524968">
        <ele>242.418488</ele>
        <time>2017-06-04T08:49:50.000Z</time>
      </trkpt>
      <trkpt lat="45.281540" lon="5.524941">
        <ele>242.333216</ele>
        <time>2017-06-04T08:49:53.000Z</time>
      </trkpt>
      <trkpt lat="45.281420" lon="5.524880">
        <ele>242.235862</ele>
        <time>2017-06-04T08:49:56.000Z</time>
      </trkpt>
      <trkpt lat="45.281334" lon="5.524851">
        <ele>242.168344</ele>
        <time>2017-06-04T08:49:58.000Z</time>
      </trkpt>
      <trkpt lat="45.281204" lon="5.524822">
        <ele>242.067823</ele>
        <time>2017-06-04T08:50:01.000Z</time>
      </trkpt>
      <trkpt lat="45.281113" lon="5.524790">
        <ele>241.996213</ele>
        <time>2017-06-04T08:50:03.000Z</time>
      </trkpt>
      <trkpt lat="45.280990" lon="5.524761">
        <ele>241.900971</ele>
        <time>2017-06-04T08:50:06.000Z</time>
      </trkpt>
      <trkpt lat="45.280865" lon="5.524727">
        <ele>241.794936</ele>
        <time>2017-06-04T08:50:09.000Z</time>
      </trkpt>
      <trkpt lat="45.280777" lon="5.524699">
        <ele>241.708462</ele>
        <time>2017-06-04T08:50:11.000Z</time>
      </trkpt>
      <trkpt lat="45.280685" lon="5.524666">
        <ele>241.617475</ele>
        <time>2017-06-04T08:50:13.000Z</time>
      </trkpt>
      <trkpt lat="45.280590" lon="5.524620">
        <ele>241.521236</ele>
        <time>2017-06-04T08:50:15.000Z</time>
      </trkpt>
      <trkpt lat="45.280502" lon="5.524582">
        <ele>241.433042</ele>
        <time>2017-06-04T08:50:17.000Z</time>
      </trkpt>
      <trkpt lat="45.280410" lon="5.524539">
        <ele>241.340173</ele>
        <time>2017-06-04T08:50:19.000Z</time>
      </trkpt>
      <trkpt lat="45.280315" lon="5.524514">
        <ele>241.247527</ele>
        <time>2017-06-04T08:50:21.000Z</time>
      </trkpt>
      <trkpt lat="45.280228" lon="5.524490">
        <ele>241.162544</ele>
        <time>2017-06-04T08:50:23.000Z</time>
      </trkpt>
      <trkpt lat="45.280136" lon="5.524458">
        <ele>241.071720</ele>
        <time>2017-06-04T08:50:25.000Z</time>
      </trkpt>
      <trkpt lat="45.280040" lon="5.524413">
        <ele>240.974786</ele>
        <time>2017-06-04T08:50:27.000Z</time>
      </trkpt>
      <trkpt lat="45.279940" lon="5.524384">
        <ele>240.876918</ele>
        <time>2017-06-04T08:50:29.000Z</time>
      </trkpt>
      <trkpt lat="45.279840" lon="5.524344">
        <ele>240.777301</ele>
        <time>2017-06-04T08:50:31.000Z</time>
      </trkpt>
      <trkpt lat="45.279743" lon="5.524306">
        <ele>240.680816</ele>
        <time>2017-06-04T08:50:33.000Z</time>
      </trkpt>
      <trkpt lat="45.279640" lon="5.524257">
        <ele>240.576661</ele>
        <time>2017-06-04T08:50:35.000Z</time>
      </trkpt>
      <trkpt lat="45.279537" lon="5.524216">
        <ele>240.474091</ele>
        <time>2017-06-04T08:50:37.000Z</time>
      </trkpt>
      <trkpt lat="45.279438" lon="5.524179">
        <ele>240.375931</ele>
        <time>2017-06-04T08:50:39.000Z</time>
      </trkpt>
      <trkpt lat="45.279330" lon="5.524151">
        <ele>240.270658</ele>
        <time>2017-06-04T08:50:41.000Z</time>
      </trkpt>
      <trkpt lat="45.279224" lon="5.524125">
        <ele>240.167510</ele>
        <time>2017-06-04T08:50:43.000Z</time>
      </trkpt>
      <trkpt lat="45.279114" lon="5.524104">
        <ele>240.156179</ele>
        <time>2017-06-04T08:50:45.000Z</time>
      </trkpt>
      <trkpt lat="45.279007" lon="5.524076">
        <ele>240.241016</ele>
        <time>2017-06-04T08:50:47.000Z</time>
      </trkpt>
      <trkpt lat="45.278904" lon="5.524044">
        <ele>240.323229</ele>
        <time>2017-06-04T08:50:49.000Z</time>
      </trkpt>
      <trkpt lat="45.278810" lon="5.524014">
        <ele>240.398353</ele>
        <time>2017-06-04T08:50:51.000Z</time>
      </trkpt>
      <trkpt lat="45.278706" lon="5.523970">
        <ele>240.482966</ele>
        <time>2017-06-04T08:50:53.000Z</time>
      </trkpt>
      <trkpt lat="45.278603" lon="5.523923">
        <ele>240.567321</ele>
        <time>2017-06-04T08:50:55.000Z</time>
      </trkpt>
      <trkpt lat="45.278500" lon="5.523886">
        <ele>240.650163</ele>
        <time>2017-06-04T08:50:57.000Z</time>
      </trkpt>
      <trkpt lat="45.278393" lon="5.523848">
        <ele>240.736164</ele>
        <time>2017-06-04T08:50:59.000Z</time>
      </trkpt>
      <trkpt lat="45.278290" lon="5.523816">
        <ele>240.818377</ele>
        <time>2017-06-04T08:51:01.000Z</time>
      </trkpt>
      <trkpt lat="45.278183" lon="5.523765">
        <ele>240.906380</ele>
        <time>2017-06-04T08:51:03.000Z</time>
      </trkpt>
      <trkpt lat="45.278084" lon="5.523724">
        <ele>240.986788</ele>
        <time>2017-06-04T08:51:05.000Z</time>
      </trkpt>
      <trkpt lat="45.277980" lon="5.523676">
        <ele>241.072053</ele>
        <time>2017-06-04T08:51:07.000Z</time>
      </trkpt>
      <trkpt lat="45.277870" lon="5.523633">
        <ele>241.161013</ele>
        <time>2017-06-04T08:51:09.000Z</time>
      </trkpt>
      <trkpt lat="45.277775" lon="5.523596">
        <ele>241.237823</ele>
        <time>2017-06-04T08:51:11.000Z</time>
      </trkpt>
      <trkpt lat="45.277670" lon="5.523555">
        <ele>241.322733</ele>
        <time>2017-06-04T08:51:13.000Z</time>
      </trkpt>
      <trkpt lat="45.277576" lon="5.523521">
        <ele>241.398368</ele>
        <time>2017-06-04T08:51:15.000Z</time>
      </trkpt>
      <trkpt lat="45.277490" lon="5.523472">
        <ele>241.470617</ele>
        <time>2017-06-04T08:51:17.000Z</time>
      </trkpt>
      <trkpt lat="45.277378" lon="5.523439">
        <ele>241.526260</ele>
        <time>2017-06-04T08:51:19.000Z</time>
      </trkpt>
      <trkpt lat="45.277270" lon="5.523398">
        <ele>241.546595</ele>
        <time>2017-06-04T08:51:21.000Z</time>
      </trkpt>
      <trkpt lat="45.277170" lon="5.523367">
        <ele>241.565214</ele>
        <time>2017-06-04T08:51:23.000Z</time>
      </trkpt>
      <trkpt lat="45.277050" lon="5.523320">
        <ele>241.587856</ele>
        <time>2017-06-04T08:51:25.000Z</time>
      </trkpt>
      <trkpt lat="45.276943" lon="5.523288">
        <ele>241.607747</ele>
        <time>2017-06-04T08:51:27.000Z</time>
      </trkpt>
      <trkpt lat="45.276836" lon="5.523252">
        <ele>241.627749</ele>
        <time>2017-06-04T08:51:29.000Z</time>
      </trkpt>
      <trkpt lat="45.276726" lon="5.523209">
        <ele>241.648502</ele>
        <time>2017-06-04T08:51:31.000Z</time>
      </trkpt>
      <trkpt lat="45.276620" lon="5.523185">
        <ele>241.668027</ele>
        <time>2017-06-04T08:51:33.000Z</time>
      </trkpt>
      <trkpt lat="45.276510" lon="5.523143">
        <ele>241.688747</ele>
        <time>2017-06-04T08:51:35.000Z</time>
      </trkpt>
      <trkpt lat="45.276390" lon="5.523108">
        <ele>241.711030</ele>
        <time>2017-06-04T08:51:37.000Z</time>
      </trkpt>
      <trkpt lat="45.276280" lon="5.523075">
        <ele>241.731481</ele>
        <time>2017-06-04T08:51:39.000Z</time>
      </trkpt>
      <trkpt lat="45.276184" lon="5.523033">
        <ele>241.749753</ele>
        <time>2017-06-04T08:51:41.000Z</time>
      </trkpt>
      <trkpt lat="45.276085" lon="5.522974">
        <ele>241.769281</ele>
        <time>2017-06-04T08:51:43.000Z</time>
      </trkpt>
      <trkpt lat="45.275963" lon="5.522926">
        <ele>241.792309</ele>
        <time>2017-06-04T08:51:45.000Z</time>
      </trkpt>
      <trkpt lat="45.275845" lon="5.522898">
        <ele>241.814071</ele>
        <time>2017-06-04T08:51:47.000Z</time>
      </trkpt>
      <trkpt lat="45.275734" lon="5.522853">
        <ele>241.835068</ele>
        <time>2017-06-04T08:51:49.000Z</time>
      </trkpt>
      <trkpt lat="45.275630" lon="5.522819">
        <ele>241.889434</ele>
        <time>2017-06-04T08:51:51.000Z</time>
      </trkpt>
      <trkpt lat="45.275528" lon="5.522769">
        <ele>241.970086</ele>
        <time>2017-06-04T08:51:53.000Z</time>
      </trkpt>
      <trkpt lat="45.275414" lon="5.522725">
        <ele>242.058386</ele>
        <time>2017-06-04T08:51:55.000Z</time>
      </trkpt>
      <trkpt lat="45.275307" lon="5.522679">
        <ele>242.141946</ele>
        <time>2017-06-04T08:51:57.000Z</time>
      </trkpt>
      <trkpt lat="45.275200" lon="5.522632">
        <ele>242.225660</ele>
        <time>2017-06-04T08:51:59.000Z</time>
      </trkpt>
      <trkpt lat="45.275090" lon="5.522587">
        <ele>242.311222</ele>
        <time>2017-06-04T08:52:01.000Z</time>
      </trkpt>
      <trkpt lat="45.274980" lon="5.522530">
        <ele>242.398741</ele>
        <time>2017-06-04T08:52:03.000Z</time>
      </trkpt>
      <trkpt lat="45.274876" lon="5.522488">
        <ele>242.479557</ele>
        <time>2017-06-04T08:52:05.000Z</time>
      </trkpt>
      <trkpt lat="45.274760" lon="5.522453">
        <ele>242.568197</ele>
        <time>2017-06-04T08:52:07.000Z</time>
      </trkpt>
      <trkpt lat="45.274660" lon="5.522417">
        <ele>242.645307</ele>
        <time>2017-06-04T08:52:09.000Z</time>
      </trkpt>
      <trkpt lat="45.274550" lon="5.522368">
        <ele>242.731474</ele>
        <time>2017-06-04T08:52:11.000Z</time>
      </trkpt>
      <trkpt lat="45.274445" lon="5.522338">
        <ele>242.811530</ele>
        <time>2017-06-04T08:52:13.000Z</time>
      </trkpt>
      <trkpt lat="45.274330" lon="5.522295">
        <ele>242.900417</ele>
        <time>2017-06-04T08:52:15.000Z</time>
      </trkpt>
      <trkpt lat="45.274220" lon="5.522259">
        <ele>242.984792</ele>
        <time>2017-06-04T08:52:17.000Z</time>
      </trkpt>
      <trkpt lat="45.274105" lon="5.522218">
        <ele>243.073416</ele>
        <time>2017-06-04T08:52:19.000Z</time>
      </trkpt>
      <trkpt lat="45.273987" lon="5.522185">
        <ele>243.163310</ele>
        <time>2017-06-04T08:52:21.000Z</time>
      </trkpt>
      <trkpt lat="45.273870" lon="5.522161">
        <ele>243.169691</ele>
        <time>2017-06-04T08:52:23.000Z</time>
      </trkpt>
      <trkpt lat="45.273758" lon="5.522144">
        <ele>243.146010</ele>
        <time>2017-06-04T08:52:25.000Z</time>
      </trkpt>
      <trkpt lat="45.273647" lon="5.522128">
        <ele>243.122554</ele>
        <time>2017-06-04T08:52:27.000Z</time>
      </trkpt>
      <trkpt lat="45.273533" lon="5.522106">
        <ele>243.098367</ele>
        <time>2017-06-04T08:52:29.000Z</time>
      </trkpt>
      <trkpt lat="45.273426" lon="5.522079">
        <ele>243.075519</ele>
        <time>2017-06-04T08:52:31.000Z</time>
      </trkpt>
      <trkpt lat="45.273315" lon="5.522040">
        <ele>243.051480</ele>
        <time>2017-06-04T08:52:33.000Z</time>
      </trkpt>
      <trkpt lat="45.273210" lon="5.522002">
        <ele>243.028700</ele>
        <time>2017-06-04T08:52:35.000Z</time>
      </trkpt>
      <trkpt lat="45.273087" lon="5.521968">
        <ele>243.002356</ele>
        <time>2017-06-04T08:52:37.000Z</time>
      </trkpt>
      <trkpt lat="45.272970" lon="5.521925">
        <ele>242.976949</ele>
        <time>2017-06-04T08:52:39.000Z</time>
      </trkpt>
      <trkpt lat="45.272858" lon="5.521892">
        <ele>242.952901</ele>
        <time>2017-06-04T08:52:41.000Z</time>
      </trkpt>
      <trkpt lat="45.272743" lon="5.521852">
        <ele>242.928010</ele>
        <time>2017-06-04T08:52:43.000Z</time>
      </trkpt>
      <trkpt lat="45.272640" lon="5.521813">
        <ele>242.905599</ele>
        <time>2017-06-04T08:52:45.000Z</time>
      </trkpt>
      <trkpt lat="45.272537" lon="5.521762">
        <ele>242.882668</ele>
        <time>2017-06-04T08:52:47.000Z</time>
      </trkpt>
      <trkpt lat="45.272427" lon="5.521730">
        <ele>242.859062</ele>
        <time>2017-06-04T08:52:49.000Z</time>
      </trkpt>
      <trkpt lat="45.272300" lon="5.521688">
        <ele>242.831648</ele>
        <time>2017-06-04T08:52:51.000Z</time>
      </trkpt>
      <trkpt lat="45.272175" lon="5.521659">
        <ele>242.795083</ele>
        <time>2017-06-04T08:52:53.000Z</time>
      </trkpt>
      <trkpt lat="45.272057" lon="5.521636">
        <ele>242.715017</ele>
        <time>2017-06-04T08:52:55.000Z</time>
      </trkpt>
      <trkpt lat="45.271950" lon="5.521602">
        <ele>242.641312</ele>
        <time>2017-06-04T08:52:57.000Z</time>
      </trkpt>
      <trkpt lat="45.271830" lon="5.521563">
        <ele>242.558562</ele>
        <time>2017-06-04T08:52:59.000Z</time>
      </trkpt>
      <trkpt lat="45.271717" lon="5.521541">
        <ele>242.481891</ele>
        <time>2017-06-04T08:53:01.000Z</time>
      </trkpt>
      <trkpt lat="45.271600" lon="5.521510">
        <ele>242.401884</ele>
        <time>2017-06-04T08:53:03.000Z</time>
      </trkpt>
      <trkpt lat="45.271460" lon="5.521452">
        <ele>242.303854</ele>
        <time>2017-06-04T08:53:05.000Z</time>
      </trkpt>
      <trkpt lat="45.271330" lon="5.521408">
        <ele>242.214020</ele>
        <time>2017-06-04T08:53:07.000Z</time>
      </trkpt>
      <trkpt lat="45.271210" lon="5.521356">
        <ele>242.129685</ele>
        <time>2017-06-04T08:53:09.000Z</time>
      </trkpt>
      <trkpt lat="45.271095" lon="5.521297">
        <ele>242.047494</ele>
        <time>2017-06-04T08:53:11.000Z</time>
      </trkpt>
      <trkpt lat="45.270973" lon="5.521248">
        <ele>241.962269</ele>
        <time>2017-06-04T08:53:13.000Z</time>
      </trkpt>
      <trkpt lat="45.270847" lon="5.521211">
        <ele>241.875779</ele>
        <time>2017-06-04T08:53:15.000Z</time>
      </trkpt>
      <trkpt lat="45.270725" lon="5.521177">
        <ele>241.792205</ele>
        <time>2017-06-04T08:53:17.000Z</time>
      </trkpt>
      <trkpt lat="45.270615" lon="5.521154">
        <ele>241.717463</ele>
        <time>2017-06-04T08:53:19.000Z</time>
      </trkpt>
      <trkpt lat="45.270504" lon="5.521116">
        <ele>241.640711</ele>
        <time>2017-06-04T08:53:21.000Z</time>
      </trkpt>
      <trkpt lat="45.270400" lon="5.521078">
        <ele>241.500911</ele>
        <time>2017-06-04T08:53:23.000Z</time>
      </trkpt>
      <trkpt lat="45.270267" lon="5.521058">
        <ele>241.220565</ele>
        <time>2017-06-04T08:53:25.000Z</time>
      </trkpt>
      <trkpt lat="45.270145" lon="5.521025">
        <ele>240.960242</ele>
        <time>2017-06-04T08:53:27.000Z</time>
      </trkpt>
      <trkpt lat="45.270020" lon="5.521003">
        <ele>240.696220</ele>
        <time>2017-06-04T08:53:29.000Z</time>
      </trkpt>
      <trkpt lat="45.269890" lon="5.520969">
        <ele>240.419141</ele>
        <time>2017-06-04T08:53:31.000Z</time>
      </trkpt>
      <trkpt lat="45.269775" lon="5.520933">
        <ele>240.172302</ele>
        <time>2017-06-04T08:53:33.000Z</time>
      </trkpt>
      <trkpt lat="45.269653" lon="5.520906">
        <ele>239.913488</ele>
        <time>2017-06-04T08:53:35.000Z</time>
      </trkpt>
      <trkpt lat="45.269520" lon="5.520886">
        <ele>239.633142</ele>
        <time>2017-06-04T08:53:37.000Z</time>
      </trkpt>
      <trkpt lat="45.269390" lon="5.520844">
        <ele>239.353686</ele>
        <time>2017-06-04T08:53:39.000Z</time>
      </trkpt>
      <trkpt lat="45.269268" lon="5.520816">
        <ele>239.094640</ele>
        <time>2017-06-04T08:53:41.000Z</time>
      </trkpt>
      <trkpt lat="45.269150" lon="5.520790">
        <ele>238.844337</ele>
        <time>2017-06-04T08:53:43.000Z</time>
      </trkpt>
      <trkpt lat="45.269030" lon="5.520750">
        <ele>238.585969</ele>
        <time>2017-06-04T08:53:45.000Z</time>
      </trkpt>
      <trkpt lat="45.268906" lon="5.520726">
        <ele>238.323646</ele>
        <time>2017-06-04T08:53:47.000Z</time>
      </trkpt>
      <trkpt lat="45.268790" lon="5.520699">
        <ele>238.077250</ele>
        <time>2017-06-04T08:53:49.000Z</time>
      </trkpt>
      <trkpt lat="45.268680" lon="5.520670">
        <ele>237.842738</ele>
        <time>2017-06-04T08:53:51.000Z</time>
      </trkpt>
      <trkpt lat="45.268560" lon="5.520635">
        <ele>237.736260</ele>
        <time>2017-06-04T08:53:53.000Z</time>
      </trkpt>
      <trkpt lat="45.268425" lon="5.520598">
        <ele>237.625414</ele>
        <time>2017-06-04T08:53:55.000Z</time>
      </trkpt>
      <trkpt lat="45.268320" lon="5.520569">
        <ele>237.539175</ele>
        <time>2017-06-04T08:53:57.000Z</time>
      </trkpt>
      <trkpt lat="45.268215" lon="5.520537">
        <ele>237.452596</ele>
        <time>2017-06-04T08:53:59.000Z</time>
      </trkpt>
      <trkpt lat="45.268100" lon="5.520493">
        <ele>237.356578</ele>
        <time>2017-06-04T08:54:01.000Z</time>
      </trkpt>
      <trkpt lat="45.267980" lon="5.520459">
        <ele>237.257926</ele>
        <time>2017-06-04T08:54:03.000Z</time>
      </trkpt>
      <trkpt lat="45.267845" lon="5.520416">
        <ele>237.146384</ele>
        <time>2017-06-04T08:54:05.000Z</time>
      </trkpt>
      <trkpt lat="45.267723" lon="5.520399">
        <ele>237.047553</ele>
        <time>2017-06-04T08:54:07.000Z</time>
      </trkpt>
      <trkpt lat="45.267593" lon="5.520354">
        <ele>236.939678</ele>
        <time>2017-06-04T08:54:09.000Z</time>
      </trkpt>
      <trkpt lat="45.267470" lon="5.520318">
        <ele>236.838430</ele>
        <time>2017-06-04T08:54:11.000Z</time>
      </trkpt>
      <trkpt lat="45.267357" lon="5.520272">
        <ele>236.743662</ele>
        <time>2017-06-04T08:54:13.000Z</time>
      </trkpt>
      <trkpt lat="45.267254" lon="5.520235">
        <ele>236.658007</ele>
        <time>2017-06-04T08:54:15.000Z</time>
      </trkpt>
      <trkpt lat="45.267155" lon="5.520191">
        <ele>236.574377</ele>
        <time>2017-06-04T08:54:17.000Z</time>
      </trkpt>
      <trkpt lat="45.267030" lon="5.520153">
        <ele>236.471318</ele>
        <time>2017-06-04T08:54:19.000Z</time>
      </trkpt>
      <trkpt lat="45.266900" lon="5.520119">
        <ele>236.406784</ele>
        <time>2017-06-04T08:54:21.000Z</time>
      </trkpt>
      <trkpt lat="45.266780" lon="5.520096">
        <ele>236.576613</ele>
        <time>2017-06-04T08:54:23.000Z</time>
      </trkpt>
      <trkpt lat="45.266666" lon="5.520045">
        <ele>236.744241</ele>
        <time>2017-06-04T08:54:25.000Z</time>
      </trkpt>
      <trkpt lat="45.266552" lon="5.520001">
        <ele>236.909926</ele>
        <time>2017-06-04T08:54:27.000Z</time>
      </trkpt>
      <trkpt lat="45.266445" lon="5.519928">
        <ele>237.076402</ele>
        <time>2017-06-04T08:54:29.000Z</time>
      </trkpt>
      <trkpt lat="45.266350" lon="5.519836">
        <ele>237.237649</ele>
        <time>2017-06-04T08:54:31.000Z</time>
      </trkpt>
      <trkpt lat="45.266260" lon="5.519765">
        <ele>237.382030</ele>
        <time>2017-06-04T08:54:33.000Z</time>
      </trkpt>
      <trkpt lat="45.266160" lon="5.519693">
        <ele>237.539265</ele>
        <time>2017-06-04T08:54:35.000Z</time>
      </trkpt>
      <trkpt lat="45.266064" lon="5.519612">
        <ele>237.695860</ele>
        <time>2017-06-04T08:54:37.000Z</time>
      </trkpt>
      <trkpt lat="45.265960" lon="5.519533">
        <ele>237.861263</ele>
        <time>2017-06-04T08:54:39.000Z</time>
      </trkpt>
      <trkpt lat="45.265877" lon="5.519439">
        <ele>238.010131</ele>
        <time>2017-06-04T08:54:41.000Z</time>
      </trkpt>
      <trkpt lat="45.265770" lon="5.519353">
        <ele>238.182550</ele>
        <time>2017-06-04T08:54:43.000Z</time>
      </trkpt>
      <trkpt lat="45.265656" lon="5.519282">
        <ele>238.357127</ele>
        <time>2017-06-04T08:54:45.000Z</time>
      </trkpt>
      <trkpt lat="45.265540" lon="5.519199">
        <ele>238.539288</ele>
        <time>2017-06-04T08:54:47.000Z</time>
      </trkpt>
      <trkpt lat="45.265453" lon="5.519118">
        <ele>238.685173</ele>
        <time>2017-06-04T08:54:49.000Z</time>
      </trkpt>
      <trkpt lat="45.265358" lon="5.519041">
        <ele>238.838571</ele>
        <time>2017-06-04T08:54:51.000Z</time>
      </trkpt>
      <trkpt lat="45.265260" lon="5.518960">
        <ele>238.878693</ele>
        <time>2017-06-04T08:54:53.000Z</time>
      </trkpt>
      <trkpt lat="45.265163" lon="5.518881">
        <ele>238.838879</ele>
        <time>2017-06-04T08:54:55.000Z</time>
      </trkpt>
      <trkpt lat="45.265060" lon="5.518801">
        <ele>238.797079</ele>
        <time>2017-06-04T08:54:57.000Z</time>
      </trkpt>
      <trkpt lat="45.264965" lon="5.518726">
        <ele>238.758378</ele>
        <time>2017-06-04T08:54:59.000Z</time>
      </trkpt>
      <trkpt lat="45.264854" lon="5.518655">
        <ele>238.715031</ele>
        <time>2017-06-04T08:55:01.000Z</time>
      </trkpt>
      <trkpt lat="45.264750" lon="5.518570">
        <ele>238.672307</ele>
        <time>2017-06-04T08:55:03.000Z</time>
      </trkpt>
      <trkpt lat="45.264650" lon="5.518490">
        <ele>238.631440</ele>
        <time>2017-06-04T08:55:05.000Z</time>
      </trkpt>
      <trkpt lat="45.264538" lon="5.518419">
        <ele>238.587768</ele>
        <time>2017-06-04T08:55:07.000Z</time>
      </trkpt>
      <trkpt lat="45.264446" lon="5.518352">
        <ele>238.550954</ele>
        <time>2017-06-04T08:55:09.000Z</time>
      </trkpt>
      <trkpt lat="45.264350" lon="5.518288">
        <ele>238.513193</ele>
        <time>2017-06-04T08:55:11.000Z</time>
      </trkpt>
      <trkpt lat="45.264250" lon="5.518216">
        <ele>238.473272</ele>
        <time>2017-06-04T08:55:13.000Z</time>
      </trkpt>
      <trkpt lat="45.264170" lon="5.518142">
        <ele>238.439279</ele>
        <time>2017-06-04T08:55:15.000Z</time>
      </trkpt>
      <trkpt lat="45.264080" lon="5.518069">
        <ele>238.402376</ele>
        <time>2017-06-04T08:55:17.000Z</time>
      </trkpt>
      <trkpt lat="45.263973" lon="5.517995">
        <ele>238.359999</ele>
        <time>2017-06-04T08:55:19.000Z</time>
      </trkpt>
      <trkpt lat="45.263855" lon="5.517929">
        <ele>238.314841</ele>
        <time>2017-06-04T08:55:21.000Z</time>
      </trkpt>
      <trkpt lat="45.263737" lon="5.517857">
        <ele>238.269111</ele>
        <time>2017-06-04T08:55:23.000Z</time>
      </trkpt>
      <trkpt lat="45.263610" lon="5.517786">
        <ele>238.195645</ele>
        <time>2017-06-04T08:55:25.000Z</time>
      </trkpt>
      <trkpt lat="45.263490" lon="5.517707">
        <ele>238.120510</ele>
        <time>2017-06-04T08:55:27.000Z</time>
      </trkpt>
      <trkpt lat="45.263382" lon="5.517626">
        <ele>238.051130</ele>
        <time>2017-06-04T08:55:29.000Z</time>
      </trkpt>
      <trkpt lat="45.263290" lon="5.517558">
        <ele>237.992215</ele>
        <time>2017-06-04T08:55:31.000Z</time>
      </trkpt>
      <trkpt lat="45.263187" lon="5.517491">
        <ele>237.927859</ele>
        <time>2017-06-04T08:55:33.000Z</time>
      </trkpt>
      <trkpt lat="45.263080" lon="5.517419">
        <ele>237.860599</ele>
        <time>2017-06-04T08:55:35.000Z</time>
      </trkpt>
      <trkpt lat="45.262978" lon="5.517350">
        <ele>237.796420</ele>
        <time>2017-06-04T08:55:37.000Z</time>
      </trkpt>
      <trkpt lat="45.262880" lon="5.517272">
        <ele>237.732604</ele>
        <time>2017-06-04T08:55:39.000Z</time>
      </trkpt>
      <trkpt lat="45.262780" lon="5.517213">
        <ele>237.671090</ele>
        <time>2017-06-04T08:55:41.000Z</time>
      </trkpt>
      <trkpt lat="45.262670" lon="5.517159">
        <ele>237.604974</ele>
        <time>2017-06-04T08:55:43.000Z</time>
      </trkpt>
      <trkpt lat="45.262566" lon="5.517084">
        <ele>237.538716</ele>
        <time>2017-06-04T08:55:45.000Z</time>
      </trkpt>
      <trkpt lat="45.262466" lon="5.517021">
        <ele>237.476570</ele>
        <time>2017-06-04T08:55:47.000Z</time>
      </trkpt>
      <trkpt lat="45.262356" lon="5.516951">
        <ele>237.408097</ele>
        <time>2017-06-04T08:55:49.000Z</time>
      </trkpt>
      <trkpt lat="45.262245" lon="5.516880">
        <ele>237.338941</ele>
        <time>2017-06-04T08:55:51.000Z</time>
      </trkpt>
      <trkpt lat="45.262130" lon="5.516804">
        <ele>237.266887</ele>
        <time>2017-06-04T08:55:53.000Z</time>
      </trkpt>
      <trkpt lat="45.262030" lon="5.516734">
        <ele>237.238151</ele>
        <time>2017-06-04T08:55:55.000Z</time>
      </trkpt>
      <trkpt lat="45.261932" lon="5.516657">
        <ele>237.234161</ele>
        <time>2017-06-04T08:55:57.000Z</time>
      </trkpt>
      <trkpt lat="45.261814" lon="5.516583">
        <ele>237.229566</ele>
        <time>2017-06-04T08:55:59.000Z</time>
      </trkpt>
      <trkpt lat="45.261703" lon="5.516494">
        <ele>237.225025</ele>
        <time>2017-06-04T08:56:01.000Z</time>
      </trkpt>
      <trkpt lat="45.261593" lon="5.516407">
        <ele>237.220540</ele>
        <time>2017-06-04T08:56:03.000Z</time>
      </trkpt>
      <trkpt lat="45.261490" lon="5.516304">
        <ele>237.216053</ele>
        <time>2017-06-04T08:56:05.000Z</time>
      </trkpt>
      <trkpt lat="45.261395" lon="5.516213">
        <ele>237.211971</ele>
        <time>2017-06-04T08:56:07.000Z</time>
      </trkpt>
      <trkpt lat="45.261290" lon="5.516127">
        <ele>237.207654</ele>
        <time>2017-06-04T08:56:09.000Z</time>
      </trkpt>
      <trkpt lat="45.261192" lon="5.516042">
        <ele>237.203563</ele>
        <time>2017-06-04T08:56:11.000Z</time>
      </trkpt>
      <trkpt lat="45.261086" lon="5.515952">
        <ele>237.199164</ele>
        <time>2017-06-04T08:56:13.000Z</time>
      </trkpt>
      <trkpt lat="45.260986" lon="5.515856">
        <ele>237.194864</ele>
        <time>2017-06-04T08:56:15.000Z</time>
      </trkpt>
      <trkpt lat="45.260887" lon="5.515762">
        <ele>237.190622</ele>
        <time>2017-06-04T08:56:17.000Z</time>
      </trkpt>
      <trkpt lat="45.260790" lon="5.515663">
        <ele>237.186367</ele>
        <time>2017-06-04T08:56:19.000Z</time>
      </trkpt>
      <trkpt lat="45.260693" lon="5.515559">
        <ele>237.182038</ele>
        <time>2017-06-04T08:56:21.000Z</time>
      </trkpt>
      <trkpt lat="45.260593" lon="5.515466">
        <ele>237.177780</ele>
        <time>2017-06-04T08:56:23.000Z</time>
      </trkpt>
      <trkpt lat="45.260498" lon="5.515366">
        <ele>237.242987</ele>
        <time>2017-06-04T08:56:25.000Z</time>
      </trkpt>
      <trkpt lat="45.260400" lon="5.515264">
        <ele>237.345181</ele>
        <time>2017-06-04T08:56:27.000Z</time>
      </trkpt>
      <trkpt lat="45.260303" lon="5.515161">
        <ele>237.447050</ele>
        <time>2017-06-04T08:56:29.000Z</time>
      </trkpt>
      <trkpt lat="45.260204" lon="5.515063">
        <ele>237.548552</ele>
        <time>2017-06-04T08:56:31.000Z</time>
      </trkpt>
      <trkpt lat="45.260100" lon="5.514968">
        <ele>237.652560</ele>
        <time>2017-06-04T08:56:33.000Z</time>
      </trkpt>
      <trkpt lat="45.260002" lon="5.514860">
        <ele>237.756893</ele>
        <time>2017-06-04T08:56:35.000Z</time>
      </trkpt>
      <trkpt lat="45.259903" lon="5.514760">
        <ele>237.859076</ele>
        <time>2017-06-04T08:56:37.000Z</time>
      </trkpt>
      <trkpt lat="45.259804" lon="5.514660">
        <ele>237.961259</ele>
        <time>2017-06-04T08:56:39.000Z</time>
      </trkpt>
      <trkpt lat="45.259705" lon="5.514556">
        <ele>238.064832</ele>
        <time>2017-06-04T08:56:41.000Z</time>
      </trkpt>
      <trkpt lat="45.259605" lon="5.514455">
        <ele>238.168044</ele>
        <time>2017-06-04T08:56:43.000Z</time>
      </trkpt>
      <trkpt lat="45.259518" lon="5.514345">
        <ele>238.266015</ele>
        <time>2017-06-04T08:56:45.000Z</time>
      </trkpt>
      <trkpt lat="45.259426" lon="5.514249">
        <ele>238.362038</ele>
        <time>2017-06-04T08:56:47.000Z</time>
      </trkpt>
      <trkpt lat="45.259327" lon="5.514162">
        <ele>238.459962</ele>
        <time>2017-06-04T08:56:49.000Z</time>
      </trkpt>
      <trkpt lat="45.259230" lon="5.514069">
        <ele>238.558402</ele>
        <time>2017-06-04T08:56:51.000Z</time>
      </trkpt>
      <trkpt lat="45.259136" lon="5.513977">
        <ele>238.654423</ele>
        <time>2017-06-04T08:56:53.000Z</time>
      </trkpt>
      <trkpt lat="45.259030" lon="5.513892">
        <ele>238.698044</ele>
        <time>2017-06-04T08:56:55.000Z</time>
      </trkpt>
      <trkpt lat="45.258934" lon="5.513798">
        <ele>238.710608</ele>
        <time>2017-06-04T08:56:57.000Z</time>
      </trkpt>
      <trkpt lat="45.258846" lon="5.513697">
        <ele>238.722799</ele>
        <time>2017-06-04T08:56:59.000Z</time>
      </trkpt>
      <trkpt lat="45.258750" lon="5.513603">
        <ele>238.735363</ele>
        <time>2017-06-04T08:57:01.000Z</time>
      </trkpt>
      <trkpt lat="45.258644" lon="5.513508">
        <ele>238.748869</ele>
        <time>2017-06-04T08:57:03.000Z</time>
      </trkpt>
      <trkpt lat="45.258540" lon="5.513413">
        <ele>238.762193</ele>
        <time>2017-06-04T08:57:05.000Z</time>
      </trkpt>
      <trkpt lat="45.258450" lon="5.513322">
        <ele>238.774097</ele>
        <time>2017-06-04T08:57:07.000Z</time>
      </trkpt>
      <trkpt lat="45.258350" lon="5.513225">
        <ele>238.787146</ele>
        <time>2017-06-04T08:57:09.000Z</time>
      </trkpt>
      <trkpt lat="45.258247" lon="5.513135">
        <ele>238.800177</ele>
        <time>2017-06-04T08:57:11.000Z</time>
      </trkpt>
      <trkpt lat="45.258144" lon="5.513039">
        <ele>238.813452</ele>
        <time>2017-06-04T08:57:13.000Z</time>
      </trkpt>
      <trkpt lat="45.258038" lon="5.512945">
        <ele>238.826917</ele>
        <time>2017-06-04T08:57:15.000Z</time>
      </trkpt>
      <trkpt lat="45.257946" lon="5.512846">
        <ele>238.839354</ele>
        <time>2017-06-04T08:57:17.000Z</time>
      </trkpt>
      <trkpt lat="45.257850" lon="5.512755">
        <ele>238.851791</ele>
        <time>2017-06-04T08:57:19.000Z</time>
      </trkpt>
      <trkpt lat="45.257750" lon="5.512662">
        <ele>238.864671</ele>
        <time>2017-06-04T08:57:21.000Z</time>
      </trkpt>
      <trkpt lat="45.257656" lon="5.512570">
        <ele>238.876972</ele>
        <time>2017-06-04T08:57:23.000Z</time>
      </trkpt>
      <trkpt lat="45.257557" lon="5.512477">
        <ele>238.846451</ele>
        <time>2017-06-04T08:57:25.000Z</time>
      </trkpt>
      <trkpt lat="45.257460" lon="5.512388">
        <ele>238.776344</ele>
        <time>2017-06-04T08:57:27.000Z</time>
      </trkpt>
      <trkpt lat="45.257366" lon="5.512300">
        <ele>238.707997</ele>
        <time>2017-06-04T08:57:29.000Z</time>
      </trkpt>
      <trkpt lat="45.257275" lon="5.512198">
        <ele>238.637622</ele>
        <time>2017-06-04T08:57:31.000Z</time>
      </trkpt>
      <trkpt lat="45.257187" lon="5.512093">
        <ele>238.567849</ele>
        <time>2017-06-04T08:57:33.000Z</time>
      </trkpt>
      <trkpt lat="45.257090" lon="5.512007">
        <ele>238.498430</ele>
        <time>2017-06-04T08:57:35.000Z</time>
      </trkpt>
      <trkpt lat="45.256996" lon="5.511905">
        <ele>238.426616</ele>
        <time>2017-06-04T08:57:37.000Z</time>
      </trkpt>
      <trkpt lat="45.256897" lon="5.511822">
        <ele>238.356824</ele>
        <time>2017-06-04T08:57:39.000Z</time>
      </trkpt>
      <trkpt lat="45.256820" lon="5.511723">
        <ele>238.293771</ele>
        <time>2017-06-04T08:57:41.000Z</time>
      </trkpt>
      <trkpt lat="45.256730" lon="5.511631">
        <ele>238.226454</ele>
        <time>2017-06-04T08:57:43.000Z</time>
      </trkpt>
      <trkpt lat="45.256640" lon="5.511532">
        <ele>238.157346</ele>
        <time>2017-06-04T08:57:45.000Z</time>
      </trkpt>
      <trkpt lat="45.256546" lon="5.511426">
        <ele>238.084482</ele>
        <time>2017-06-04T08:57:47.000Z</time>
      </trkpt>
      <trkpt lat="45.256443" lon="5.511334">
        <ele>238.010614</ele>
        <time>2017-06-04T08:57:49.000Z</time>
      </trkpt>
      <trkpt lat="45.256340" lon="5.511243">
        <ele>237.936972</ele>
        <time>2017-06-04T08:57:51.000Z</time>
      </trkpt>
      <trkpt lat="45.256250" lon="5.511156">
        <ele>237.870880</ele>
        <time>2017-06-04T08:57:53.000Z</time>
      </trkpt>
      <trkpt lat="45.256160" lon="5.511061">
        <ele>237.802805</ele>
        <time>2017-06-04T08:57:55.000Z</time>
      </trkpt>
      <trkpt lat="45.256070" lon="5.510972">
        <ele>237.858114</ele>
        <time>2017-06-04T08:57:57.000Z</time>
      </trkpt>
      <trkpt lat="45.255966" lon="5.510878">
        <ele>237.949128</ele>
        <time>2017-06-04T08:57:59.000Z</time>
      </trkpt>
      <trkpt lat="45.255875" lon="5.510780">
        <ele>238.033444</ele>
        <time>2017-06-04T08:58:01.000Z</time>
      </trkpt>
      <trkpt lat="45.255783" lon="5.510673">
        <ele>238.121235</ele>
        <time>2017-06-04T08:58:03.000Z</time>
      </trkpt>
      <trkpt lat="45.255680" lon="5.510584">
        <ele>238.210250</ele>
        <time>2017-06-04T08:58:05.000Z</time>
      </trkpt>
      <trkpt lat="45.255590" lon="5.510500">
        <ele>238.289762</ele>
        <time>2017-06-04T08:58:07.000Z</time>
      </trkpt>
      <trkpt lat="45.255486" lon="5.510408">
        <ele>238.380223</ele>
        <time>2017-06-04T08:58:09.000Z</time>
      </trkpt>
      <trkpt lat="45.255398" lon="5.510305">
        <ele>238.464413</ele>
        <time>2017-06-04T08:58:11.000Z</time>
      </trkpt>
      <trkpt lat="45.255290" lon="5.510212">
        <ele>238.557663</ele>
        <time>2017-06-04T08:58:13.000Z</time>
      </trkpt>
      <trkpt lat="45.255203" lon="5.510118">
        <ele>238.638369</ele>
        <time>2017-06-04T08:58:15.000Z</time>
      </trkpt>
      <trkpt lat="45.255108" lon="5.510029">
        <ele>238.722394</ele>
        <time>2017-06-04T08:58:17.000Z</time>
      </trkpt>
      <trkpt lat="45.255016" lon="5.509917">
        <ele>238.811855</ele>
        <time>2017-06-04T08:58:19.000Z</time>
      </trkpt>
      <trkpt lat="45.254925" lon="5.509814">
        <ele>238.897766</ele>
        <time>2017-06-04T08:58:21.000Z</time>
      </trkpt>
      <trkpt lat="45.254837" lon="5.509712">
        <ele>238.981626</ele>
        <time>2017-06-04T08:58:23.000Z</time>
      </trkpt>
      <trkpt lat="45.254757" lon="5.509622">
        <ele>239.056975</ele>
        <time>2017-06-04T08:58:25.000Z</time>
      </trkpt>
      <trkpt lat="45.254650" lon="5.509533">
        <ele>239.122306</ele>
        <time>2017-06-04T08:58:27.000Z</time>
      </trkpt>
      <trkpt lat="45.254560" lon="5.509444">
        <ele>239.130705</ele>
        <time>2017-06-04T08:58:29.000Z</time>
      </trkpt>
      <trkpt lat="45.254450" lon="5.509363">
        <ele>239.140194</ele>
        <time>2017-06-04T08:58:31.000Z</time>
      </trkpt>
      <trkpt lat="45.254364" lon="5.509260">
        <ele>239.148809</ele>
        <time>2017-06-04T08:58:33.000Z</time>
      </trkpt>
      <trkpt lat="45.254272" lon="5.509156">
        <ele>239.157813</ele>
        <time>2017-06-04T08:58:35.000Z</time>
      </trkpt>
      <trkpt lat="45.254173" lon="5.509069">
        <ele>239.166729</ele>
        <time>2017-06-04T08:58:37.000Z</time>
      </trkpt>
      <trkpt lat="45.254066" lon="5.508974">
        <ele>239.176392</ele>
        <time>2017-06-04T08:58:39.000Z</time>
      </trkpt>
      <trkpt lat="45.253970" lon="5.508887">
        <ele>239.185113</ele>
        <time>2017-06-04T08:58:41.000Z</time>
      </trkpt>
      <trkpt lat="45.253876" lon="5.508789">
        <ele>239.194043</ele>
        <time>2017-06-04T08:58:43.000Z</time>
      </trkpt>
      <trkpt lat="45.253780" lon="5.508692">
        <ele>239.203066</ele>
        <time>2017-06-04T08:58:45.000Z</time>
      </trkpt>
      <trkpt lat="45.253677" lon="5.508601">
        <ele>239.212355</ele>
        <time>2017-06-04T08:58:47.000Z</time>
      </trkpt>
      <trkpt lat="45.253570" lon="5.508510">
        <ele>239.221906</ele>
        <time>2017-06-04T08:58:49.000Z</time>
      </trkpt>
      <trkpt lat="45.253475" lon="5.508422">
        <ele>239.230592</ele>
        <time>2017-06-04T08:58:51.000Z</time>
      </trkpt>
      <trkpt lat="45.253400" lon="5.508328">
        <ele>239.238252</ele>
        <time>2017-06-04T08:58:53.000Z</time>
      </trkpt>
      <trkpt lat="45.253310" lon="5.508220">
        <ele>239.247275</ele>
        <time>2017-06-04T08:58:55.000Z</time>
      </trkpt>
      <trkpt lat="45.253216" lon="5.508130">
        <ele>239.255957</ele>
        <time>2017-06-04T08:58:57.000Z</time>
      </trkpt>
      <trkpt lat="45.253110" lon="5.508056">
        <ele>239.140990</ele>
        <time>2017-06-04T08:58:59.000Z</time>
      </trkpt>
      <trkpt lat="45.253010" lon="5.507952">
        <ele>239.002978</ele>
        <time>2017-06-04T08:59:01.000Z</time>
      </trkpt>
      <trkpt lat="45.252920" lon="5.507860">
        <ele>238.879505</ele>
        <time>2017-06-04T08:59:03.000Z</time>
      </trkpt>
      <trkpt lat="45.252823" lon="5.507774">
        <ele>238.752176</ele>
        <time>2017-06-04T08:59:05.000Z</time>
      </trkpt>
      <trkpt lat="45.252720" lon="5.507690">
        <ele>238.619919</ele>
        <time>2017-06-04T08:59:07.000Z</time>
      </trkpt>
      <trkpt lat="45.252630" lon="5.507600">
        <ele>238.497355</ele>
        <time>2017-06-04T08:59:09.000Z</time>
      </trkpt>
      <trkpt lat="45.252533" lon="5.507515">
        <ele>238.370439</ele>
        <time>2017-06-04T08:59:11.000Z</time>
      </trkpt>
      <trkpt lat="45.252438" lon="5.507435">
        <ele>238.247458</ele>
        <time>2017-06-04T08:59:13.000Z</time>
      </trkpt>
      <trkpt lat="45.252340" lon="5.507333">
        <ele>238.112169</ele>
        <time>2017-06-04T08:59:15.000Z</time>
      </trkpt>
      <trkpt lat="45.252224" lon="5.507270">
        <ele>237.973876</ele>
        <time>2017-06-04T08:59:17.000Z</time>
      </trkpt>
      <trkpt lat="45.252110" lon="5.507203">
        <ele>237.836492</ele>
        <time>2017-06-04T08:59:19.000Z</time>
      </trkpt>
      <trkpt lat="45.252007" lon="5.507113">
        <ele>237.701832</ele>
        <time>2017-06-04T08:59:21.000Z</time>
      </trkpt>
      <trkpt lat="45.251907" lon="5.507020">
        <ele>237.568732</ele>
        <time>2017-06-04T08:59:23.000Z</time>
      </trkpt>
      <trkpt lat="45.251804" lon="5.506930">
        <ele>237.434071</ele>
        <time>2017-06-04T08:59:25.000Z</time>
      </trkpt>
      <trkpt lat="45.251698" lon="5.506834">
        <ele>237.294082</ele>
        <time>2017-06-04T08:59:27.000Z</time>
      </trkpt>
      <trkpt lat="45.251587" lon="5.506742">
        <ele>237.236112</ele>
        <time>2017-06-04T08:59:29.000Z</time>
      </trkpt>
      <trkpt lat="45.251484" lon="5.506658">
        <ele>237.213030</ele>
        <time>2017-06-04T08:59:31.000Z</time>
      </trkpt>
      <trkpt lat="45.251377" lon="5.506557">
        <ele>237.188063</ele>
        <time>2017-06-04T08:59:33.000Z</time>
      </trkpt>
      <trkpt lat="45.251266" lon="5.506459">
        <ele>237.162663</ele>
        <time>2017-06-04T08:59:35.000Z</time>
      </trkpt>
      <trkpt lat="45.251160" lon="5.506378">
        <ele>237.139271</ele>
        <time>2017-06-04T08:59:37.000Z</time>
      </trkpt>
      <trkpt lat="45.251057" lon="5.506293">
        <ele>237.116120</ele>
        <time>2017-06-04T08:59:39.000Z</time>
      </trkpt>
      <trkpt lat="45.250950" lon="5.506208">
        <ele>237.092294</ele>
        <time>2017-06-04T08:59:41.000Z</time>
      </trkpt>
      <trkpt lat="45.250847" lon="5.506123">
        <ele>237.069144</ele>
        <time>2017-06-04T08:59:43.000Z</time>
      </trkpt>
      <trkpt lat="45.250736" lon="5.506037">
        <ele>237.044571</ele>
        <time>2017-06-04T08:59:45.000Z</time>
      </trkpt>
      <trkpt lat="45.250630" lon="5.505955">
        <ele>237.021114</ele>
        <time>2017-06-04T08:59:47.000Z</time>
      </trkpt>
      <trkpt lat="45.250515" lon="5.505896">
        <ele>236.997351</ele>
        <time>2017-06-04T08:59:49.000Z</time>
      </trkpt>
      <trkpt lat="45.250404" lon="5.505816">
        <ele>236.973161</ele>
        <time>2017-06-04T08:59:51.000Z</time>
      </trkpt>
      <trkpt lat="45.250300" lon="5.505745">
        <ele>236.950736</ele>
        <time>2017-06-04T08:59:53.000Z</time>
      </trkpt>
      <trkpt lat="45.250202" lon="5.505679">
        <ele>236.929658</ele>
        <time>2017-06-04T08:59:55.000Z</time>
      </trkpt>
      <trkpt lat="45.250110" lon="5.505616">
        <ele>236.909809</ele>
        <time>2017-06-04T08:59:57.000Z</time>
      </trkpt>
      <trkpt lat="45.250010" lon="5.505549">
        <ele>236.951035</ele>
        <time>2017-06-04T08:59:59.000Z</time>
      </trkpt>
      <trkpt lat="45.249920" lon="5.505468">
        <ele>237.010313</ele>
        <time>2017-06-04T09:00:01.000Z</time>
      </trkpt>
      <trkpt lat="45.249825" lon="5.505390">
        <ele>237.071363</ele>
        <time>2017-06-04T09:00:03.000Z</time>
      </trkpt>
      <trkpt lat="45.249718" lon="5.505316">
        <ele>237.137575</ele>
        <time>2017-06-04T09:00:05.000Z</time>
      </trkpt>
      <trkpt lat="45.249607" lon="5.505248">
        <ele>237.204830</ele>
        <time>2017-06-04T09:00:07.000Z</time>
      </trkpt>
      <trkpt lat="45.249496" lon="5.505183">
        <ele>237.271629</ele>
        <time>2017-06-04T09:00:09.000Z</time>
      </trkpt>
      <trkpt lat="45.249390" lon="5.505110">
        <ele>237.337170</ele>
        <time>2017-06-04T09:00:11.000Z</time>
      </trkpt>
      <trkpt lat="45.249287" lon="5.505035">
        <ele>237.401567</ele>
        <time>2017-06-04T09:00:13.000Z</time>
      </trkpt>
      <trkpt lat="45.249184" lon="5.504965">
        <ele>237.465094</ele>
        <time>2017-06-04T09:00:15.000Z</time>
      </trkpt>
      <trkpt lat="45.249080" lon="5.504891">
        <ele>237.529810</ele>
        <time>2017-06-04T09:00:17.000Z</time>
      </trkpt>
      <trkpt lat="45.248978" lon="5.504826">
        <ele>237.592009</ele>
        <time>2017-06-04T09:00:19.000Z</time>
      </trkpt>
      <trkpt lat="45.248867" lon="5.504756">
        <ele>237.659579</ele>
        <time>2017-06-04T09:00:21.000Z</time>
      </trkpt>
      <trkpt lat="45.248768" lon="5.504693">
        <ele>237.719934</ele>
        <time>2017-06-04T09:00:23.000Z</time>
      </trkpt>
      <trkpt lat="45.248657" lon="5.504631">
        <ele>237.786294</ele>
        <time>2017-06-04T09:00:25.000Z</time>
      </trkpt>
      <trkpt lat="45.248560" lon="5.504563">
        <ele>237.846476</ele>
        <time>2017-06-04T09:00:27.000Z</time>
      </trkpt>
      <trkpt lat="45.248447" lon="5.504504">
        <ele>237.882123</ele>
        <time>2017-06-04T09:00:29.000Z</time>
      </trkpt>
      <trkpt lat="45.248325" lon="5.504437">
        <ele>237.676801</ele>
        <time>2017-06-04T09:00:31.000Z</time>
      </trkpt>
      <trkpt lat="45.248220" lon="5.504376">
        <ele>237.498726</ele>
        <time>2017-06-04T09:00:33.000Z</time>
      </trkpt>
      <trkpt lat="45.248116" lon="5.504316">
        <ele>237.322522</ele>
        <time>2017-06-04T09:00:35.000Z</time>
      </trkpt>
      <trkpt lat="45.248016" lon="5.504259">
        <ele>237.153382</ele>
        <time>2017-06-04T09:00:37.000Z</time>
      </trkpt>
      <trkpt lat="45.247906" lon="5.504202">
        <ele>236.969580</ele>
        <time>2017-06-04T09:00:39.000Z</time>
      </trkpt>
      <trkpt lat="45.247795" lon="5.504128">
        <ele>236.777103</ele>
        <time>2017-06-04T09:00:41.000Z</time>
      </trkpt>
      <trkpt lat="45.247684" lon="5.504067">
        <ele>236.590277</ele>
        <time>2017-06-04T09:00:43.000Z</time>
      </trkpt>
      <trkpt lat="45.247570" lon="5.503999">
        <ele>236.396188</ele>
        <time>2017-06-04T09:00:45.000Z</time>
      </trkpt>
      <trkpt lat="45.247460" lon="5.503933">
        <ele>236.208745</ele>
        <time>2017-06-04T09:00:47.000Z</time>
      </trkpt>
      <trkpt lat="45.247345" lon="5.503866">
        <ele>236.013630</ele>
        <time>2017-06-04T09:00:49.000Z</time>
      </trkpt>
      <trkpt lat="45.247227" lon="5.503807">
        <ele>235.817261</ele>
        <time>2017-06-04T09:00:51.000Z</time>
      </trkpt>
      <trkpt lat="45.247120" lon="5.503745">
        <ele>235.635862</ele>
        <time>2017-06-04T09:00:53.000Z</time>
      </trkpt>
      <trkpt lat="45.247005" lon="5.503694">
        <ele>235.446749</ele>
        <time>2017-06-04T09:00:55.000Z</time>
      </trkpt>
      <trkpt lat="45.246895" lon="5.503635">
        <ele>235.262178</ele>
        <time>2017-06-04T09:00:57.000Z</time>
      </trkpt>
      <trkpt lat="45.246788" lon="5.503551">
        <ele>235.079418</ele>
        <time>2017-06-04T09:00:59.000Z</time>
      </trkpt>
      <trkpt lat="45.246674" lon="5.503497">
        <ele>235.039354</ele>
        <time>2017-06-04T09:01:01.000Z</time>
      </trkpt>
      <trkpt lat="45.246574" lon="5.503432">
        <ele>235.002691</ele>
        <time>2017-06-04T09:01:03.000Z</time>
      </trkpt>
      <trkpt lat="45.246468" lon="5.503380">
        <ele>234.965304</ele>
        <time>2017-06-04T09:01:05.000Z</time>
      </trkpt>
      <trkpt lat="45.246346" lon="5.503325">
        <ele>234.922631</ele>
        <time>2017-06-04T09:01:07.000Z</time>
      </trkpt>
      <trkpt lat="45.246235" lon="5.503280">
        <ele>234.884148</ele>
        <time>2017-06-04T09:01:09.000Z</time>
      </trkpt>
      <trkpt lat="45.246105" lon="5.503223">
        <ele>234.838790</ele>
        <time>2017-06-04T09:01:11.000Z</time>
      </trkpt>
      <trkpt lat="45.245980" lon="5.503157">
        <ele>234.794330</ele>
        <time>2017-06-04T09:01:13.000Z</time>
      </trkpt>
      <trkpt lat="45.245888" lon="5.503101">
        <ele>234.760961</ele>
        <time>2017-06-04T09:01:15.000Z</time>
      </trkpt>
      <trkpt lat="45.245777" lon="5.503048">
        <ele>234.721920</ele>
        <time>2017-06-04T09:01:17.000Z</time>
      </trkpt>
      <trkpt lat="45.245663" lon="5.502986">
        <ele>234.681224</ele>
        <time>2017-06-04T09:01:19.000Z</time>
      </trkpt>
      <trkpt lat="45.245567" lon="5.502920">
        <ele>234.645666</ele>
        <time>2017-06-04T09:01:21.000Z</time>
      </trkpt>
      <trkpt lat="45.245450" lon="5.502858">
        <ele>234.604034</ele>
        <time>2017-06-04T09:01:23.000Z</time>
      </trkpt>
      <trkpt lat="45.245330" lon="5.502793">
        <ele>234.561218</ele>
        <time>2017-06-04T09:01:25.000Z</time>
      </trkpt>
      <trkpt lat="45.245213" lon="5.502734">
        <ele>234.519826</ele>
        <time>2017-06-04T09:01:27.000Z</time>
      </trkpt>
      <trkpt lat="45.245113" lon="5.502675">
        <ele>234.483726</ele>
        <time>2017-06-04T09:01:29.000Z</time>
      </trkpt>
      <trkpt lat="45.245018" lon="5.502597">
        <ele>234.460224</ele>
        <time>2017-06-04T09:01:31.000Z</time>
      </trkpt>
      <trkpt lat="45.244915" lon="5.502510">
        <ele>234.435159</ele>
        <time>2017-06-04T09:01:33.000Z</time>
      </trkpt>
      <trkpt lat="45.244812" lon="5.502427">
        <ele>234.410390</ele>
        <time>2017-06-04T09:01:35.000Z</time>
      </trkpt>
      <trkpt lat="45.244713" lon="5.502346">
        <ele>234.386494</ele>
        <time>2017-06-04T09:01:37.000Z</time>
      </trkpt>
      <trkpt lat="45.244617" lon="5.502269">
        <ele>234.363435</ele>
        <time>2017-06-04T09:01:39.000Z</time>
      </trkpt>
      <trkpt lat="45.244520" lon="5.502187">
        <ele>234.339825</ele>
        <time>2017-06-04T09:01:41.000Z</time>
      </trkpt>
      <trkpt lat="45.244423" lon="5.502108">
        <ele>234.316438</ele>
        <time>2017-06-04T09:01:43.000Z</time>
      </trkpt>
      <trkpt lat="45.244320" lon="5.502047">
        <ele>234.293098</ele>
        <time>2017-06-04T09:01:45.000Z</time>
      </trkpt>
      <trkpt lat="45.244217" lon="5.501961">
        <ele>234.268108</ele>
        <time>2017-06-04T09:01:47.000Z</time>
      </trkpt>
      <trkpt lat="45.244118" lon="5.501882">
        <ele>234.244357</ele>
        <time>2017-06-04T09:01:49.000Z</time>
      </trkpt>
      <trkpt lat="45.244026" lon="5.501814">
        <ele>234.222665</ele>
        <time>2017-06-04T09:01:51.000Z</time>
      </trkpt>
      <trkpt lat="45.243940" lon="5.501735">
        <ele>234.201244</ele>
        <time>2017-06-04T09:01:53.000Z</time>
      </trkpt>
      <trkpt lat="45.243855" lon="5.501635">
        <ele>234.178159</ele>
        <time>2017-06-04T09:01:55.000Z</time>
      </trkpt>
      <trkpt lat="45.243763" lon="5.501538">
        <ele>234.154194</ele>
        <time>2017-06-04T09:01:57.000Z</time>
      </trkpt>
      <trkpt lat="45.243656" lon="5.501463">
        <ele>234.129237</ele>
        <time>2017-06-04T09:01:59.000Z</time>
      </trkpt>
      <trkpt lat="45.243550" lon="5.501392">
        <ele>234.103930</ele>
        <time>2017-06-04T09:02:01.000Z</time>
      </trkpt>
      <trkpt lat="45.243458" lon="5.501296">
        <ele>234.065763</ele>
        <time>2017-06-04T09:02:03.000Z</time>
      </trkpt>
      <trkpt lat="45.243366" lon="5.501215">
        <ele>234.029575</ele>
        <time>2017-06-04T09:02:05.000Z</time>
      </trkpt>
      <trkpt lat="45.243263" lon="5.501137">
        <ele>233.990550</ele>
        <time>2017-06-04T09:02:07.000Z</time>
      </trkpt>
      <trkpt lat="45.243168" lon="5.501061">
        <ele>233.954097</ele>
        <time>2017-06-04T09:02:09.000Z</time>
      </trkpt>
      <trkpt lat="45.243057" lon="5.500983">
        <ele>233.912693</ele>
        <time>2017-06-04T09:02:11.000Z</time>
      </trkpt>
      <trkpt lat="45.242973" lon="5.500888">
        <ele>233.876793</ele>
        <time>2017-06-04T09:02:13.000Z</time>
      </trkpt>
      <trkpt lat="45.242886" lon="5.500803">
        <ele>233.841489</ele>
        <time>2017-06-04T09:02:15.000Z</time>
      </trkpt>
      <trkpt lat="45.242786" lon="5.500705">
        <ele>233.800870</ele>
        <time>2017-06-04T09:02:17.000Z</time>
      </trkpt>
      <trkpt lat="45.242676" lon="5.500628">
        <ele>233.759870</ele>
        <time>2017-06-04T09:02:19.000Z</time>
      </trkpt>
      <trkpt lat="45.242573" lon="5.500544">
        <ele>233.720161</ele>
        <time>2017-06-04T09:02:21.000Z</time>
      </trkpt>
      <trkpt lat="45.242477" lon="5.500451">
        <ele>233.681310</ele>
        <time>2017-06-04T09:02:23.000Z</time>
      </trkpt>
      <trkpt lat="45.242386" lon="5.500341">
        <ele>233.641359</ele>
        <time>2017-06-04T09:02:25.000Z</time>
      </trkpt>
      <trkpt lat="45.242287" lon="5.500236">
        <ele>233.600050</ele>
        <time>2017-06-04T09:02:27.000Z</time>
      </trkpt>
      <trkpt lat="45.242200" lon="5.500142">
        <ele>233.563503</ele>
        <time>2017-06-04T09:02:29.000Z</time>
      </trkpt>
      <trkpt lat="45.242096" lon="5.500063">
        <ele>233.524072</ele>
        <time>2017-06-04T09:02:31.000Z</time>
      </trkpt>
      <trkpt lat="45.241985" lon="5.499979">
        <ele>233.702756</ele>
        <time>2017-06-04T09:02:33.000Z</time>
      </trkpt>
      <trkpt lat="45.241886" lon="5.499873">
        <ele>234.064416</ele>
        <time>2017-06-04T09:02:35.000Z</time>
      </trkpt>
      <trkpt lat="45.241806" lon="5.499781">
        <ele>234.364691</ele>
        <time>2017-06-04T09:02:37.000Z</time>
      </trkpt>
      <trkpt lat="45.241730" lon="5.499682">
        <ele>234.665515</ele>
        <time>2017-06-04T09:02:39.000Z</time>
      </trkpt>
      <trkpt lat="45.241627" lon="5.499583">
        <ele>235.028310</ele>
        <time>2017-06-04T09:02:41.000Z</time>
      </trkpt>
      <trkpt lat="45.241528" lon="5.499472">
        <ele>235.396244</ele>
        <time>2017-06-04T09:02:43.000Z</time>
      </trkpt>
      <trkpt lat="45.241436" lon="5.499370">
        <ele>235.736703</ele>
        <time>2017-06-04T09:02:45.000Z</time>
      </trkpt>
      <trkpt lat="45.241344" lon="5.499265">
        <ele>236.080988</ele>
        <time>2017-06-04T09:02:47.000Z</time>
      </trkpt>
      <trkpt lat="45.241276" lon="5.499165">
        <ele>236.366528</ele>
        <time>2017-06-04T09:02:49.000Z</time>
      </trkpt>
      <trkpt lat="45.241196" lon="5.499073">
        <ele>236.666804</ele>
        <time>2017-06-04T09:02:51.000Z</time>
      </trkpt>
      <trkpt lat="45.241110" lon="5.498947">
        <ele>237.027234</ele>
        <time>2017-06-04T09:02:54.000Z</time>
      </trkpt>
      <trkpt lat="45.241050" lon="5.498854">
        <ele>237.286310</ele>
        <time>2017-06-04T09:02:58.000Z</time>
      </trkpt>
      <trkpt lat="45.240940" lon="5.498786">
        <ele>237.636264</ele>
        <time>2017-06-04T09:06:11.000Z</time>
      </trkpt>
      <trkpt lat="45.240826" lon="5.498711">
        <ele>238.002754</ele>
        <time>2017-06-04T09:06:15.000Z</time>
      </trkpt>
      <trkpt lat="45.240746" lon="5.498597">
        <ele>238.333337</ele>
        <time>2017-06-04T09:06:19.000Z</time>
      </trkpt>
      <trkpt lat="45.240677" lon="5.498499">
        <ele>238.617993</ele>
        <time>2017-06-04T09:06:22.000Z</time>
      </trkpt>
      <trkpt lat="45.240610" lon="5.498404">
        <ele>238.743015</ele>
        <time>2017-06-04T09:06:25.000Z</time>
      </trkpt>
      <trkpt lat="45.240536" lon="5.498288">
        <ele>238.724075</ele>
        <time>2017-06-04T09:06:28.000Z</time>
      </trkpt>
      <trkpt lat="45.240467" lon="5.498203">
        <ele>238.708378</ele>
        <time>2017-06-04T09:06:30.000Z</time>
      </trkpt>
      <trkpt lat="45.240376" lon="5.498129">
        <ele>238.690357</ele>
        <time>2017-06-04T09:06:32.000Z</time>
      </trkpt>
      <trkpt lat="45.240276" lon="5.498053">
        <ele>238.670866</ele>
        <time>2017-06-04T09:06:34.000Z</time>
      </trkpt>
      <trkpt lat="45.240185" lon="5.497985">
        <ele>238.653195</ele>
        <time>2017-06-04T09:06:36.000Z</time>
      </trkpt>
      <trkpt lat="45.240080" lon="5.497872">
        <ele>238.630556</ele>
        <time>2017-06-04T09:06:39.000Z</time>
      </trkpt>
      <trkpt lat="45.240020" lon="5.497770">
        <ele>238.614473</ele>
        <time>2017-06-04T09:06:41.000Z</time>
      </trkpt>
      <trkpt lat="45.239964" lon="5.497659">
        <ele>238.597950</ele>
        <time>2017-06-04T09:06:43.000Z</time>
      </trkpt>
      <trkpt lat="45.239890" lon="5.497562">
        <ele>238.580644</ele>
        <time>2017-06-04T09:06:45.000Z</time>
      </trkpt>
      <trkpt lat="45.239822" lon="5.497470">
        <ele>238.564504</ele>
        <time>2017-06-04T09:06:47.000Z</time>
      </trkpt>
      <trkpt lat="45.239746" lon="5.497360">
        <ele>238.545856</ele>
        <time>2017-06-04T09:06:49.000Z</time>
      </trkpt>
      <trkpt lat="45.239674" lon="5.497234">
        <ele>238.526220</ele>
        <time>2017-06-04T09:06:51.000Z</time>
      </trkpt>
      <trkpt lat="45.239597" lon="5.497130">
        <ele>238.507959</ele>
        <time>2017-06-04T09:06:53.000Z</time>
      </trkpt>
      <trkpt lat="45.239536" lon="5.497006">
        <ele>238.489655</ele>
        <time>2017-06-04T09:06:55.000Z</time>
      </trkpt>
      <trkpt lat="45.239464" lon="5.496887">
        <ele>238.470669</ele>
        <time>2017-06-04T09:06:57.000Z</time>
      </trkpt>
      <trkpt lat="45.239400" lon="5.496761">
        <ele>238.451870</ele>
        <time>2017-06-04T09:06:59.000Z</time>
      </trkpt>
      <trkpt lat="45.239334" lon="5.496635">
        <ele>238.431044</ele>
        <time>2017-06-04T09:07:01.000Z</time>
      </trkpt>
      <trkpt lat="45.239260" lon="5.496501">
        <ele>238.406469</ele>
        <time>2017-06-04T09:07:03.000Z</time>
      </trkpt>
      <trkpt lat="45.239190" lon="5.496374">
        <ele>238.383194</ele>
        <time>2017-06-04T09:07:05.000Z</time>
      </trkpt>
      <trkpt lat="45.239117" lon="5.496256">
        <ele>238.360526</ele>
        <time>2017-06-04T09:07:07.000Z</time>
      </trkpt>
      <trkpt lat="45.239048" lon="5.496129">
        <ele>238.337377</ele>
        <time>2017-06-04T09:07:09.000Z</time>
      </trkpt>
      <trkpt lat="45.238976" lon="5.496002">
        <ele>238.313847</ele>
        <time>2017-06-04T09:07:11.000Z</time>
      </trkpt>
      <trkpt lat="45.238910" lon="5.495864">
        <ele>238.289772</ele>
        <time>2017-06-04T09:07:13.000Z</time>
      </trkpt>
      <trkpt lat="45.238853" lon="5.495725">
        <ele>238.266559</ele>
        <time>2017-06-04T09:07:15.000Z</time>
      </trkpt>
      <trkpt lat="45.238790" lon="5.495596">
        <ele>238.243903</ele>
        <time>2017-06-04T09:07:17.000Z</time>
      </trkpt>
      <trkpt lat="45.238716" lon="5.495472">
        <ele>238.220446</ele>
        <time>2017-06-04T09:07:19.000Z</time>
      </trkpt>
      <trkpt lat="45.238647" lon="5.495361">
        <ele>238.199078</ele>
        <time>2017-06-04T09:07:21.000Z</time>
      </trkpt>
      <trkpt lat="45.238583" lon="5.495244">
        <ele>238.177697</ele>
        <time>2017-06-04T09:07:23.000Z</time>
      </trkpt>
      <trkpt lat="45.238514" lon="5.495125">
        <ele>238.155451</ele>
        <time>2017-06-04T09:07:25.000Z</time>
      </trkpt>
      <trkpt lat="45.238453" lon="5.494992">
        <ele>238.132544</ele>
        <time>2017-06-04T09:07:27.000Z</time>
      </trkpt>
      <trkpt lat="45.238390" lon="5.494862">
        <ele>238.109770</ele>
        <time>2017-06-04T09:07:29.000Z</time>
      </trkpt>
      <trkpt lat="45.238320" lon="5.494740">
        <ele>238.087058</ele>
        <time>2017-06-04T09:07:31.000Z</time>
      </trkpt>
      <trkpt lat="45.238240" lon="5.494616">
        <ele>238.058692</ele>
        <time>2017-06-04T09:07:33.000Z</time>
      </trkpt>
      <trkpt lat="45.238163" lon="5.494492">
        <ele>238.025878</ele>
        <time>2017-06-04T09:07:35.000Z</time>
      </trkpt>
      <trkpt lat="45.238100" lon="5.494349">
        <ele>237.992399</ele>
        <time>2017-06-04T09:07:37.000Z</time>
      </trkpt>
      <trkpt lat="45.238040" lon="5.494222">
        <ele>237.962044</ele>
        <time>2017-06-04T09:07:39.000Z</time>
      </trkpt>
      <trkpt lat="45.237980" lon="5.494092">
        <ele>237.931194</ele>
        <time>2017-06-04T09:07:41.000Z</time>
      </trkpt>
      <trkpt lat="45.237915" lon="5.493979">
        <ele>237.902234</ele>
        <time>2017-06-04T09:07:43.000Z</time>
      </trkpt>
      <trkpt lat="45.237854" lon="5.493864">
        <ele>237.873657</ele>
        <time>2017-06-04T09:07:45.000Z</time>
      </trkpt>
      <trkpt lat="45.237785" lon="5.493755">
        <ele>237.844566</ele>
        <time>2017-06-04T09:07:47.000Z</time>
      </trkpt>
      <trkpt lat="45.237732" lon="5.493633">
        <ele>237.816115</ele>
        <time>2017-06-04T09:07:49.000Z</time>
      </trkpt>
      <trkpt lat="45.237675" lon="5.493506">
        <ele>237.786223</ele>
        <time>2017-06-04T09:07:51.000Z</time>
      </trkpt>
      <trkpt lat="45.237606" lon="5.493382">
        <ele>237.754855</ele>
        <time>2017-06-04T09:07:53.000Z</time>
      </trkpt>
      <trkpt lat="45.237540" lon="5.493249">
        <ele>237.722561</ele>
        <time>2017-06-04T09:07:55.000Z</time>
      </trkpt>
      <trkpt lat="45.237476" lon="5.493118">
        <ele>237.690915</ele>
        <time>2017-06-04T09:07:57.000Z</time>
      </trkpt>
      <trkpt lat="45.237415" lon="5.492981">
        <ele>237.658743</ele>
        <time>2017-06-04T09:07:59.000Z</time>
      </trkpt>
      <trkpt lat="45.237340" lon="5.492856">
        <ele>237.626148</ele>
        <time>2017-06-04T09:08:01.000Z</time>
      </trkpt>
      <trkpt lat="45.237270" lon="5.492727">
        <ele>237.593824</ele>
        <time>2017-06-04T09:08:03.000Z</time>
      </trkpt>
      <trkpt lat="45.237206" lon="5.492613">
        <ele>237.568902</ele>
        <time>2017-06-04T09:08:05.000Z</time>
      </trkpt>
      <trkpt lat="45.237137" lon="5.492488">
        <ele>237.606052</ele>
        <time>2017-06-04T09:08:07.000Z</time>
      </trkpt>
      <trkpt lat="45.237076" lon="5.492362">
        <ele>237.641816</ele>
        <time>2017-06-04T09:08:09.000Z</time>
      </trkpt>
      <trkpt lat="45.237020" lon="5.492243">
        <ele>237.675292</ele>
        <time>2017-06-04T09:08:11.000Z</time>
      </trkpt>
      <trkpt lat="45.236965" lon="5.492130">
        <ele>237.707422</ele>
        <time>2017-06-04T09:08:13.000Z</time>
      </trkpt>
      <trkpt lat="45.236904" lon="5.492020">
        <ele>237.740171</ele>
        <time>2017-06-04T09:08:15.000Z</time>
      </trkpt>
      <trkpt lat="45.236835" lon="5.491897">
        <ele>237.776953</ele>
        <time>2017-06-04T09:08:17.000Z</time>
      </trkpt>
      <trkpt lat="45.236770" lon="5.491771">
        <ele>237.813487</ele>
        <time>2017-06-04T09:08:19.000Z</time>
      </trkpt>
      <trkpt lat="45.236710" lon="5.491649">
        <ele>237.848293</ele>
        <time>2017-06-04T09:08:21.000Z</time>
      </trkpt>
      <trkpt lat="45.236645" lon="5.491529">
        <ele>237.883704</ele>
        <time>2017-06-04T09:08:23.000Z</time>
      </trkpt>
      <trkpt lat="45.236576" lon="5.491416">
        <ele>237.918687</ele>
        <time>2017-06-04T09:08:25.000Z</time>
      </trkpt>
      <trkpt lat="45.236523" lon="5.491287">
        <ele>237.953620</ele>
        <time>2017-06-04T09:08:27.000Z</time>
      </trkpt>
      <trkpt lat="45.236460" lon="5.491163">
        <ele>237.989385</ele>
        <time>2017-06-04T09:08:29.000Z</time>
      </trkpt>
      <trkpt lat="45.236393" lon="5.491055">
        <ele>238.023050</ele>
        <time>2017-06-04T09:08:31.000Z</time>
      </trkpt>
      <trkpt lat="45.236317" lon="5.490937">
        <ele>238.060454</ele>
        <time>2017-06-04T09:08:33.000Z</time>
      </trkpt>
      <trkpt lat="45.236248" lon="5.490816">
        <ele>238.096872</ele>
        <time>2017-06-04T09:08:35.000Z</time>
      </trkpt>
      <trkpt lat="45.236170" lon="5.490694">
        <ele>238.135415</ele>
        <time>2017-06-04T09:08:37.000Z</time>
      </trkpt>
      <trkpt lat="45.236100" lon="5.490581">
        <ele>238.141229</ele>
        <time>2017-06-04T09:08:39.000Z</time>
      </trkpt>
      <trkpt lat="45.236030" lon="5.490455">
        <ele>238.007870</ele>
        <time>2017-06-04T09:08:41.000Z</time>
      </trkpt>
      <trkpt lat="45.235966" lon="5.490341">
        <ele>237.886723</ele>
        <time>2017-06-04T09:08:43.000Z</time>
      </trkpt>
      <trkpt lat="45.235900" lon="5.490229">
        <ele>237.765370</ele>
        <time>2017-06-04T09:08:45.000Z</time>
      </trkpt>
      <trkpt lat="45.235830" lon="5.490122">
        <ele>237.644011</ele>
        <time>2017-06-04T09:08:47.000Z</time>
      </trkpt>
      <trkpt lat="45.235760" lon="5.490007">
        <ele>237.517701</ele>
        <time>2017-06-04T09:08:49.000Z</time>
      </trkpt>
      <trkpt lat="45.235687" lon="5.489871">
        <ele>237.375606</ele>
        <time>2017-06-04T09:08:51.000Z</time>
      </trkpt>
      <trkpt lat="45.235610" lon="5.489738">
        <ele>237.232534</ele>
        <time>2017-06-04T09:08:53.000Z</time>
      </trkpt>
      <trkpt lat="45.235523" lon="5.489622">
        <ele>237.091715</ele>
        <time>2017-06-04T09:08:55.000Z</time>
      </trkpt>
      <trkpt lat="45.235450" lon="5.489470">
        <ele>236.938833</ele>
        <time>2017-06-04T09:08:57.000Z</time>
      </trkpt>
      <trkpt lat="45.235374" lon="5.489323">
        <ele>236.787297</ele>
        <time>2017-06-04T09:08:59.000Z</time>
      </trkpt>
      <trkpt lat="45.235283" lon="5.489185">
        <ele>236.630198</ele>
        <time>2017-06-04T09:09:01.000Z</time>
      </trkpt>
      <trkpt lat="45.235203" lon="5.489042">
        <ele>236.478438</ele>
        <time>2017-06-04T09:09:03.000Z</time>
      </trkpt>
      <trkpt lat="45.235110" lon="5.488912">
        <ele>236.324451</ele>
        <time>2017-06-04T09:09:05.000Z</time>
      </trkpt>
      <trkpt lat="45.235027" lon="5.488800">
        <ele>236.189344</ele>
        <time>2017-06-04T09:09:07.000Z</time>
      </trkpt>
      <trkpt lat="45.234947" lon="5.488685">
        <ele>236.055020</ele>
        <time>2017-06-04T09:09:09.000Z</time>
      </trkpt>
      <trkpt lat="45.234875" lon="5.488535">
        <ele>235.862293</ele>
        <time>2017-06-04T09:09:11.000Z</time>
      </trkpt>
      <trkpt lat="45.234800" lon="5.488413">
        <ele>235.686757</ele>
        <time>2017-06-04T09:09:13.000Z</time>
      </trkpt>
      <trkpt lat="45.234720" lon="5.488297">
        <ele>235.510770</ele>
        <time>2017-06-04T09:09:15.000Z</time>
      </trkpt>
      <trkpt lat="45.234646" lon="5.488179">
        <ele>235.339504</ele>
        <time>2017-06-04T09:09:17.000Z</time>
      </trkpt>
      <trkpt lat="45.234570" lon="5.488057">
        <ele>235.162952</ele>
        <time>2017-06-04T09:09:19.000Z</time>
      </trkpt>
      <trkpt lat="45.234486" lon="5.487937">
        <ele>234.979554</ele>
        <time>2017-06-04T09:09:21.000Z</time>
      </trkpt>
      <trkpt lat="45.234406" lon="5.487816">
        <ele>234.799655</ele>
        <time>2017-06-04T09:09:23.000Z</time>
      </trkpt>
      <trkpt lat="45.234325" lon="5.487698">
        <ele>234.621042</ele>
        <time>2017-06-04T09:09:25.000Z</time>
      </trkpt>
      <trkpt lat="45.234264" lon="5.487570">
        <ele>234.453517</ele>
        <time>2017-06-04T09:09:27.000Z</time>
      </trkpt>
      <trkpt lat="45.234177" lon="5.487449">
        <ele>234.266078</ele>
        <time>2017-06-04T09:09:29.000Z</time>
      </trkpt>
      <trkpt lat="45.234100" lon="5.487353">
        <ele>234.108362</ele>
        <time>2017-06-04T09:09:31.000Z</time>
      </trkpt>
      <trkpt lat="45.234016" lon="5.487254">
        <ele>233.940340</ele>
        <time>2017-06-04T09:09:33.000Z</time>
      </trkpt>
      <trkpt lat="45.233930" lon="5.487142">
        <ele>233.760729</ele>
        <time>2017-06-04T09:09:35.000Z</time>
      </trkpt>
      <trkpt lat="45.233856" lon="5.487001">
        <ele>233.570121</ele>
        <time>2017-06-04T09:09:37.000Z</time>
      </trkpt>
      <trkpt lat="45.233776" lon="5.486872">
        <ele>233.383805</ele>
        <time>2017-06-04T09:09:39.000Z</time>
      </trkpt>
      <trkpt lat="45.233692" lon="5.486756">
        <ele>233.273529</ele>
        <time>2017-06-04T09:09:41.000Z</time>
      </trkpt>
      <trkpt lat="45.233610" lon="5.486648">
        <ele>233.274106</ele>
        <time>2017-06-04T09:09:43.000Z</time>
      </trkpt>
      <trkpt lat="45.233524" lon="5.486521">
        <ele>233.274746</ele>
        <time>2017-06-04T09:09:45.000Z</time>
      </trkpt>
      <trkpt lat="45.233425" lon="5.486419">
        <ele>233.275377</ele>
        <time>2017-06-04T09:09:47.000Z</time>
      </trkpt>
      <trkpt lat="45.233322" lon="5.486334">
        <ele>233.275991</ele>
        <time>2017-06-04T09:09:49.000Z</time>
      </trkpt>
      <trkpt lat="45.233223" lon="5.486246">
        <ele>233.276594</ele>
        <time>2017-06-04T09:09:51.000Z</time>
      </trkpt>
      <trkpt lat="45.233135" lon="5.486141">
        <ele>233.277187</ele>
        <time>2017-06-04T09:09:53.000Z</time>
      </trkpt>
      <trkpt lat="45.233044" lon="5.486059">
        <ele>233.277742</ele>
        <time>2017-06-04T09:09:55.000Z</time>
      </trkpt>
      <trkpt lat="45.232952" lon="5.485965">
        <ele>233.278327</ele>
        <time>2017-06-04T09:09:57.000Z</time>
      </trkpt>
      <trkpt lat="45.232860" lon="5.485889">
        <ele>233.278876</ele>
        <time>2017-06-04T09:09:59.000Z</time>
      </trkpt>
      <trkpt lat="45.232746" lon="5.485813">
        <ele>233.279526</ele>
        <time>2017-06-04T09:10:01.000Z</time>
      </trkpt>
      <trkpt lat="45.232624" lon="5.485757">
        <ele>233.280187</ele>
        <time>2017-06-04T09:10:03.000Z</time>
      </trkpt>
      <trkpt lat="45.232513" lon="5.485687">
        <ele>233.280814</ele>
        <time>2017-06-04T09:10:05.000Z</time>
      </trkpt>
      <trkpt lat="45.232426" lon="5.485619">
        <ele>233.281326</ele>
        <time>2017-06-04T09:10:07.000Z</time>
      </trkpt>
      <trkpt lat="45.232334" lon="5.485534">
        <ele>233.281892</ele>
        <time>2017-06-04T09:10:09.000Z</time>
      </trkpt>
      <trkpt lat="45.232220" lon="5.485488">
        <ele>233.282504</ele>
        <time>2017-06-04T09:10:11.000Z</time>
      </trkpt>
      <trkpt lat="45.232098" lon="5.485444">
        <ele>233.405442</ele>
        <time>2017-06-04T09:10:13.000Z</time>
      </trkpt>
      <trkpt lat="45.231990" lon="5.485413">
        <ele>233.525840</ele>
        <time>2017-06-04T09:10:15.000Z</time>
      </trkpt>
      <trkpt lat="45.231873" lon="5.485362">
        <ele>233.659573</ele>
        <time>2017-06-04T09:10:17.000Z</time>
      </trkpt>
      <trkpt lat="45.231754" lon="5.485303">
        <ele>233.797302</ele>
        <time>2017-06-04T09:10:19.000Z</time>
      </trkpt>
      <trkpt lat="45.231640" lon="5.485252">
        <ele>233.927905</ele>
        <time>2017-06-04T09:10:21.000Z</time>
      </trkpt>
      <trkpt lat="45.231525" lon="5.485208">
        <ele>234.058047</ele>
        <time>2017-06-04T09:10:23.000Z</time>
      </trkpt>
      <trkpt lat="45.231422" lon="5.485153">
        <ele>234.178289</ele>
        <time>2017-06-04T09:10:25.000Z</time>
      </trkpt>
      <trkpt lat="45.231310" lon="5.485116">
        <ele>234.303939</ele>
        <time>2017-06-04T09:10:27.000Z</time>
      </trkpt>
      <trkpt lat="45.231205" lon="5.485063">
        <ele>234.425706</ele>
        <time>2017-06-04T09:10:29.000Z</time>
      </trkpt>
      <trkpt lat="45.231106" lon="5.485017">
        <ele>234.539527</ele>
        <time>2017-06-04T09:10:31.000Z</time>
      </trkpt>
      <trkpt lat="45.231003" lon="5.484978">
        <ele>234.656007</ele>
        <time>2017-06-04T09:10:33.000Z</time>
      </trkpt>
      <trkpt lat="45.230910" lon="5.484954">
        <ele>234.759292</ele>
        <time>2017-06-04T09:10:35.000Z</time>
      </trkpt>
      <trkpt lat="45.230816" lon="5.484939">
        <ele>234.862652</ele>
        <time>2017-06-04T09:10:37.000Z</time>
      </trkpt>
      <trkpt lat="45.230694" lon="5.484959">
        <ele>234.996846</ele>
        <time>2017-06-04T09:10:40.000Z</time>
      </trkpt>
      <trkpt lat="45.230600" lon="5.484937">
        <ele>235.100945</ele>
        <time>2017-06-04T09:10:42.000Z</time>
      </trkpt>
      <trkpt lat="45.230500" lon="5.484907">
        <ele>235.212627</ele>
        <time>2017-06-04T09:10:44.000Z</time>
      </trkpt>
      <trkpt lat="45.230404" lon="5.484884">
        <ele>235.197646</ele>
        <time>2017-06-04T09:10:46.000Z</time>
      </trkpt>
      <trkpt lat="45.230297" lon="5.484862">
        <ele>235.114042</ele>
        <time>2017-06-04T09:10:48.000Z</time>
      </trkpt>
      <trkpt lat="45.230194" lon="5.484844">
        <ele>235.033794</ele>
        <time>2017-06-04T09:10:50.000Z</time>
      </trkpt>
      <trkpt lat="45.230095" lon="5.484829">
        <ele>234.956805</ele>
        <time>2017-06-04T09:10:52.000Z</time>
      </trkpt>
      <trkpt lat="45.229980" lon="5.484827">
        <ele>234.867871</ele>
        <time>2017-06-04T09:10:54.000Z</time>
      </trkpt>
      <trkpt lat="45.229866" lon="5.484827">
        <ele>234.779717</ele>
        <time>2017-06-04T09:10:56.000Z</time>
      </trkpt>
      <trkpt lat="45.229748" lon="5.484823">
        <ele>234.688445</ele>
        <time>2017-06-04T09:10:58.000Z</time>
      </trkpt>
      <trkpt lat="45.229656" lon="5.484823">
        <ele>234.617303</ele>
        <time>2017-06-04T09:11:00.000Z</time>
      </trkpt>
      <trkpt lat="45.229527" lon="5.484797">
        <ele>234.516550</ele>
        <time>2017-06-04T09:11:03.000Z</time>
      </trkpt>
      <trkpt lat="45.229404" lon="5.484817">
        <ele>234.420816</ele>
        <time>2017-06-04T09:11:06.000Z</time>
      </trkpt>
      <trkpt lat="45.229294" lon="5.484827">
        <ele>234.335581</ele>
        <time>2017-06-04T09:11:09.000Z</time>
      </trkpt>
      <trkpt lat="45.229187" lon="5.484852">
        <ele>234.251727</ele>
        <time>2017-06-04T09:11:12.000Z</time>
      </trkpt>
      <trkpt lat="45.229073" lon="5.484874">
        <ele>234.162763</ele>
        <time>2017-06-04T09:11:15.000Z</time>
      </trkpt>
      <trkpt lat="45.228973" lon="5.484890">
        <ele>234.084946</ele>
        <time>2017-06-04T09:11:17.000Z</time>
      </trkpt>
      <trkpt lat="45.228844" lon="5.484907">
        <ele>233.984765</ele>
        <time>2017-06-04T09:11:19.000Z</time>
      </trkpt>
      <trkpt lat="45.228683" lon="5.484932">
        <ele>233.859525</ele>
        <time>2017-06-04T09:11:21.000Z</time>
      </trkpt>
      <trkpt lat="45.228530" lon="5.484947">
        <ele>233.917673</ele>
        <time>2017-06-04T09:11:23.000Z</time>
      </trkpt>
      <trkpt lat="45.228400" lon="5.484958">
        <ele>233.970197</ele>
        <time>2017-06-04T09:11:25.000Z</time>
      </trkpt>
      <trkpt lat="45.228294" lon="5.484983">
        <ele>234.013535</ele>
        <time>2017-06-04T09:11:28.000Z</time>
      </trkpt>
      <trkpt lat="45.228188" lon="5.485000">
        <ele>234.056558</ele>
        <time>2017-06-04T09:11:32.000Z</time>
      </trkpt>
      <trkpt lat="45.228080" lon="5.485019">
        <ele>234.100450</ele>
        <time>2017-06-04T09:11:36.000Z</time>
      </trkpt>
      <trkpt lat="45.227974" lon="5.485008">
        <ele>234.143315</ele>
        <time>2017-06-04T09:11:43.000Z</time>
      </trkpt>
      <trkpt lat="45.227867" lon="5.485032">
        <ele>234.187006</ele>
        <time>2017-06-04T09:11:49.000Z</time>
      </trkpt>
      <trkpt lat="45.227780" lon="5.485070">
        <ele>234.223717</ele>
        <time>2017-06-04T09:11:56.000Z</time>
      </trkpt>
      <trkpt lat="45.227680" lon="5.485080">
        <ele>234.264149</ele>
        <time>2017-06-04T09:12:07.000Z</time>
      </trkpt>
      <trkpt lat="45.227570" lon="5.485119">
        <ele>234.309876</ele>
        <time>2017-06-04T09:12:11.000Z</time>
      </trkpt>
      <trkpt lat="45.227480" lon="5.485145">
        <ele>234.346918</ele>
        <time>2017-06-04T09:12:14.000Z</time>
      </trkpt>
      <trkpt lat="45.227375" lon="5.485165">
        <ele>234.389646</ele>
        <time>2017-06-04T09:12:17.000Z</time>
      </trkpt>
      <trkpt lat="45.227272" lon="5.485192">
        <ele>234.431890</ele>
        <time>2017-06-04T09:12:20.000Z</time>
      </trkpt>
      <trkpt lat="45.227158" lon="5.485215">
        <ele>234.478330</ele>
        <time>2017-06-04T09:12:23.000Z</time>
      </trkpt>
      <trkpt lat="45.227036" lon="5.485241">
        <ele>234.528085</ele>
        <time>2017-06-04T09:12:26.000Z</time>
      </trkpt>
      <trkpt lat="45.226944" lon="5.485272">
        <ele>234.566221</ele>
        <time>2017-06-04T09:12:28.000Z</time>
      </trkpt>
      <trkpt lat="45.226814" lon="5.485315">
        <ele>234.638749</ele>
        <time>2017-06-04T09:12:31.000Z</time>
      </trkpt>
      <trkpt lat="45.226720" lon="5.485333">
        <ele>234.696051</ele>
        <time>2017-06-04T09:12:33.000Z</time>
      </trkpt>
      <trkpt lat="45.226624" lon="5.485355">
        <ele>234.754797</ele>
        <time>2017-06-04T09:12:35.000Z</time>
      </trkpt>
      <trkpt lat="45.226530" lon="5.485384">
        <ele>234.812910</ele>
        <time>2017-06-04T09:12:37.000Z</time>
      </trkpt>
      <trkpt lat="45.226395" lon="5.485416">
        <ele>234.895596</ele>
        <time>2017-06-04T09:12:40.000Z</time>
      </trkpt>
      <trkpt lat="45.226260" lon="5.485441">
        <ele>234.977843</ele>
        <time>2017-06-04T09:12:43.000Z</time>
      </trkpt>
      <trkpt lat="45.226166" lon="5.485468">
        <ele>235.035781</ele>
        <time>2017-06-04T09:12:45.000Z</time>
      </trkpt>
      <trkpt lat="45.226055" lon="5.485507">
        <ele>235.104862</ele>
        <time>2017-06-04T09:12:47.000Z</time>
      </trkpt>
      <trkpt lat="45.225956" lon="5.485545">
        <ele>235.166817</ele>
        <time>2017-06-04T09:12:49.000Z</time>
      </trkpt>
      <trkpt lat="45.225822" lon="5.485582">
        <ele>235.249287</ele>
        <time>2017-06-04T09:12:52.000Z</time>
      </trkpt>
      <trkpt lat="45.225704" lon="5.485625">
        <ele>235.322884</ele>
        <time>2017-06-04T09:12:55.000Z</time>
      </trkpt>
      <trkpt lat="45.225605" lon="5.485658">
        <ele>235.384318</ele>
        <time>2017-06-04T09:12:58.000Z</time>
      </trkpt>
      <trkpt lat="45.225502" lon="5.485686">
        <ele>235.447673</ele>
        <time>2017-06-04T09:13:01.000Z</time>
      </trkpt>
      <trkpt lat="45.225376" lon="5.485710">
        <ele>235.524475</ele>
        <time>2017-06-04T09:13:04.000Z</time>
      </trkpt>
      <trkpt lat="45.225243" lon="5.485722">
        <ele>235.604986</ele>
        <time>2017-06-04T09:13:07.000Z</time>
      </trkpt>
      <trkpt lat="45.225143" lon="5.485722">
        <ele>235.665398</ele>
        <time>2017-06-04T09:13:09.000Z</time>
      </trkpt>
      <trkpt lat="45.225044" lon="5.485721">
        <ele>235.689344</ele>
        <time>2017-06-04T09:13:11.000Z</time>
      </trkpt>
      <trkpt lat="45.224940" lon="5.485726">
        <ele>235.712012</ele>
        <time>2017-06-04T09:13:13.000Z</time>
      </trkpt>
      <trkpt lat="45.224834" lon="5.485726">
        <ele>235.735103</ele>
        <time>2017-06-04T09:13:15.000Z</time>
      </trkpt>
      <trkpt lat="45.224728" lon="5.485726">
        <ele>235.758193</ele>
        <time>2017-06-04T09:13:17.000Z</time>
      </trkpt>
      <trkpt lat="45.224620" lon="5.485727">
        <ele>235.781720</ele>
        <time>2017-06-04T09:13:19.000Z</time>
      </trkpt>
      <trkpt lat="45.224525" lon="5.485724">
        <ele>235.802420</ele>
        <time>2017-06-04T09:13:21.000Z</time>
      </trkpt>
      <trkpt lat="45.224420" lon="5.485724">
        <ele>235.825293</ele>
        <time>2017-06-04T09:13:23.000Z</time>
      </trkpt>
      <trkpt lat="45.224320" lon="5.485731">
        <ele>235.847104</ele>
        <time>2017-06-04T09:13:25.000Z</time>
      </trkpt>
      <trkpt lat="45.224216" lon="5.485726">
        <ele>235.869772</ele>
        <time>2017-06-04T09:13:27.000Z</time>
      </trkpt>
      <trkpt lat="45.224106" lon="5.485717">
        <ele>235.893774</ele>
        <time>2017-06-04T09:13:29.000Z</time>
      </trkpt>
      <trkpt lat="45.224000" lon="5.485698">
        <ele>235.917048</ele>
        <time>2017-06-04T09:13:31.000Z</time>
      </trkpt>
      <trkpt lat="45.223892" lon="5.485670">
        <ele>235.940963</ele>
        <time>2017-06-04T09:13:33.000Z</time>
      </trkpt>
      <trkpt lat="45.223785" lon="5.485632">
        <ele>235.964990</ele>
        <time>2017-06-04T09:13:35.000Z</time>
      </trkpt>
      <trkpt lat="45.223680" lon="5.485588">
        <ele>235.988839</ele>
        <time>2017-06-04T09:13:37.000Z</time>
      </trkpt>
      <trkpt lat="45.223560" lon="5.485549">
        <ele>236.015656</ele>
        <time>2017-06-04T09:13:39.000Z</time>
      </trkpt>
      <trkpt lat="45.223442" lon="5.485501">
        <ele>236.042395</ele>
        <time>2017-06-04T09:13:41.000Z</time>
      </trkpt>
      <trkpt lat="45.223330" lon="5.485464">
        <ele>236.065275</ele>
        <time>2017-06-04T09:13:43.000Z</time>
      </trkpt>
      <trkpt lat="45.223213" lon="5.485428">
        <ele>236.082665</ele>
        <time>2017-06-04T09:13:45.000Z</time>
      </trkpt>
      <trkpt lat="45.223114" lon="5.485394">
        <ele>236.097461</ele>
        <time>2017-06-04T09:13:47.000Z</time>
      </trkpt>
      <trkpt lat="45.223026" lon="5.485346">
        <ele>236.111155</ele>
        <time>2017-06-04T09:13:49.000Z</time>
      </trkpt>
      <trkpt lat="45.222893" lon="5.485281">
        <ele>236.131588</ele>
        <time>2017-06-04T09:13:52.000Z</time>
      </trkpt>
      <trkpt lat="45.222800" lon="5.485233">
        <ele>236.145963</ele>
        <time>2017-06-04T09:13:54.000Z</time>
      </trkpt>
      <trkpt lat="45.222670" lon="5.485155">
        <ele>236.166464</ele>
        <time>2017-06-04T09:13:57.000Z</time>
      </trkpt>
      <trkpt lat="45.222590" lon="5.485088">
        <ele>236.179957</ele>
        <time>2017-06-04T09:13:59.000Z</time>
      </trkpt>
      <trkpt lat="45.222510" lon="5.484972">
        <ele>236.196568</ele>
        <time>2017-06-04T09:14:01.000Z</time>
      </trkpt>
      <trkpt lat="45.222430" lon="5.484858">
        <ele>236.213033</ele>
        <time>2017-06-04T09:14:03.000Z</time>
      </trkpt>
      <trkpt lat="45.222332" lon="5.484748">
        <ele>236.231181</ele>
        <time>2017-06-04T09:14:05.000Z</time>
      </trkpt>
      <trkpt lat="45.222260" lon="5.484629">
        <ele>236.247232</ele>
        <time>2017-06-04T09:14:07.000Z</time>
      </trkpt>
      <trkpt lat="45.222180" lon="5.484512">
        <ele>236.263916</ele>
        <time>2017-06-04T09:14:09.000Z</time>
      </trkpt>
      <trkpt lat="45.222107" lon="5.484395">
        <ele>236.279909</ele>
        <time>2017-06-04T09:14:11.000Z</time>
      </trkpt>
      <trkpt lat="45.222020" lon="5.484267">
        <ele>236.298109</ele>
        <time>2017-06-04T09:14:13.000Z</time>
      </trkpt>
      <trkpt lat="45.221928" lon="5.484154">
        <ele>236.315780</ele>
        <time>2017-06-04T09:14:15.000Z</time>
      </trkpt>
      <trkpt lat="45.221855" lon="5.484032">
        <ele>236.323789</ele>
        <time>2017-06-04T09:14:17.000Z</time>
      </trkpt>
      <trkpt lat="45.221775" lon="5.483919">
        <ele>236.326390</ele>
        <time>2017-06-04T09:14:19.000Z</time>
      </trkpt>
      <trkpt lat="45.221687" lon="5.483817">
        <ele>236.329009</ele>
        <time>2017-06-04T09:14:21.000Z</time>
      </trkpt>
      <trkpt lat="45.221610" lon="5.483705">
        <ele>236.331550</ele>
        <time>2017-06-04T09:14:23.000Z</time>
      </trkpt>
      <trkpt lat="45.221542" lon="5.483592">
        <ele>236.333962</ele>
        <time>2017-06-04T09:14:25.000Z</time>
      </trkpt>
      <trkpt lat="45.221470" lon="5.483482">
        <ele>236.336400</ele>
        <time>2017-06-04T09:14:27.000Z</time>
      </trkpt>
      <trkpt lat="45.221400" lon="5.483356">
        <ele>236.339005</ele>
        <time>2017-06-04T09:14:29.000Z</time>
      </trkpt>
      <trkpt lat="45.221325" lon="5.483239">
        <ele>236.341574</ele>
        <time>2017-06-04T09:14:31.000Z</time>
      </trkpt>
      <trkpt lat="45.221252" lon="5.483115">
        <ele>236.344197</ele>
        <time>2017-06-04T09:14:33.000Z</time>
      </trkpt>
      <trkpt lat="45.221188" lon="5.482977">
        <ele>236.346880</ele>
        <time>2017-06-04T09:14:35.000Z</time>
      </trkpt>
      <trkpt lat="45.221110" lon="5.482854">
        <ele>236.349567</ele>
        <time>2017-06-04T09:14:37.000Z</time>
      </trkpt>
      <trkpt lat="45.221035" lon="5.482732">
        <ele>236.352195</ele>
        <time>2017-06-04T09:14:39.000Z</time>
      </trkpt>
      <trkpt lat="45.220955" lon="5.482612">
        <ele>236.354878</ele>
        <time>2017-06-04T09:14:41.000Z</time>
      </trkpt>
      <trkpt lat="45.220886" lon="5.482483">
        <ele>236.357507</ele>
        <time>2017-06-04T09:14:43.000Z</time>
      </trkpt>
      <trkpt lat="45.220814" lon="5.482358">
        <ele>236.360129</ele>
        <time>2017-06-04T09:14:45.000Z</time>
      </trkpt>
      <trkpt lat="45.220737" lon="5.482238">
        <ele>236.362764</ele>
        <time>2017-06-04T09:14:47.000Z</time>
      </trkpt>
      <trkpt lat="45.220660" lon="5.482120">
        <ele>236.375538</ele>
        <time>2017-06-04T09:14:49.000Z</time>
      </trkpt>
      <trkpt lat="45.220596" lon="5.481986">
        <ele>236.393795</ele>
        <time>2017-06-04T09:14:51.000Z</time>
      </trkpt>
      <trkpt lat="45.220528" lon="5.481858">
        <ele>236.411874</ele>
        <time>2017-06-04T09:14:53.000Z</time>
      </trkpt>
      <trkpt lat="45.220463" lon="5.481727">
        <ele>236.429943</ele>
        <time>2017-06-04T09:14:55.000Z</time>
      </trkpt>
      <trkpt lat="45.220387" lon="5.481588">
        <ele>236.449786</ele>
        <time>2017-06-04T09:14:57.000Z</time>
      </trkpt>
      <trkpt lat="45.220314" lon="5.481449">
        <ele>236.469337</ele>
        <time>2017-06-04T09:14:59.000Z</time>
      </trkpt>
      <trkpt lat="45.220238" lon="5.481303">
        <ele>236.489809</ele>
        <time>2017-06-04T09:15:01.000Z</time>
      </trkpt>
      <trkpt lat="45.220180" lon="5.481156">
        <ele>236.508809</ele>
        <time>2017-06-04T09:15:03.000Z</time>
      </trkpt>
      <trkpt lat="45.220120" lon="5.481017">
        <ele>236.527193</ele>
        <time>2017-06-04T09:15:05.000Z</time>
      </trkpt>
      <trkpt lat="45.220050" lon="5.480888">
        <ele>236.545556</ele>
        <time>2017-06-04T09:15:07.000Z</time>
      </trkpt>
      <trkpt lat="45.219990" lon="5.480766">
        <ele>236.562335</ele>
        <time>2017-06-04T09:15:09.000Z</time>
      </trkpt>
      <trkpt lat="45.219930" lon="5.480635">
        <ele>236.579955</ele>
        <time>2017-06-04T09:15:11.000Z</time>
      </trkpt>
      <trkpt lat="45.219868" lon="5.480491">
        <ele>236.598987</ele>
        <time>2017-06-04T09:15:13.000Z</time>
      </trkpt>
      <trkpt lat="45.219810" lon="5.480376">
        <ele>236.614937</ele>
        <time>2017-06-04T09:15:15.000Z</time>
      </trkpt>
      <trkpt lat="45.219746" lon="5.480262">
        <ele>236.631376</ele>
        <time>2017-06-04T09:15:17.000Z</time>
      </trkpt>
      <trkpt lat="45.219673" lon="5.480098">
        <ele>236.658929</ele>
        <time>2017-06-04T09:15:19.000Z</time>
      </trkpt>
      <trkpt lat="45.219616" lon="5.479967">
        <ele>236.736468</ele>
        <time>2017-06-04T09:15:21.000Z</time>
      </trkpt>
      <trkpt lat="45.219555" lon="5.479847">
        <ele>236.810989</ele>
        <time>2017-06-04T09:15:23.000Z</time>
      </trkpt>
      <trkpt lat="45.219486" lon="5.479706">
        <ele>236.897446</ele>
        <time>2017-06-04T09:15:25.000Z</time>
      </trkpt>
      <trkpt lat="45.219400" lon="5.479571">
        <ele>236.989106</ele>
        <time>2017-06-04T09:15:27.000Z</time>
      </trkpt>
      <trkpt lat="45.219345" lon="5.479430">
        <ele>237.070270</ele>
        <time>2017-06-04T09:15:29.000Z</time>
      </trkpt>
      <trkpt lat="45.219265" lon="5.479290">
        <ele>237.161052</ele>
        <time>2017-06-04T09:15:31.000Z</time>
      </trkpt>
      <trkpt lat="45.219180" lon="5.479179">
        <ele>237.243617</ele>
        <time>2017-06-04T09:15:33.000Z</time>
      </trkpt>
      <trkpt lat="45.219112" lon="5.479074">
        <ele>237.315444</ele>
        <time>2017-06-04T09:15:35.000Z</time>
      </trkpt>
      <trkpt lat="45.219032" lon="5.478972">
        <ele>237.392316</ele>
        <time>2017-06-04T09:15:37.000Z</time>
      </trkpt>
      <trkpt lat="45.218952" lon="5.478874">
        <ele>237.467857</ele>
        <time>2017-06-04T09:15:39.000Z</time>
      </trkpt>
      <trkpt lat="45.218876" lon="5.478768">
        <ele>237.544024</ele>
        <time>2017-06-04T09:15:41.000Z</time>
      </trkpt>
      <trkpt lat="45.218792" lon="5.478659">
        <ele>237.625382</ele>
        <time>2017-06-04T09:15:43.000Z</time>
      </trkpt>
      <trkpt lat="45.218704" lon="5.478562">
        <ele>237.705030</ele>
        <time>2017-06-04T09:15:45.000Z</time>
      </trkpt>
      <trkpt lat="45.218620" lon="5.478463">
        <ele>237.783080</ele>
        <time>2017-06-04T09:15:47.000Z</time>
      </trkpt>
      <trkpt lat="45.218540" lon="5.478355">
        <ele>237.862003</ele>
        <time>2017-06-04T09:15:49.000Z</time>
      </trkpt>
      <trkpt lat="45.218456" lon="5.478229">
        <ele>237.929755</ele>
        <time>2017-06-04T09:15:51.000Z</time>
      </trkpt>
      <trkpt lat="45.218376" lon="5.478127">
        <ele>237.879892</ele>
        <time>2017-06-04T09:15:53.000Z</time>
      </trkpt>
      <trkpt lat="45.218290" lon="5.478036">
        <ele>237.830154</ele>
        <time>2017-06-04T09:15:55.000Z</time>
      </trkpt>
      <trkpt lat="45.218197" lon="5.477935">
        <ele>237.775857</ele>
        <time>2017-06-04T09:15:57.000Z</time>
      </trkpt>
      <trkpt lat="45.218090" lon="5.477815">
        <ele>237.712624</ele>
        <time>2017-06-04T09:15:59.000Z</time>
      </trkpt>
      <trkpt lat="45.218000" lon="5.477708">
        <ele>237.658188</ele>
        <time>2017-06-04T09:16:01.000Z</time>
      </trkpt>
      <trkpt lat="45.217907" lon="5.477612">
        <ele>237.604867</ele>
        <time>2017-06-04T09:16:03.000Z</time>
      </trkpt>
      <trkpt lat="45.217815" lon="5.477503">
        <ele>237.549300</ele>
        <time>2017-06-04T09:16:05.000Z</time>
      </trkpt>
      <trkpt lat="45.217705" lon="5.477407">
        <ele>237.489423</ele>
        <time>2017-06-04T09:16:07.000Z</time>
      </trkpt>
      <trkpt lat="45.217598" lon="5.477312">
        <ele>237.430901</ele>
        <time>2017-06-04T09:16:09.000Z</time>
      </trkpt>
      <trkpt lat="45.217495" lon="5.477218">
        <ele>237.374121</ele>
        <time>2017-06-04T09:16:11.000Z</time>
      </trkpt>
      <trkpt lat="45.217390" lon="5.477128">
        <ele>237.317244</ele>
        <time>2017-06-04T09:16:13.000Z</time>
      </trkpt>
      <trkpt lat="45.217285" lon="5.477033">
        <ele>237.259506</ele>
        <time>2017-06-04T09:16:15.000Z</time>
      </trkpt>
      <trkpt lat="45.217180" lon="5.476944">
        <ele>237.202797</ele>
        <time>2017-06-04T09:16:17.000Z</time>
      </trkpt>
      <trkpt lat="45.217075" lon="5.476848">
        <ele>237.144883</ele>
        <time>2017-06-04T09:16:19.000Z</time>
      </trkpt>
      <trkpt lat="45.216980" lon="5.476756">
        <ele>237.123033</ele>
        <time>2017-06-04T09:16:21.000Z</time>
      </trkpt>
      <trkpt lat="45.216880" lon="5.476671">
        <ele>237.212445</ele>
        <time>2017-06-04T09:16:23.000Z</time>
      </trkpt>
      <trkpt lat="45.216770" lon="5.476580">
        <ele>237.310112</ele>
        <time>2017-06-04T09:16:25.000Z</time>
      </trkpt>
      <trkpt lat="45.216656" lon="5.476508">
        <ele>237.405829</ele>
        <time>2017-06-04T09:16:27.000Z</time>
      </trkpt>
      <trkpt lat="45.216553" lon="5.476426">
        <ele>237.496420</ele>
        <time>2017-06-04T09:16:29.000Z</time>
      </trkpt>
      <trkpt lat="45.216446" lon="5.476342">
        <ele>237.590217</ele>
        <time>2017-06-04T09:16:31.000Z</time>
      </trkpt>
      <trkpt lat="45.216347" lon="5.476250">
        <ele>237.680988</ele>
        <time>2017-06-04T09:16:33.000Z</time>
      </trkpt>
      <trkpt lat="45.216250" lon="5.476153">
        <ele>237.772008</ele>
        <time>2017-06-04T09:16:35.000Z</time>
      </trkpt>
      <trkpt lat="45.216145" lon="5.476070">
        <ele>237.864202</ele>
        <time>2017-06-04T09:16:37.000Z</time>
      </trkpt>
      <trkpt lat="45.216034" lon="5.475995">
        <ele>237.958506</ele>
        <time>2017-06-04T09:16:39.000Z</time>
      </trkpt>
      <trkpt lat="45.215920" lon="5.475910">
        <ele>238.057287</ele>
        <time>2017-06-04T09:16:41.000Z</time>
      </trkpt>
      <trkpt lat="45.215805" lon="5.475822">
        <ele>238.157508</ele>
        <time>2017-06-04T09:16:43.000Z</time>
      </trkpt>
      <trkpt lat="45.215702" lon="5.475738">
        <ele>238.248632</ele>
        <time>2017-06-04T09:16:45.000Z</time>
      </trkpt>
      <trkpt lat="45.215620" lon="5.475650">
        <ele>238.327489</ele>
        <time>2017-06-04T09:16:47.000Z</time>
      </trkpt>
      <trkpt lat="45.215523" lon="5.475567">
        <ele>238.414373</ele>
        <time>2017-06-04T09:16:49.000Z</time>
      </trkpt>
      <trkpt lat="45.215420" lon="5.475482">
        <ele>238.495523</ele>
        <time>2017-06-04T09:16:51.000Z</time>
      </trkpt>
      <trkpt lat="45.215310" lon="5.475415">
        <ele>238.545663</ele>
        <time>2017-06-04T09:16:53.000Z</time>
      </trkpt>
      <trkpt lat="45.215218" lon="5.475314">
        <ele>238.594381</ele>
        <time>2017-06-04T09:16:55.000Z</time>
      </trkpt>
      <trkpt lat="45.215120" lon="5.475232">
        <ele>238.642033</ele>
        <time>2017-06-04T09:16:57.000Z</time>
      </trkpt>
      <trkpt lat="45.215015" lon="5.475159">
        <ele>238.691009</ele>
        <time>2017-06-04T09:16:59.000Z</time>
      </trkpt>
      <trkpt lat="45.214924" lon="5.475068">
        <ele>238.737637</ele>
        <time>2017-06-04T09:17:01.000Z</time>
      </trkpt>
      <trkpt lat="45.214830" lon="5.474982">
        <ele>238.784482</ele>
        <time>2017-06-04T09:17:03.000Z</time>
      </trkpt>
      <trkpt lat="45.214737" lon="5.474888">
        <ele>238.832305</ele>
        <time>2017-06-04T09:17:05.000Z</time>
      </trkpt>
      <trkpt lat="45.214645" lon="5.474792">
        <ele>238.880135</ele>
        <time>2017-06-04T09:17:07.000Z</time>
      </trkpt>
      <trkpt lat="45.214542" lon="5.474705">
        <ele>238.930341</ele>
        <time>2017-06-04T09:17:09.000Z</time>
      </trkpt>
      <trkpt lat="45.214450" lon="5.474603">
        <ele>238.979241</ele>
        <time>2017-06-04T09:17:11.000Z</time>
      </trkpt>
      <trkpt lat="45.214355" lon="5.474505">
        <ele>239.028434</ele>
        <time>2017-06-04T09:17:13.000Z</time>
      </trkpt>
      <trkpt lat="45.214264" lon="5.474403">
        <ele>239.077004</ele>
        <time>2017-06-04T09:17:15.000Z</time>
      </trkpt>
      <trkpt lat="45.214157" lon="5.474315">
        <ele>239.128804</ele>
        <time>2017-06-04T09:17:17.000Z</time>
      </trkpt>
      <trkpt lat="45.214077" lon="5.474225">
        <ele>239.171564</ele>
        <time>2017-06-04T09:17:19.000Z</time>
      </trkpt>
      <trkpt lat="45.213997" lon="5.474119">
        <ele>239.217405</ele>
        <time>2017-06-04T09:17:21.000Z</time>
      </trkpt>
      <trkpt lat="45.213917" lon="5.474014">
        <ele>239.184046</ele>
        <time>2017-06-04T09:17:23.000Z</time>
      </trkpt>
      <trkpt lat="45.213837" lon="5.473915">
        <ele>239.095516</ele>
        <time>2017-06-04T09:17:25.000Z</time>
      </trkpt>
      <trkpt lat="45.213737" lon="5.473833">
        <ele>238.999183</ele>
        <time>2017-06-04T09:17:27.000Z</time>
      </trkpt>
      <trkpt lat="45.213640" lon="5.473738">
        <ele>238.900881</ele>
        <time>2017-06-04T09:17:29.000Z</time>
      </trkpt>
      <trkpt lat="45.213535" lon="5.473635">
        <ele>238.794416</ele>
        <time>2017-06-04T09:17:31.000Z</time>
      </trkpt>
      <trkpt lat="45.213448" lon="5.473531">
        <ele>238.699540</ele>
        <time>2017-06-04T09:17:33.000Z</time>
      </trkpt>
      <trkpt lat="45.213367" lon="5.473420">
        <ele>238.605626</ele>
        <time>2017-06-04T09:17:35.000Z</time>
      </trkpt>
      <trkpt lat="45.213303" lon="5.473301">
        <ele>238.517648</ele>
        <time>2017-06-04T09:17:37.000Z</time>
      </trkpt>
      <trkpt lat="45.213230" lon="5.473180">
        <ele>238.424033</ele>
        <time>2017-06-04T09:17:39.000Z</time>
      </trkpt>
      <trkpt lat="45.213160" lon="5.473062">
        <ele>238.333381</ele>
        <time>2017-06-04T09:17:41.000Z</time>
      </trkpt>
      <trkpt lat="45.213078" lon="5.472935">
        <ele>238.232148</ele>
        <time>2017-06-04T09:17:43.000Z</time>
      </trkpt>
      <trkpt lat="45.213005" lon="5.472818">
        <ele>238.140305</ele>
        <time>2017-06-04T09:17:45.000Z</time>
      </trkpt>
      <trkpt lat="45.212917" lon="5.472703">
        <ele>238.040529</ele>
        <time>2017-06-04T09:17:47.000Z</time>
      </trkpt>
      <trkpt lat="45.212837" lon="5.472570">
        <ele>237.937759</ele>
        <time>2017-06-04T09:17:49.000Z</time>
      </trkpt>
      <trkpt lat="45.212750" lon="5.472454">
        <ele>237.838194</ele>
        <time>2017-06-04T09:17:51.000Z</time>
      </trkpt>
      <trkpt lat="45.212685" lon="5.472319">
        <ele>237.742103</ele>
        <time>2017-06-04T09:17:53.000Z</time>
      </trkpt>
      <trkpt lat="45.212605" lon="5.472203">
        <ele>237.735083</ele>
        <time>2017-06-04T09:17:55.000Z</time>
      </trkpt>
      <trkpt lat="45.212520" lon="5.472087">
        <ele>237.733757</ele>
        <time>2017-06-04T09:17:57.000Z</time>
      </trkpt>
      <trkpt lat="45.212440" lon="5.471975">
        <ele>237.732494</ele>
        <time>2017-06-04T09:17:59.000Z</time>
      </trkpt>
      <trkpt lat="45.212340" lon="5.471853">
        <ele>237.731012</ele>
        <time>2017-06-04T09:18:01.000Z</time>
      </trkpt>
      <trkpt lat="45.212273" lon="5.471729">
        <ele>237.729774</ele>
        <time>2017-06-04T09:18:03.000Z</time>
      </trkpt>
      <trkpt lat="45.212193" lon="5.471631">
        <ele>237.728586</ele>
        <time>2017-06-04T09:18:05.000Z</time>
      </trkpt>
      <trkpt lat="45.212124" lon="5.471507">
        <ele>237.727335</ele>
        <time>2017-06-04T09:18:07.000Z</time>
      </trkpt>
      <trkpt lat="45.212067" lon="5.471379">
        <ele>237.726136</ele>
        <time>2017-06-04T09:18:09.000Z</time>
      </trkpt>
      <trkpt lat="45.211983" lon="5.471272">
        <ele>237.724867</ele>
        <time>2017-06-04T09:18:11.000Z</time>
      </trkpt>
      <trkpt lat="45.211914" lon="5.471155">
        <ele>237.723658</ele>
        <time>2017-06-04T09:18:13.000Z</time>
      </trkpt>
      <trkpt lat="45.211838" lon="5.471033">
        <ele>237.722369</ele>
        <time>2017-06-04T09:18:15.000Z</time>
      </trkpt>
      <trkpt lat="45.211760" lon="5.470928">
        <ele>237.721160</ele>
        <time>2017-06-04T09:18:17.000Z</time>
      </trkpt>
      <trkpt lat="45.211666" lon="5.470807">
        <ele>237.719734</ele>
        <time>2017-06-04T09:18:19.000Z</time>
      </trkpt>
      <trkpt lat="45.211570" lon="5.470693">
        <ele>237.718327</ele>
        <time>2017-06-04T09:18:21.000Z</time>
      </trkpt>
      <trkpt lat="45.211506" lon="5.470551">
        <ele>237.716992</ele>
        <time>2017-06-04T09:18:23.000Z</time>
      </trkpt>
      <trkpt lat="45.211437" lon="5.470420">
        <ele>237.727813</ele>
        <time>2017-06-04T09:18:25.000Z</time>
      </trkpt>
      <trkpt lat="45.211353" lon="5.470285">
        <ele>237.772592</ele>
        <time>2017-06-04T09:18:27.000Z</time>
      </trkpt>
      <trkpt lat="45.211266" lon="5.470162">
        <ele>237.815924</ele>
        <time>2017-06-04T09:18:29.000Z</time>
      </trkpt>
      <trkpt lat="45.211185" lon="5.470048">
        <ele>237.856178</ele>
        <time>2017-06-04T09:18:31.000Z</time>
      </trkpt>
      <trkpt lat="45.211098" lon="5.469919">
        <ele>237.900575</ele>
        <time>2017-06-04T09:18:33.000Z</time>
      </trkpt>
      <trkpt lat="45.211002" lon="5.469805">
        <ele>237.944745</ele>
        <time>2017-06-04T09:18:35.000Z</time>
      </trkpt>
      <trkpt lat="45.210940" lon="5.469663">
        <ele>237.986279</ele>
        <time>2017-06-04T09:18:37.000Z</time>
      </trkpt>
      <trkpt lat="45.210865" lon="5.469522">
        <ele>238.030203</ele>
        <time>2017-06-04T09:18:39.000Z</time>
      </trkpt>
      <trkpt lat="45.210780" lon="5.469400">
        <ele>238.072861</ele>
        <time>2017-06-04T09:18:41.000Z</time>
      </trkpt>
      <trkpt lat="45.210693" lon="5.469270">
        <ele>238.117439</ele>
        <time>2017-06-04T09:18:43.000Z</time>
      </trkpt>
      <trkpt lat="45.210613" lon="5.469156">
        <ele>238.157443</ele>
        <time>2017-06-04T09:18:45.000Z</time>
      </trkpt>
      <trkpt lat="45.210537" lon="5.469041">
        <ele>238.196644</ele>
        <time>2017-06-04T09:18:47.000Z</time>
      </trkpt>
      <trkpt lat="45.210453" lon="5.468933">
        <ele>238.236640</ele>
        <time>2017-06-04T09:18:49.000Z</time>
      </trkpt>
      <trkpt lat="45.210392" lon="5.468816">
        <ele>238.272827</ele>
        <time>2017-06-04T09:18:51.000Z</time>
      </trkpt>
      <trkpt lat="45.210304" lon="5.468706">
        <ele>238.314207</ele>
        <time>2017-06-04T09:18:53.000Z</time>
      </trkpt>
      <trkpt lat="45.210228" lon="5.468592">
        <ele>238.349970</ele>
        <time>2017-06-04T09:18:55.000Z</time>
      </trkpt>
      <trkpt lat="45.210160" lon="5.468457">
        <ele>238.335804</ele>
        <time>2017-06-04T09:18:57.000Z</time>
      </trkpt>
      <trkpt lat="45.210083" lon="5.468350">
        <ele>238.322748</ele>
        <time>2017-06-04T09:18:59.000Z</time>
      </trkpt>
      <trkpt lat="45.210007" lon="5.468211">
        <ele>238.307730</ele>
        <time>2017-06-04T09:19:01.000Z</time>
      </trkpt>
      <trkpt lat="45.209927" lon="5.468095">
        <ele>238.293873</ele>
        <time>2017-06-04T09:19:03.000Z</time>
      </trkpt>
      <trkpt lat="45.209824" lon="5.467981">
        <ele>238.278048</ele>
        <time>2017-06-04T09:19:05.000Z</time>
      </trkpt>
      <trkpt lat="45.209730" lon="5.467869">
        <ele>238.263179</ele>
        <time>2017-06-04T09:19:07.000Z</time>
      </trkpt>
      <trkpt lat="45.209667" lon="5.467741">
        <ele>238.249850</ele>
        <time>2017-06-04T09:19:09.000Z</time>
      </trkpt>
      <trkpt lat="45.209590" lon="5.467631">
        <ele>238.236614</ele>
        <time>2017-06-04T09:19:11.000Z</time>
      </trkpt>
      <trkpt lat="45.209526" lon="5.467513">
        <ele>238.223902</ele>
        <time>2017-06-04T09:19:13.000Z</time>
      </trkpt>
      <trkpt lat="45.209450" lon="5.467382">
        <ele>238.209417</ele>
        <time>2017-06-04T09:19:15.000Z</time>
      </trkpt>
      <trkpt lat="45.209366" lon="5.467262">
        <ele>238.194977</ele>
        <time>2017-06-04T09:19:17.000Z</time>
      </trkpt>
      <trkpt lat="45.209286" lon="5.467135">
        <ele>238.180435</ele>
        <time>2017-06-04T09:19:19.000Z</time>
      </trkpt>
      <trkpt lat="45.209220" lon="5.467012">
        <ele>238.167237</ele>
        <time>2017-06-04T09:19:21.000Z</time>
      </trkpt>
      <trkpt lat="45.209150" lon="5.466921">
        <ele>238.155737</ele>
        <time>2017-06-04T09:19:23.000Z</time>
      </trkpt>
      <trkpt lat="45.209072" lon="5.466833">
        <ele>238.143664</ele>
        <time>2017-06-04T09:19:25.000Z</time>
      </trkpt>
      <trkpt lat="45.208996" lon="5.466706">
        <ele>238.129376</ele>
        <time>2017-06-04T09:19:28.000Z</time>
      </trkpt>
      <trkpt lat="45.208935" lon="5.466552">
        <ele>238.114012</ele>
        <time>2017-06-04T09:19:31.000Z</time>
      </trkpt>
      <trkpt lat="45.208885" lon="5.466432">
        <ele>238.101888</ele>
        <time>2017-06-04T09:19:35.000Z</time>
      </trkpt>
      <trkpt lat="45.208862" lon="5.466298">
        <ele>238.089893</ele>
        <time>2017-06-04T09:19:39.000Z</time>
      </trkpt>
      <trkpt lat="45.208810" lon="5.466170">
        <ele>238.077044</ele>
        <time>2017-06-04T09:19:44.000Z</time>
      </trkpt>
      <trkpt lat="45.208760" lon="5.466057">
        <ele>238.065439</ele>
        <time>2017-06-04T09:19:50.000Z</time>
      </trkpt>
      <trkpt lat="45.208664" lon="5.466053">
        <ele>238.053584</ele>
        <time>2017-06-04T09:19:56.000Z</time>
      </trkpt>
      <trkpt lat="45.208557" lon="5.466118">
        <ele>238.039217</ele>
        <time>2017-06-04T09:21:32.000Z</time>
      </trkpt>
      <trkpt lat="45.208640" lon="5.466051">
        <ele>238.027431</ele>
        <time>2017-06-04T09:21:40.000Z</time>
      </trkpt>
      <trkpt lat="45.208570" lon="5.466124">
        <ele>238.016709</ele>
        <time>2017-06-04T09:22:57.000Z</time>
      </trkpt>
      <trkpt lat="45.208504" lon="5.466219">
        <ele>238.005106</ele>
        <time>2017-06-04T09:23:01.000Z</time>
      </trkpt>
      <trkpt lat="45.208440" lon="5.466326">
        <ele>237.992900</ele>
        <time>2017-06-04T09:23:05.000Z</time>
      </trkpt>
      <trkpt lat="45.208363" lon="5.466429">
        <ele>237.979839</ele>
        <time>2017-06-04T09:23:09.000Z</time>
      </trkpt>
      <trkpt lat="45.208294" lon="5.466526">
        <ele>237.967851</ele>
        <time>2017-06-04T09:23:13.000Z</time>
      </trkpt>
      <trkpt lat="45.208225" lon="5.466655">
        <ele>237.953766</ele>
        <time>2017-06-04T09:23:17.000Z</time>
      </trkpt>
      <trkpt lat="45.208150" lon="5.466774">
        <ele>237.939880</ele>
        <time>2017-06-04T09:23:21.000Z</time>
      </trkpt>
      <trkpt lat="45.208070" lon="5.466900">
        <ele>237.925130</ele>
        <time>2017-06-04T09:23:25.000Z</time>
      </trkpt>
      <trkpt lat="45.207996" lon="5.467005">
        <ele>237.912214</ele>
        <time>2017-06-04T09:23:29.000Z</time>
      </trkpt>
      <trkpt lat="45.207920" lon="5.467097">
        <ele>237.887259</ele>
        <time>2017-06-04T09:23:33.000Z</time>
      </trkpt>
      <trkpt lat="45.207850" lon="5.467210">
        <ele>237.859119</ele>
        <time>2017-06-04T09:23:37.000Z</time>
      </trkpt>
      <trkpt lat="45.207787" lon="5.467320">
        <ele>237.832606</ele>
        <time>2017-06-04T09:23:41.000Z</time>
      </trkpt>
      <trkpt lat="45.207720" lon="5.467416">
        <ele>237.807334</ele>
        <time>2017-06-04T09:23:45.000Z</time>
      </trkpt>
      <trkpt lat="45.207653" lon="5.467536">
        <ele>237.778699</ele>
        <time>2017-06-04T09:23:50.000Z</time>
      </trkpt>
      <trkpt lat="45.207580" lon="5.467626">
        <ele>237.753031</ele>
        <time>2017-06-04T09:23:56.000Z</time>
      </trkpt>
      <trkpt lat="45.207530" lon="5.467516">
        <ele>237.728549</ele>
        <time>2017-06-04T09:24:00.000Z</time>
      </trkpt>
      <trkpt lat="45.207478" lon="5.467362">
        <ele>237.696611</ele>
        <time>2017-06-04T09:24:03.000Z</time>
      </trkpt>
      <trkpt lat="45.207413" lon="5.467246">
        <ele>237.668891</ele>
        <time>2017-06-04T09:24:05.000Z</time>
      </trkpt>
      <trkpt lat="45.207333" lon="5.467131">
        <ele>237.638666</ele>
        <time>2017-06-04T09:24:07.000Z</time>
      </trkpt>
      <trkpt lat="45.207268" lon="5.467011">
        <ele>237.610357</ele>
        <time>2017-06-04T09:24:09.000Z</time>
      </trkpt>
      <trkpt lat="45.207195" lon="5.466890">
        <ele>237.580564</ele>
        <time>2017-06-04T09:24:11.000Z</time>
      </trkpt>
      <trkpt lat="45.207127" lon="5.466789">
        <ele>237.554437</ele>
        <time>2017-06-04T09:24:13.000Z</time>
      </trkpt>
      <trkpt lat="45.207060" lon="5.466650">
        <ele>237.522939</ele>
        <time>2017-06-04T09:24:16.000Z</time>
      </trkpt>
      <trkpt lat="45.207010" lon="5.466526">
        <ele>237.496218</ele>
        <time>2017-06-04T09:24:19.000Z</time>
      </trkpt>
      <trkpt lat="45.206944" lon="5.466417">
        <ele>237.469338</ele>
        <time>2017-06-04T09:24:22.000Z</time>
      </trkpt>
      <trkpt lat="45.206886" lon="5.466311">
        <ele>237.444237</ele>
        <time>2017-06-04T09:24:25.000Z</time>
      </trkpt>
      <trkpt lat="45.206814" lon="5.466178">
        <ele>237.519440</ele>
        <time>2017-06-04T09:24:29.000Z</time>
      </trkpt>
      <trkpt lat="45.206726" lon="5.466092">
        <ele>237.638278</ele>
        <time>2017-06-04T09:24:33.000Z</time>
      </trkpt>
      <trkpt lat="45.206630" lon="5.466037">
        <ele>237.753427</ele>
        <time>2017-06-04T09:24:37.000Z</time>
      </trkpt>
      <trkpt lat="45.206547" lon="5.466097">
        <ele>237.857030</ele>
        <time>2017-06-04T09:24:51.000Z</time>
      </trkpt>
      <trkpt lat="45.206490" lon="5.466205">
        <ele>237.962778</ele>
        <time>2017-06-04T09:24:55.000Z</time>
      </trkpt>
      <trkpt lat="45.206580" lon="5.466150">
        <ele>238.071768</ele>
        <time>2017-06-04T09:25:17.000Z</time>
      </trkpt>
      <trkpt lat="45.206676" lon="5.466153">
        <ele>238.178572</ele>
        <time>2017-06-04T09:25:34.000Z</time>
      </trkpt>
      <trkpt lat="45.206573" lon="5.466619">
        <ele>238.561305</ele>
        <time>2017-06-04T09:36:26.000Z</time>
      </trkpt>
      <trkpt lat="45.206630" lon="5.466415">
        <ele>238.733284</ele>
        <time>2017-06-04T09:39:50.000Z</time>
      </trkpt>
      <trkpt lat="45.206690" lon="5.466215">
        <ele>238.903632</ele>
        <time>2017-06-04T09:58:49.000Z</time>
      </trkpt>
      <trkpt lat="45.206830" lon="5.466295">
        <ele>239.071497</ele>
        <time>2017-06-04T09:59:22.000Z</time>
      </trkpt>
      <trkpt lat="45.206800" lon="5.466174">
        <ele>239.172019</ele>
        <time>2017-06-04T09:59:30.000Z</time>
      </trkpt>
      <trkpt lat="45.206715" lon="5.466119">
        <ele>239.275923</ele>
        <time>2017-06-04T09:59:35.000Z</time>
      </trkpt>
      <trkpt lat="45.206780" lon="5.466233">
        <ele>239.390849</ele>
        <time>2017-06-04T09:59:42.000Z</time>
      </trkpt>
      <trkpt lat="45.206882" lon="5.466369">
        <ele>239.417014</ele>
        <time>2017-06-04T10:00:24.000Z</time>
      </trkpt>
      <trkpt lat="45.206932" lon="5.466492">
        <ele>239.400225</ele>
        <time>2017-06-04T10:01:06.000Z</time>
      </trkpt>
      <trkpt lat="45.207024" lon="5.466452">
        <ele>239.384079</ele>
        <time>2017-06-04T10:01:13.000Z</time>
      </trkpt>
      <trkpt lat="45.207016" lon="5.466580">
        <ele>239.368887</ele>
        <time>2017-06-04T10:03:48.000Z</time>
      </trkpt>
      <trkpt lat="45.207073" lon="5.466703">
        <ele>239.351481</ele>
        <time>2017-06-04T10:03:53.000Z</time>
      </trkpt>
      <trkpt lat="45.207138" lon="5.466819">
        <ele>239.333958</ele>
        <time>2017-06-04T10:03:57.000Z</time>
      </trkpt>
      <trkpt lat="45.207210" lon="5.466928">
        <ele>239.316293</ele>
        <time>2017-06-04T10:04:01.000Z</time>
      </trkpt>
      <trkpt lat="45.207268" lon="5.467037">
        <ele>239.300144</ele>
        <time>2017-06-04T10:04:04.000Z</time>
      </trkpt>
      <trkpt lat="45.207348" lon="5.467165">
        <ele>239.279914</ele>
        <time>2017-06-04T10:04:08.000Z</time>
      </trkpt>
      <trkpt lat="45.207405" lon="5.467280">
        <ele>239.263291</ele>
        <time>2017-06-04T10:04:11.000Z</time>
      </trkpt>
      <trkpt lat="45.207460" lon="5.467397">
        <ele>239.246662</ele>
        <time>2017-06-04T10:04:14.000Z</time>
      </trkpt>
      <trkpt lat="45.207508" lon="5.467506">
        <ele>239.231465</ele>
        <time>2017-06-04T10:04:18.000Z</time>
      </trkpt>
      <trkpt lat="45.207590" lon="5.467583">
        <ele>239.214966</ele>
        <time>2017-06-04T10:04:24.000Z</time>
      </trkpt>
      <trkpt lat="45.207684" lon="5.467494">
        <ele>239.196005</ele>
        <time>2017-06-04T10:04:29.000Z</time>
      </trkpt>
      <trkpt lat="45.207756" lon="5.467410">
        <ele>239.180365</ele>
        <time>2017-06-04T10:04:33.000Z</time>
      </trkpt>
      <trkpt lat="45.207825" lon="5.467303">
        <ele>239.163216</ele>
        <time>2017-06-04T10:04:37.000Z</time>
      </trkpt>
      <trkpt lat="45.207890" lon="5.467201">
        <ele>239.146956</ele>
        <time>2017-06-04T10:04:41.000Z</time>
      </trkpt>
      <trkpt lat="45.207966" lon="5.467107">
        <ele>239.143894</ele>
        <time>2017-06-04T10:04:45.000Z</time>
      </trkpt>
      <trkpt lat="45.208040" lon="5.467011">
        <ele>239.236713</ele>
        <time>2017-06-04T10:04:49.000Z</time>
      </trkpt>
      <trkpt lat="45.208110" lon="5.466904">
        <ele>239.331959</ele>
        <time>2017-06-04T10:04:53.000Z</time>
      </trkpt>
      <trkpt lat="45.208183" lon="5.466775">
        <ele>239.439887</ele>
        <time>2017-06-04T10:04:57.000Z</time>
      </trkpt>
      <trkpt lat="45.208250" lon="5.466678">
        <ele>239.528496</ele>
        <time>2017-06-04T10:05:00.000Z</time>
      </trkpt>
      <trkpt lat="45.208332" lon="5.466576">
        <ele>239.629444</ele>
        <time>2017-06-04T10:05:04.000Z</time>
      </trkpt>
      <trkpt lat="45.208400" lon="5.466478">
        <ele>239.719166</ele>
        <time>2017-06-04T10:05:08.000Z</time>
      </trkpt>
      <trkpt lat="45.208473" lon="5.466363">
        <ele>239.820137</ele>
        <time>2017-06-04T10:05:12.000Z</time>
      </trkpt>
      <trkpt lat="45.208546" lon="5.466250">
        <ele>239.920142</ele>
        <time>2017-06-04T10:05:16.000Z</time>
      </trkpt>
      <trkpt lat="45.208607" lon="5.466140">
        <ele>240.011455</ele>
        <time>2017-06-04T10:05:19.000Z</time>
      </trkpt>
      <trkpt lat="45.208675" lon="5.466042">
        <ele>240.101177</ele>
        <time>2017-06-04T10:05:22.000Z</time>
      </trkpt>
      <trkpt lat="45.208748" lon="5.465945">
        <ele>240.193759</ele>
        <time>2017-06-04T10:05:25.000Z</time>
      </trkpt>
      <trkpt lat="45.208824" lon="5.465840">
        <ele>240.291953</ele>
        <time>2017-06-04T10:05:29.000Z</time>
      </trkpt>
      <trkpt lat="45.208874" lon="5.465702">
        <ele>240.393174</ele>
        <time>2017-06-04T10:05:34.000Z</time>
      </trkpt>
      <trkpt lat="45.208920" lon="5.465579">
        <ele>240.484009</ele>
        <time>2017-06-04T10:05:40.000Z</time>
      </trkpt>
      <trkpt lat="45.208940" lon="5.465447">
        <ele>240.572079</ele>
        <time>2017-06-04T10:05:45.000Z</time>
      </trkpt>
      <trkpt lat="45.208960" lon="5.465323">
        <ele>240.655055</ele>
        <time>2017-06-04T10:05:49.000Z</time>
      </trkpt>
      <trkpt lat="45.208970" lon="5.465190">
        <ele>240.742302</ele>
        <time>2017-06-04T10:05:53.000Z</time>
      </trkpt>
      <trkpt lat="45.208954" lon="5.465035">
        <ele>240.958370</ele>
        <time>2017-06-04T10:05:58.000Z</time>
      </trkpt>
      <trkpt lat="45.208958" lon="5.464890">
        <ele>241.282183</ele>
        <time>2017-06-04T10:06:03.000Z</time>
      </trkpt>
      <trkpt lat="45.208935" lon="5.464762">
        <ele>241.576957</ele>
        <time>2017-06-04T10:06:07.000Z</time>
      </trkpt>
      <trkpt lat="45.208897" lon="5.464629">
        <ele>241.897222</ele>
        <time>2017-06-04T10:06:12.000Z</time>
      </trkpt>
      <trkpt lat="45.208840" lon="5.464496">
        <ele>242.244609</ele>
        <time>2017-06-04T10:06:17.000Z</time>
      </trkpt>
      <trkpt lat="45.208767" lon="5.464379">
        <ele>242.593359</ele>
        <time>2017-06-04T10:06:22.000Z</time>
      </trkpt>
      <trkpt lat="45.208675" lon="5.464294">
        <ele>242.941052</ele>
        <time>2017-06-04T10:06:27.000Z</time>
      </trkpt>
      <trkpt lat="45.208603" lon="5.464213">
        <ele>243.232047</ele>
        <time>2017-06-04T10:06:31.000Z</time>
      </trkpt>
      <trkpt lat="45.208527" lon="5.464144">
        <ele>243.517798</ele>
        <time>2017-06-04T10:06:35.000Z</time>
      </trkpt>
      <trkpt lat="45.208420" lon="5.464092">
        <ele>243.876021</ele>
        <time>2017-06-04T10:06:40.000Z</time>
      </trkpt>
      <trkpt lat="45.208332" lon="5.464061">
        <ele>244.163206</ele>
        <time>2017-06-04T10:06:44.000Z</time>
      </trkpt>
      <trkpt lat="45.208240" lon="5.464032">
        <ele>244.461703</ele>
        <time>2017-06-04T10:06:48.000Z</time>
      </trkpt>
      <trkpt lat="45.208157" lon="5.463986">
        <ele>244.743924</ele>
        <time>2017-06-04T10:06:52.000Z</time>
      </trkpt>
      <trkpt lat="45.208073" lon="5.463928">
        <ele>245.039794</ele>
        <time>2017-06-04T10:06:56.000Z</time>
      </trkpt>
      <trkpt lat="45.207990" lon="5.463847">
        <ele>245.358830</ele>
        <time>2017-06-04T10:07:00.000Z</time>
      </trkpt>
      <trkpt lat="45.207905" lon="5.463768">
        <ele>245.680639</ele>
        <time>2017-06-04T10:07:04.000Z</time>
      </trkpt>
      <trkpt lat="45.207840" lon="5.463675">
        <ele>245.972967</ele>
        <time>2017-06-04T10:07:08.000Z</time>
      </trkpt>
      <trkpt lat="45.207787" lon="5.463573">
        <ele>246.255791</ele>
        <time>2017-06-04T10:07:12.000Z</time>
      </trkpt>
      <trkpt lat="45.207733" lon="5.463435">
        <ele>246.772937</ele>
        <time>2017-06-04T10:07:17.000Z</time>
      </trkpt>
      <trkpt lat="45.207687" lon="5.463308">
        <ele>247.553957</ele>
        <time>2017-06-04T10:07:22.000Z</time>
      </trkpt>
      <trkpt lat="45.207660" lon="5.463143">
        <ele>248.480416</ele>
        <time>2017-06-04T10:09:13.000Z</time>
      </trkpt>
      <trkpt lat="45.207645" lon="5.463004">
        <ele>249.249518</ele>
        <time>2017-06-04T10:09:18.000Z</time>
      </trkpt>
      <trkpt lat="45.207645" lon="5.462864">
        <ele>250.015224</ele>
        <time>2017-06-04T10:09:22.000Z</time>
      </trkpt>
      <trkpt lat="45.207653" lon="5.462732">
        <ele>250.739841</ele>
        <time>2017-06-04T10:09:26.000Z</time>
      </trkpt>
      <trkpt lat="45.207664" lon="5.462600">
        <ele>251.466824</ele>
        <time>2017-06-04T10:09:30.000Z</time>
      </trkpt>
      <trkpt lat="45.207700" lon="5.462481">
        <ele>252.175136</ele>
        <time>2017-06-04T10:09:34.000Z</time>
      </trkpt>
      <trkpt lat="45.207737" lon="5.462362">
        <ele>252.886547</ele>
        <time>2017-06-04T10:09:38.000Z</time>
      </trkpt>
      <trkpt lat="45.207783" lon="5.462251">
        <ele>253.590877</ele>
        <time>2017-06-04T10:09:42.000Z</time>
      </trkpt>
      <trkpt lat="45.207844" lon="5.462127">
        <ele>254.418035</ele>
        <time>2017-06-04T10:09:47.000Z</time>
      </trkpt>
      <trkpt lat="45.207900" lon="5.462002">
        <ele>255.228209</ele>
        <time>2017-06-04T10:09:52.000Z</time>
      </trkpt>
      <trkpt lat="45.207970" lon="5.461875">
        <ele>256.110117</ele>
        <time>2017-06-04T10:09:57.000Z</time>
      </trkpt>
      <trkpt lat="45.208040" lon="5.461754">
        <ele>256.966418</ele>
        <time>2017-06-04T10:10:02.000Z</time>
      </trkpt>
      <trkpt lat="45.208103" lon="5.461663">
        <ele>257.664198</ele>
        <time>2017-06-04T10:10:06.000Z</time>
      </trkpt>
      <trkpt lat="45.208164" lon="5.461546">
        <ele>258.460264</ele>
        <time>2017-06-04T10:10:11.000Z</time>
      </trkpt>
      <trkpt lat="45.208230" lon="5.461422">
        <ele>259.310235</ele>
        <time>2017-06-04T10:10:16.000Z</time>
      </trkpt>
      <trkpt lat="45.208252" lon="5.461279">
        <ele>260.110769</ele>
        <time>2017-06-04T10:10:21.000Z</time>
      </trkpt>
      <trkpt lat="45.208310" lon="5.461156">
        <ele>260.893012</ele>
        <time>2017-06-04T10:10:26.000Z</time>
      </trkpt>
      <trkpt lat="45.208370" lon="5.461038">
        <ele>261.642069</ele>
        <time>2017-06-04T10:10:31.000Z</time>
      </trkpt>
      <trkpt lat="45.208443" lon="5.460923">
        <ele>262.438849</ele>
        <time>2017-06-04T10:10:36.000Z</time>
      </trkpt>
      <trkpt lat="45.208504" lon="5.460804">
        <ele>263.196361</ele>
        <time>2017-06-04T10:10:41.000Z</time>
      </trkpt>
      <trkpt lat="45.208570" lon="5.460713">
        <ele>263.868616</ele>
        <time>2017-06-04T10:10:45.000Z</time>
      </trkpt>
      <trkpt lat="45.208630" lon="5.460599">
        <ele>264.601075</ele>
        <time>2017-06-04T10:10:50.000Z</time>
      </trkpt>
      <trkpt lat="45.208656" lon="5.460465">
        <ele>265.316499</ele>
        <time>2017-06-04T10:10:55.000Z</time>
      </trkpt>
      <trkpt lat="45.208633" lon="5.460338">
        <ele>265.991464</ele>
        <time>2017-06-04T10:11:00.000Z</time>
      </trkpt>
      <trkpt lat="45.208560" lon="5.460243">
        <ele>266.715049</ele>
        <time>2017-06-04T10:11:05.000Z</time>
      </trkpt>
      <trkpt lat="45.208473" lon="5.460184">
        <ele>267.419504</ele>
        <time>2017-06-04T10:11:10.000Z</time>
      </trkpt>
      <trkpt lat="45.208374" lon="5.460155">
        <ele>268.158051</ele>
        <time>2017-06-04T10:11:15.000Z</time>
      </trkpt>
      <trkpt lat="45.208286" lon="5.460121">
        <ele>268.824381</ele>
        <time>2017-06-04T10:11:19.000Z</time>
      </trkpt>
      <trkpt lat="45.208183" lon="5.460076">
        <ele>269.611751</ele>
        <time>2017-06-04T10:11:24.000Z</time>
      </trkpt>
      <trkpt lat="45.208084" lon="5.460012">
        <ele>270.406543</ele>
        <time>2017-06-04T10:11:29.000Z</time>
      </trkpt>
      <trkpt lat="45.208000" lon="5.459963">
        <ele>271.070063</ele>
        <time>2017-06-04T10:11:33.000Z</time>
      </trkpt>
      <trkpt lat="45.207912" lon="5.459893">
        <ele>271.807082</ele>
        <time>2017-06-04T10:11:38.000Z</time>
      </trkpt>
      <trkpt lat="45.207825" lon="5.459825">
        <ele>272.532715</ele>
        <time>2017-06-04T10:11:43.000Z</time>
      </trkpt>
      <trkpt lat="45.207740" lon="5.459741">
        <ele>273.289432</ele>
        <time>2017-06-04T10:11:48.000Z</time>
      </trkpt>
      <trkpt lat="45.207657" lon="5.459649">
        <ele>273.892917</ele>
        <time>2017-06-04T10:11:53.000Z</time>
      </trkpt>
      <trkpt lat="45.207573" lon="5.459556">
        <ele>274.390833</ele>
        <time>2017-06-04T10:11:58.000Z</time>
      </trkpt>
      <trkpt lat="45.207493" lon="5.459450">
        <ele>274.902342</ele>
        <time>2017-06-04T10:12:03.000Z</time>
      </trkpt>
      <trkpt lat="45.207410" lon="5.459343">
        <ele>275.426398</ele>
        <time>2017-06-04T10:12:08.000Z</time>
      </trkpt>
      <trkpt lat="45.207340" lon="5.459221">
        <ele>275.944502</ele>
        <time>2017-06-04T10:12:13.000Z</time>
      </trkpt>
      <trkpt lat="45.207280" lon="5.459117">
        <ele>276.387134</ele>
        <time>2017-06-04T10:12:17.000Z</time>
      </trkpt>
      <trkpt lat="45.207222" lon="5.459009">
        <ele>276.834306</ele>
        <time>2017-06-04T10:12:21.000Z</time>
      </trkpt>
      <trkpt lat="45.207165" lon="5.458906">
        <ele>277.265597</ele>
        <time>2017-06-04T10:12:25.000Z</time>
      </trkpt>
      <trkpt lat="45.207108" lon="5.458791">
        <ele>277.728607</ele>
        <time>2017-06-04T10:12:29.000Z</time>
      </trkpt>
      <trkpt lat="45.207043" lon="5.458675">
        <ele>278.216668</ele>
        <time>2017-06-04T10:12:33.000Z</time>
      </trkpt>
      <trkpt lat="45.206978" lon="5.458566">
        <ele>278.686908</ele>
        <time>2017-06-04T10:12:37.000Z</time>
      </trkpt>
      <trkpt lat="45.206910" lon="5.458459">
        <ele>279.161416</ele>
        <time>2017-06-04T10:12:41.000Z</time>
      </trkpt>
      <trkpt lat="45.206837" lon="5.458366">
        <ele>279.619888</ele>
        <time>2017-06-04T10:12:45.000Z</time>
      </trkpt>
      <trkpt lat="45.206776" lon="5.458259">
        <ele>280.073135</ele>
        <time>2017-06-04T10:12:49.000Z</time>
      </trkpt>
      <trkpt lat="45.206715" lon="5.458145">
        <ele>280.544524</ele>
        <time>2017-06-04T10:12:53.000Z</time>
      </trkpt>
      <trkpt lat="45.206646" lon="5.458041">
        <ele>281.014936</ele>
        <time>2017-06-04T10:12:57.000Z</time>
      </trkpt>
      <trkpt lat="45.206570" lon="5.457926">
        <ele>281.534149</ele>
        <time>2017-06-04T10:13:01.000Z</time>
      </trkpt>
      <trkpt lat="45.206493" lon="5.457793">
        <ele>282.011653</ele>
        <time>2017-06-04T10:13:05.000Z</time>
      </trkpt>
      <trkpt lat="45.206432" lon="5.457681">
        <ele>282.044508</ele>
        <time>2017-06-04T10:13:08.000Z</time>
      </trkpt>
      <trkpt lat="45.206380" lon="5.457557">
        <ele>282.077999</ele>
        <time>2017-06-04T10:13:11.000Z</time>
      </trkpt>
      <trkpt lat="45.206290" lon="5.457431">
        <ele>282.119641</ele>
        <time>2017-06-04T10:13:14.000Z</time>
      </trkpt>
      <trkpt lat="45.206207" lon="5.457309">
        <ele>282.159002</ele>
        <time>2017-06-04T10:13:17.000Z</time>
      </trkpt>
      <trkpt lat="45.206120" lon="5.457196">
        <ele>282.197849</ele>
        <time>2017-06-04T10:13:20.000Z</time>
      </trkpt>
      <trkpt lat="45.206040" lon="5.457089">
        <ele>282.234059</ele>
        <time>2017-06-04T10:13:23.000Z</time>
      </trkpt>
      <trkpt lat="45.205948" lon="5.456986">
        <ele>282.272658</ele>
        <time>2017-06-04T10:13:26.000Z</time>
      </trkpt>
      <trkpt lat="45.205850" lon="5.456889">
        <ele>282.312014</ele>
        <time>2017-06-04T10:13:29.000Z</time>
      </trkpt>
      <trkpt lat="45.205746" lon="5.456788">
        <ele>282.353525</ele>
        <time>2017-06-04T10:13:32.000Z</time>
      </trkpt>
      <trkpt lat="45.205666" lon="5.456690">
        <ele>282.388336</ele>
        <time>2017-06-04T10:13:35.000Z</time>
      </trkpt>
      <trkpt lat="45.205590" lon="5.456592">
        <ele>282.422160</ele>
        <time>2017-06-04T10:13:38.000Z</time>
      </trkpt>
      <trkpt lat="45.205524" lon="5.456474">
        <ele>282.457127</ele>
        <time>2017-06-04T10:13:41.000Z</time>
      </trkpt>
      <trkpt lat="45.205456" lon="5.456356">
        <ele>282.492508</ele>
        <time>2017-06-04T10:13:44.000Z</time>
      </trkpt>
      <trkpt lat="45.205395" lon="5.456229">
        <ele>282.528181</ele>
        <time>2017-06-04T10:13:47.000Z</time>
      </trkpt>
      <trkpt lat="45.205322" lon="5.456111">
        <ele>282.564626</ele>
        <time>2017-06-04T10:13:50.000Z</time>
      </trkpt>
      <trkpt lat="45.205250" lon="5.455991">
        <ele>282.611555</ele>
        <time>2017-06-04T10:13:53.000Z</time>
      </trkpt>
      <trkpt lat="45.205173" lon="5.455864">
        <ele>282.755206</ele>
        <time>2017-06-04T10:13:56.000Z</time>
      </trkpt>
      <trkpt lat="45.205093" lon="5.455739">
        <ele>282.899992</ele>
        <time>2017-06-04T10:13:59.000Z</time>
      </trkpt>
      <trkpt lat="45.205010" lon="5.455621">
        <ele>283.042948</ele>
        <time>2017-06-04T10:14:02.000Z</time>
      </trkpt>
      <trkpt lat="45.204930" lon="5.455516">
        <ele>283.175542</ele>
        <time>2017-06-04T10:14:05.000Z</time>
      </trkpt>
      <trkpt lat="45.204853" lon="5.455407">
        <ele>283.307880</ele>
        <time>2017-06-04T10:14:08.000Z</time>
      </trkpt>
      <trkpt lat="45.204777" lon="5.455299">
        <ele>283.438750</ele>
        <time>2017-06-04T10:14:11.000Z</time>
      </trkpt>
      <trkpt lat="45.204712" lon="5.455182">
        <ele>283.566496</ele>
        <time>2017-06-04T10:14:14.000Z</time>
      </trkpt>
      <trkpt lat="45.204647" lon="5.455064">
        <ele>283.694917</ele>
        <time>2017-06-04T10:14:17.000Z</time>
      </trkpt>
      <trkpt lat="45.204590" lon="5.454941">
        <ele>283.821140</ele>
        <time>2017-06-04T10:14:20.000Z</time>
      </trkpt>
      <trkpt lat="45.204530" lon="5.454812">
        <ele>283.953668</ele>
        <time>2017-06-04T10:14:23.000Z</time>
      </trkpt>
      <trkpt lat="45.204483" lon="5.454668">
        <ele>284.089735</ele>
        <time>2017-06-04T10:14:26.000Z</time>
      </trkpt>
      <trkpt lat="45.204414" lon="5.454528">
        <ele>284.236220</ele>
        <time>2017-06-04T10:14:29.000Z</time>
      </trkpt>
      <trkpt lat="45.204327" lon="5.454384">
        <ele>284.398858</ele>
        <time>2017-06-04T10:14:32.000Z</time>
      </trkpt>
      <trkpt lat="45.204260" lon="5.454279">
        <ele>284.520315</ele>
        <time>2017-06-04T10:14:34.000Z</time>
      </trkpt>
      <trkpt lat="45.204200" lon="5.454165">
        <ele>284.642316</ele>
        <time>2017-06-04T10:14:36.000Z</time>
      </trkpt>
      <trkpt lat="45.204144" lon="5.454041">
        <ele>284.768597</ele>
        <time>2017-06-04T10:14:38.000Z</time>
      </trkpt>
      <trkpt lat="45.204090" lon="5.453911">
        <ele>284.627881</ele>
        <time>2017-06-04T10:14:40.000Z</time>
      </trkpt>
      <trkpt lat="45.204033" lon="5.453776">
        <ele>284.437107</ele>
        <time>2017-06-04T10:14:42.000Z</time>
      </trkpt>
      <trkpt lat="45.203970" lon="5.453638">
        <ele>284.237784</ele>
        <time>2017-06-04T10:14:44.000Z</time>
      </trkpt>
      <trkpt lat="45.203915" lon="5.453488">
        <ele>284.032813</ele>
        <time>2017-06-04T10:14:46.000Z</time>
      </trkpt>
      <trkpt lat="45.203865" lon="5.453332">
        <ele>283.825069</ele>
        <time>2017-06-04T10:14:48.000Z</time>
      </trkpt>
      <trkpt lat="45.203827" lon="5.453172">
        <ele>283.620400</ele>
        <time>2017-06-04T10:14:50.000Z</time>
      </trkpt>
      <trkpt lat="45.203800" lon="5.453010">
        <ele>283.418610</ele>
        <time>2017-06-04T10:14:52.000Z</time>
      </trkpt>
      <trkpt lat="45.203790" lon="5.452835">
        <ele>283.205784</ele>
        <time>2017-06-04T10:14:54.000Z</time>
      </trkpt>
      <trkpt lat="45.203777" lon="5.452659">
        <ele>282.991274</ele>
        <time>2017-06-04T10:14:56.000Z</time>
      </trkpt>
      <trkpt lat="45.203766" lon="5.452487">
        <ele>282.781923</ele>
        <time>2017-06-04T10:14:58.000Z</time>
      </trkpt>
      <trkpt lat="45.203760" lon="5.452314">
        <ele>282.571964</ele>
        <time>2017-06-04T10:15:00.000Z</time>
      </trkpt>
      <trkpt lat="45.203750" lon="5.452162">
        <ele>282.386913</ele>
        <time>2017-06-04T10:15:02.000Z</time>
      </trkpt>
      <trkpt lat="45.203754" lon="5.451995">
        <ele>282.184364</ele>
        <time>2017-06-04T10:15:04.000Z</time>
      </trkpt>
      <trkpt lat="45.203750" lon="5.451839">
        <ele>281.995141</ele>
        <time>2017-06-04T10:15:06.000Z</time>
      </trkpt>
      <trkpt lat="45.203743" lon="5.451681">
        <ele>281.803240</ele>
        <time>2017-06-04T10:15:08.000Z</time>
      </trkpt>
      <trkpt lat="45.203740" lon="5.451529">
        <ele>281.739891</ele>
        <time>2017-06-04T10:15:10.000Z</time>
      </trkpt>
      <trkpt lat="45.203747" lon="5.451380">
        <ele>281.859707</ele>
        <time>2017-06-04T10:15:12.000Z</time>
      </trkpt>
      <trkpt lat="45.203735" lon="5.451234">
        <ele>281.977646</ele>
        <time>2017-06-04T10:15:14.000Z</time>
      </trkpt>
      <trkpt lat="45.203716" lon="5.451104">
        <ele>282.084173</ele>
        <time>2017-06-04T10:15:16.000Z</time>
      </trkpt>
      <trkpt lat="45.203697" lon="5.450978">
        <ele>282.187560</ele>
        <time>2017-06-04T10:15:18.000Z</time>
      </trkpt>
      <trkpt lat="45.203693" lon="5.450848">
        <ele>282.291966</ele>
        <time>2017-06-04T10:15:20.000Z</time>
      </trkpt>
      <trkpt lat="45.203682" lon="5.450716">
        <ele>282.398615</ele>
        <time>2017-06-04T10:15:22.000Z</time>
      </trkpt>
      <trkpt lat="45.203670" lon="5.450580">
        <ele>282.508589</ele>
        <time>2017-06-04T10:15:24.000Z</time>
      </trkpt>
      <trkpt lat="45.203663" lon="5.450451">
        <ele>282.612400</ele>
        <time>2017-06-04T10:15:26.000Z</time>
      </trkpt>
      <trkpt lat="45.203650" lon="5.450290">
        <ele>282.742425</ele>
        <time>2017-06-04T10:15:29.000Z</time>
      </trkpt>
      <trkpt lat="45.203644" lon="5.450142">
        <ele>282.861371</ele>
        <time>2017-06-04T10:15:32.000Z</time>
      </trkpt>
      <trkpt lat="45.203625" lon="5.449983">
        <ele>282.990768</ele>
        <time>2017-06-04T10:15:35.000Z</time>
      </trkpt>
      <trkpt lat="45.203606" lon="5.449813">
        <ele>283.128874</ele>
        <time>2017-06-04T10:15:38.000Z</time>
      </trkpt>
      <trkpt lat="45.203583" lon="5.449647">
        <ele>283.264617</ele>
        <time>2017-06-04T10:15:41.000Z</time>
      </trkpt>
      <trkpt lat="45.203560" lon="5.449500">
        <ele>283.385437</ele>
        <time>2017-06-04T10:15:44.000Z</time>
      </trkpt>
      <trkpt lat="45.203537" lon="5.449342">
        <ele>283.514887</ele>
        <time>2017-06-04T10:15:47.000Z</time>
      </trkpt>
      <trkpt lat="45.203495" lon="5.449192">
        <ele>283.644397</ele>
        <time>2017-06-04T10:15:50.000Z</time>
      </trkpt>
      <trkpt lat="45.203457" lon="5.449044">
        <ele>283.813623</ele>
        <time>2017-06-04T10:15:53.000Z</time>
      </trkpt>
      <trkpt lat="45.203423" lon="5.448906">
        <ele>284.093812</ele>
        <time>2017-06-04T10:15:56.000Z</time>
      </trkpt>
      <trkpt lat="45.203392" lon="5.448758">
        <ele>284.389732</ele>
        <time>2017-06-04T10:16:00.000Z</time>
      </trkpt>
      <trkpt lat="45.203390" lon="5.448618">
        <ele>284.658107</ele>
        <time>2017-06-04T10:16:03.000Z</time>
      </trkpt>
      <trkpt lat="45.203384" lon="5.448454">
        <ele>284.972847</ele>
        <time>2017-06-04T10:16:06.000Z</time>
      </trkpt>
      <trkpt lat="45.203377" lon="5.448294">
        <ele>285.280089</ele>
        <time>2017-06-04T10:16:09.000Z</time>
      </trkpt>
      <trkpt lat="45.203384" lon="5.448133">
        <ele>285.589243</ele>
        <time>2017-06-04T10:16:12.000Z</time>
      </trkpt>
      <trkpt lat="45.203410" lon="5.447972">
        <ele>285.905811</ele>
        <time>2017-06-04T10:16:15.000Z</time>
      </trkpt>
      <trkpt lat="45.203440" lon="5.447813">
        <ele>286.221282</ele>
        <time>2017-06-04T10:16:18.000Z</time>
      </trkpt>
      <trkpt lat="45.203480" lon="5.447670">
        <ele>286.516158</ele>
        <time>2017-06-04T10:16:21.000Z</time>
      </trkpt>
      <trkpt lat="45.203518" lon="5.447528">
        <ele>286.807278</ele>
        <time>2017-06-04T10:16:24.000Z</time>
      </trkpt>
      <trkpt lat="45.203564" lon="5.447394">
        <ele>287.092957</ele>
        <time>2017-06-04T10:16:27.000Z</time>
      </trkpt>
      <trkpt lat="45.203606" lon="5.447258">
        <ele>287.377547</ele>
        <time>2017-06-04T10:16:30.000Z</time>
      </trkpt>
      <trkpt lat="45.203644" lon="5.447125">
        <ele>287.652609</ele>
        <time>2017-06-04T10:16:33.000Z</time>
      </trkpt>
      <trkpt lat="45.203674" lon="5.446972">
        <ele>287.956986</ele>
        <time>2017-06-04T10:16:36.000Z</time>
      </trkpt>
      <trkpt lat="45.203697" lon="5.446818">
        <ele>288.258693</ele>
        <time>2017-06-04T10:16:39.000Z</time>
      </trkpt>
      <trkpt lat="45.203728" lon="5.446674">
        <ele>288.547272</ele>
        <time>2017-06-04T10:16:42.000Z</time>
      </trkpt>
      <trkpt lat="45.203750" lon="5.446520">
        <ele>288.737934</ele>
        <time>2017-06-04T10:16:45.000Z</time>
      </trkpt>
      <trkpt lat="45.203780" lon="5.446362">
        <ele>288.891114</ele>
        <time>2017-06-04T10:16:48.000Z</time>
      </trkpt>
      <trkpt lat="45.203815" lon="5.446204">
        <ele>289.046156</ele>
        <time>2017-06-04T10:16:51.000Z</time>
      </trkpt>
      <trkpt lat="45.203840" lon="5.446048">
        <ele>289.195917</ele>
        <time>2017-06-04T10:16:54.000Z</time>
      </trkpt>
      <trkpt lat="45.203873" lon="5.445896">
        <ele>289.344805</ele>
        <time>2017-06-04T10:16:57.000Z</time>
      </trkpt>
      <trkpt lat="45.203900" lon="5.445746">
        <ele>289.489729</ele>
        <time>2017-06-04T10:17:00.000Z</time>
      </trkpt>
      <trkpt lat="45.203926" lon="5.445596">
        <ele>289.634330</ele>
        <time>2017-06-04T10:17:03.000Z</time>
      </trkpt>
      <trkpt lat="45.203953" lon="5.445449">
        <ele>289.776535</ele>
        <time>2017-06-04T10:17:06.000Z</time>
      </trkpt>
      <trkpt lat="45.203964" lon="5.445286">
        <ele>289.929817</ele>
        <time>2017-06-04T10:17:09.000Z</time>
      </trkpt>
      <trkpt lat="45.203970" lon="5.445126">
        <ele>290.079805</ele>
        <time>2017-06-04T10:17:12.000Z</time>
      </trkpt>
      <trkpt lat="45.203957" lon="5.444974">
        <ele>290.223136</ele>
        <time>2017-06-04T10:17:15.000Z</time>
      </trkpt>
      <trkpt lat="45.203953" lon="5.444805">
        <ele>290.381425</ele>
        <time>2017-06-04T10:17:18.000Z</time>
      </trkpt>
      <trkpt lat="45.203930" lon="5.444655">
        <ele>290.525126</ele>
        <time>2017-06-04T10:17:21.000Z</time>
      </trkpt>
      <trkpt lat="45.203910" lon="5.444503">
        <ele>290.669873</ele>
        <time>2017-06-04T10:17:24.000Z</time>
      </trkpt>
      <trkpt lat="45.203884" lon="5.444337">
        <ele>290.829058</ele>
        <time>2017-06-04T10:17:27.000Z</time>
      </trkpt>
      <trkpt lat="45.203860" lon="5.444169">
        <ele>290.989523</ele>
        <time>2017-06-04T10:17:30.000Z</time>
      </trkpt>
      <trkpt lat="45.203846" lon="5.444016">
        <ele>290.985383</ele>
        <time>2017-06-04T10:17:33.000Z</time>
      </trkpt>
      <trkpt lat="45.203823" lon="5.443839">
        <ele>290.930117</ele>
        <time>2017-06-04T10:17:36.000Z</time>
      </trkpt>
      <trkpt lat="45.203808" lon="5.443662">
        <ele>290.875376</ele>
        <time>2017-06-04T10:17:39.000Z</time>
      </trkpt>
      <trkpt lat="45.203785" lon="5.443482">
        <ele>290.819204</ele>
        <time>2017-06-04T10:17:42.000Z</time>
      </trkpt>
      <trkpt lat="45.203762" lon="5.443357">
        <ele>290.779534</ele>
        <time>2017-06-04T10:17:44.000Z</time>
      </trkpt>
      <trkpt lat="45.203724" lon="5.443232">
        <ele>290.737731</ele>
        <time>2017-06-04T10:17:46.000Z</time>
      </trkpt>
      <trkpt lat="45.203680" lon="5.443112">
        <ele>290.696193</ele>
        <time>2017-06-04T10:17:48.000Z</time>
      </trkpt>
      <trkpt lat="45.203617" lon="5.442948">
        <ele>290.638837</ele>
        <time>2017-06-04T10:17:51.000Z</time>
      </trkpt>
      <trkpt lat="45.203560" lon="5.442799">
        <ele>290.586777</ele>
        <time>2017-06-04T10:17:54.000Z</time>
      </trkpt>
      <trkpt lat="45.203518" lon="5.442637">
        <ele>290.533772</ele>
        <time>2017-06-04T10:17:57.000Z</time>
      </trkpt>
      <trkpt lat="45.203487" lon="5.442516">
        <ele>290.494238</ele>
        <time>2017-06-04T10:17:59.000Z</time>
      </trkpt>
      <trkpt lat="45.203430" lon="5.442406">
        <ele>290.452311</ele>
        <time>2017-06-04T10:18:01.000Z</time>
      </trkpt>
      <trkpt lat="45.203390" lon="5.442290">
        <ele>290.412655</ele>
        <time>2017-06-04T10:18:03.000Z</time>
      </trkpt>
      <trkpt lat="45.203342" lon="5.442159">
        <ele>290.367316</ele>
        <time>2017-06-04T10:18:05.000Z</time>
      </trkpt>
      <trkpt lat="45.203285" lon="5.441984">
        <ele>290.308116</ele>
        <time>2017-06-04T10:18:08.000Z</time>
      </trkpt>
      <trkpt lat="45.203243" lon="5.441813">
        <ele>290.252510</ele>
        <time>2017-06-04T10:18:11.000Z</time>
      </trkpt>
      <trkpt lat="45.203210" lon="5.441642">
        <ele>290.138537</ele>
        <time>2017-06-04T10:18:14.000Z</time>
      </trkpt>
      <trkpt lat="45.203175" lon="5.441522">
        <ele>290.039544</ele>
        <time>2017-06-04T10:18:16.000Z</time>
      </trkpt>
      <trkpt lat="45.203140" lon="5.441390">
        <ele>289.932043</ele>
        <time>2017-06-04T10:18:18.000Z</time>
      </trkpt>
      <trkpt lat="45.203110" lon="5.441247">
        <ele>289.818317</ele>
        <time>2017-06-04T10:18:20.000Z</time>
      </trkpt>
      <trkpt lat="45.203075" lon="5.441103">
        <ele>289.702211</ele>
        <time>2017-06-04T10:18:22.000Z</time>
      </trkpt>
      <trkpt lat="45.203040" lon="5.440955">
        <ele>289.583218</ele>
        <time>2017-06-04T10:18:24.000Z</time>
      </trkpt>
      <trkpt lat="45.203014" lon="5.440814">
        <ele>289.472126</ele>
        <time>2017-06-04T10:18:26.000Z</time>
      </trkpt>
      <trkpt lat="45.203000" lon="5.440671">
        <ele>289.362081</ele>
        <time>2017-06-04T10:18:28.000Z</time>
      </trkpt>
      <trkpt lat="45.202990" lon="5.440520">
        <ele>289.246479</ele>
        <time>2017-06-04T10:18:30.000Z</time>
      </trkpt>
      <trkpt lat="45.203000" lon="5.440367">
        <ele>289.129359</ele>
        <time>2017-06-04T10:18:32.000Z</time>
      </trkpt>
      <trkpt lat="45.203022" lon="5.440202">
        <ele>289.001360</ele>
        <time>2017-06-04T10:18:34.000Z</time>
      </trkpt>
      <trkpt lat="45.203056" lon="5.440045">
        <ele>288.876167</ele>
        <time>2017-06-04T10:18:36.000Z</time>
      </trkpt>
      <trkpt lat="45.203087" lon="5.439882">
        <ele>288.747479</ele>
        <time>2017-06-04T10:18:38.000Z</time>
      </trkpt>
      <trkpt lat="45.203110" lon="5.439731">
        <ele>288.629726</ele>
        <time>2017-06-04T10:18:40.000Z</time>
      </trkpt>
      <trkpt lat="45.203136" lon="5.439573">
        <ele>288.506055</ele>
        <time>2017-06-04T10:18:42.000Z</time>
      </trkpt>
      <trkpt lat="45.203163" lon="5.439416">
        <ele>288.382873</ele>
        <time>2017-06-04T10:18:44.000Z</time>
      </trkpt>
      <trkpt lat="45.203182" lon="5.439255">
        <ele>288.358377</ele>
        <time>2017-06-04T10:18:46.000Z</time>
      </trkpt>
      <trkpt lat="45.203200" lon="5.439088">
        <ele>288.607576</ele>
        <time>2017-06-04T10:18:48.000Z</time>
      </trkpt>
      <trkpt lat="45.203220" lon="5.438920">
        <ele>288.858896</ele>
        <time>2017-06-04T10:18:50.000Z</time>
      </trkpt>
      <trkpt lat="45.203236" lon="5.438750">
        <ele>289.111882</ele>
        <time>2017-06-04T10:18:52.000Z</time>
      </trkpt>
      <trkpt lat="45.203250" lon="5.438582">
        <ele>289.361417</ele>
        <time>2017-06-04T10:18:54.000Z</time>
      </trkpt>
      <trkpt lat="45.203260" lon="5.438415">
        <ele>289.608638</ele>
        <time>2017-06-04T10:18:56.000Z</time>
      </trkpt>
      <trkpt lat="45.203262" lon="5.438250">
        <ele>289.852057</ele>
        <time>2017-06-04T10:18:58.000Z</time>
      </trkpt>
      <trkpt lat="45.203262" lon="5.438091">
        <ele>290.086589</ele>
        <time>2017-06-04T10:19:00.000Z</time>
      </trkpt>
      <trkpt lat="45.203274" lon="5.437941">
        <ele>290.309268</ele>
        <time>2017-06-04T10:19:02.000Z</time>
      </trkpt>
      <trkpt lat="45.203278" lon="5.437787">
        <ele>290.536580</ele>
        <time>2017-06-04T10:19:04.000Z</time>
      </trkpt>
      <trkpt lat="45.203278" lon="5.437643">
        <ele>290.748987</ele>
        <time>2017-06-04T10:19:06.000Z</time>
      </trkpt>
      <trkpt lat="45.203270" lon="5.437501">
        <ele>290.959112</ele>
        <time>2017-06-04T10:19:08.000Z</time>
      </trkpt>
      <trkpt lat="45.203255" lon="5.437361">
        <ele>291.167992</ele>
        <time>2017-06-04T10:19:10.000Z</time>
      </trkpt>
      <trkpt lat="45.203197" lon="5.437131">
        <ele>291.528327</ele>
        <time>2017-06-04T10:19:14.000Z</time>
      </trkpt>
      <trkpt lat="45.203156" lon="5.436983">
        <ele>291.762902</ele>
        <time>2017-06-04T10:19:17.000Z</time>
      </trkpt>
      <trkpt lat="45.203100" lon="5.436854">
        <ele>291.986399</ele>
        <time>2017-06-04T10:19:20.000Z</time>
      </trkpt>
      <trkpt lat="45.203040" lon="5.436727">
        <ele>292.346273</ele>
        <time>2017-06-04T10:19:23.000Z</time>
      </trkpt>
      <trkpt lat="45.203000" lon="5.436592">
        <ele>292.750672</ele>
        <time>2017-06-04T10:19:26.000Z</time>
      </trkpt>
      <trkpt lat="45.202950" lon="5.436451">
        <ele>293.186549</ele>
        <time>2017-06-04T10:19:29.000Z</time>
      </trkpt>
      <trkpt lat="45.202908" lon="5.436314">
        <ele>293.599109</ele>
        <time>2017-06-04T10:19:32.000Z</time>
      </trkpt>
      <trkpt lat="45.202880" lon="5.436169">
        <ele>294.014268</ele>
        <time>2017-06-04T10:19:35.000Z</time>
      </trkpt>
      <trkpt lat="45.202873" lon="5.436021">
        <ele>294.423866</ele>
        <time>2017-06-04T10:19:38.000Z</time>
      </trkpt>
      <trkpt lat="45.202885" lon="5.435877">
        <ele>294.824270</ele>
        <time>2017-06-04T10:19:41.000Z</time>
      </trkpt>
      <trkpt lat="45.202904" lon="5.435740">
        <ele>295.209832</ele>
        <time>2017-06-04T10:19:44.000Z</time>
      </trkpt>
      <trkpt lat="45.202915" lon="5.435590">
        <ele>295.626270</ele>
        <time>2017-06-04T10:19:48.000Z</time>
      </trkpt>
      <trkpt lat="45.202930" lon="5.435456">
        <ele>296.000929</ele>
        <time>2017-06-04T10:19:52.000Z</time>
      </trkpt>
      <trkpt lat="45.202938" lon="5.435318">
        <ele>296.383281</ele>
        <time>2017-06-04T10:19:57.000Z</time>
      </trkpt>
      <trkpt lat="45.202877" lon="5.435183">
        <ele>296.826130</ele>
        <time>2017-06-04T10:20:02.000Z</time>
      </trkpt>
      <trkpt lat="45.202810" lon="5.435072">
        <ele>297.229730</ele>
        <time>2017-06-04T10:20:06.000Z</time>
      </trkpt>
      <trkpt lat="45.202732" lon="5.434975">
        <ele>297.636162</ele>
        <time>2017-06-04T10:20:10.000Z</time>
      </trkpt>
      <trkpt lat="45.202652" lon="5.434888">
        <ele>298.031143</ele>
        <time>2017-06-04T10:20:14.000Z</time>
      </trkpt>
      <trkpt lat="45.202568" lon="5.434786">
        <ele>298.464389</ele>
        <time>2017-06-04T10:20:18.000Z</time>
      </trkpt>
      <trkpt lat="45.202500" lon="5.434692">
        <ele>298.836403</ele>
        <time>2017-06-04T10:20:21.000Z</time>
      </trkpt>
      <trkpt lat="45.202420" lon="5.434607">
        <ele>299.118419</ele>
        <time>2017-06-04T10:20:24.000Z</time>
      </trkpt>
      <trkpt lat="45.202340" lon="5.434521">
        <ele>299.156025</ele>
        <time>2017-06-04T10:20:27.000Z</time>
      </trkpt>
      <trkpt lat="45.202267" lon="5.434431">
        <ele>299.192259</ele>
        <time>2017-06-04T10:20:30.000Z</time>
      </trkpt>
      <trkpt lat="45.202170" lon="5.434327">
        <ele>299.237812</ele>
        <time>2017-06-04T10:20:34.000Z</time>
      </trkpt>
      <trkpt lat="45.202095" lon="5.434231">
        <ele>299.275658</ele>
        <time>2017-06-04T10:20:37.000Z</time>
      </trkpt>
      <trkpt lat="45.202023" lon="5.434116">
        <ele>299.316276</ele>
        <time>2017-06-04T10:20:40.000Z</time>
      </trkpt>
      <trkpt lat="45.201958" lon="5.433993">
        <ele>299.356870</ele>
        <time>2017-06-04T10:20:43.000Z</time>
      </trkpt>
      <trkpt lat="45.201904" lon="5.433869">
        <ele>299.395358</ele>
        <time>2017-06-04T10:20:46.000Z</time>
      </trkpt>
      <trkpt lat="45.201850" lon="5.433740">
        <ele>299.434975</ele>
        <time>2017-06-04T10:20:49.000Z</time>
      </trkpt>
      <trkpt lat="45.201786" lon="5.433623">
        <ele>299.474082</ele>
        <time>2017-06-04T10:20:52.000Z</time>
      </trkpt>
      <trkpt lat="45.201706" lon="5.433495">
        <ele>299.519257</ele>
        <time>2017-06-04T10:20:55.000Z</time>
      </trkpt>
      <trkpt lat="45.201622" lon="5.433396">
        <ele>299.560172</ele>
        <time>2017-06-04T10:20:58.000Z</time>
      </trkpt>
      <trkpt lat="45.201540" lon="5.433284">
        <ele>299.602816</ele>
        <time>2017-06-04T10:21:01.000Z</time>
      </trkpt>
      <trkpt lat="45.201480" lon="5.433150">
        <ele>299.644736</ele>
        <time>2017-06-04T10:21:04.000Z</time>
      </trkpt>
      <trkpt lat="45.201435" lon="5.432985">
        <ele>299.691450</ele>
        <time>2017-06-04T10:21:07.000Z</time>
      </trkpt>
      <trkpt lat="45.201420" lon="5.432822">
        <ele>299.734853</ele>
        <time>2017-06-04T10:21:10.000Z</time>
      </trkpt>
      <trkpt lat="45.201420" lon="5.432660">
        <ele>299.777626</ele>
        <time>2017-06-04T10:21:13.000Z</time>
      </trkpt>
      <trkpt lat="45.201420" lon="5.432474">
        <ele>299.795349</ele>
        <time>2017-06-04T10:21:16.000Z</time>
      </trkpt>
      <trkpt lat="45.201416" lon="5.432337">
        <ele>299.806813</ele>
        <time>2017-06-04T10:21:18.000Z</time>
      </trkpt>
      <trkpt lat="45.201400" lon="5.432185">
        <ele>299.819661</ele>
        <time>2017-06-04T10:21:20.000Z</time>
      </trkpt>
      <trkpt lat="45.201380" lon="5.432026">
        <ele>299.833163</ele>
        <time>2017-06-04T10:21:22.000Z</time>
      </trkpt>
      <trkpt lat="45.201363" lon="5.431860">
        <ele>299.847187</ele>
        <time>2017-06-04T10:21:24.000Z</time>
      </trkpt>
      <trkpt lat="45.201330" lon="5.431699">
        <ele>299.861204</ele>
        <time>2017-06-04T10:21:26.000Z</time>
      </trkpt>
      <trkpt lat="45.201275" lon="5.431554">
        <ele>299.874971</ele>
        <time>2017-06-04T10:21:28.000Z</time>
      </trkpt>
      <trkpt lat="45.201206" lon="5.431434">
        <ele>299.887919</ele>
        <time>2017-06-04T10:21:30.000Z</time>
      </trkpt>
      <trkpt lat="45.201138" lon="5.431330">
        <ele>299.899781</ele>
        <time>2017-06-04T10:21:32.000Z</time>
      </trkpt>
      <trkpt lat="45.201084" lon="5.431226">
        <ele>299.910581</ele>
        <time>2017-06-04T10:21:34.000Z</time>
      </trkpt>
      <trkpt lat="45.201023" lon="5.431121">
        <ele>299.921957</ele>
        <time>2017-06-04T10:21:36.000Z</time>
      </trkpt>
      <trkpt lat="45.200962" lon="5.431028">
        <ele>299.932580</ele>
        <time>2017-06-04T10:21:38.000Z</time>
      </trkpt>
      <trkpt lat="45.200882" lon="5.430893">
        <ele>299.947326</ele>
        <time>2017-06-04T10:21:41.000Z</time>
      </trkpt>
      <trkpt lat="45.200794" lon="5.430761">
        <ele>299.962518</ele>
        <time>2017-06-04T10:21:44.000Z</time>
      </trkpt>
      <trkpt lat="45.200733" lon="5.430665">
        <ele>299.973325</ele>
        <time>2017-06-04T10:21:46.000Z</time>
      </trkpt>
      <trkpt lat="45.200676" lon="5.430562">
        <ele>299.984274</ele>
        <time>2017-06-04T10:21:48.000Z</time>
      </trkpt>
      <trkpt lat="45.200596" lon="5.430429">
        <ele>300.017903</ele>
        <time>2017-06-04T10:21:51.000Z</time>
      </trkpt>
      <trkpt lat="45.200512" lon="5.430287">
        <ele>300.096303</ele>
        <time>2017-06-04T10:21:54.000Z</time>
      </trkpt>
      <trkpt lat="45.200440" lon="5.430156">
        <ele>300.166555</ele>
        <time>2017-06-04T10:21:57.000Z</time>
      </trkpt>
      <trkpt lat="45.200363" lon="5.430038">
        <ele>300.234562</ele>
        <time>2017-06-04T10:22:00.000Z</time>
      </trkpt>
      <trkpt lat="45.200294" lon="5.429909">
        <ele>300.303047</ele>
        <time>2017-06-04T10:22:03.000Z</time>
      </trkpt>
      <trkpt lat="45.200250" lon="5.429787">
        <ele>300.361000</ele>
        <time>2017-06-04T10:22:06.000Z</time>
      </trkpt>
      <trkpt lat="45.200200" lon="5.429667">
        <ele>300.419951</ele>
        <time>2017-06-04T10:22:09.000Z</time>
      </trkpt>
      <trkpt lat="45.200140" lon="5.429517">
        <ele>300.492887</ele>
        <time>2017-06-04T10:22:13.000Z</time>
      </trkpt>
      <trkpt lat="45.200096" lon="5.429398">
        <ele>300.549714</ele>
        <time>2017-06-04T10:22:16.000Z</time>
      </trkpt>
      <trkpt lat="45.200043" lon="5.429270">
        <ele>300.612493</ele>
        <time>2017-06-04T10:22:19.000Z</time>
      </trkpt>
      <trkpt lat="45.199993" lon="5.429161">
        <ele>300.667491</ele>
        <time>2017-06-04T10:22:22.000Z</time>
      </trkpt>
      <trkpt lat="45.199944" lon="5.429048">
        <ele>300.723597</ele>
        <time>2017-06-04T10:22:25.000Z</time>
      </trkpt>
      <trkpt lat="45.199890" lon="5.428916">
        <ele>300.788140</ele>
        <time>2017-06-04T10:22:29.000Z</time>
      </trkpt>
      <trkpt lat="45.199837" lon="5.428807">
        <ele>300.844140</ele>
        <time>2017-06-04T10:22:35.000Z</time>
      </trkpt>
      <trkpt lat="45.199830" lon="5.428671">
        <ele>300.901802</ele>
        <time>2017-06-04T10:28:32.000Z</time>
      </trkpt>
      <trkpt lat="45.199787" lon="5.428553">
        <ele>300.957977</ele>
        <time>2017-06-04T10:28:36.000Z</time>
      </trkpt>
      <trkpt lat="45.199738" lon="5.428438">
        <ele>301.014806</ele>
        <time>2017-06-04T10:28:41.000Z</time>
      </trkpt>
      <trkpt lat="45.199670" lon="5.428337">
        <ele>301.071845</ele>
        <time>2017-06-04T10:28:47.000Z</time>
      </trkpt>
      <trkpt lat="45.199593" lon="5.428268">
        <ele>300.731799</ele>
        <time>2017-06-04T10:28:53.000Z</time>
      </trkpt>
      <trkpt lat="45.199528" lon="5.428177">
        <ele>300.390857</ele>
        <time>2017-06-04T10:29:00.000Z</time>
      </trkpt>
      <trkpt lat="45.199470" lon="5.428067">
        <ele>300.029367</ele>
        <time>2017-06-04T10:29:06.000Z</time>
      </trkpt>
      <trkpt lat="45.199394" lon="5.427952">
        <ele>299.614523</ele>
        <time>2017-06-04T10:29:11.000Z</time>
      </trkpt>
      <trkpt lat="45.199310" lon="5.427880">
        <ele>299.248089</ele>
        <time>2017-06-04T10:29:16.000Z</time>
      </trkpt>
      <trkpt lat="45.199238" lon="5.427789">
        <ele>298.888070</ele>
        <time>2017-06-04T10:29:21.000Z</time>
      </trkpt>
      <trkpt lat="45.199177" lon="5.427693">
        <ele>298.547941</ele>
        <time>2017-06-04T10:29:24.000Z</time>
      </trkpt>
      <trkpt lat="45.199120" lon="5.427581">
        <ele>298.184421</ele>
        <time>2017-06-04T10:29:27.000Z</time>
      </trkpt>
      <trkpt lat="45.199062" lon="5.427481">
        <ele>297.843631</ele>
        <time>2017-06-04T10:29:30.000Z</time>
      </trkpt>
      <trkpt lat="45.199005" lon="5.427347">
        <ele>297.431787</ele>
        <time>2017-06-04T10:29:34.000Z</time>
      </trkpt>
      <trkpt lat="45.198940" lon="5.427225">
        <ele>297.029349</ele>
        <time>2017-06-04T10:29:38.000Z</time>
      </trkpt>
      <trkpt lat="45.198870" lon="5.427076">
        <ele>296.558152</ele>
        <time>2017-06-04T10:29:42.000Z</time>
      </trkpt>
      <trkpt lat="45.198820" lon="5.426922">
        <ele>296.112000</ele>
        <time>2017-06-04T10:29:45.000Z</time>
      </trkpt>
      <trkpt lat="45.198800" lon="5.426764">
        <ele>295.689613</ele>
        <time>2017-06-04T10:29:48.000Z</time>
      </trkpt>
      <trkpt lat="45.198780" lon="5.426588">
        <ele>295.220536</ele>
        <time>2017-06-04T10:29:51.000Z</time>
      </trkpt>
      <trkpt lat="45.198784" lon="5.426415">
        <ele>294.765090</ele>
        <time>2017-06-04T10:29:54.000Z</time>
      </trkpt>
      <trkpt lat="45.198740" lon="5.426299">
        <ele>294.418457</ele>
        <time>2017-06-04T10:29:57.000Z</time>
      </trkpt>
      <trkpt lat="45.198654" lon="5.426238">
        <ele>293.978191</ele>
        <time>2017-06-04T10:29:59.000Z</time>
      </trkpt>
      <trkpt lat="45.198536" lon="5.426145">
        <ele>293.336684</ele>
        <time>2017-06-04T10:30:02.000Z</time>
      </trkpt>
      <trkpt lat="45.198456" lon="5.426079">
        <ele>292.896883</ele>
        <time>2017-06-04T10:30:04.000Z</time>
      </trkpt>
      <trkpt lat="45.198380" lon="5.425981">
        <ele>292.408835</ele>
        <time>2017-06-04T10:30:06.000Z</time>
      </trkpt>
      <trkpt lat="45.198288" lon="5.425871">
        <ele>291.837078</ele>
        <time>2017-06-04T10:30:09.000Z</time>
      </trkpt>
      <trkpt lat="45.198200" lon="5.425777">
        <ele>291.313598</ele>
        <time>2017-06-04T10:30:11.000Z</time>
      </trkpt>
      <trkpt lat="45.198124" lon="5.425680">
        <ele>290.827794</ele>
        <time>2017-06-04T10:30:13.000Z</time>
      </trkpt>
      <trkpt lat="45.198055" lon="5.425596">
        <ele>290.395722</ele>
        <time>2017-06-04T10:30:15.000Z</time>
      </trkpt>
      <trkpt lat="45.197970" lon="5.425489">
        <ele>289.855706</ele>
        <time>2017-06-04T10:30:17.000Z</time>
      </trkpt>
      <trkpt lat="45.197887" lon="5.425380">
        <ele>289.318236</ele>
        <time>2017-06-04T10:30:19.000Z</time>
      </trkpt>
      <trkpt lat="45.197810" lon="5.425279">
        <ele>288.819893</ele>
        <time>2017-06-04T10:30:21.000Z</time>
      </trkpt>
      <trkpt lat="45.197730" lon="5.425174">
        <ele>288.301986</ele>
        <time>2017-06-04T10:30:23.000Z</time>
      </trkpt>
      <trkpt lat="45.197660" lon="5.425068">
        <ele>287.815456</ele>
        <time>2017-06-04T10:30:25.000Z</time>
      </trkpt>
      <trkpt lat="45.197582" lon="5.424949">
        <ele>287.271154</ele>
        <time>2017-06-04T10:30:27.000Z</time>
      </trkpt>
      <trkpt lat="45.197502" lon="5.424844">
        <ele>286.753247</ele>
        <time>2017-06-04T10:30:29.000Z</time>
      </trkpt>
      <trkpt lat="45.197426" lon="5.424758">
        <ele>286.291263</ele>
        <time>2017-06-04T10:30:31.000Z</time>
      </trkpt>
      <trkpt lat="45.197340" lon="5.424671">
        <ele>285.780358</ele>
        <time>2017-06-04T10:30:33.000Z</time>
      </trkpt>
      <trkpt lat="45.197243" lon="5.424569">
        <ele>284.943478</ele>
        <time>2017-06-04T10:30:35.000Z</time>
      </trkpt>
      <trkpt lat="45.197147" lon="5.424461">
        <ele>284.094267</ele>
        <time>2017-06-04T10:30:37.000Z</time>
      </trkpt>
      <trkpt lat="45.197056" lon="5.424359">
        <ele>283.290422</ele>
        <time>2017-06-04T10:30:39.000Z</time>
      </trkpt>
      <trkpt lat="45.196964" lon="5.424273">
        <ele>282.526754</ele>
        <time>2017-06-04T10:30:41.000Z</time>
      </trkpt>
      <trkpt lat="45.196870" lon="5.424185">
        <ele>281.746134</ele>
        <time>2017-06-04T10:30:43.000Z</time>
      </trkpt>
      <trkpt lat="45.196766" lon="5.424095">
        <ele>280.901737</ele>
        <time>2017-06-04T10:30:45.000Z</time>
      </trkpt>
      <trkpt lat="45.196667" lon="5.424007">
        <ele>280.091960</ele>
        <time>2017-06-04T10:30:47.000Z</time>
      </trkpt>
      <trkpt lat="45.196570" lon="5.423924">
        <ele>279.306784</ele>
        <time>2017-06-04T10:30:49.000Z</time>
      </trkpt>
      <trkpt lat="45.196472" lon="5.423850">
        <ele>278.537266</ele>
        <time>2017-06-04T10:30:51.000Z</time>
      </trkpt>
      <trkpt lat="45.196373" lon="5.423773">
        <ele>277.754685</ele>
        <time>2017-06-04T10:30:53.000Z</time>
      </trkpt>
      <trkpt lat="45.196262" lon="5.423671">
        <ele>276.838004</ele>
        <time>2017-06-04T10:30:55.000Z</time>
      </trkpt>
      <trkpt lat="45.196156" lon="5.423556">
        <ele>275.913081</ele>
        <time>2017-06-04T10:30:57.000Z</time>
      </trkpt>
      <trkpt lat="45.196030" lon="5.423420">
        <ele>274.815712</ele>
        <time>2017-06-04T10:30:59.000Z</time>
      </trkpt>
      <trkpt lat="45.195920" lon="5.423273">
        <ele>273.768306</ele>
        <time>2017-06-04T10:31:01.000Z</time>
      </trkpt>
      <trkpt lat="45.195820" lon="5.423167">
        <ele>273.344671</ele>
        <time>2017-06-04T10:31:03.000Z</time>
      </trkpt>
      <trkpt lat="45.195732" lon="5.423083">
        <ele>273.351374</ele>
        <time>2017-06-04T10:31:05.000Z</time>
      </trkpt>
      <trkpt lat="45.195644" lon="5.423046">
        <ele>273.357174</ele>
        <time>2017-06-04T10:31:07.000Z</time>
      </trkpt>
      <trkpt lat="45.195550" lon="5.423040">
        <ele>273.363120</ele>
        <time>2017-06-04T10:31:10.000Z</time>
      </trkpt>
      <trkpt lat="45.195465" lon="5.423130">
        <ele>273.369822</ele>
        <time>2017-06-04T10:31:17.000Z</time>
      </trkpt>
      <trkpt lat="45.195420" lon="5.423277">
        <ele>273.376959</ele>
        <time>2017-06-04T10:31:21.000Z</time>
      </trkpt>
      <trkpt lat="45.195404" lon="5.423431">
        <ele>273.383891</ele>
        <time>2017-06-04T10:31:24.000Z</time>
      </trkpt>
      <trkpt lat="45.195374" lon="5.423587">
        <ele>273.391093</ele>
        <time>2017-06-04T10:31:27.000Z</time>
      </trkpt>
      <trkpt lat="45.195320" lon="5.423721">
        <ele>273.397967</ele>
        <time>2017-06-04T10:31:30.000Z</time>
      </trkpt>
      <trkpt lat="45.195250" lon="5.423856">
        <ele>273.405431</ele>
        <time>2017-06-04T10:31:33.000Z</time>
      </trkpt>
      <trkpt lat="45.195194" lon="5.424017">
        <ele>273.413426</ele>
        <time>2017-06-04T10:31:36.000Z</time>
      </trkpt>
      <trkpt lat="45.195164" lon="5.424197">
        <ele>273.421663</ele>
        <time>2017-06-04T10:31:39.000Z</time>
      </trkpt>
      <trkpt lat="45.195130" lon="5.424368">
        <ele>273.429576</ele>
        <time>2017-06-04T10:31:42.000Z</time>
      </trkpt>
      <trkpt lat="45.195090" lon="5.424536">
        <ele>273.437473</ele>
        <time>2017-06-04T10:31:45.000Z</time>
      </trkpt>
      <trkpt lat="45.195030" lon="5.424694">
        <ele>273.445466</ele>
        <time>2017-06-04T10:31:48.000Z</time>
      </trkpt>
      <trkpt lat="45.194970" lon="5.424845">
        <ele>273.453185</ele>
        <time>2017-06-04T10:31:51.000Z</time>
      </trkpt>
      <trkpt lat="45.194912" lon="5.425001">
        <ele>273.548927</ele>
        <time>2017-06-04T10:31:54.000Z</time>
      </trkpt>
      <trkpt lat="45.194874" lon="5.425118">
        <ele>273.629990</ele>
        <time>2017-06-04T10:31:56.000Z</time>
      </trkpt>
      <trkpt lat="45.194830" lon="5.425242">
        <ele>273.717348</ele>
        <time>2017-06-04T10:31:58.000Z</time>
      </trkpt>
      <trkpt lat="45.194798" lon="5.425369">
        <ele>273.802216</ele>
        <time>2017-06-04T10:32:00.000Z</time>
      </trkpt>
      <trkpt lat="45.194756" lon="5.425499">
        <ele>273.892203</ele>
        <time>2017-06-04T10:32:02.000Z</time>
      </trkpt>
      <trkpt lat="45.194714" lon="5.425631">
        <ele>273.983336</ele>
        <time>2017-06-04T10:32:04.000Z</time>
      </trkpt>
      <trkpt lat="45.194670" lon="5.425765">
        <ele>274.076357</ele>
        <time>2017-06-04T10:32:06.000Z</time>
      </trkpt>
      <trkpt lat="45.194630" lon="5.425897">
        <ele>274.166770</ele>
        <time>2017-06-04T10:32:08.000Z</time>
      </trkpt>
      <trkpt lat="45.194588" lon="5.426025">
        <ele>274.255615</ele>
        <time>2017-06-04T10:32:10.000Z</time>
      </trkpt>
      <trkpt lat="45.194534" lon="5.426195">
        <ele>274.372950</ele>
        <time>2017-06-04T10:32:13.000Z</time>
      </trkpt>
      <trkpt lat="45.194480" lon="5.426338">
        <ele>274.475036</ele>
        <time>2017-06-04T10:32:16.000Z</time>
      </trkpt>
      <trkpt lat="45.194420" lon="5.426472">
        <ele>274.574935</ele>
        <time>2017-06-04T10:32:19.000Z</time>
      </trkpt>
      <trkpt lat="45.194336" lon="5.426658">
        <ele>274.713944</ele>
        <time>2017-06-04T10:32:23.000Z</time>
      </trkpt>
      <trkpt lat="45.194267" lon="5.426786">
        <ele>274.815349</ele>
        <time>2017-06-04T10:32:26.000Z</time>
      </trkpt>
      <trkpt lat="45.194176" lon="5.426944">
        <ele>274.943750</ele>
        <time>2017-06-04T10:32:30.000Z</time>
      </trkpt>
      <trkpt lat="45.194103" lon="5.427028">
        <ele>275.027670</ele>
        <time>2017-06-04T10:32:33.000Z</time>
      </trkpt>
      <trkpt lat="45.194000" lon="5.427040">
        <ele>275.139860</ele>
        <time>2017-06-04T10:32:37.000Z</time>
      </trkpt>
      <trkpt lat="45.193924" lon="5.426961">
        <ele>275.252095</ele>
        <time>2017-06-04T10:32:40.000Z</time>
      </trkpt>
      <trkpt lat="45.193820" lon="5.426839">
        <ele>275.412850</ele>
        <time>2017-06-04T10:32:44.000Z</time>
      </trkpt>
      <trkpt lat="45.193733" lon="5.426756">
        <ele>275.537744</ele>
        <time>2017-06-04T10:32:47.000Z</time>
      </trkpt>
      <trkpt lat="45.193640" lon="5.426667">
        <ele>275.671380</ele>
        <time>2017-06-04T10:32:50.000Z</time>
      </trkpt>
      <trkpt lat="45.193554" lon="5.426587">
        <ele>275.793888</ele>
        <time>2017-06-04T10:32:53.000Z</time>
      </trkpt>
      <trkpt lat="45.193466" lon="5.426470">
        <ele>275.937554</ele>
        <time>2017-06-04T10:32:56.000Z</time>
      </trkpt>
      <trkpt lat="45.193370" lon="5.426369">
        <ele>276.079929</ele>
        <time>2017-06-04T10:32:59.000Z</time>
      </trkpt>
      <trkpt lat="45.193280" lon="5.426262">
        <ele>276.219808</ele>
        <time>2017-06-04T10:33:02.000Z</time>
      </trkpt>
      <trkpt lat="45.193180" lon="5.426157">
        <ele>276.368011</ele>
        <time>2017-06-04T10:33:05.000Z</time>
      </trkpt>
      <trkpt lat="45.193077" lon="5.426055">
        <ele>276.517647</ele>
        <time>2017-06-04T10:33:08.000Z</time>
      </trkpt>
      <trkpt lat="45.192974" lon="5.425949">
        <ele>276.669229</ele>
        <time>2017-06-04T10:33:11.000Z</time>
      </trkpt>
      <trkpt lat="45.192870" lon="5.425837">
        <ele>276.824771</ele>
        <time>2017-06-04T10:33:14.000Z</time>
      </trkpt>
      <trkpt lat="45.192764" lon="5.425721">
        <ele>276.984245</ele>
        <time>2017-06-04T10:33:17.000Z</time>
      </trkpt>
      <trkpt lat="45.192657" lon="5.425617">
        <ele>277.138756</ele>
        <time>2017-06-04T10:33:20.000Z</time>
      </trkpt>
      <trkpt lat="45.192550" lon="5.425508">
        <ele>277.265777</ele>
        <time>2017-06-04T10:33:23.000Z</time>
      </trkpt>
      <trkpt lat="45.192444" lon="5.425401">
        <ele>277.370656</ele>
        <time>2017-06-04T10:33:26.000Z</time>
      </trkpt>
      <trkpt lat="45.192326" lon="5.425313">
        <ele>277.478130</ele>
        <time>2017-06-04T10:33:29.000Z</time>
      </trkpt>
      <trkpt lat="45.192238" lon="5.425270">
        <ele>277.553168</ele>
        <time>2017-06-04T10:33:31.000Z</time>
      </trkpt>
      <trkpt lat="45.192120" lon="5.425199">
        <ele>277.656503</ele>
        <time>2017-06-04T10:33:34.000Z</time>
      </trkpt>
      <trkpt lat="45.191990" lon="5.425147">
        <ele>277.765399</ele>
        <time>2017-06-04T10:33:37.000Z</time>
      </trkpt>
      <trkpt lat="45.191906" lon="5.425107">
        <ele>277.836835</ele>
        <time>2017-06-04T10:33:39.000Z</time>
      </trkpt>
      <trkpt lat="45.191820" lon="5.425075">
        <ele>277.908515</ele>
        <time>2017-06-04T10:33:41.000Z</time>
      </trkpt>
      <trkpt lat="45.191730" lon="5.425049">
        <ele>277.982565</ele>
        <time>2017-06-04T10:33:43.000Z</time>
      </trkpt>
      <trkpt lat="45.191605" lon="5.425005">
        <ele>278.086399</ele>
        <time>2017-06-04T10:33:46.000Z</time>
      </trkpt>
      <trkpt lat="45.191475" lon="5.424966">
        <ele>278.193527</ele>
        <time>2017-06-04T10:33:49.000Z</time>
      </trkpt>
      <trkpt lat="45.191345" lon="5.424935">
        <ele>278.299807</ele>
        <time>2017-06-04T10:33:52.000Z</time>
      </trkpt>
      <trkpt lat="45.191250" lon="5.424907">
        <ele>278.378035</ele>
        <time>2017-06-04T10:33:54.000Z</time>
      </trkpt>
      <trkpt lat="45.191160" lon="5.424876">
        <ele>278.452703</ele>
        <time>2017-06-04T10:33:56.000Z</time>
      </trkpt>
      <trkpt lat="45.191067" lon="5.424847">
        <ele>278.529472</ele>
        <time>2017-06-04T10:33:58.000Z</time>
      </trkpt>
      <trkpt lat="45.190937" lon="5.424800">
        <ele>278.637632</ele>
        <time>2017-06-04T10:34:01.000Z</time>
      </trkpt>
      <trkpt lat="45.190850" lon="5.424767">
        <ele>278.617565</ele>
        <time>2017-06-04T10:34:03.000Z</time>
      </trkpt>
      <trkpt lat="45.190716" lon="5.424727">
        <ele>278.548239</ele>
        <time>2017-06-04T10:34:06.000Z</time>
      </trkpt>
      <trkpt lat="45.190598" lon="5.424686">
        <ele>278.486733</ele>
        <time>2017-06-04T10:34:09.000Z</time>
      </trkpt>
      <trkpt lat="45.190506" lon="5.424646">
        <ele>278.438018</ele>
        <time>2017-06-04T10:34:12.000Z</time>
      </trkpt>
      <trkpt lat="45.190400" lon="5.424603">
        <ele>278.382202</ele>
        <time>2017-06-04T10:34:16.000Z</time>
      </trkpt>
      <trkpt lat="45.190323" lon="5.424531">
        <ele>278.335515</ele>
        <time>2017-06-04T10:34:19.000Z</time>
      </trkpt>
      <trkpt lat="45.190247" lon="5.424418">
        <ele>278.279783</ele>
        <time>2017-06-04T10:34:22.000Z</time>
      </trkpt>
      <trkpt lat="45.190166" lon="5.424285">
        <ele>278.217064</ele>
        <time>2017-06-04T10:34:25.000Z</time>
      </trkpt>
      <trkpt lat="45.190110" lon="5.424180">
        <ele>278.170081</ele>
        <time>2017-06-04T10:34:27.000Z</time>
      </trkpt>
      <trkpt lat="45.190044" lon="5.424073">
        <ele>278.119346</ele>
        <time>2017-06-04T10:34:29.000Z</time>
      </trkpt>
      <trkpt lat="45.189995" lon="5.423957">
        <ele>278.071091</ele>
        <time>2017-06-04T10:34:31.000Z</time>
      </trkpt>
      <trkpt lat="45.189945" lon="5.423842">
        <ele>278.022879</ele>
        <time>2017-06-04T10:34:33.000Z</time>
      </trkpt>
      <trkpt lat="45.189880" lon="5.423744">
        <ele>277.974862</ele>
        <time>2017-06-04T10:34:35.000Z</time>
      </trkpt>
      <trkpt lat="45.189810" lon="5.423620">
        <ele>277.918174</ele>
        <time>2017-06-04T10:34:37.000Z</time>
      </trkpt>
      <trkpt lat="45.189766" lon="5.423461">
        <ele>277.857225</ele>
        <time>2017-06-04T10:34:39.000Z</time>
      </trkpt>
      <trkpt lat="45.189697" lon="5.423322">
        <ele>277.796562</ele>
        <time>2017-06-04T10:34:41.000Z</time>
      </trkpt>
      <trkpt lat="45.189644" lon="5.423179">
        <ele>277.726012</ele>
        <time>2017-06-04T10:34:43.000Z</time>
      </trkpt>
      <trkpt lat="45.189570" lon="5.423002">
        <ele>277.402231</ele>
        <time>2017-06-04T10:34:45.000Z</time>
      </trkpt>
      <trkpt lat="45.189472" lon="5.422837">
        <ele>277.062750</ele>
        <time>2017-06-04T10:34:47.000Z</time>
      </trkpt>
      <trkpt lat="45.189342" lon="5.422686">
        <ele>276.687708</ele>
        <time>2017-06-04T10:34:49.000Z</time>
      </trkpt>
      <trkpt lat="45.189220" lon="5.422556">
        <ele>276.347115</ele>
        <time>2017-06-04T10:34:51.000Z</time>
      </trkpt>
      <trkpt lat="45.189106" lon="5.422443">
        <ele>276.036680</ele>
        <time>2017-06-04T10:34:53.000Z</time>
      </trkpt>
      <trkpt lat="45.188976" lon="5.422369">
        <ele>275.723993</ele>
        <time>2017-06-04T10:34:55.000Z</time>
      </trkpt>
      <trkpt lat="45.188766" lon="5.422280">
        <ele>275.234736</ele>
        <time>2017-06-04T10:34:58.000Z</time>
      </trkpt>
      <trkpt lat="45.188618" lon="5.422244">
        <ele>274.899529</ele>
        <time>2017-06-04T10:35:00.000Z</time>
      </trkpt>
      <trkpt lat="45.188473" lon="5.422215">
        <ele>274.572639</ele>
        <time>2017-06-04T10:35:02.000Z</time>
      </trkpt>
      <trkpt lat="45.188320" lon="5.422184">
        <ele>274.227626</ele>
        <time>2017-06-04T10:35:04.000Z</time>
      </trkpt>
      <trkpt lat="45.188170" lon="5.422163">
        <ele>273.891148</ele>
        <time>2017-06-04T10:35:06.000Z</time>
      </trkpt>
      <trkpt lat="45.188026" lon="5.422152">
        <ele>273.536635</ele>
        <time>2017-06-04T10:35:08.000Z</time>
      </trkpt>
      <trkpt lat="45.187828" lon="5.422122">
        <ele>273.000590</ele>
        <time>2017-06-04T10:35:11.000Z</time>
      </trkpt>
      <trkpt lat="45.187717" lon="5.422112">
        <ele>272.701177</ele>
        <time>2017-06-04T10:35:13.000Z</time>
      </trkpt>
      <trkpt lat="45.187614" lon="5.422101">
        <ele>272.423118</ele>
        <time>2017-06-04T10:35:15.000Z</time>
      </trkpt>
      <trkpt lat="45.187500" lon="5.422092">
        <ele>272.115756</ele>
        <time>2017-06-04T10:35:17.000Z</time>
      </trkpt>
      <trkpt lat="45.187374" lon="5.422071">
        <ele>271.774233</ele>
        <time>2017-06-04T10:35:19.000Z</time>
      </trkpt>
      <trkpt lat="45.187220" lon="5.422041">
        <ele>271.355778</ele>
        <time>2017-06-04T10:35:21.000Z</time>
      </trkpt>
      <trkpt lat="45.187077" lon="5.422031">
        <ele>270.970356</ele>
        <time>2017-06-04T10:35:23.000Z</time>
      </trkpt>
      <trkpt lat="45.186960" lon="5.422014">
        <ele>270.653746</ele>
        <time>2017-06-04T10:35:25.000Z</time>
      </trkpt>
      <trkpt lat="45.186850" lon="5.422025">
        <ele>270.356892</ele>
        <time>2017-06-04T10:35:27.000Z</time>
      </trkpt>
      <trkpt lat="45.186740" lon="5.422003">
        <ele>270.057846</ele>
        <time>2017-06-04T10:35:29.000Z</time>
      </trkpt>
      <trkpt lat="45.186573" lon="5.421942">
        <ele>269.593625</ele>
        <time>2017-06-04T10:35:32.000Z</time>
      </trkpt>
      <trkpt lat="45.186450" lon="5.421886">
        <ele>269.245880</ele>
        <time>2017-06-04T10:35:34.000Z</time>
      </trkpt>
      <trkpt lat="45.186333" lon="5.421856">
        <ele>268.925816</ele>
        <time>2017-06-04T10:35:36.000Z</time>
      </trkpt>
      <trkpt lat="45.186230" lon="5.421812">
        <ele>268.776157</ele>
        <time>2017-06-04T10:35:38.000Z</time>
      </trkpt>
      <trkpt lat="45.186108" lon="5.421755">
        <ele>268.624416</ele>
        <time>2017-06-04T10:35:40.000Z</time>
      </trkpt>
      <trkpt lat="45.185978" lon="5.421708">
        <ele>268.465930</ele>
        <time>2017-06-04T10:35:42.000Z</time>
      </trkpt>
      <trkpt lat="45.185880" lon="5.421660">
        <ele>268.343451</ele>
        <time>2017-06-04T10:35:44.000Z</time>
      </trkpt>
      <trkpt lat="45.185753" lon="5.421623">
        <ele>268.190286</ele>
        <time>2017-06-04T10:35:46.000Z</time>
      </trkpt>
      <trkpt lat="45.185616" lon="5.421553">
        <ele>268.018262</ele>
        <time>2017-06-04T10:35:48.000Z</time>
      </trkpt>
      <trkpt lat="45.185480" lon="5.421506">
        <ele>267.852898</ele>
        <time>2017-06-04T10:35:50.000Z</time>
      </trkpt>
      <trkpt lat="45.185352" lon="5.421468">
        <ele>267.698407</ele>
        <time>2017-06-04T10:35:52.000Z</time>
      </trkpt>
      <trkpt lat="45.185223" lon="5.421408">
        <ele>267.538030</ele>
        <time>2017-06-04T10:35:54.000Z</time>
      </trkpt>
      <trkpt lat="45.185097" lon="5.421351">
        <ele>267.381793</ele>
        <time>2017-06-04T10:35:56.000Z</time>
      </trkpt>
      <trkpt lat="45.184970" lon="5.421300">
        <ele>267.225864</ele>
        <time>2017-06-04T10:35:58.000Z</time>
      </trkpt>
      <trkpt lat="45.184853" lon="5.421240">
        <ele>267.078892</ele>
        <time>2017-06-04T10:36:00.000Z</time>
      </trkpt>
      <trkpt lat="45.184723" lon="5.421178">
        <ele>266.916868</ele>
        <time>2017-06-04T10:36:02.000Z</time>
      </trkpt>
      <trkpt lat="45.184597" lon="5.421118">
        <ele>266.759618</ele>
        <time>2017-06-04T10:36:04.000Z</time>
      </trkpt>
      <trkpt lat="45.184452" lon="5.421069">
        <ele>266.534397</ele>
        <time>2017-06-04T10:36:06.000Z</time>
      </trkpt>
      <trkpt lat="45.184315" lon="5.421008">
        <ele>266.317437</ele>
        <time>2017-06-04T10:36:08.000Z</time>
      </trkpt>
      <trkpt lat="45.184162" lon="5.420934">
        <ele>266.073192</ele>
        <time>2017-06-04T10:36:10.000Z</time>
      </trkpt>
      <trkpt lat="45.184020" lon="5.420865">
        <ele>265.846397</ele>
        <time>2017-06-04T10:36:12.000Z</time>
      </trkpt>
      <trkpt lat="45.183884" lon="5.420794">
        <ele>265.627433</ele>
        <time>2017-06-04T10:36:14.000Z</time>
      </trkpt>
      <trkpt lat="45.183740" lon="5.420722">
        <ele>265.396735</ele>
        <time>2017-06-04T10:36:16.000Z</time>
      </trkpt>
      <trkpt lat="45.183594" lon="5.420666">
        <ele>265.168211</ele>
        <time>2017-06-04T10:36:18.000Z</time>
      </trkpt>
      <trkpt lat="45.183453" lon="5.420604">
        <ele>264.945165</ele>
        <time>2017-06-04T10:36:20.000Z</time>
      </trkpt>
      <trkpt lat="45.183315" lon="5.420557">
        <ele>264.730725</ele>
        <time>2017-06-04T10:36:22.000Z</time>
      </trkpt>
      <trkpt lat="45.183186" lon="5.420489">
        <ele>264.522789</ele>
        <time>2017-06-04T10:36:24.000Z</time>
      </trkpt>
      <trkpt lat="45.183064" lon="5.420447">
        <ele>264.333099</ele>
        <time>2017-06-04T10:36:26.000Z</time>
      </trkpt>
      <trkpt lat="45.182950" lon="5.420403">
        <ele>264.154586</ele>
        <time>2017-06-04T10:36:28.000Z</time>
      </trkpt>
      <trkpt lat="45.182835" lon="5.420347">
        <ele>264.039225</ele>
        <time>2017-06-04T10:36:30.000Z</time>
      </trkpt>
      <trkpt lat="45.182716" lon="5.420295">
        <ele>264.029433</ele>
        <time>2017-06-04T10:36:32.000Z</time>
      </trkpt>
      <trkpt lat="45.182606" lon="5.420254">
        <ele>264.020488</ele>
        <time>2017-06-04T10:36:34.000Z</time>
      </trkpt>
      <trkpt lat="45.182500" lon="5.420212">
        <ele>264.011833</ele>
        <time>2017-06-04T10:36:36.000Z</time>
      </trkpt>
      <trkpt lat="45.182400" lon="5.420167">
        <ele>264.003583</ele>
        <time>2017-06-04T10:36:38.000Z</time>
      </trkpt>
      <trkpt lat="45.182293" lon="5.420124">
        <ele>263.994837</ele>
        <time>2017-06-04T10:36:40.000Z</time>
      </trkpt>
      <trkpt lat="45.182198" lon="5.420084">
        <ele>263.987044</ele>
        <time>2017-06-04T10:36:42.000Z</time>
      </trkpt>
      <trkpt lat="45.182076" lon="5.420040">
        <ele>263.977144</ele>
        <time>2017-06-04T10:36:45.000Z</time>
      </trkpt>
      <trkpt lat="45.181950" lon="5.420011">
        <ele>263.967106</ele>
        <time>2017-06-04T10:36:47.000Z</time>
      </trkpt>
      <trkpt lat="45.181800" lon="5.419946">
        <ele>263.954771</ele>
        <time>2017-06-04T10:36:49.000Z</time>
      </trkpt>
      <trkpt lat="45.181694" lon="5.419867">
        <ele>263.945355</ele>
        <time>2017-06-04T10:36:51.000Z</time>
      </trkpt>
      <trkpt lat="45.181570" lon="5.419796">
        <ele>263.934839</ele>
        <time>2017-06-04T10:36:53.000Z</time>
      </trkpt>
      <trkpt lat="45.181458" lon="5.419724">
        <ele>263.925169</ele>
        <time>2017-06-04T10:36:55.000Z</time>
      </trkpt>
      <trkpt lat="45.181360" lon="5.419643">
        <ele>263.916250</ele>
        <time>2017-06-04T10:36:57.000Z</time>
      </trkpt>
      <trkpt lat="45.181270" lon="5.419529">
        <ele>263.906761</ele>
        <time>2017-06-04T10:36:59.000Z</time>
      </trkpt>
      <trkpt lat="45.181187" lon="5.419404">
        <ele>263.924555</ele>
        <time>2017-06-04T10:37:01.000Z</time>
      </trkpt>
      <trkpt lat="45.181103" lon="5.419291">
        <ele>263.973468</ele>
        <time>2017-06-04T10:37:03.000Z</time>
      </trkpt>
      <trkpt lat="45.181020" lon="5.419188">
        <ele>264.020062</ele>
        <time>2017-06-04T10:37:05.000Z</time>
      </trkpt>
      <trkpt lat="45.180940" lon="5.419092">
        <ele>264.064336</ele>
        <time>2017-06-04T10:37:07.000Z</time>
      </trkpt>
      <trkpt lat="45.180855" lon="5.418991">
        <ele>264.111185</ele>
        <time>2017-06-04T10:37:09.000Z</time>
      </trkpt>
      <trkpt lat="45.180780" lon="5.418893">
        <ele>264.154269</ele>
        <time>2017-06-04T10:37:11.000Z</time>
      </trkpt>
      <trkpt lat="45.180706" lon="5.418797">
        <ele>264.196639</ele>
        <time>2017-06-04T10:37:13.000Z</time>
      </trkpt>
      <trkpt lat="45.180626" lon="5.418704">
        <ele>264.240341</ele>
        <time>2017-06-04T10:37:15.000Z</time>
      </trkpt>
      <trkpt lat="45.180550" lon="5.418598">
        <ele>264.285374</ele>
        <time>2017-06-04T10:37:17.000Z</time>
      </trkpt>
      <trkpt lat="45.180473" lon="5.418497">
        <ele>264.329684</ele>
        <time>2017-06-04T10:37:19.000Z</time>
      </trkpt>
      <trkpt lat="45.180397" lon="5.418395">
        <ele>264.373890</ele>
        <time>2017-06-04T10:37:21.000Z</time>
      </trkpt>
      <trkpt lat="45.180325" lon="5.418290">
        <ele>264.417520</ele>
        <time>2017-06-04T10:37:23.000Z</time>
      </trkpt>
      <trkpt lat="45.180256" lon="5.418187">
        <ele>264.459842</ele>
        <time>2017-06-04T10:37:25.000Z</time>
      </trkpt>
      <trkpt lat="45.180190" lon="5.418086">
        <ele>264.500861</ele>
        <time>2017-06-04T10:37:27.000Z</time>
      </trkpt>
      <trkpt lat="45.180130" lon="5.417981">
        <ele>264.541120</ele>
        <time>2017-06-04T10:37:29.000Z</time>
      </trkpt>
      <trkpt lat="45.180077" lon="5.417864">
        <ele>264.582543</ele>
        <time>2017-06-04T10:37:31.000Z</time>
      </trkpt>
      <trkpt lat="45.180016" lon="5.417751">
        <ele>264.624934</ele>
        <time>2017-06-04T10:37:33.000Z</time>
      </trkpt>
      <trkpt lat="45.179966" lon="5.417636">
        <ele>264.644417</ele>
        <time>2017-06-04T10:37:35.000Z</time>
      </trkpt>
      <trkpt lat="45.179897" lon="5.417472">
        <ele>264.378053</ele>
        <time>2017-06-04T10:37:38.000Z</time>
      </trkpt>
      <trkpt lat="45.179830" lon="5.417312">
        <ele>264.118507</ele>
        <time>2017-06-04T10:37:41.000Z</time>
      </trkpt>
      <trkpt lat="45.179764" lon="5.417215">
        <ele>263.930484</ele>
        <time>2017-06-04T10:37:43.000Z</time>
      </trkpt>
      <trkpt lat="45.179690" lon="5.417135">
        <ele>263.746408</ele>
        <time>2017-06-04T10:37:45.000Z</time>
      </trkpt>
      <trkpt lat="45.179610" lon="5.417074">
        <ele>263.566712</ele>
        <time>2017-06-04T10:37:47.000Z</time>
      </trkpt>
      <trkpt lat="45.179523" lon="5.416950">
        <ele>263.322711</ele>
        <time>2017-06-04T10:37:50.000Z</time>
      </trkpt>
      <trkpt lat="45.179450" lon="5.416842">
        <ele>263.114031</ele>
        <time>2017-06-04T10:37:52.000Z</time>
      </trkpt>
      <trkpt lat="45.179394" lon="5.416728">
        <ele>262.920243</ele>
        <time>2017-06-04T10:37:54.000Z</time>
      </trkpt>
      <trkpt lat="45.179330" lon="5.416608">
        <ele>262.710380</ele>
        <time>2017-06-04T10:37:56.000Z</time>
      </trkpt>
      <trkpt lat="45.179270" lon="5.416479">
        <ele>262.494835</ele>
        <time>2017-06-04T10:37:58.000Z</time>
      </trkpt>
      <trkpt lat="45.179220" lon="5.416338">
        <ele>262.274708</ele>
        <time>2017-06-04T10:38:00.000Z</time>
      </trkpt>
      <trkpt lat="45.179173" lon="5.416190">
        <ele>262.048320</ele>
        <time>2017-06-04T10:38:02.000Z</time>
      </trkpt>
      <trkpt lat="45.179142" lon="5.416036">
        <ele>261.824958</ele>
        <time>2017-06-04T10:38:04.000Z</time>
      </trkpt>
      <trkpt lat="45.179110" lon="5.415878">
        <ele>261.595688</ele>
        <time>2017-06-04T10:38:06.000Z</time>
      </trkpt>
      <trkpt lat="45.179100" lon="5.415715">
        <ele>261.367500</ele>
        <time>2017-06-04T10:38:08.000Z</time>
      </trkpt>
      <trkpt lat="45.179100" lon="5.415551">
        <ele>261.138778</ele>
        <time>2017-06-04T10:38:10.000Z</time>
      </trkpt>
      <trkpt lat="45.179110" lon="5.415389">
        <ele>260.836561</ele>
        <time>2017-06-04T10:38:12.000Z</time>
      </trkpt>
      <trkpt lat="45.179127" lon="5.415225">
        <ele>260.514035</ele>
        <time>2017-06-04T10:38:14.000Z</time>
      </trkpt>
      <trkpt lat="45.179134" lon="5.415055">
        <ele>260.182703</ele>
        <time>2017-06-04T10:38:16.000Z</time>
      </trkpt>
      <trkpt lat="45.179150" lon="5.414887">
        <ele>259.852856</ele>
        <time>2017-06-04T10:38:18.000Z</time>
      </trkpt>
      <trkpt lat="45.179170" lon="5.414726">
        <ele>259.534772</ele>
        <time>2017-06-04T10:38:20.000Z</time>
      </trkpt>
      <trkpt lat="45.179184" lon="5.414553">
        <ele>259.195956</ele>
        <time>2017-06-04T10:38:22.000Z</time>
      </trkpt>
      <trkpt lat="45.179195" lon="5.414377">
        <ele>258.852170</ele>
        <time>2017-06-04T10:38:24.000Z</time>
      </trkpt>
      <trkpt lat="45.179203" lon="5.414196">
        <ele>258.499308</ele>
        <time>2017-06-04T10:38:26.000Z</time>
      </trkpt>
      <trkpt lat="45.179200" lon="5.414022">
        <ele>258.160656</ele>
        <time>2017-06-04T10:38:28.000Z</time>
      </trkpt>
      <trkpt lat="45.179200" lon="5.413843">
        <ele>257.812377</ele>
        <time>2017-06-04T10:38:30.000Z</time>
      </trkpt>
      <trkpt lat="45.179195" lon="5.413657">
        <ele>257.450215</ele>
        <time>2017-06-04T10:38:32.000Z</time>
      </trkpt>
      <trkpt lat="45.179190" lon="5.413464">
        <ele>257.074443</ele>
        <time>2017-06-04T10:38:34.000Z</time>
      </trkpt>
      <trkpt lat="45.179180" lon="5.413271">
        <ele>256.697911</ele>
        <time>2017-06-04T10:38:36.000Z</time>
      </trkpt>
      <trkpt lat="45.179157" lon="5.413074">
        <ele>256.309387</ele>
        <time>2017-06-04T10:38:38.000Z</time>
      </trkpt>
      <trkpt lat="45.179127" lon="5.412880">
        <ele>255.901177</ele>
        <time>2017-06-04T10:38:40.000Z</time>
      </trkpt>
      <trkpt lat="45.179104" lon="5.412692">
        <ele>255.492358</ele>
        <time>2017-06-04T10:38:42.000Z</time>
      </trkpt>
      <trkpt lat="45.179085" lon="5.412519">
        <ele>255.117227</ele>
        <time>2017-06-04T10:38:44.000Z</time>
      </trkpt>
      <trkpt lat="45.179050" lon="5.412322">
        <ele>254.681946</ele>
        <time>2017-06-04T10:38:46.000Z</time>
      </trkpt>
      <trkpt lat="45.179012" lon="5.412120">
        <ele>254.234005</ele>
        <time>2017-06-04T10:38:48.000Z</time>
      </trkpt>
      <trkpt lat="45.178967" lon="5.411910">
        <ele>253.763740</ele>
        <time>2017-06-04T10:38:50.000Z</time>
      </trkpt>
      <trkpt lat="45.178920" lon="5.411692">
        <ele>253.275307</ele>
        <time>2017-06-04T10:38:52.000Z</time>
      </trkpt>
      <trkpt lat="45.178870" lon="5.411470">
        <ele>252.775972</ele>
        <time>2017-06-04T10:38:54.000Z</time>
      </trkpt>
      <trkpt lat="45.178820" lon="5.411275">
        <ele>252.331392</ele>
        <time>2017-06-04T10:38:56.000Z</time>
      </trkpt>
      <trkpt lat="45.178750" lon="5.411075">
        <ele>251.852967</ele>
        <time>2017-06-04T10:38:58.000Z</time>
      </trkpt>
      <trkpt lat="45.178677" lon="5.410887">
        <ele>251.393096</ele>
        <time>2017-06-04T10:39:00.000Z</time>
      </trkpt>
      <trkpt lat="45.178596" lon="5.410695">
        <ele>250.913679</ele>
        <time>2017-06-04T10:39:02.000Z</time>
      </trkpt>
      <trkpt lat="45.178510" lon="5.410511">
        <ele>250.643402</ele>
        <time>2017-06-04T10:39:04.000Z</time>
      </trkpt>
      <trkpt lat="45.178413" lon="5.410341">
        <ele>250.587091</ele>
        <time>2017-06-04T10:39:06.000Z</time>
      </trkpt>
      <trkpt lat="45.178320" lon="5.410163">
        <ele>250.530046</ele>
        <time>2017-06-04T10:39:08.000Z</time>
      </trkpt>
      <trkpt lat="45.178230" lon="5.409990">
        <ele>250.474688</ele>
        <time>2017-06-04T10:39:10.000Z</time>
      </trkpt>
      <trkpt lat="45.178140" lon="5.409822">
        <ele>250.420360</ele>
        <time>2017-06-04T10:39:12.000Z</time>
      </trkpt>
      <trkpt lat="45.178047" lon="5.409658">
        <ele>250.366168</ele>
        <time>2017-06-04T10:39:14.000Z</time>
      </trkpt>
      <trkpt lat="45.177963" lon="5.409493">
        <ele>250.313765</ele>
        <time>2017-06-04T10:39:16.000Z</time>
      </trkpt>
      <trkpt lat="45.177876" lon="5.409338">
        <ele>250.262752</ele>
        <time>2017-06-04T10:39:18.000Z</time>
      </trkpt>
      <trkpt lat="45.177790" lon="5.409195">
        <ele>250.214355</ele>
        <time>2017-06-04T10:39:20.000Z</time>
      </trkpt>
      <trkpt lat="45.177708" lon="5.409061">
        <ele>250.168668</ele>
        <time>2017-06-04T10:39:22.000Z</time>
      </trkpt>
      <trkpt lat="45.177628" lon="5.408931">
        <ele>250.124237</ele>
        <time>2017-06-04T10:39:24.000Z</time>
      </trkpt>
      <trkpt lat="45.177550" lon="5.408817">
        <ele>250.083333</ele>
        <time>2017-06-04T10:39:26.000Z</time>
      </trkpt>
      <trkpt lat="45.177460" lon="5.408686">
        <ele>250.036235</ele>
        <time>2017-06-04T10:39:29.000Z</time>
      </trkpt>
      <trkpt lat="45.177387" lon="5.408567">
        <ele>250.093896</ele>
        <time>2017-06-04T10:39:32.000Z</time>
      </trkpt>
      <trkpt lat="45.177307" lon="5.408469">
        <ele>250.260155</ele>
        <time>2017-06-04T10:39:36.000Z</time>
      </trkpt>
      <trkpt lat="45.177310" lon="5.408313">
        <ele>250.433191</ele>
        <time>2017-06-04T10:46:02.000Z</time>
      </trkpt>
      <trkpt lat="45.177288" lon="5.408173">
        <ele>250.592233</ele>
        <time>2017-06-04T10:46:14.000Z</time>
      </trkpt>
      <trkpt lat="45.177246" lon="5.408050">
        <ele>250.743773</ele>
        <time>2017-06-04T10:46:20.000Z</time>
      </trkpt>
      <trkpt lat="45.177204" lon="5.407921">
        <ele>250.901328</ele>
        <time>2017-06-04T10:46:26.000Z</time>
      </trkpt>
      <trkpt lat="45.177170" lon="5.407793">
        <ele>251.052996</ele>
        <time>2017-06-04T10:46:31.000Z</time>
      </trkpt>
      <trkpt lat="45.177130" lon="5.407669">
        <ele>251.204199</ele>
        <time>2017-06-04T10:46:36.000Z</time>
      </trkpt>
      <trkpt lat="45.177097" lon="5.407548">
        <ele>251.348055</ele>
        <time>2017-06-04T10:46:40.000Z</time>
      </trkpt>
      <trkpt lat="45.177086" lon="5.407404">
        <ele>251.508657</ele>
        <time>2017-06-04T10:46:45.000Z</time>
      </trkpt>
      <trkpt lat="45.177067" lon="5.407257">
        <ele>251.674368</ele>
        <time>2017-06-04T10:46:50.000Z</time>
      </trkpt>
      <trkpt lat="45.177055" lon="5.407114">
        <ele>251.834045</ele>
        <time>2017-06-04T10:46:54.000Z</time>
      </trkpt>
      <trkpt lat="45.177050" lon="5.406981">
        <ele>251.981725</ele>
        <time>2017-06-04T10:46:58.000Z</time>
      </trkpt>
      <trkpt lat="45.177055" lon="5.406848">
        <ele>252.129405</ele>
        <time>2017-06-04T10:47:02.000Z</time>
      </trkpt>
      <trkpt lat="45.177063" lon="5.406719">
        <ele>252.272993</ele>
        <time>2017-06-04T10:47:06.000Z</time>
      </trkpt>
      <trkpt lat="45.177082" lon="5.406587">
        <ele>252.422375</ele>
        <time>2017-06-04T10:47:10.000Z</time>
      </trkpt>
      <trkpt lat="45.177105" lon="5.406433">
        <ele>252.596920</ele>
        <time>2017-06-04T10:47:14.000Z</time>
      </trkpt>
      <trkpt lat="45.177120" lon="5.406279">
        <ele>252.769298</ele>
        <time>2017-06-04T10:47:18.000Z</time>
      </trkpt>
      <trkpt lat="45.177128" lon="5.406141">
        <ele>252.869094</ele>
        <time>2017-06-04T10:47:22.000Z</time>
      </trkpt>
      <trkpt lat="45.177124" lon="5.405997">
        <ele>252.920904</ele>
        <time>2017-06-04T10:47:26.000Z</time>
      </trkpt>
      <trkpt lat="45.177116" lon="5.405850">
        <ele>252.973909</ele>
        <time>2017-06-04T10:47:30.000Z</time>
      </trkpt>
      <trkpt lat="45.177097" lon="5.405721">
        <ele>253.021288</ele>
        <time>2017-06-04T10:47:33.000Z</time>
      </trkpt>
      <trkpt lat="45.177086" lon="5.405576">
        <ele>253.073718</ele>
        <time>2017-06-04T10:47:36.000Z</time>
      </trkpt>
      <trkpt lat="45.177110" lon="5.405423">
        <ele>253.130069</ele>
        <time>2017-06-04T10:47:39.000Z</time>
      </trkpt>
      <trkpt lat="45.177113" lon="5.405267">
        <ele>253.186174</ele>
        <time>2017-06-04T10:47:43.000Z</time>
      </trkpt>
      <trkpt lat="45.177128" lon="5.405102">
        <ele>253.245984</ele>
        <time>2017-06-04T10:47:47.000Z</time>
      </trkpt>
      <trkpt lat="45.177120" lon="5.404940">
        <ele>253.304368</ele>
        <time>2017-06-04T10:47:51.000Z</time>
      </trkpt>
      <trkpt lat="45.177070" lon="5.404831">
        <ele>253.351121</ele>
        <time>2017-06-04T10:47:54.000Z</time>
      </trkpt>
      <trkpt lat="45.177017" lon="5.404681">
        <ele>253.411443</ele>
        <time>2017-06-04T10:47:57.000Z</time>
      </trkpt>
      <trkpt lat="45.176970" lon="5.404531">
        <ele>253.470458</ele>
        <time>2017-06-04T10:48:00.000Z</time>
      </trkpt>
      <trkpt lat="45.176933" lon="5.404377">
        <ele>253.528950</ele>
        <time>2017-06-04T10:48:03.000Z</time>
      </trkpt>
      <trkpt lat="45.176880" lon="5.404207">
        <ele>253.595778</ele>
        <time>2017-06-04T10:48:06.000Z</time>
      </trkpt>
      <trkpt lat="45.176838" lon="5.404045">
        <ele>253.657833</ele>
        <time>2017-06-04T10:48:09.000Z</time>
      </trkpt>
      <trkpt lat="45.176780" lon="5.403886">
        <ele>253.722196</ele>
        <time>2017-06-04T10:48:12.000Z</time>
      </trkpt>
      <trkpt lat="45.176735" lon="5.403703">
        <ele>253.525205</ele>
        <time>2017-06-04T10:48:15.000Z</time>
      </trkpt>
      <trkpt lat="45.176697" lon="5.403586">
        <ele>253.176246</ele>
        <time>2017-06-04T10:48:17.000Z</time>
      </trkpt>
      <trkpt lat="45.176643" lon="5.403479">
        <ele>252.819774</ele>
        <time>2017-06-04T10:48:19.000Z</time>
      </trkpt>
      <trkpt lat="45.176605" lon="5.403355">
        <ele>252.453506</ele>
        <time>2017-06-04T10:48:21.000Z</time>
      </trkpt>
      <trkpt lat="45.176560" lon="5.403198">
        <ele>251.994402</ele>
        <time>2017-06-04T10:48:24.000Z</time>
      </trkpt>
      <trkpt lat="45.176517" lon="5.403032">
        <ele>251.515330</ele>
        <time>2017-06-04T10:48:27.000Z</time>
      </trkpt>
      <trkpt lat="45.176476" lon="5.402915">
        <ele>251.161391</ele>
        <time>2017-06-04T10:48:29.000Z</time>
      </trkpt>
      <trkpt lat="45.176426" lon="5.402790">
        <ele>250.772066</ele>
        <time>2017-06-04T10:48:31.000Z</time>
      </trkpt>
      <trkpt lat="45.176388" lon="5.402664">
        <ele>250.400823</ele>
        <time>2017-06-04T10:48:33.000Z</time>
      </trkpt>
      <trkpt lat="45.176353" lon="5.402540">
        <ele>250.038995</ele>
        <time>2017-06-04T10:48:35.000Z</time>
      </trkpt>
      <trkpt lat="45.176323" lon="5.402409">
        <ele>249.665876</ele>
        <time>2017-06-04T10:48:37.000Z</time>
      </trkpt>
      <trkpt lat="45.176300" lon="5.402249">
        <ele>249.223535</ele>
        <time>2017-06-04T10:48:39.000Z</time>
      </trkpt>
      <trkpt lat="45.176296" lon="5.402078">
        <ele>248.760061</ele>
        <time>2017-06-04T10:48:41.000Z</time>
      </trkpt>
      <trkpt lat="45.176300" lon="5.401897">
        <ele>248.269512</ele>
        <time>2017-06-04T10:48:43.000Z</time>
      </trkpt>
      <trkpt lat="45.176300" lon="5.401730">
        <ele>247.817129</ele>
        <time>2017-06-04T10:48:45.000Z</time>
      </trkpt>
      <trkpt lat="45.176300" lon="5.401588">
        <ele>247.432468</ele>
        <time>2017-06-04T10:48:47.000Z</time>
      </trkpt>
      <trkpt lat="45.176273" lon="5.401417">
        <ele>246.957771</ele>
        <time>2017-06-04T10:48:50.000Z</time>
      </trkpt>
      <trkpt lat="45.176230" lon="5.401267">
        <ele>246.571713</ele>
        <time>2017-06-04T10:48:53.000Z</time>
      </trkpt>
      <trkpt lat="45.176197" lon="5.401111">
        <ele>246.200878</ele>
        <time>2017-06-04T10:48:56.000Z</time>
      </trkpt>
      <trkpt lat="45.176147" lon="5.400964">
        <ele>245.829259</ele>
        <time>2017-06-04T10:48:58.000Z</time>
      </trkpt>
      <trkpt lat="45.176098" lon="5.400830">
        <ele>245.485556</ele>
        <time>2017-06-04T10:49:00.000Z</time>
      </trkpt>
      <trkpt lat="45.176044" lon="5.400696">
        <ele>245.134125</ele>
        <time>2017-06-04T10:49:02.000Z</time>
      </trkpt>
      <trkpt lat="45.175995" lon="5.400562">
        <ele>244.790422</ele>
        <time>2017-06-04T10:49:04.000Z</time>
      </trkpt>
      <trkpt lat="45.175950" lon="5.400421">
        <ele>244.438017</ele>
        <time>2017-06-04T10:49:06.000Z</time>
      </trkpt>
      <trkpt lat="45.175907" lon="5.400289">
        <ele>244.106935</ele>
        <time>2017-06-04T10:49:08.000Z</time>
      </trkpt>
      <trkpt lat="45.175873" lon="5.400147">
        <ele>243.765481</ele>
        <time>2017-06-04T10:49:10.000Z</time>
      </trkpt>
      <trkpt lat="45.175835" lon="5.400011">
        <ele>243.432392</ele>
        <time>2017-06-04T10:49:12.000Z</time>
      </trkpt>
      <trkpt lat="45.175793" lon="5.399870">
        <ele>243.083872</ele>
        <time>2017-06-04T10:49:14.000Z</time>
      </trkpt>
      <trkpt lat="45.175747" lon="5.399741">
        <ele>242.754718</ele>
        <time>2017-06-04T10:49:16.000Z</time>
      </trkpt>
      <trkpt lat="45.175686" lon="5.399617">
        <ele>242.410439</ele>
        <time>2017-06-04T10:49:18.000Z</time>
      </trkpt>
      <trkpt lat="45.175606" lon="5.399515">
        <ele>242.063018</ele>
        <time>2017-06-04T10:49:20.000Z</time>
      </trkpt>
      <trkpt lat="45.175514" lon="5.399427">
        <ele>241.704628</ele>
        <time>2017-06-04T10:49:22.000Z</time>
      </trkpt>
      <trkpt lat="45.175404" lon="5.399352">
        <ele>241.310434</ele>
        <time>2017-06-04T10:49:24.000Z</time>
      </trkpt>
      <trkpt lat="45.175304" lon="5.399272">
        <ele>241.076532</ele>
        <time>2017-06-04T10:49:26.000Z</time>
      </trkpt>
      <trkpt lat="45.175205" lon="5.399191">
        <ele>241.213725</ele>
        <time>2017-06-04T10:49:28.000Z</time>
      </trkpt>
      <trkpt lat="45.175117" lon="5.399095">
        <ele>241.346988</ele>
        <time>2017-06-04T10:49:30.000Z</time>
      </trkpt>
      <trkpt lat="45.175045" lon="5.398989">
        <ele>241.471553</ele>
        <time>2017-06-04T10:49:32.000Z</time>
      </trkpt>
      <trkpt lat="45.174988" lon="5.398872">
        <ele>241.591906</ele>
        <time>2017-06-04T10:49:34.000Z</time>
      </trkpt>
      <trkpt lat="45.174915" lon="5.398712">
        <ele>241.753187</ele>
        <time>2017-06-04T10:49:37.000Z</time>
      </trkpt>
      <trkpt lat="45.174873" lon="5.398588">
        <ele>241.869605</ele>
        <time>2017-06-04T10:49:39.000Z</time>
      </trkpt>
      <trkpt lat="45.174854" lon="5.398454">
        <ele>241.985271</ele>
        <time>2017-06-04T10:49:41.000Z</time>
      </trkpt>
      <trkpt lat="45.174854" lon="5.398326">
        <ele>242.093590</ele>
        <time>2017-06-04T10:49:43.000Z</time>
      </trkpt>
      <trkpt lat="45.174870" lon="5.398161">
        <ele>242.234534</ele>
        <time>2017-06-04T10:49:46.000Z</time>
      </trkpt>
      <trkpt lat="45.174904" lon="5.398010">
        <ele>242.368675</ele>
        <time>2017-06-04T10:49:49.000Z</time>
      </trkpt>
      <trkpt lat="45.174960" lon="5.397883">
        <ele>242.495440</ele>
        <time>2017-06-04T10:49:52.000Z</time>
      </trkpt>
      <trkpt lat="45.175026" lon="5.397751">
        <ele>242.632388</ele>
        <time>2017-06-04T10:49:55.000Z</time>
      </trkpt>
      <trkpt lat="45.175070" lon="5.397585">
        <ele>242.782465</ele>
        <time>2017-06-04T10:49:58.000Z</time>
      </trkpt>
      <trkpt lat="45.175106" lon="5.397425">
        <ele>242.924591</ele>
        <time>2017-06-04T10:50:01.000Z</time>
      </trkpt>
      <trkpt lat="45.175117" lon="5.397262">
        <ele>243.063158</ele>
        <time>2017-06-04T10:50:04.000Z</time>
      </trkpt>
      <trkpt lat="45.175110" lon="5.397107">
        <ele>243.194593</ele>
        <time>2017-06-04T10:50:07.000Z</time>
      </trkpt>
      <trkpt lat="45.175076" lon="5.396968">
        <ele>243.505281</ele>
        <time>2017-06-04T10:50:10.000Z</time>
      </trkpt>
      <trkpt lat="45.175030" lon="5.396823">
        <ele>243.847703</ele>
        <time>2017-06-04T10:50:13.000Z</time>
      </trkpt>
      <trkpt lat="45.174976" lon="5.396700">
        <ele>244.159753</ele>
        <time>2017-06-04T10:50:16.000Z</time>
      </trkpt>
      <trkpt lat="45.174927" lon="5.396564">
        <ele>244.488667</ele>
        <time>2017-06-04T10:50:19.000Z</time>
      </trkpt>
      <trkpt lat="45.174873" lon="5.396427">
        <ele>244.826686</ele>
        <time>2017-06-04T10:50:22.000Z</time>
      </trkpt>
      <trkpt lat="45.174824" lon="5.396300">
        <ele>245.138466</ele>
        <time>2017-06-04T10:50:25.000Z</time>
      </trkpt>
      <trkpt lat="45.174760" lon="5.396177">
        <ele>245.467689</ele>
        <time>2017-06-04T10:50:28.000Z</time>
      </trkpt>
      <trkpt lat="45.174694" lon="5.396051">
        <ele>245.805741</ele>
        <time>2017-06-04T10:50:31.000Z</time>
      </trkpt>
      <trkpt lat="45.174618" lon="5.395948">
        <ele>246.126839</ele>
        <time>2017-06-04T10:50:34.000Z</time>
      </trkpt>
      <trkpt lat="45.174545" lon="5.395852">
        <ele>246.430932</ele>
        <time>2017-06-04T10:50:37.000Z</time>
      </trkpt>
      <trkpt lat="45.174460" lon="5.395773">
        <ele>246.741366</ele>
        <time>2017-06-04T10:50:40.000Z</time>
      </trkpt>
      <trkpt lat="45.174374" lon="5.395702">
        <ele>247.045339</ele>
        <time>2017-06-04T10:50:43.000Z</time>
      </trkpt>
      <trkpt lat="45.174286" lon="5.395641">
        <ele>247.344548</ele>
        <time>2017-06-04T10:50:46.000Z</time>
      </trkpt>
      <trkpt lat="45.174200" lon="5.395574">
        <ele>247.644281</ele>
        <time>2017-06-04T10:50:49.000Z</time>
      </trkpt>
      <trkpt lat="45.174110" lon="5.395513">
        <ele>247.948991</ele>
        <time>2017-06-04T10:50:52.000Z</time>
      </trkpt>
      <trkpt lat="45.174020" lon="5.395462">
        <ele>248.245056</ele>
        <time>2017-06-04T10:50:55.000Z</time>
      </trkpt>
      <trkpt lat="45.173923" lon="5.395403">
        <ele>248.567470</ele>
        <time>2017-06-04T10:50:58.000Z</time>
      </trkpt>
      <trkpt lat="45.173830" lon="5.395348">
        <ele>248.929973</ele>
        <time>2017-06-04T10:51:01.000Z</time>
      </trkpt>
      <trkpt lat="45.173740" lon="5.395292">
        <ele>249.320391</ele>
        <time>2017-06-04T10:51:04.000Z</time>
      </trkpt>
      <trkpt lat="45.173653" lon="5.395237">
        <ele>249.698778</ele>
        <time>2017-06-04T10:51:07.000Z</time>
      </trkpt>
      <trkpt lat="45.173570" lon="5.395156">
        <ele>250.098999</ele>
        <time>2017-06-04T10:51:10.000Z</time>
      </trkpt>
      <trkpt lat="45.173485" lon="5.395081">
        <ele>250.496667</ele>
        <time>2017-06-04T10:51:13.000Z</time>
      </trkpt>
      <trkpt lat="45.173405" lon="5.395018">
        <ele>250.860165</ele>
        <time>2017-06-04T10:51:16.000Z</time>
      </trkpt>
      <trkpt lat="45.173332" lon="5.394935">
        <ele>251.231825</ele>
        <time>2017-06-04T10:51:19.000Z</time>
      </trkpt>
      <trkpt lat="45.173240" lon="5.394826">
        <ele>251.708018</ele>
        <time>2017-06-04T10:51:23.000Z</time>
      </trkpt>
      <trkpt lat="45.173153" lon="5.394745">
        <ele>252.121430</ele>
        <time>2017-06-04T10:51:26.000Z</time>
      </trkpt>
      <trkpt lat="45.173077" lon="5.394657">
        <ele>252.511163</ele>
        <time>2017-06-04T10:51:29.000Z</time>
      </trkpt>
      <trkpt lat="45.173004" lon="5.394568">
        <ele>252.893558</ele>
        <time>2017-06-04T10:51:32.000Z</time>
      </trkpt>
      <trkpt lat="45.172928" lon="5.394487">
        <ele>253.271200</ele>
        <time>2017-06-04T10:51:35.000Z</time>
      </trkpt>
      <trkpt lat="45.172844" lon="5.394404">
        <ele>253.677878</ele>
        <time>2017-06-04T10:51:38.000Z</time>
      </trkpt>
      <trkpt lat="45.172770" lon="5.394318">
        <ele>254.057916</ele>
        <time>2017-06-04T10:51:41.000Z</time>
      </trkpt>
      <trkpt lat="45.172700" lon="5.394234">
        <ele>254.422157</ele>
        <time>2017-06-04T10:51:44.000Z</time>
      </trkpt>
      <trkpt lat="45.172626" lon="5.394142">
        <ele>254.813061</ele>
        <time>2017-06-04T10:51:47.000Z</time>
      </trkpt>
      <trkpt lat="45.172550" lon="5.394050">
        <ele>255.209974</ele>
        <time>2017-06-04T10:51:50.000Z</time>
      </trkpt>
      <trkpt lat="45.172474" lon="5.393951">
        <ele>255.619884</ele>
        <time>2017-06-04T10:51:53.000Z</time>
      </trkpt>
      <trkpt lat="45.172405" lon="5.393848">
        <ele>256.058723</ele>
        <time>2017-06-04T10:51:56.000Z</time>
      </trkpt>
      <trkpt lat="45.172333" lon="5.393745">
        <ele>256.557641</ele>
        <time>2017-06-04T10:51:59.000Z</time>
      </trkpt>
      <trkpt lat="45.172268" lon="5.393643">
        <ele>257.030573</ele>
        <time>2017-06-04T10:52:02.000Z</time>
      </trkpt>
      <trkpt lat="45.172207" lon="5.393531">
        <ele>257.517384</ele>
        <time>2017-06-04T10:52:05.000Z</time>
      </trkpt>
      <trkpt lat="45.172153" lon="5.393417">
        <ele>257.989794</ele>
        <time>2017-06-04T10:52:08.000Z</time>
      </trkpt>
      <trkpt lat="45.172104" lon="5.393264">
        <ele>258.567814</ele>
        <time>2017-06-04T10:52:12.000Z</time>
      </trkpt>
      <trkpt lat="45.172080" lon="5.393138">
        <ele>259.016746</ele>
        <time>2017-06-04T10:52:15.000Z</time>
      </trkpt>
      <trkpt lat="45.172047" lon="5.393005">
        <ele>259.501723</ele>
        <time>2017-06-04T10:52:18.000Z</time>
      </trkpt>
      <trkpt lat="45.172016" lon="5.392873">
        <ele>259.980284</ele>
        <time>2017-06-04T10:52:21.000Z</time>
      </trkpt>
      <trkpt lat="45.171980" lon="5.392722">
        <ele>260.528563</ele>
        <time>2017-06-04T10:52:25.000Z</time>
      </trkpt>
      <trkpt lat="45.171932" lon="5.392592">
        <ele>261.033332</ele>
        <time>2017-06-04T10:52:28.000Z</time>
      </trkpt>
      <trkpt lat="45.171856" lon="5.392490">
        <ele>261.543810</ele>
        <time>2017-06-04T10:52:31.000Z</time>
      </trkpt>
      <trkpt lat="45.171800" lon="5.392368">
        <ele>262.044557</ele>
        <time>2017-06-04T10:52:34.000Z</time>
      </trkpt>
      <trkpt lat="45.171722" lon="5.392262">
        <ele>262.571590</ele>
        <time>2017-06-04T10:52:37.000Z</time>
      </trkpt>
      <trkpt lat="45.171658" lon="5.392160">
        <ele>263.041267</ele>
        <time>2017-06-04T10:52:40.000Z</time>
      </trkpt>
      <trkpt lat="45.171585" lon="5.392059">
        <ele>263.538808</ele>
        <time>2017-06-04T10:52:43.000Z</time>
      </trkpt>
      <trkpt lat="45.171524" lon="5.391960">
        <ele>263.991064</ele>
        <time>2017-06-04T10:52:46.000Z</time>
      </trkpt>
      <trkpt lat="45.171448" lon="5.391873">
        <ele>264.467560</ele>
        <time>2017-06-04T10:52:49.000Z</time>
      </trkpt>
      <trkpt lat="45.171356" lon="5.391767">
        <ele>264.801747</ele>
        <time>2017-06-04T10:52:53.000Z</time>
      </trkpt>
      <trkpt lat="45.171295" lon="5.391644">
        <ele>265.026527</ele>
        <time>2017-06-04T10:52:56.000Z</time>
      </trkpt>
      <trkpt lat="45.171215" lon="5.391546">
        <ele>265.250637</ele>
        <time>2017-06-04T10:52:59.000Z</time>
      </trkpt>
      <trkpt lat="45.171146" lon="5.391454">
        <ele>265.451413</ele>
        <time>2017-06-04T10:53:02.000Z</time>
      </trkpt>
      <trkpt lat="45.171062" lon="5.391374">
        <ele>265.665927</ele>
        <time>2017-06-04T10:53:05.000Z</time>
      </trkpt>
      <trkpt lat="45.170970" lon="5.391312">
        <ele>265.881877</ele>
        <time>2017-06-04T10:53:08.000Z</time>
      </trkpt>
      <trkpt lat="45.170890" lon="5.391253">
        <ele>266.073047</ele>
        <time>2017-06-04T10:53:11.000Z</time>
      </trkpt>
      <trkpt lat="45.170784" lon="5.391174">
        <ele>266.326918</ele>
        <time>2017-06-04T10:53:15.000Z</time>
      </trkpt>
      <trkpt lat="45.170708" lon="5.391104">
        <ele>266.519041</ele>
        <time>2017-06-04T10:53:18.000Z</time>
      </trkpt>
      <trkpt lat="45.170624" lon="5.391039">
        <ele>266.721913</ele>
        <time>2017-06-04T10:53:21.000Z</time>
      </trkpt>
      <trkpt lat="45.170544" lon="5.390965">
        <ele>266.924405</ele>
        <time>2017-06-04T10:53:24.000Z</time>
      </trkpt>
      <trkpt lat="45.170464" lon="5.390890">
        <ele>267.127718</ele>
        <time>2017-06-04T10:53:27.000Z</time>
      </trkpt>
      <trkpt lat="45.170383" lon="5.390820">
        <ele>267.328815</ele>
        <time>2017-06-04T10:53:30.000Z</time>
      </trkpt>
      <trkpt lat="45.170310" lon="5.390728">
        <ele>267.535852</ele>
        <time>2017-06-04T10:53:33.000Z</time>
      </trkpt>
      <trkpt lat="45.170246" lon="5.390626">
        <ele>267.739952</ele>
        <time>2017-06-04T10:53:36.000Z</time>
      </trkpt>
      <trkpt lat="45.170190" lon="5.390519">
        <ele>267.939141</ele>
        <time>2017-06-04T10:53:39.000Z</time>
      </trkpt>
      <trkpt lat="45.170128" lon="5.390416">
        <ele>268.141581</ele>
        <time>2017-06-04T10:53:42.000Z</time>
      </trkpt>
      <trkpt lat="45.170070" lon="5.390307">
        <ele>268.345704</ele>
        <time>2017-06-04T10:53:45.000Z</time>
      </trkpt>
      <trkpt lat="45.170013" lon="5.390201">
        <ele>268.625945</ele>
        <time>2017-06-04T10:53:48.000Z</time>
      </trkpt>
      <trkpt lat="45.169952" lon="5.390091">
        <ele>268.979426</ele>
        <time>2017-06-04T10:53:51.000Z</time>
      </trkpt>
      <trkpt lat="45.169895" lon="5.389981">
        <ele>269.324232</ele>
        <time>2017-06-04T10:53:54.000Z</time>
      </trkpt>
      <trkpt lat="45.169834" lon="5.389869">
        <ele>269.681697</ele>
        <time>2017-06-04T10:53:57.000Z</time>
      </trkpt>
      <trkpt lat="45.169773" lon="5.389763">
        <ele>270.027294</ele>
        <time>2017-06-04T10:54:00.000Z</time>
      </trkpt>
      <trkpt lat="45.169697" lon="5.389637">
        <ele>270.446118</ele>
        <time>2017-06-04T10:54:04.000Z</time>
      </trkpt>
      <trkpt lat="45.169636" lon="5.389537">
        <ele>270.780113</ele>
        <time>2017-06-04T10:54:07.000Z</time>
      </trkpt>
      <trkpt lat="45.169580" lon="5.389428">
        <ele>271.120766</ele>
        <time>2017-06-04T10:54:10.000Z</time>
      </trkpt>
      <trkpt lat="45.169520" lon="5.389322">
        <ele>271.464110</ele>
        <time>2017-06-04T10:54:13.000Z</time>
      </trkpt>
      <trkpt lat="45.169470" lon="5.389214">
        <ele>271.790449</ele>
        <time>2017-06-04T10:54:16.000Z</time>
      </trkpt>
      <trkpt lat="45.169430" lon="5.389101">
        <ele>272.109816</ele>
        <time>2017-06-04T10:54:19.000Z</time>
      </trkpt>
      <trkpt lat="45.169376" lon="5.388948">
        <ele>272.541978</ele>
        <time>2017-06-04T10:54:23.000Z</time>
      </trkpt>
      <trkpt lat="45.169327" lon="5.388840">
        <ele>272.866365</ele>
        <time>2017-06-04T10:54:26.000Z</time>
      </trkpt>
      <trkpt lat="45.169273" lon="5.388732">
        <ele>273.200785</ele>
        <time>2017-06-04T10:54:29.000Z</time>
      </trkpt>
      <trkpt lat="45.169200" lon="5.388635">
        <ele>273.559145</ele>
        <time>2017-06-04T10:54:32.000Z</time>
      </trkpt>
      <trkpt lat="45.169120" lon="5.388547">
        <ele>273.921838</ele>
        <time>2017-06-04T10:54:35.000Z</time>
      </trkpt>
      <trkpt lat="45.169040" lon="5.388461">
        <ele>274.281458</ele>
        <time>2017-06-04T10:54:38.000Z</time>
      </trkpt>
      <trkpt lat="45.168960" lon="5.388370">
        <ele>274.648844</ele>
        <time>2017-06-04T10:54:41.000Z</time>
      </trkpt>
      <trkpt lat="45.168884" lon="5.388289">
        <ele>274.929105</ele>
        <time>2017-06-04T10:54:44.000Z</time>
      </trkpt>
      <trkpt lat="45.168800" lon="5.388221">
        <ele>275.098586</ele>
        <time>2017-06-04T10:54:47.000Z</time>
      </trkpt>
      <trkpt lat="45.168713" lon="5.388135">
        <ele>275.284409</ele>
        <time>2017-06-04T10:54:50.000Z</time>
      </trkpt>
      <trkpt lat="45.168636" lon="5.388059">
        <ele>275.448791</ele>
        <time>2017-06-04T10:54:53.000Z</time>
      </trkpt>
      <trkpt lat="45.168550" lon="5.387989">
        <ele>275.622541</ele>
        <time>2017-06-04T10:54:56.000Z</time>
      </trkpt>
      <trkpt lat="45.168465" lon="5.387926">
        <ele>275.790598</ele>
        <time>2017-06-04T10:54:59.000Z</time>
      </trkpt>
      <trkpt lat="45.168385" lon="5.387868">
        <ele>275.948036</ele>
        <time>2017-06-04T10:55:02.000Z</time>
      </trkpt>
      <trkpt lat="45.168270" lon="5.387811">
        <ele>276.161503</ele>
        <time>2017-06-04T10:55:06.000Z</time>
      </trkpt>
      <trkpt lat="45.168182" lon="5.387747">
        <ele>276.334796</ele>
        <time>2017-06-04T10:55:09.000Z</time>
      </trkpt>
      <trkpt lat="45.168083" lon="5.387672">
        <ele>276.531471</ele>
        <time>2017-06-04T10:55:12.000Z</time>
      </trkpt>
      <trkpt lat="45.167984" lon="5.387630">
        <ele>276.712544</ele>
        <time>2017-06-04T10:55:15.000Z</time>
      </trkpt>
      <trkpt lat="45.167885" lon="5.387597">
        <ele>276.890751</ele>
        <time>2017-06-04T10:55:18.000Z</time>
      </trkpt>
      <trkpt lat="45.167778" lon="5.387551">
        <ele>277.086673</ele>
        <time>2017-06-04T10:55:21.000Z</time>
      </trkpt>
      <trkpt lat="45.167675" lon="5.387488">
        <ele>277.283229</ele>
        <time>2017-06-04T10:55:24.000Z</time>
      </trkpt>
      <trkpt lat="45.167570" lon="5.387433">
        <ele>277.479369</ele>
        <time>2017-06-04T10:55:27.000Z</time>
      </trkpt>
      <trkpt lat="45.167458" lon="5.387372">
        <ele>277.689601</ele>
        <time>2017-06-04T10:55:30.000Z</time>
      </trkpt>
      <trkpt lat="45.167355" lon="5.387312">
        <ele>277.884720</ele>
        <time>2017-06-04T10:55:33.000Z</time>
      </trkpt>
      <trkpt lat="45.167267" lon="5.387259">
        <ele>278.048205</ele>
        <time>2017-06-04T10:55:36.000Z</time>
      </trkpt>
      <trkpt lat="45.167168" lon="5.387188">
        <ele>278.215567</ele>
        <time>2017-06-04T10:55:39.000Z</time>
      </trkpt>
      <trkpt lat="45.167080" lon="5.387136">
        <ele>278.359388</ele>
        <time>2017-06-04T10:55:42.000Z</time>
      </trkpt>
      <trkpt lat="45.166985" lon="5.387074">
        <ele>278.517153</ele>
        <time>2017-06-04T10:55:45.000Z</time>
      </trkpt>
      <trkpt lat="45.166890" lon="5.387024">
        <ele>278.670023</ele>
        <time>2017-06-04T10:55:48.000Z</time>
      </trkpt>
      <trkpt lat="45.166786" lon="5.386978">
        <ele>278.834373</ele>
        <time>2017-06-04T10:55:51.000Z</time>
      </trkpt>
      <trkpt lat="45.166670" lon="5.386920">
        <ele>279.019930</ele>
        <time>2017-06-04T10:55:54.000Z</time>
      </trkpt>
      <trkpt lat="45.166570" lon="5.386865">
        <ele>279.181740</ele>
        <time>2017-06-04T10:55:57.000Z</time>
      </trkpt>
      <trkpt lat="45.166473" lon="5.386810">
        <ele>279.339338</ele>
        <time>2017-06-04T10:56:00.000Z</time>
      </trkpt>
      <trkpt lat="45.166374" lon="5.386759">
        <ele>279.498239</ele>
        <time>2017-06-04T10:56:03.000Z</time>
      </trkpt>
      <trkpt lat="45.166270" lon="5.386704">
        <ele>279.665689</ele>
        <time>2017-06-04T10:56:06.000Z</time>
      </trkpt>
      <trkpt lat="45.166170" lon="5.386649">
        <ele>279.827498</ele>
        <time>2017-06-04T10:56:09.000Z</time>
      </trkpt>
      <trkpt lat="45.166054" lon="5.386589">
        <ele>280.013774</ele>
        <time>2017-06-04T10:56:12.000Z</time>
      </trkpt>
      <trkpt lat="45.165943" lon="5.386525">
        <ele>280.194541</ele>
        <time>2017-06-04T10:56:15.000Z</time>
      </trkpt>
      <trkpt lat="45.165830" lon="5.386459">
        <ele>280.378906</ele>
        <time>2017-06-04T10:56:18.000Z</time>
      </trkpt>
      <trkpt lat="45.165714" lon="5.386388">
        <ele>280.569508</ele>
        <time>2017-06-04T10:56:21.000Z</time>
      </trkpt>
      <trkpt lat="45.165600" lon="5.386330">
        <ele>280.725298</ele>
        <time>2017-06-04T10:56:24.000Z</time>
      </trkpt>
      <trkpt lat="45.165493" lon="5.386269">
        <ele>280.598222</ele>
        <time>2017-06-04T10:56:27.000Z</time>
      </trkpt>
      <trkpt lat="45.165375" lon="5.386204">
        <ele>280.458731</ele>
        <time>2017-06-04T10:56:30.000Z</time>
      </trkpt>
      <trkpt lat="45.165253" lon="5.386146">
        <ele>280.316943</ele>
        <time>2017-06-04T10:56:33.000Z</time>
      </trkpt>
      <trkpt lat="45.165127" lon="5.386072">
        <ele>280.166666</ele>
        <time>2017-06-04T10:56:36.000Z</time>
      </trkpt>
      <trkpt lat="45.165047" lon="5.386015">
        <ele>280.068012</ele>
        <time>2017-06-04T10:56:38.000Z</time>
      </trkpt>
      <trkpt lat="45.164930" lon="5.385946">
        <ele>279.928384</ele>
        <time>2017-06-04T10:56:41.000Z</time>
      </trkpt>
      <trkpt lat="45.164810" lon="5.385884">
        <ele>279.787651</ele>
        <time>2017-06-04T10:56:44.000Z</time>
      </trkpt>
      <trkpt lat="45.164690" lon="5.385819">
        <ele>279.646103</ele>
        <time>2017-06-04T10:56:47.000Z</time>
      </trkpt>
      <trkpt lat="45.164566" lon="5.385751">
        <ele>279.499604</ele>
        <time>2017-06-04T10:56:50.000Z</time>
      </trkpt>
      <trkpt lat="45.164448" lon="5.385690">
        <ele>279.361208</ele>
        <time>2017-06-04T10:56:53.000Z</time>
      </trkpt>
      <trkpt lat="45.164330" lon="5.385630">
        <ele>279.223075</ele>
        <time>2017-06-04T10:56:56.000Z</time>
      </trkpt>
      <trkpt lat="45.164204" lon="5.385555">
        <ele>279.072499</ele>
        <time>2017-06-04T10:56:59.000Z</time>
      </trkpt>
      <trkpt lat="45.164120" lon="5.385502">
        <ele>278.971189</ele>
        <time>2017-06-04T10:57:01.000Z</time>
      </trkpt>
      <trkpt lat="45.164000" lon="5.385440">
        <ele>278.830456</ele>
        <time>2017-06-04T10:57:04.000Z</time>
      </trkpt>
      <trkpt lat="45.163887" lon="5.385376">
        <ele>278.731247</ele>
        <time>2017-06-04T10:57:07.000Z</time>
      </trkpt>
      <trkpt lat="45.163765" lon="5.385314">
        <ele>278.673867</ele>
        <time>2017-06-04T10:57:10.000Z</time>
      </trkpt>
      <trkpt lat="45.163660" lon="5.385251">
        <ele>278.623387</ele>
        <time>2017-06-04T10:57:13.000Z</time>
      </trkpt>
      <trkpt lat="45.163555" lon="5.385188">
        <ele>278.572908</ele>
        <time>2017-06-04T10:57:16.000Z</time>
      </trkpt>
      <trkpt lat="45.163452" lon="5.385129">
        <ele>278.523725</ele>
        <time>2017-06-04T10:57:19.000Z</time>
      </trkpt>
      <trkpt lat="45.163353" lon="5.385086">
        <ele>278.477882</ele>
        <time>2017-06-04T10:57:22.000Z</time>
      </trkpt>
      <trkpt lat="45.163250" lon="5.385024">
        <ele>278.428340</ele>
        <time>2017-06-04T10:57:25.000Z</time>
      </trkpt>
      <trkpt lat="45.163150" lon="5.384966">
        <ele>278.380504</ele>
        <time>2017-06-04T10:57:28.000Z</time>
      </trkpt>
      <trkpt lat="45.163060" lon="5.384917">
        <ele>278.337821</ele>
        <time>2017-06-04T10:57:31.000Z</time>
      </trkpt>
      <trkpt lat="45.162970" lon="5.384872">
        <ele>278.295568</ele>
        <time>2017-06-04T10:57:34.000Z</time>
      </trkpt>
      <trkpt lat="45.162880" lon="5.384824">
        <ele>278.252995</ele>
        <time>2017-06-04T10:57:38.000Z</time>
      </trkpt>
      <trkpt lat="45.162807" lon="5.384748">
        <ele>278.212900</ele>
        <time>2017-06-04T10:57:42.000Z</time>
      </trkpt>
      <trkpt lat="45.162796" lon="5.384510">
        <ele>278.138439</ele>
        <time>2017-06-04T10:58:21.000Z</time>
      </trkpt>
      <trkpt lat="45.162766" lon="5.384343">
        <ele>278.084638</ele>
        <time>2017-06-04T10:58:25.000Z</time>
      </trkpt>
      <trkpt lat="45.162750" lon="5.384196">
        <ele>278.038203</ele>
        <time>2017-06-04T10:58:28.000Z</time>
      </trkpt>
      <trkpt lat="45.162720" lon="5.384014">
        <ele>277.979852</ele>
        <time>2017-06-04T10:58:31.000Z</time>
      </trkpt>
      <trkpt lat="45.162704" lon="5.383883">
        <ele>277.933757</ele>
        <time>2017-06-04T10:58:33.000Z</time>
      </trkpt>
      <trkpt lat="45.162678" lon="5.383716">
        <ele>277.868082</ele>
        <time>2017-06-04T10:58:36.000Z</time>
      </trkpt>
      <trkpt lat="45.162663" lon="5.383591">
        <ele>277.819391</ele>
        <time>2017-06-04T10:58:38.000Z</time>
      </trkpt>
      <trkpt lat="45.162630" lon="5.383435">
        <ele>277.756848</ele>
        <time>2017-06-04T10:58:41.000Z</time>
      </trkpt>
      <trkpt lat="45.162600" lon="5.383299">
        <ele>277.702126</ele>
        <time>2017-06-04T10:58:44.000Z</time>
      </trkpt>
      <trkpt lat="45.162575" lon="5.383138">
        <ele>277.638819</ele>
        <time>2017-06-04T10:58:47.000Z</time>
      </trkpt>
      <trkpt lat="45.162550" lon="5.382981">
        <ele>277.577011</ele>
        <time>2017-06-04T10:58:50.000Z</time>
      </trkpt>
      <trkpt lat="45.162502" lon="5.382826">
        <ele>277.512002</ele>
        <time>2017-06-04T10:58:53.000Z</time>
      </trkpt>
      <trkpt lat="45.162440" lon="5.382723">
        <ele>277.459996</ele>
        <time>2017-06-04T10:58:55.000Z</time>
      </trkpt>
      <trkpt lat="45.162357" lon="5.382593">
        <ele>277.392650</ele>
        <time>2017-06-04T10:58:58.000Z</time>
      </trkpt>
      <trkpt lat="45.162277" lon="5.382454">
        <ele>277.323748</ele>
        <time>2017-06-04T10:59:01.000Z</time>
      </trkpt>
      <trkpt lat="45.162224" lon="5.382349">
        <ele>277.274160</ele>
        <time>2017-06-04T10:59:03.000Z</time>
      </trkpt>
      <trkpt lat="45.162170" lon="5.382245">
        <ele>277.224562</ele>
        <time>2017-06-04T10:59:05.000Z</time>
      </trkpt>
      <trkpt lat="45.162117" lon="5.382141">
        <ele>277.175286</ele>
        <time>2017-06-04T10:59:07.000Z</time>
      </trkpt>
      <trkpt lat="45.162045" lon="5.381996">
        <ele>277.107182</ele>
        <time>2017-06-04T10:59:10.000Z</time>
      </trkpt>
      <trkpt lat="45.161976" lon="5.381860">
        <ele>277.042842</ele>
        <time>2017-06-04T10:59:13.000Z</time>
      </trkpt>
      <trkpt lat="45.161900" lon="5.381714">
        <ele>276.974266</ele>
        <time>2017-06-04T10:59:16.000Z</time>
      </trkpt>
      <trkpt lat="45.161808" lon="5.381582">
        <ele>276.917240</ele>
        <time>2017-06-04T10:59:19.000Z</time>
      </trkpt>
      <trkpt lat="45.161736" lon="5.381504">
        <ele>276.877761</ele>
        <time>2017-06-04T10:59:21.000Z</time>
      </trkpt>
      <trkpt lat="45.161663" lon="5.381424">
        <ele>276.837561</ele>
        <time>2017-06-04T10:59:23.000Z</time>
      </trkpt>
      <trkpt lat="45.161590" lon="5.381342">
        <ele>276.796983</ele>
        <time>2017-06-04T10:59:25.000Z</time>
      </trkpt>
      <trkpt lat="45.161480" lon="5.381232">
        <ele>276.738334</ele>
        <time>2017-06-04T10:59:28.000Z</time>
      </trkpt>
      <trkpt lat="45.161377" lon="5.381111">
        <ele>276.680055</ele>
        <time>2017-06-04T10:59:31.000Z</time>
      </trkpt>
      <trkpt lat="45.161304" lon="5.381018">
        <ele>276.637296</ele>
        <time>2017-06-04T10:59:33.000Z</time>
      </trkpt>
      <trkpt lat="45.161236" lon="5.380926">
        <ele>276.596345</ele>
        <time>2017-06-04T10:59:35.000Z</time>
      </trkpt>
      <trkpt lat="45.161156" lon="5.380850">
        <ele>276.554387</ele>
        <time>2017-06-04T10:59:37.000Z</time>
      </trkpt>
      <trkpt lat="45.161087" lon="5.380769">
        <ele>276.515357</ele>
        <time>2017-06-04T10:59:39.000Z</time>
      </trkpt>
      <trkpt lat="45.161020" lon="5.380679">
        <ele>276.475145</ele>
        <time>2017-06-04T10:59:41.000Z</time>
      </trkpt>
      <trkpt lat="45.160954" lon="5.380581">
        <ele>276.433507</ele>
        <time>2017-06-04T10:59:43.000Z</time>
      </trkpt>
      <trkpt lat="45.160866" lon="5.380441">
        <ele>276.375882</ele>
        <time>2017-06-04T10:59:46.000Z</time>
      </trkpt>
      <trkpt lat="45.160810" lon="5.380338">
        <ele>276.335920</ele>
        <time>2017-06-04T10:59:48.000Z</time>
      </trkpt>
      <trkpt lat="45.160755" lon="5.380223">
        <ele>276.293225</ele>
        <time>2017-06-04T10:59:50.000Z</time>
      </trkpt>
      <trkpt lat="45.160698" lon="5.380098">
        <ele>276.247487</ele>
        <time>2017-06-04T10:59:52.000Z</time>
      </trkpt>
      <trkpt lat="45.160645" lon="5.379986">
        <ele>276.206044</ele>
        <time>2017-06-04T10:59:54.000Z</time>
      </trkpt>
      <trkpt lat="45.160603" lon="5.379870">
        <ele>276.205194</ele>
        <time>2017-06-04T10:59:56.000Z</time>
      </trkpt>
      <trkpt lat="45.160583" lon="5.379693">
        <ele>276.224605</ele>
        <time>2017-06-04T10:59:59.000Z</time>
      </trkpt>
      <trkpt lat="45.160560" lon="5.379563">
        <ele>276.239118</ele>
        <time>2017-06-04T11:00:01.000Z</time>
      </trkpt>
      <trkpt lat="45.160553" lon="5.379435">
        <ele>276.253020</ele>
        <time>2017-06-04T11:00:03.000Z</time>
      </trkpt>
      <trkpt lat="45.160520" lon="5.379316">
        <ele>276.266867</ele>
        <time>2017-06-04T11:00:05.000Z</time>
      </trkpt>
      <trkpt lat="45.160460" lon="5.379188">
        <ele>276.283511</ele>
        <time>2017-06-04T11:00:07.000Z</time>
      </trkpt>
      <trkpt lat="45.160390" lon="5.379067">
        <ele>276.300459</ele>
        <time>2017-06-04T11:00:09.000Z</time>
      </trkpt>
      <trkpt lat="45.160300" lon="5.378977">
        <ele>276.317371</ele>
        <time>2017-06-04T11:00:11.000Z</time>
      </trkpt>
      <trkpt lat="45.160220" lon="5.378895">
        <ele>276.332530</ele>
        <time>2017-06-04T11:00:13.000Z</time>
      </trkpt>
      <trkpt lat="45.160156" lon="5.378803">
        <ele>276.346524</ele>
        <time>2017-06-04T11:00:15.000Z</time>
      </trkpt>
      <trkpt lat="45.160072" lon="5.378663">
        <ele>276.366430</ele>
        <time>2017-06-04T11:00:18.000Z</time>
      </trkpt>
      <trkpt lat="45.160000" lon="5.378525">
        <ele>276.385019</ele>
        <time>2017-06-04T11:00:21.000Z</time>
      </trkpt>
      <trkpt lat="45.159930" lon="5.378374">
        <ele>276.404588</ele>
        <time>2017-06-04T11:00:24.000Z</time>
      </trkpt>
      <trkpt lat="45.159874" lon="5.378221">
        <ele>276.423255</ele>
        <time>2017-06-04T11:00:27.000Z</time>
      </trkpt>
      <trkpt lat="45.159817" lon="5.378111">
        <ele>276.438037</ele>
        <time>2017-06-04T11:00:29.000Z</time>
      </trkpt>
      <trkpt lat="45.159763" lon="5.378001">
        <ele>276.452551</ele>
        <time>2017-06-04T11:00:31.000Z</time>
      </trkpt>
      <trkpt lat="45.159687" lon="5.377912">
        <ele>276.467687</ele>
        <time>2017-06-04T11:00:33.000Z</time>
      </trkpt>
      <trkpt lat="45.159610" lon="5.377824">
        <ele>276.515639</ele>
        <time>2017-06-04T11:00:35.000Z</time>
      </trkpt>
      <trkpt lat="45.159542" lon="5.377736">
        <ele>276.569430</ele>
        <time>2017-06-04T11:00:37.000Z</time>
      </trkpt>
      <trkpt lat="45.159454" lon="5.377605">
        <ele>276.643978</ele>
        <time>2017-06-04T11:00:40.000Z</time>
      </trkpt>
      <trkpt lat="45.159410" lon="5.377497">
        <ele>276.695371</ele>
        <time>2017-06-04T11:00:42.000Z</time>
      </trkpt>
      <trkpt lat="45.159363" lon="5.377384">
        <ele>276.749426</ele>
        <time>2017-06-04T11:00:44.000Z</time>
      </trkpt>
      <trkpt lat="45.159317" lon="5.377272">
        <ele>276.802831</ele>
        <time>2017-06-04T11:00:46.000Z</time>
      </trkpt>
      <trkpt lat="45.159264" lon="5.377161">
        <ele>276.858065</ele>
        <time>2017-06-04T11:00:48.000Z</time>
      </trkpt>
      <trkpt lat="45.159190" lon="5.377069">
        <ele>276.915568</ele>
        <time>2017-06-04T11:00:50.000Z</time>
      </trkpt>
      <trkpt lat="45.159122" lon="5.376971">
        <ele>276.972219</ele>
        <time>2017-06-04T11:00:52.000Z</time>
      </trkpt>
      <trkpt lat="45.159060" lon="5.376863">
        <ele>277.029601</ele>
        <time>2017-06-04T11:00:54.000Z</time>
      </trkpt>
      <trkpt lat="45.159008" lon="5.376745">
        <ele>277.086934</ele>
        <time>2017-06-04T11:00:56.000Z</time>
      </trkpt>
      <trkpt lat="45.158970" lon="5.376626">
        <ele>277.140759</ele>
        <time>2017-06-04T11:00:58.000Z</time>
      </trkpt>
      <trkpt lat="45.158924" lon="5.376508">
        <ele>277.196314</ele>
        <time>2017-06-04T11:01:00.000Z</time>
      </trkpt>
      <trkpt lat="45.158875" lon="5.376401">
        <ele>277.248883</ele>
        <time>2017-06-04T11:01:02.000Z</time>
      </trkpt>
      <trkpt lat="45.158820" lon="5.376290">
        <ele>277.304781</ele>
        <time>2017-06-04T11:01:04.000Z</time>
      </trkpt>
      <trkpt lat="45.158764" lon="5.376186">
        <ele>277.358698</ele>
        <time>2017-06-04T11:01:06.000Z</time>
      </trkpt>
      <trkpt lat="45.158700" lon="5.376087">
        <ele>277.414037</ele>
        <time>2017-06-04T11:01:08.000Z</time>
      </trkpt>
      <trkpt lat="45.158630" lon="5.375988">
        <ele>277.471804</ele>
        <time>2017-06-04T11:01:10.000Z</time>
      </trkpt>
      <trkpt lat="45.158560" lon="5.375884">
        <ele>277.527540</ele>
        <time>2017-06-04T11:01:12.000Z</time>
      </trkpt>
      <trkpt lat="45.158497" lon="5.375791">
        <ele>277.559664</ele>
        <time>2017-06-04T11:01:14.000Z</time>
      </trkpt>
      <trkpt lat="45.158440" lon="5.375695">
        <ele>277.590925</ele>
        <time>2017-06-04T11:01:16.000Z</time>
      </trkpt>
      <trkpt lat="45.158375" lon="5.375598">
        <ele>277.624257</ele>
        <time>2017-06-04T11:01:18.000Z</time>
      </trkpt>
      <trkpt lat="45.158310" lon="5.375490">
        <ele>277.659625</ele>
        <time>2017-06-04T11:01:20.000Z</time>
      </trkpt>
      <trkpt lat="45.158237" lon="5.375381">
        <ele>277.697071</ele>
        <time>2017-06-04T11:01:22.000Z</time>
      </trkpt>
      <trkpt lat="45.158160" lon="5.375279">
        <ele>277.734292</ele>
        <time>2017-06-04T11:01:24.000Z</time>
      </trkpt>
      <trkpt lat="45.158092" lon="5.375178">
        <ele>277.769077</ele>
        <time>2017-06-04T11:01:26.000Z</time>
      </trkpt>
      <trkpt lat="45.158012" lon="5.375081">
        <ele>277.806258</ele>
        <time>2017-06-04T11:01:28.000Z</time>
      </trkpt>
      <trkpt lat="45.157936" lon="5.374984">
        <ele>277.842377</ele>
        <time>2017-06-04T11:01:30.000Z</time>
      </trkpt>
      <trkpt lat="45.157867" lon="5.374888">
        <ele>277.876523</ele>
        <time>2017-06-04T11:01:32.000Z</time>
      </trkpt>
      <trkpt lat="45.157780" lon="5.374757">
        <ele>277.921348</ele>
        <time>2017-06-04T11:01:35.000Z</time>
      </trkpt>
      <trkpt lat="45.157684" lon="5.374647">
        <ele>277.964946</ele>
        <time>2017-06-04T11:01:38.000Z</time>
      </trkpt>
      <trkpt lat="45.157608" lon="5.374538">
        <ele>278.003130</ele>
        <time>2017-06-04T11:01:41.000Z</time>
      </trkpt>
      <trkpt lat="45.157520" lon="5.374421">
        <ele>278.045741</ele>
        <time>2017-06-04T11:01:44.000Z</time>
      </trkpt>
      <trkpt lat="45.157420" lon="5.374288">
        <ele>278.094171</ele>
        <time>2017-06-04T11:01:47.000Z</time>
      </trkpt>
      <trkpt lat="45.157352" lon="5.374199">
        <ele>278.126859</ele>
        <time>2017-06-04T11:01:49.000Z</time>
      </trkpt>
      <trkpt lat="45.157280" lon="5.374109">
        <ele>278.160289</ele>
        <time>2017-06-04T11:01:51.000Z</time>
      </trkpt>
      <trkpt lat="45.157215" lon="5.374019">
        <ele>278.187634</ele>
        <time>2017-06-04T11:01:53.000Z</time>
      </trkpt>
      <trkpt lat="45.157140" lon="5.373927">
        <ele>278.217484</ele>
        <time>2017-06-04T11:01:55.000Z</time>
      </trkpt>
      <trkpt lat="45.157066" lon="5.373834">
        <ele>278.247248</ele>
        <time>2017-06-04T11:01:57.000Z</time>
      </trkpt>
      <trkpt lat="45.156990" lon="5.373747">
        <ele>278.276648</ele>
        <time>2017-06-04T11:01:59.000Z</time>
      </trkpt>
      <trkpt lat="45.156918" lon="5.373658">
        <ele>278.305399</ele>
        <time>2017-06-04T11:02:01.000Z</time>
      </trkpt>
      <trkpt lat="45.156845" lon="5.373573">
        <ele>278.333831</ele>
        <time>2017-06-04T11:02:03.000Z</time>
      </trkpt>
      <trkpt lat="45.156770" lon="5.373493">
        <ele>278.362081</ele>
        <time>2017-06-04T11:02:05.000Z</time>
      </trkpt>
      <trkpt lat="45.156690" lon="5.373412">
        <ele>278.391670</ele>
        <time>2017-06-04T11:02:07.000Z</time>
      </trkpt>
      <trkpt lat="45.156600" lon="5.373336">
        <ele>278.423201</ele>
        <time>2017-06-04T11:02:09.000Z</time>
      </trkpt>
      <trkpt lat="45.156520" lon="5.373262">
        <ele>278.451952</ele>
        <time>2017-06-04T11:02:11.000Z</time>
      </trkpt>
      <trkpt lat="45.156440" lon="5.373184">
        <ele>278.481175</ele>
        <time>2017-06-04T11:02:13.000Z</time>
      </trkpt>
      <trkpt lat="45.156370" lon="5.373107">
        <ele>278.507842</ele>
        <time>2017-06-04T11:02:15.000Z</time>
      </trkpt>
      <trkpt lat="45.156284" lon="5.373034">
        <ele>278.538013</ele>
        <time>2017-06-04T11:02:17.000Z</time>
      </trkpt>
      <trkpt lat="45.156204" lon="5.372963">
        <ele>278.566421</ele>
        <time>2017-06-04T11:02:19.000Z</time>
      </trkpt>
      <trkpt lat="45.156124" lon="5.372888">
        <ele>278.595289</ele>
        <time>2017-06-04T11:02:21.000Z</time>
      </trkpt>
      <trkpt lat="45.156048" lon="5.372809">
        <ele>278.623654</ele>
        <time>2017-06-04T11:02:23.000Z</time>
      </trkpt>
      <trkpt lat="45.155945" lon="5.372711">
        <ele>278.660990</ele>
        <time>2017-06-04T11:02:26.000Z</time>
      </trkpt>
      <trkpt lat="45.155846" lon="5.372613">
        <ele>278.697333</ele>
        <time>2017-06-04T11:02:29.000Z</time>
      </trkpt>
      <trkpt lat="45.155754" lon="5.372498">
        <ele>278.606527</ele>
        <time>2017-06-04T11:02:32.000Z</time>
      </trkpt>
      <trkpt lat="45.155660" lon="5.372370">
        <ele>278.503733</ele>
        <time>2017-06-04T11:02:35.000Z</time>
      </trkpt>
      <trkpt lat="45.155590" lon="5.372275">
        <ele>278.427307</ele>
        <time>2017-06-04T11:02:37.000Z</time>
      </trkpt>
      <trkpt lat="45.155525" lon="5.372175">
        <ele>278.351660</ele>
        <time>2017-06-04T11:02:39.000Z</time>
      </trkpt>
      <trkpt lat="45.155468" lon="5.372070">
        <ele>278.277954</ele>
        <time>2017-06-04T11:02:41.000Z</time>
      </trkpt>
      <trkpt lat="45.155390" lon="5.371931">
        <ele>278.179146</ele>
        <time>2017-06-04T11:02:44.000Z</time>
      </trkpt>
      <trkpt lat="45.155315" lon="5.371813">
        <ele>278.090785</ele>
        <time>2017-06-04T11:02:47.000Z</time>
      </trkpt>
      <trkpt lat="45.155235" lon="5.371675">
        <ele>277.991417</ele>
        <time>2017-06-04T11:02:50.000Z</time>
      </trkpt>
      <trkpt lat="45.155174" lon="5.371578">
        <ele>277.919124</ele>
        <time>2017-06-04T11:02:52.000Z</time>
      </trkpt>
      <trkpt lat="45.155080" lon="5.371435">
        <ele>277.810385</ele>
        <time>2017-06-04T11:02:55.000Z</time>
      </trkpt>
      <trkpt lat="45.154990" lon="5.371303">
        <ele>277.708255</ele>
        <time>2017-06-04T11:02:58.000Z</time>
      </trkpt>
      <trkpt lat="45.154926" lon="5.371216">
        <ele>277.638325</ele>
        <time>2017-06-04T11:03:00.000Z</time>
      </trkpt>
      <trkpt lat="45.154860" lon="5.371122">
        <ele>277.564541</ele>
        <time>2017-06-04T11:03:02.000Z</time>
      </trkpt>
      <trkpt lat="45.154766" lon="5.370996">
        <ele>277.462514</ele>
        <time>2017-06-04T11:03:05.000Z</time>
      </trkpt>
      <trkpt lat="45.154682" lon="5.370862">
        <ele>277.362786</ele>
        <time>2017-06-04T11:03:08.000Z</time>
      </trkpt>
      <trkpt lat="45.154600" lon="5.370754">
        <ele>277.268143</ele>
        <time>2017-06-04T11:03:11.000Z</time>
      </trkpt>
      <trkpt lat="45.154530" lon="5.370642">
        <ele>277.092444</ele>
        <time>2017-06-04T11:03:14.000Z</time>
      </trkpt>
      <trkpt lat="45.154457" lon="5.370524">
        <ele>276.908157</ele>
        <time>2017-06-04T11:03:17.000Z</time>
      </trkpt>
      <trkpt lat="45.154390" lon="5.370410">
        <ele>276.733932</ele>
        <time>2017-06-04T11:03:20.000Z</time>
      </trkpt>
      <trkpt lat="45.154312" lon="5.370303">
        <ele>276.553259</ele>
        <time>2017-06-04T11:03:23.000Z</time>
      </trkpt>
      <trkpt lat="45.154230" lon="5.370199">
        <ele>276.370108</ele>
        <time>2017-06-04T11:03:26.000Z</time>
      </trkpt>
      <trkpt lat="45.154137" lon="5.370081">
        <ele>276.162350</ele>
        <time>2017-06-04T11:03:29.000Z</time>
      </trkpt>
      <trkpt lat="45.154064" lon="5.369935">
        <ele>275.952230</ele>
        <time>2017-06-04T11:03:32.000Z</time>
      </trkpt>
      <trkpt lat="45.154045" lon="5.369758">
        <ele>275.742034</ele>
        <time>2017-06-04T11:03:35.000Z</time>
      </trkpt>
      <trkpt lat="45.154034" lon="5.369567">
        <ele>275.517048</ele>
        <time>2017-06-04T11:03:38.000Z</time>
      </trkpt>
      <trkpt lat="45.154020" lon="5.369439">
        <ele>275.364975</ele>
        <time>2017-06-04T11:03:40.000Z</time>
      </trkpt>
      <trkpt lat="45.154000" lon="5.369304">
        <ele>275.203022</ele>
        <time>2017-06-04T11:03:42.000Z</time>
      </trkpt>
      <trkpt lat="45.153976" lon="5.369166">
        <ele>275.036152</ele>
        <time>2017-06-04T11:03:44.000Z</time>
      </trkpt>
      <trkpt lat="45.153954" lon="5.368977">
        <ele>274.811258</ele>
        <time>2017-06-04T11:03:47.000Z</time>
      </trkpt>
      <trkpt lat="45.153940" lon="5.368838">
        <ele>274.646412</ele>
        <time>2017-06-04T11:03:49.000Z</time>
      </trkpt>
      <trkpt lat="45.153915" lon="5.368679">
        <ele>274.455157</ele>
        <time>2017-06-04T11:03:51.000Z</time>
      </trkpt>
      <trkpt lat="45.153893" lon="5.368526">
        <ele>274.264815</ele>
        <time>2017-06-04T11:03:53.000Z</time>
      </trkpt>
      <trkpt lat="45.153866" lon="5.368375">
        <ele>273.990331</ele>
        <time>2017-06-04T11:03:55.000Z</time>
      </trkpt>
      <trkpt lat="45.153847" lon="5.368228">
        <ele>273.726999</ele>
        <time>2017-06-04T11:03:57.000Z</time>
      </trkpt>
      <trkpt lat="45.153828" lon="5.368075">
        <ele>273.453262</ele>
        <time>2017-06-04T11:03:59.000Z</time>
      </trkpt>
      <trkpt lat="45.153800" lon="5.367938">
        <ele>273.201932</ele>
        <time>2017-06-04T11:04:01.000Z</time>
      </trkpt>
      <trkpt lat="45.153770" lon="5.367789">
        <ele>272.928900</ele>
        <time>2017-06-04T11:04:03.000Z</time>
      </trkpt>
      <trkpt lat="45.153750" lon="5.367639">
        <ele>272.659914</ele>
        <time>2017-06-04T11:04:05.000Z</time>
      </trkpt>
      <trkpt lat="45.153736" lon="5.367481">
        <ele>272.379326</ele>
        <time>2017-06-04T11:04:07.000Z</time>
      </trkpt>
      <trkpt lat="45.153717" lon="5.367306">
        <ele>272.067339</ele>
        <time>2017-06-04T11:04:09.000Z</time>
      </trkpt>
      <trkpt lat="45.153700" lon="5.367125">
        <ele>271.745597</ele>
        <time>2017-06-04T11:04:11.000Z</time>
      </trkpt>
      <trkpt lat="45.153694" lon="5.366928">
        <ele>271.398154</ele>
        <time>2017-06-04T11:04:13.000Z</time>
      </trkpt>
      <trkpt lat="45.153706" lon="5.366724">
        <ele>271.037453</ele>
        <time>2017-06-04T11:04:15.000Z</time>
      </trkpt>
      <trkpt lat="45.153736" lon="5.366508">
        <ele>270.649545</ele>
        <time>2017-06-04T11:04:17.000Z</time>
      </trkpt>
      <trkpt lat="45.153786" lon="5.366301">
        <ele>270.264005</ele>
        <time>2017-06-04T11:04:19.000Z</time>
      </trkpt>
      <trkpt lat="45.153847" lon="5.366104">
        <ele>269.884899</ele>
        <time>2017-06-04T11:04:21.000Z</time>
      </trkpt>
      <trkpt lat="45.153910" lon="5.365918">
        <ele>269.568888</ele>
        <time>2017-06-04T11:04:23.000Z</time>
      </trkpt>
      <trkpt lat="45.153973" lon="5.365737">
        <ele>269.275783</ele>
        <time>2017-06-04T11:04:25.000Z</time>
      </trkpt>
      <trkpt lat="45.154030" lon="5.365563">
        <ele>268.997183</ele>
        <time>2017-06-04T11:04:27.000Z</time>
      </trkpt>
      <trkpt lat="45.154083" lon="5.365427">
        <ele>268.771546</ele>
        <time>2017-06-04T11:04:29.000Z</time>
      </trkpt>
      <trkpt lat="45.154182" lon="5.365189">
        <ele>268.370298</ele>
        <time>2017-06-04T11:05:27.000Z</time>
      </trkpt>
      <trkpt lat="45.154247" lon="5.365036">
        <ele>268.110922</ele>
        <time>2017-06-04T11:05:30.000Z</time>
      </trkpt>
      <trkpt lat="45.154312" lon="5.364883">
        <ele>267.851547</ele>
        <time>2017-06-04T11:05:33.000Z</time>
      </trkpt>
      <trkpt lat="45.154354" lon="5.364767">
        <ele>267.662197</ele>
        <time>2017-06-04T11:05:35.000Z</time>
      </trkpt>
      <trkpt lat="45.154420" lon="5.364603">
        <ele>267.388001</ele>
        <time>2017-06-04T11:05:38.000Z</time>
      </trkpt>
      <trkpt lat="45.154465" lon="5.364488">
        <ele>267.197022</ele>
        <time>2017-06-04T11:05:40.000Z</time>
      </trkpt>
      <trkpt lat="45.154510" lon="5.364377">
        <ele>267.011101</ele>
        <time>2017-06-04T11:05:42.000Z</time>
      </trkpt>
      <trkpt lat="45.154575" lon="5.364209">
        <ele>266.732842</ele>
        <time>2017-06-04T11:05:45.000Z</time>
      </trkpt>
      <trkpt lat="45.154640" lon="5.364047">
        <ele>266.462190</ele>
        <time>2017-06-04T11:05:48.000Z</time>
      </trkpt>
      <trkpt lat="45.154682" lon="5.363930">
        <ele>266.271548</ele>
        <time>2017-06-04T11:05:50.000Z</time>
      </trkpt>
      <trkpt lat="45.154724" lon="5.363813">
        <ele>266.088813</ele>
        <time>2017-06-04T11:05:52.000Z</time>
      </trkpt>
      <trkpt lat="45.154770" lon="5.363689">
        <ele>266.109017</ele>
        <time>2017-06-04T11:05:54.000Z</time>
      </trkpt>
      <trkpt lat="45.154820" lon="5.363553">
        <ele>266.131133</ele>
        <time>2017-06-04T11:05:56.000Z</time>
      </trkpt>
      <trkpt lat="45.154870" lon="5.363422">
        <ele>266.152612</ele>
        <time>2017-06-04T11:05:58.000Z</time>
      </trkpt>
      <trkpt lat="45.154922" lon="5.363283">
        <ele>266.175301</ele>
        <time>2017-06-04T11:06:00.000Z</time>
      </trkpt>
      <trkpt lat="45.154980" lon="5.363139">
        <ele>266.199213</ele>
        <time>2017-06-04T11:06:02.000Z</time>
      </trkpt>
      <trkpt lat="45.155037" lon="5.362986">
        <ele>266.224165</ele>
        <time>2017-06-04T11:06:04.000Z</time>
      </trkpt>
      <trkpt lat="45.155087" lon="5.362836">
        <ele>266.248089</ele>
        <time>2017-06-04T11:06:06.000Z</time>
      </trkpt>
      <trkpt lat="45.155140" lon="5.362690">
        <ele>266.271767</ele>
        <time>2017-06-04T11:06:08.000Z</time>
      </trkpt>
      <trkpt lat="45.155174" lon="5.362557">
        <ele>266.292167</ele>
        <time>2017-06-04T11:06:10.000Z</time>
      </trkpt>
      <trkpt lat="45.155216" lon="5.362383">
        <ele>266.318686</ele>
        <time>2017-06-04T11:06:13.000Z</time>
      </trkpt>
      <trkpt lat="45.155230" lon="5.362246">
        <ele>266.338647</ele>
        <time>2017-06-04T11:06:16.000Z</time>
      </trkpt>
      <trkpt lat="45.155140" lon="5.362181">
        <ele>266.359300</ele>
        <time>2017-06-04T11:06:21.000Z</time>
      </trkpt>
      <trkpt lat="45.155243" lon="5.362211">
        <ele>266.380801</ele>
        <time>2017-06-04T11:09:28.000Z</time>
      </trkpt>
      <trkpt lat="45.155296" lon="5.362091">
        <ele>266.401218</ele>
        <time>2017-06-04T11:09:33.000Z</time>
      </trkpt>
      <trkpt lat="45.155277" lon="5.361965">
        <ele>266.419797</ele>
        <time>2017-06-04T11:09:36.000Z</time>
      </trkpt>
      <trkpt lat="45.155243" lon="5.361848">
        <ele>266.438044</ele>
        <time>2017-06-04T11:09:39.000Z</time>
      </trkpt>
      <trkpt lat="45.155190" lon="5.361702">
        <ele>266.591153</ele>
        <time>2017-06-04T11:09:43.000Z</time>
      </trkpt>
      <trkpt lat="45.155125" lon="5.361561">
        <ele>267.153825</ele>
        <time>2017-06-04T11:09:47.000Z</time>
      </trkpt>
      <trkpt lat="45.155060" lon="5.361465">
        <ele>267.598360</ele>
        <time>2017-06-04T11:09:50.000Z</time>
      </trkpt>
      <trkpt lat="45.155000" lon="5.361372">
        <ele>268.019387</ele>
        <time>2017-06-04T11:09:53.000Z</time>
      </trkpt>
      <trkpt lat="45.154930" lon="5.361278">
        <ele>268.476023</ele>
        <time>2017-06-04T11:09:56.000Z</time>
      </trkpt>
      <trkpt lat="45.154846" lon="5.361169">
        <ele>269.015338</ele>
        <time>2017-06-04T11:10:00.000Z</time>
      </trkpt>
      <trkpt lat="45.154790" lon="5.361065">
        <ele>269.452410</ele>
        <time>2017-06-04T11:10:03.000Z</time>
      </trkpt>
      <trkpt lat="45.154728" lon="5.360964">
        <ele>269.899684</ele>
        <time>2017-06-04T11:10:06.000Z</time>
      </trkpt>
      <trkpt lat="45.154644" lon="5.360858">
        <ele>270.432286</ele>
        <time>2017-06-04T11:10:10.000Z</time>
      </trkpt>
      <trkpt lat="45.154556" lon="5.360777">
        <ele>270.929218</ele>
        <time>2017-06-04T11:10:14.000Z</time>
      </trkpt>
      <trkpt lat="45.154470" lon="5.360687">
        <ele>271.435484</ele>
        <time>2017-06-04T11:10:18.000Z</time>
      </trkpt>
      <trkpt lat="45.154380" lon="5.360591">
        <ele>271.968917</ele>
        <time>2017-06-04T11:10:22.000Z</time>
      </trkpt>
      <trkpt lat="45.154293" lon="5.360497">
        <ele>272.486989</ele>
        <time>2017-06-04T11:10:26.000Z</time>
      </trkpt>
      <trkpt lat="45.154200" lon="5.360389">
        <ele>273.056358</ele>
        <time>2017-06-04T11:10:30.000Z</time>
      </trkpt>
      <trkpt lat="45.154118" lon="5.360291">
        <ele>273.564305</ele>
        <time>2017-06-04T11:10:34.000Z</time>
      </trkpt>
      <trkpt lat="45.154034" lon="5.360180">
        <ele>274.108155</ele>
        <time>2017-06-04T11:10:38.000Z</time>
      </trkpt>
      <trkpt lat="45.153954" lon="5.360074">
        <ele>274.626760</ele>
        <time>2017-06-04T11:10:42.000Z</time>
      </trkpt>
      <trkpt lat="45.153880" lon="5.359978">
        <ele>275.117792</ele>
        <time>2017-06-04T11:10:46.000Z</time>
      </trkpt>
      <trkpt lat="45.153805" lon="5.359882">
        <ele>275.656788</ele>
        <time>2017-06-04T11:10:50.000Z</time>
      </trkpt>
      <trkpt lat="45.153730" lon="5.359792">
        <ele>276.180926</ele>
        <time>2017-06-04T11:10:54.000Z</time>
      </trkpt>
      <trkpt lat="45.153645" lon="5.359698">
        <ele>276.755968</ele>
        <time>2017-06-04T11:10:58.000Z</time>
      </trkpt>
      <trkpt lat="45.153560" lon="5.359609">
        <ele>277.319637</ele>
        <time>2017-06-04T11:11:02.000Z</time>
      </trkpt>
      <trkpt lat="45.153480" lon="5.359528">
        <ele>277.844038</ele>
        <time>2017-06-04T11:11:06.000Z</time>
      </trkpt>
      <trkpt lat="45.153400" lon="5.359449">
        <ele>278.364103</ele>
        <time>2017-06-04T11:11:10.000Z</time>
      </trkpt>
      <trkpt lat="45.153324" lon="5.359358">
        <ele>278.894746</ele>
        <time>2017-06-04T11:11:14.000Z</time>
      </trkpt>
      <trkpt lat="45.153244" lon="5.359274">
        <ele>279.425786</ele>
        <time>2017-06-04T11:11:18.000Z</time>
      </trkpt>
      <trkpt lat="45.153164" lon="5.359193">
        <ele>279.950188</ele>
        <time>2017-06-04T11:11:22.000Z</time>
      </trkpt>
      <trkpt lat="45.153065" lon="5.359091">
        <ele>280.603011</ele>
        <time>2017-06-04T11:11:27.000Z</time>
      </trkpt>
      <trkpt lat="45.152970" lon="5.359025">
        <ele>281.167364</ele>
        <time>2017-06-04T11:11:31.000Z</time>
      </trkpt>
      <trkpt lat="45.152885" lon="5.358956">
        <ele>281.689858</ele>
        <time>2017-06-04T11:11:35.000Z</time>
      </trkpt>
      <trkpt lat="45.152798" lon="5.358905">
        <ele>282.192073</ele>
        <time>2017-06-04T11:11:39.000Z</time>
      </trkpt>
      <trkpt lat="45.152706" lon="5.358871">
        <ele>282.699259</ele>
        <time>2017-06-04T11:11:43.000Z</time>
      </trkpt>
      <trkpt lat="45.152620" lon="5.358821">
        <ele>283.195108</ele>
        <time>2017-06-04T11:11:47.000Z</time>
      </trkpt>
      <trkpt lat="45.152527" lon="5.358768">
        <ele>283.729803</ele>
        <time>2017-06-04T11:11:51.000Z</time>
      </trkpt>
      <trkpt lat="45.152440" lon="5.358723">
        <ele>284.223834</ele>
        <time>2017-06-04T11:11:55.000Z</time>
      </trkpt>
      <trkpt lat="45.152344" lon="5.358670">
        <ele>284.812721</ele>
        <time>2017-06-04T11:11:59.000Z</time>
      </trkpt>
      <trkpt lat="45.152252" lon="5.358618">
        <ele>285.443437</ele>
        <time>2017-06-04T11:12:03.000Z</time>
      </trkpt>
      <trkpt lat="45.152164" lon="5.358566">
        <ele>286.050563</ele>
        <time>2017-06-04T11:12:07.000Z</time>
      </trkpt>
      <trkpt lat="45.152077" lon="5.358519">
        <ele>286.643455</ele>
        <time>2017-06-04T11:12:11.000Z</time>
      </trkpt>
      <trkpt lat="45.151985" lon="5.358476">
        <ele>287.260348</ele>
        <time>2017-06-04T11:12:15.000Z</time>
      </trkpt>
      <trkpt lat="45.151897" lon="5.358427">
        <ele>287.862420</ele>
        <time>2017-06-04T11:12:19.000Z</time>
      </trkpt>
      <trkpt lat="45.151810" lon="5.358366">
        <ele>288.480497</ele>
        <time>2017-06-04T11:12:23.000Z</time>
      </trkpt>
      <trkpt lat="45.151726" lon="5.358281">
        <ele>289.137681</ele>
        <time>2017-06-04T11:12:27.000Z</time>
      </trkpt>
      <trkpt lat="45.151660" lon="5.358173">
        <ele>289.779497</ele>
        <time>2017-06-04T11:12:31.000Z</time>
      </trkpt>
      <trkpt lat="45.151627" lon="5.358048">
        <ele>290.378937</ele>
        <time>2017-06-04T11:12:35.000Z</time>
      </trkpt>
      <trkpt lat="45.151600" lon="5.357918">
        <ele>290.987580</ele>
        <time>2017-06-04T11:12:39.000Z</time>
      </trkpt>
      <trkpt lat="45.151600" lon="5.357786">
        <ele>291.580412</ele>
        <time>2017-06-04T11:12:43.000Z</time>
      </trkpt>
      <trkpt lat="45.151627" lon="5.357661">
        <ele>292.167548</ele>
        <time>2017-06-04T11:12:47.000Z</time>
      </trkpt>
      <trkpt lat="45.151653" lon="5.357523">
        <ele>292.809063</ele>
        <time>2017-06-04T11:12:52.000Z</time>
      </trkpt>
      <trkpt lat="45.151703" lon="5.357395">
        <ele>293.466225</ele>
        <time>2017-06-04T11:12:57.000Z</time>
      </trkpt>
      <trkpt lat="45.151752" lon="5.357262">
        <ele>294.140145</ele>
        <time>2017-06-04T11:13:02.000Z</time>
      </trkpt>
      <trkpt lat="45.151794" lon="5.357133">
        <ele>294.778263</ele>
        <time>2017-06-04T11:13:07.000Z</time>
      </trkpt>
      <trkpt lat="45.151817" lon="5.357005">
        <ele>295.371495</ele>
        <time>2017-06-04T11:13:12.000Z</time>
      </trkpt>
      <trkpt lat="45.151737" lon="5.356935">
        <ele>295.970152</ele>
        <time>2017-06-04T11:13:16.000Z</time>
      </trkpt>
      <trkpt lat="45.151638" lon="5.356937">
        <ele>296.339074</ele>
        <time>2017-06-04T11:13:20.000Z</time>
      </trkpt>
      <trkpt lat="45.151546" lon="5.356927">
        <ele>296.659709</ele>
        <time>2017-06-04T11:13:25.000Z</time>
      </trkpt>
      <trkpt lat="45.151450" lon="5.356860">
        <ele>297.031525</ele>
        <time>2017-06-04T11:14:05.000Z</time>
      </trkpt>
      <trkpt lat="45.151356" lon="5.356785">
        <ele>297.406333</ele>
        <time>2017-06-04T11:14:10.000Z</time>
      </trkpt>
      <trkpt lat="45.151264" lon="5.356714">
        <ele>297.770314</ele>
        <time>2017-06-04T11:14:15.000Z</time>
      </trkpt>
      <trkpt lat="45.151165" lon="5.356637">
        <ele>298.162691</ele>
        <time>2017-06-04T11:14:20.000Z</time>
      </trkpt>
      <trkpt lat="45.151080" lon="5.356570">
        <ele>298.500634</ele>
        <time>2017-06-04T11:14:24.000Z</time>
      </trkpt>
      <trkpt lat="45.150990" lon="5.356497">
        <ele>298.860934</ele>
        <time>2017-06-04T11:14:28.000Z</time>
      </trkpt>
      <trkpt lat="45.150894" lon="5.356418">
        <ele>299.246641</ele>
        <time>2017-06-04T11:14:32.000Z</time>
      </trkpt>
      <trkpt lat="45.150803" lon="5.356329">
        <ele>299.630789</ele>
        <time>2017-06-04T11:14:37.000Z</time>
      </trkpt>
      <trkpt lat="45.150715" lon="5.356258">
        <ele>299.982624</ele>
        <time>2017-06-04T11:14:41.000Z</time>
      </trkpt>
      <trkpt lat="45.150635" lon="5.356198">
        <ele>300.297114</ele>
        <time>2017-06-04T11:14:45.000Z</time>
      </trkpt>
      <trkpt lat="45.150536" lon="5.356130">
        <ele>300.679375</ele>
        <time>2017-06-04T11:14:49.000Z</time>
      </trkpt>
      <trkpt lat="45.150433" lon="5.356046">
        <ele>301.092275</ele>
        <time>2017-06-04T11:14:53.000Z</time>
      </trkpt>
      <trkpt lat="45.150337" lon="5.355959">
        <ele>301.488187</ele>
        <time>2017-06-04T11:14:57.000Z</time>
      </trkpt>
      <trkpt lat="45.150253" lon="5.355886">
        <ele>301.830547</ele>
        <time>2017-06-04T11:15:01.000Z</time>
      </trkpt>
      <trkpt lat="45.150160" lon="5.355818">
        <ele>302.194157</ele>
        <time>2017-06-04T11:15:05.000Z</time>
      </trkpt>
      <trkpt lat="45.150070" lon="5.355727">
        <ele>301.973652</ele>
        <time>2017-06-04T11:15:09.000Z</time>
      </trkpt>
      <trkpt lat="45.149975" lon="5.355644">
        <ele>301.588070</ele>
        <time>2017-06-04T11:15:13.000Z</time>
      </trkpt>
      <trkpt lat="45.149890" lon="5.355563">
        <ele>301.234187</ele>
        <time>2017-06-04T11:15:17.000Z</time>
      </trkpt>
      <trkpt lat="45.149807" lon="5.355494">
        <ele>300.901724</ele>
        <time>2017-06-04T11:15:21.000Z</time>
      </trkpt>
      <trkpt lat="45.149730" lon="5.355431">
        <ele>300.594535</ele>
        <time>2017-06-04T11:15:25.000Z</time>
      </trkpt>
      <trkpt lat="45.149640" lon="5.355371">
        <ele>300.250884</ele>
        <time>2017-06-04T11:15:31.000Z</time>
      </trkpt>
      <trkpt lat="45.149708" lon="5.355466">
        <ele>299.921019</ele>
        <time>2017-06-04T11:15:44.000Z</time>
      </trkpt>
      <trkpt lat="45.149605" lon="5.355338">
        <ele>299.447756</ele>
        <time>2017-06-04T11:21:47.000Z</time>
      </trkpt>
      <trkpt lat="45.149510" lon="5.355283">
        <ele>299.093178</ele>
        <time>2017-06-04T11:21:52.000Z</time>
      </trkpt>
      <trkpt lat="45.149418" lon="5.355204">
        <ele>298.721523</ele>
        <time>2017-06-04T11:21:57.000Z</time>
      </trkpt>
      <trkpt lat="45.149330" lon="5.355107">
        <ele>298.336366</ele>
        <time>2017-06-04T11:22:01.000Z</time>
      </trkpt>
      <trkpt lat="45.149240" lon="5.355001">
        <ele>297.932081</ele>
        <time>2017-06-04T11:22:05.000Z</time>
      </trkpt>
      <trkpt lat="45.149147" lon="5.354892">
        <ele>297.515148</ele>
        <time>2017-06-04T11:22:09.000Z</time>
      </trkpt>
      <trkpt lat="45.149055" lon="5.354789">
        <ele>297.110093</ele>
        <time>2017-06-04T11:22:13.000Z</time>
      </trkpt>
      <trkpt lat="45.148980" lon="5.354713">
        <ele>296.791553</ele>
        <time>2017-06-04T11:22:16.000Z</time>
      </trkpt>
      <trkpt lat="45.148900" lon="5.354620">
        <ele>296.434083</ele>
        <time>2017-06-04T11:22:19.000Z</time>
      </trkpt>
      <trkpt lat="45.148820" lon="5.354533">
        <ele>296.085700</ele>
        <time>2017-06-04T11:22:22.000Z</time>
      </trkpt>
      <trkpt lat="45.148740" lon="5.354460">
        <ele>295.957828</ele>
        <time>2017-06-04T11:22:25.000Z</time>
      </trkpt>
      <trkpt lat="45.148663" lon="5.354387">
        <ele>295.849939</ele>
        <time>2017-06-04T11:22:28.000Z</time>
      </trkpt>
      <trkpt lat="45.148560" lon="5.354306">
        <ele>295.712751</ele>
        <time>2017-06-04T11:22:31.000Z</time>
      </trkpt>
      <trkpt lat="45.148450" lon="5.354239">
        <ele>295.573305</ele>
        <time>2017-06-04T11:22:34.000Z</time>
      </trkpt>
      <trkpt lat="45.148357" lon="5.354155">
        <ele>295.444870</ele>
        <time>2017-06-04T11:22:37.000Z</time>
      </trkpt>
      <trkpt lat="45.148270" lon="5.354085">
        <ele>295.328356</ele>
        <time>2017-06-04T11:22:40.000Z</time>
      </trkpt>
      <trkpt lat="45.148180" lon="5.354019">
        <ele>295.210336</ele>
        <time>2017-06-04T11:22:43.000Z</time>
      </trkpt>
      <trkpt lat="45.148056" lon="5.353941">
        <ele>295.052329</ele>
        <time>2017-06-04T11:22:47.000Z</time>
      </trkpt>
      <trkpt lat="45.147964" lon="5.353850">
        <ele>294.921672</ele>
        <time>2017-06-04T11:22:50.000Z</time>
      </trkpt>
      <trkpt lat="45.147877" lon="5.353766">
        <ele>294.799073</ele>
        <time>2017-06-04T11:22:53.000Z</time>
      </trkpt>
      <trkpt lat="45.147808" lon="5.353672">
        <ele>294.687618</ele>
        <time>2017-06-04T11:22:56.000Z</time>
      </trkpt>
      <trkpt lat="45.147736" lon="5.353581">
        <ele>294.575273</ele>
        <time>2017-06-04T11:22:59.000Z</time>
      </trkpt>
      <trkpt lat="45.147663" lon="5.353463">
        <ele>294.446330</ele>
        <time>2017-06-04T11:23:02.000Z</time>
      </trkpt>
      <trkpt lat="45.147587" lon="5.353345">
        <ele>294.315056</ele>
        <time>2017-06-04T11:23:05.000Z</time>
      </trkpt>
      <trkpt lat="45.147510" lon="5.353231">
        <ele>294.185387</ele>
        <time>2017-06-04T11:23:08.000Z</time>
      </trkpt>
      <trkpt lat="45.147434" lon="5.353123">
        <ele>294.060056</ele>
        <time>2017-06-04T11:23:11.000Z</time>
      </trkpt>
      <trkpt lat="45.147354" lon="5.353016">
        <ele>293.979039</ele>
        <time>2017-06-04T11:23:14.000Z</time>
      </trkpt>
      <trkpt lat="45.147285" lon="5.352926">
        <ele>294.025638</ele>
        <time>2017-06-04T11:23:17.000Z</time>
      </trkpt>
      <trkpt lat="45.147205" lon="5.352846">
        <ele>294.074294</ele>
        <time>2017-06-04T11:23:20.000Z</time>
      </trkpt>
      <trkpt lat="45.147120" lon="5.352768">
        <ele>294.124617</ele>
        <time>2017-06-04T11:23:23.000Z</time>
      </trkpt>
      <trkpt lat="45.147045" lon="5.352684">
        <ele>294.172120</ele>
        <time>2017-06-04T11:23:26.000Z</time>
      </trkpt>
      <trkpt lat="45.146960" lon="5.352585">
        <ele>294.226793</ele>
        <time>2017-06-04T11:23:30.000Z</time>
      </trkpt>
      <trkpt lat="45.146870" lon="5.352489">
        <ele>294.282770</ele>
        <time>2017-06-04T11:23:34.000Z</time>
      </trkpt>
      <trkpt lat="45.146797" lon="5.352409">
        <ele>294.328627</ele>
        <time>2017-06-04T11:23:37.000Z</time>
      </trkpt>
      <trkpt lat="45.146713" lon="5.352329">
        <ele>294.378921</ele>
        <time>2017-06-04T11:23:40.000Z</time>
      </trkpt>
      <trkpt lat="45.146640" lon="5.352243">
        <ele>294.426094</ele>
        <time>2017-06-04T11:23:43.000Z</time>
      </trkpt>
      <trkpt lat="45.146557" lon="5.352141">
        <ele>294.480686</ele>
        <time>2017-06-04T11:23:47.000Z</time>
      </trkpt>
      <trkpt lat="45.146477" lon="5.352062">
        <ele>294.529141</ele>
        <time>2017-06-04T11:23:50.000Z</time>
      </trkpt>
      <trkpt lat="45.146390" lon="5.351972">
        <ele>294.582668</ele>
        <time>2017-06-04T11:23:53.000Z</time>
      </trkpt>
      <trkpt lat="45.146310" lon="5.351888">
        <ele>294.632146</ele>
        <time>2017-06-04T11:23:56.000Z</time>
      </trkpt>
      <trkpt lat="45.146225" lon="5.351800">
        <ele>294.684456</ele>
        <time>2017-06-04T11:23:59.000Z</time>
      </trkpt>
      <trkpt lat="45.146137" lon="5.351707">
        <ele>294.739007</ele>
        <time>2017-06-04T11:24:02.000Z</time>
      </trkpt>
      <trkpt lat="45.146034" lon="5.351613">
        <ele>294.799889</ele>
        <time>2017-06-04T11:24:05.000Z</time>
      </trkpt>
      <trkpt lat="45.145943" lon="5.351493">
        <ele>294.856560</ele>
        <time>2017-06-04T11:24:08.000Z</time>
      </trkpt>
      <trkpt lat="45.145850" lon="5.351393">
        <ele>294.806486</ele>
        <time>2017-06-04T11:24:11.000Z</time>
      </trkpt>
      <trkpt lat="45.145767" lon="5.351302">
        <ele>294.761475</ele>
        <time>2017-06-04T11:24:14.000Z</time>
      </trkpt>
      <trkpt lat="45.145683" lon="5.351196">
        <ele>294.713232</ele>
        <time>2017-06-04T11:24:17.000Z</time>
      </trkpt>
      <trkpt lat="45.145580" lon="5.351104">
        <ele>294.661008</ele>
        <time>2017-06-04T11:24:20.000Z</time>
      </trkpt>
      <trkpt lat="45.145480" lon="5.351008">
        <ele>294.609198</ele>
        <time>2017-06-04T11:24:23.000Z</time>
      </trkpt>
      <trkpt lat="45.145393" lon="5.350914">
        <ele>294.562273</ele>
        <time>2017-06-04T11:24:26.000Z</time>
      </trkpt>
      <trkpt lat="45.145306" lon="5.350799">
        <ele>294.511245</ele>
        <time>2017-06-04T11:24:29.000Z</time>
      </trkpt>
      <trkpt lat="45.145206" lon="5.350697">
        <ele>294.458396</ele>
        <time>2017-06-04T11:24:32.000Z</time>
      </trkpt>
      <trkpt lat="45.145120" lon="5.350588">
        <ele>294.408909</ele>
        <time>2017-06-04T11:24:35.000Z</time>
      </trkpt>
      <trkpt lat="45.145027" lon="5.350485">
        <ele>294.358281</ele>
        <time>2017-06-04T11:24:38.000Z</time>
      </trkpt>
      <trkpt lat="45.144936" lon="5.350377">
        <ele>294.307370</ele>
        <time>2017-06-04T11:24:41.000Z</time>
      </trkpt>
      <trkpt lat="45.144833" lon="5.350245">
        <ele>294.247806</ele>
        <time>2017-06-04T11:24:44.000Z</time>
      </trkpt>
      <trkpt lat="45.144756" lon="5.350158">
        <ele>294.205567</ele>
        <time>2017-06-04T11:24:46.000Z</time>
      </trkpt>
      <trkpt lat="45.144680" lon="5.350070">
        <ele>294.163471</ele>
        <time>2017-06-04T11:24:48.000Z</time>
      </trkpt>
      <trkpt lat="45.144610" lon="5.349981">
        <ele>294.123134</ele>
        <time>2017-06-04T11:24:50.000Z</time>
      </trkpt>
      <trkpt lat="45.144510" lon="5.349864">
        <ele>294.129034</ele>
        <time>2017-06-04T11:24:53.000Z</time>
      </trkpt>
      <trkpt lat="45.144417" lon="5.349751">
        <ele>294.239894</ele>
        <time>2017-06-04T11:24:56.000Z</time>
      </trkpt>
      <trkpt lat="45.144330" lon="5.349650">
        <ele>294.341670</ele>
        <time>2017-06-04T11:24:59.000Z</time>
      </trkpt>
      <trkpt lat="45.144238" lon="5.349549">
        <ele>294.446986</ele>
        <time>2017-06-04T11:25:02.000Z</time>
      </trkpt>
      <trkpt lat="45.144140" lon="5.349430">
        <ele>294.563775</ele>
        <time>2017-06-04T11:25:05.000Z</time>
      </trkpt>
      <trkpt lat="45.144066" lon="5.349344">
        <ele>294.650380</ele>
        <time>2017-06-04T11:25:07.000Z</time>
      </trkpt>
      <trkpt lat="45.143993" lon="5.349256">
        <ele>294.737109</ele>
        <time>2017-06-04T11:25:09.000Z</time>
      </trkpt>
      <trkpt lat="45.143894" lon="5.349140">
        <ele>294.853357</ele>
        <time>2017-06-04T11:25:12.000Z</time>
      </trkpt>
      <trkpt lat="45.143795" lon="5.349026">
        <ele>294.968796</ele>
        <time>2017-06-04T11:25:15.000Z</time>
      </trkpt>
      <trkpt lat="45.143700" lon="5.348919">
        <ele>295.078614</ele>
        <time>2017-06-04T11:25:18.000Z</time>
      </trkpt>
      <trkpt lat="45.143612" lon="5.348819">
        <ele>295.180692</ele>
        <time>2017-06-04T11:25:21.000Z</time>
      </trkpt>
      <trkpt lat="45.143524" lon="5.348723">
        <ele>295.281193</ele>
        <time>2017-06-04T11:25:24.000Z</time>
      </trkpt>
      <trkpt lat="45.143436" lon="5.348615">
        <ele>295.386540</ele>
        <time>2017-06-04T11:25:27.000Z</time>
      </trkpt>
      <trkpt lat="45.143337" lon="5.348497">
        <ele>295.503606</ele>
        <time>2017-06-04T11:25:30.000Z</time>
      </trkpt>
      <trkpt lat="45.143238" lon="5.348373">
        <ele>295.623173</ele>
        <time>2017-06-04T11:25:33.000Z</time>
      </trkpt>
      <trkpt lat="45.143135" lon="5.348250">
        <ele>295.708775</ele>
        <time>2017-06-04T11:25:36.000Z</time>
      </trkpt>
      <trkpt lat="45.143047" lon="5.348139">
        <ele>295.685463</ele>
        <time>2017-06-04T11:25:39.000Z</time>
      </trkpt>
      <trkpt lat="45.142956" lon="5.348034">
        <ele>295.662242</ele>
        <time>2017-06-04T11:25:42.000Z</time>
      </trkpt>
      <trkpt lat="45.142860" lon="5.347925">
        <ele>295.637900</ele>
        <time>2017-06-04T11:25:45.000Z</time>
      </trkpt>
      <trkpt lat="45.142760" lon="5.347819">
        <ele>295.613188</ele>
        <time>2017-06-04T11:25:48.000Z</time>
      </trkpt>
      <trkpt lat="45.142690" lon="5.347740">
        <ele>295.595481</ele>
        <time>2017-06-04T11:25:50.000Z</time>
      </trkpt>
      <trkpt lat="45.142605" lon="5.347665">
        <ele>295.575666</ele>
        <time>2017-06-04T11:25:52.000Z</time>
      </trkpt>
      <trkpt lat="45.142520" lon="5.347599">
        <ele>295.556485</ele>
        <time>2017-06-04T11:25:54.000Z</time>
      </trkpt>
      <trkpt lat="45.142433" lon="5.347533">
        <ele>295.536957</ele>
        <time>2017-06-04T11:25:56.000Z</time>
      </trkpt>
      <trkpt lat="45.142340" lon="5.347467">
        <ele>295.516373</ele>
        <time>2017-06-04T11:25:58.000Z</time>
      </trkpt>
      <trkpt lat="45.142254" lon="5.347413">
        <ele>295.497758</ele>
        <time>2017-06-04T11:26:00.000Z</time>
      </trkpt>
      <trkpt lat="45.142136" lon="5.347344">
        <ele>295.472495</ele>
        <time>2017-06-04T11:26:03.000Z</time>
      </trkpt>
      <trkpt lat="45.142025" lon="5.347271">
        <ele>295.448278</ele>
        <time>2017-06-04T11:26:06.000Z</time>
      </trkpt>
      <trkpt lat="45.141922" lon="5.347200">
        <ele>295.425611</ele>
        <time>2017-06-04T11:26:09.000Z</time>
      </trkpt>
      <trkpt lat="45.141834" lon="5.347136">
        <ele>295.406036</ele>
        <time>2017-06-04T11:26:12.000Z</time>
      </trkpt>
      <trkpt lat="45.141740" lon="5.347098">
        <ele>295.386691</ele>
        <time>2017-06-04T11:26:17.000Z</time>
      </trkpt>
      <trkpt lat="45.141655" lon="5.347041">
        <ele>295.368081</ele>
        <time>2017-06-04T11:26:30.000Z</time>
      </trkpt>
      <trkpt lat="45.141563" lon="5.346982">
        <ele>295.291714</ele>
        <time>2017-06-04T11:26:35.000Z</time>
      </trkpt>
      <trkpt lat="45.141487" lon="5.346913">
        <ele>295.184018</ele>
        <time>2017-06-04T11:26:41.000Z</time>
      </trkpt>
      <trkpt lat="45.141400" lon="5.346861">
        <ele>295.071348</ele>
        <time>2017-06-04T11:26:45.000Z</time>
      </trkpt>
      <trkpt lat="45.141310" lon="5.346777">
        <ele>294.942763</ele>
        <time>2017-06-04T11:26:49.000Z</time>
      </trkpt>
      <trkpt lat="45.141220" lon="5.346695">
        <ele>294.815096</ele>
        <time>2017-06-04T11:26:54.000Z</time>
      </trkpt>
      <trkpt lat="45.141144" lon="5.346615">
        <ele>294.702137</ele>
        <time>2017-06-04T11:26:59.000Z</time>
      </trkpt>
      <trkpt lat="45.141068" lon="5.346521">
        <ele>294.581780</ele>
        <time>2017-06-04T11:27:06.000Z</time>
      </trkpt>
      <trkpt lat="45.140930" lon="5.346324">
        <ele>294.348078</ele>
        <time>2017-06-04T11:27:32.000Z</time>
      </trkpt>
      <trkpt lat="45.140860" lon="5.346201">
        <ele>294.215048</ele>
        <time>2017-06-04T11:27:36.000Z</time>
      </trkpt>
      <trkpt lat="45.140793" lon="5.346069">
        <ele>294.078162</ele>
        <time>2017-06-04T11:27:40.000Z</time>
      </trkpt>
      <trkpt lat="45.140728" lon="5.345951">
        <ele>293.952137</ele>
        <time>2017-06-04T11:27:43.000Z</time>
      </trkpt>
      <trkpt lat="45.140644" lon="5.345822">
        <ele>293.804358</ele>
        <time>2017-06-04T11:27:46.000Z</time>
      </trkpt>
      <trkpt lat="45.140564" lon="5.345697">
        <ele>293.662285</ele>
        <time>2017-06-04T11:27:49.000Z</time>
      </trkpt>
      <trkpt lat="45.140490" lon="5.345583">
        <ele>293.531878</ele>
        <time>2017-06-04T11:27:52.000Z</time>
      </trkpt>
      <trkpt lat="45.140423" lon="5.345460">
        <ele>293.401065</ele>
        <time>2017-06-04T11:27:55.000Z</time>
      </trkpt>
      <trkpt lat="45.140360" lon="5.345322">
        <ele>293.262698</ele>
        <time>2017-06-04T11:27:58.000Z</time>
      </trkpt>
      <trkpt lat="45.140316" lon="5.345190">
        <ele>293.158024</ele>
        <time>2017-06-04T11:28:01.000Z</time>
      </trkpt>
      <trkpt lat="45.140263" lon="5.345037">
        <ele>293.050295</ele>
        <time>2017-06-04T11:28:04.000Z</time>
      </trkpt>
      <trkpt lat="45.140210" lon="5.344875">
        <ele>292.937432</ele>
        <time>2017-06-04T11:28:07.000Z</time>
      </trkpt>
      <trkpt lat="45.140156" lon="5.344770">
        <ele>292.855305</ele>
        <time>2017-06-04T11:28:09.000Z</time>
      </trkpt>
      <trkpt lat="45.140064" lon="5.344716">
        <ele>292.766087</ele>
        <time>2017-06-04T11:28:11.000Z</time>
      </trkpt>
      <trkpt lat="45.139957" lon="5.344699">
        <ele>292.669615</ele>
        <time>2017-06-04T11:28:13.000Z</time>
      </trkpt>
      <trkpt lat="45.139835" lon="5.344705">
        <ele>292.560238</ele>
        <time>2017-06-04T11:28:15.000Z</time>
      </trkpt>
      <trkpt lat="45.139713" lon="5.344732">
        <ele>292.449602</ele>
        <time>2017-06-04T11:28:17.000Z</time>
      </trkpt>
      <trkpt lat="45.139590" lon="5.344773">
        <ele>292.336389</ele>
        <time>2017-06-04T11:28:19.000Z</time>
      </trkpt>
      <trkpt lat="45.139465" lon="5.344801">
        <ele>292.223000</ele>
        <time>2017-06-04T11:28:21.000Z</time>
      </trkpt>
      <trkpt lat="45.139343" lon="5.344818">
        <ele>292.113161</ele>
        <time>2017-06-04T11:28:23.000Z</time>
      </trkpt>
      <trkpt lat="45.139225" lon="5.344830">
        <ele>292.007162</ele>
        <time>2017-06-04T11:28:25.000Z</time>
      </trkpt>
      <trkpt lat="45.139114" lon="5.344826">
        <ele>291.907674</ele>
        <time>2017-06-04T11:28:27.000Z</time>
      </trkpt>
      <trkpt lat="45.139008" lon="5.344788">
        <ele>291.809709</ele>
        <time>2017-06-04T11:28:29.000Z</time>
      </trkpt>
      <trkpt lat="45.138912" lon="5.344733">
        <ele>291.716934</ele>
        <time>2017-06-04T11:28:31.000Z</time>
      </trkpt>
      <trkpt lat="45.138805" lon="5.344667">
        <ele>291.612381</ele>
        <time>2017-06-04T11:28:34.000Z</time>
      </trkpt>
      <trkpt lat="45.138737" lon="5.344567">
        <ele>291.455438</ele>
        <time>2017-06-04T11:28:40.000Z</time>
      </trkpt>
      <trkpt lat="45.138670" lon="5.344450">
        <ele>291.274369</ele>
        <time>2017-06-04T11:28:44.000Z</time>
      </trkpt>
      <trkpt lat="45.138607" lon="5.344321">
        <ele>291.085852</ele>
        <time>2017-06-04T11:28:47.000Z</time>
      </trkpt>
      <trkpt lat="45.138520" lon="5.344184">
        <ele>290.864367</ele>
        <time>2017-06-04T11:28:50.000Z</time>
      </trkpt>
      <trkpt lat="45.138460" lon="5.344076">
        <ele>290.699190</ele>
        <time>2017-06-04T11:28:52.000Z</time>
      </trkpt>
      <trkpt lat="45.138393" lon="5.343981">
        <ele>290.537781</ele>
        <time>2017-06-04T11:28:54.000Z</time>
      </trkpt>
      <trkpt lat="45.138330" lon="5.343892">
        <ele>290.386287</ele>
        <time>2017-06-04T11:28:56.000Z</time>
      </trkpt>
      <trkpt lat="45.138260" lon="5.343799">
        <ele>290.222878</ele>
        <time>2017-06-04T11:28:58.000Z</time>
      </trkpt>
      <trkpt lat="45.138190" lon="5.343700">
        <ele>290.054457</ele>
        <time>2017-06-04T11:29:00.000Z</time>
      </trkpt>
      <trkpt lat="45.138120" lon="5.343605">
        <ele>289.889395</ele>
        <time>2017-06-04T11:29:02.000Z</time>
      </trkpt>
      <trkpt lat="45.138050" lon="5.343502">
        <ele>289.717545</ele>
        <time>2017-06-04T11:29:04.000Z</time>
      </trkpt>
      <trkpt lat="45.137978" lon="5.343399">
        <ele>289.543315</ele>
        <time>2017-06-04T11:29:06.000Z</time>
      </trkpt>
      <trkpt lat="45.137900" lon="5.343300">
        <ele>289.364987</ele>
        <time>2017-06-04T11:29:08.000Z</time>
      </trkpt>
      <trkpt lat="45.137825" lon="5.343188">
        <ele>289.179435</ele>
        <time>2017-06-04T11:29:10.000Z</time>
      </trkpt>
      <trkpt lat="45.137745" lon="5.343066">
        <ele>288.979295</ele>
        <time>2017-06-04T11:29:12.000Z</time>
      </trkpt>
      <trkpt lat="45.137676" lon="5.342947">
        <ele>288.794208</ele>
        <time>2017-06-04T11:29:14.000Z</time>
      </trkpt>
      <trkpt lat="45.137623" lon="5.342819">
        <ele>288.615874</ele>
        <time>2017-06-04T11:29:16.000Z</time>
      </trkpt>
      <trkpt lat="45.137570" lon="5.342680">
        <ele>288.555603</ele>
        <time>2017-06-04T11:29:18.000Z</time>
      </trkpt>
      <trkpt lat="45.137520" lon="5.342541">
        <ele>288.585713</ele>
        <time>2017-06-04T11:29:20.000Z</time>
      </trkpt>
      <trkpt lat="45.137466" lon="5.342405">
        <ele>288.615829</ele>
        <time>2017-06-04T11:29:22.000Z</time>
      </trkpt>
      <trkpt lat="45.137413" lon="5.342272">
        <ele>288.645306</ele>
        <time>2017-06-04T11:29:24.000Z</time>
      </trkpt>
      <trkpt lat="45.137370" lon="5.342141">
        <ele>288.673189</ele>
        <time>2017-06-04T11:29:26.000Z</time>
      </trkpt>
      <trkpt lat="45.137325" lon="5.342011">
        <ele>288.701133</ele>
        <time>2017-06-04T11:29:28.000Z</time>
      </trkpt>
      <trkpt lat="45.137280" lon="5.341890">
        <ele>288.727529</ele>
        <time>2017-06-04T11:29:30.000Z</time>
      </trkpt>
      <trkpt lat="45.137238" lon="5.341762">
        <ele>288.754771</ele>
        <time>2017-06-04T11:29:32.000Z</time>
      </trkpt>
      <trkpt lat="45.137196" lon="5.341634">
        <ele>288.782013</ele>
        <time>2017-06-04T11:29:34.000Z</time>
      </trkpt>
      <trkpt lat="45.137157" lon="5.341511">
        <ele>288.808036</ele>
        <time>2017-06-04T11:29:36.000Z</time>
      </trkpt>
      <trkpt lat="45.137104" lon="5.341393">
        <ele>288.835031</ele>
        <time>2017-06-04T11:29:38.000Z</time>
      </trkpt>
      <trkpt lat="45.137043" lon="5.341294">
        <ele>288.860397</ele>
        <time>2017-06-04T11:29:40.000Z</time>
      </trkpt>
      <trkpt lat="45.136974" lon="5.341193">
        <ele>288.887530</ele>
        <time>2017-06-04T11:29:42.000Z</time>
      </trkpt>
      <trkpt lat="45.136913" lon="5.341089">
        <ele>288.913630</ele>
        <time>2017-06-04T11:29:44.000Z</time>
      </trkpt>
      <trkpt lat="45.136850" lon="5.340990">
        <ele>288.939360</ele>
        <time>2017-06-04T11:29:46.000Z</time>
      </trkpt>
      <trkpt lat="45.136784" lon="5.340890">
        <ele>288.965787</ele>
        <time>2017-06-04T11:29:48.000Z</time>
      </trkpt>
      <trkpt lat="45.136715" lon="5.340797">
        <ele>288.991832</ele>
        <time>2017-06-04T11:29:50.000Z</time>
      </trkpt>
      <trkpt lat="45.136642" lon="5.340692">
        <ele>289.020282</ele>
        <time>2017-06-04T11:29:52.000Z</time>
      </trkpt>
      <trkpt lat="45.136574" lon="5.340587">
        <ele>288.906148</ele>
        <time>2017-06-04T11:29:54.000Z</time>
      </trkpt>
      <trkpt lat="45.136510" lon="5.340491">
        <ele>288.731912</ele>
        <time>2017-06-04T11:29:56.000Z</time>
      </trkpt>
      <trkpt lat="45.136436" lon="5.340391">
        <ele>288.540737</ele>
        <time>2017-06-04T11:29:58.000Z</time>
      </trkpt>
      <trkpt lat="45.136364" lon="5.340285">
        <ele>288.346630</ele>
        <time>2017-06-04T11:30:00.000Z</time>
      </trkpt>
      <trkpt lat="45.136300" lon="5.340164">
        <ele>288.147135</ele>
        <time>2017-06-04T11:30:02.000Z</time>
      </trkpt>
      <trkpt lat="45.136227" lon="5.340047">
        <ele>287.941094</ele>
        <time>2017-06-04T11:30:04.000Z</time>
      </trkpt>
      <trkpt lat="45.136147" lon="5.339933">
        <ele>287.728980</ele>
        <time>2017-06-04T11:30:06.000Z</time>
      </trkpt>
      <trkpt lat="45.136070" lon="5.339804">
        <ele>287.506073</ele>
        <time>2017-06-04T11:30:08.000Z</time>
      </trkpt>
      <trkpt lat="45.136000" lon="5.339669">
        <ele>287.285061</ele>
        <time>2017-06-04T11:30:10.000Z</time>
      </trkpt>
      <trkpt lat="45.135925" lon="5.339536">
        <ele>287.060454</ele>
        <time>2017-06-04T11:30:12.000Z</time>
      </trkpt>
      <trkpt lat="45.135840" lon="5.339408">
        <ele>286.828565</ele>
        <time>2017-06-04T11:30:14.000Z</time>
      </trkpt>
      <trkpt lat="45.135754" lon="5.339305">
        <ele>286.618038</ele>
        <time>2017-06-04T11:30:16.000Z</time>
      </trkpt>
      <trkpt lat="45.135670" lon="5.339192">
        <ele>286.401494</ele>
        <time>2017-06-04T11:30:18.000Z</time>
      </trkpt>
      <trkpt lat="45.135593" lon="5.339083">
        <ele>286.198010</ele>
        <time>2017-06-04T11:30:20.000Z</time>
      </trkpt>
      <trkpt lat="45.135520" lon="5.338974">
        <ele>285.999749</ele>
        <time>2017-06-04T11:30:22.000Z</time>
      </trkpt>
      <trkpt lat="45.135450" lon="5.338863">
        <ele>285.803349</ele>
        <time>2017-06-04T11:30:24.000Z</time>
      </trkpt>
      <trkpt lat="45.135376" lon="5.338763">
        <ele>285.620300</ele>
        <time>2017-06-04T11:30:26.000Z</time>
      </trkpt>
      <trkpt lat="45.135292" lon="5.338669">
        <ele>285.450201</ele>
        <time>2017-06-04T11:30:28.000Z</time>
      </trkpt>
      <trkpt lat="45.135210" lon="5.338565">
        <ele>285.275319</ele>
        <time>2017-06-04T11:30:30.000Z</time>
      </trkpt>
      <trkpt lat="45.135124" lon="5.338465">
        <ele>285.098526</ele>
        <time>2017-06-04T11:30:32.000Z</time>
      </trkpt>
      <trkpt lat="45.135036" lon="5.338364">
        <ele>284.918560</ele>
        <time>2017-06-04T11:30:34.000Z</time>
      </trkpt>
      <trkpt lat="45.134950" lon="5.338273">
        <ele>284.747988</ele>
        <time>2017-06-04T11:30:36.000Z</time>
      </trkpt>
      <trkpt lat="45.134850" lon="5.338193">
        <ele>284.565482</ele>
        <time>2017-06-04T11:30:38.000Z</time>
      </trkpt>
      <trkpt lat="45.134754" lon="5.338114">
        <ele>284.389051</ele>
        <time>2017-06-04T11:30:40.000Z</time>
      </trkpt>
      <trkpt lat="45.134670" lon="5.338027">
        <ele>284.223700</ele>
        <time>2017-06-04T11:30:42.000Z</time>
      </trkpt>
      <trkpt lat="45.134580" lon="5.337939">
        <ele>284.049924</ele>
        <time>2017-06-04T11:30:44.000Z</time>
      </trkpt>
      <trkpt lat="45.134495" lon="5.337855">
        <ele>283.885233</ele>
        <time>2017-06-04T11:30:46.000Z</time>
      </trkpt>
      <trkpt lat="45.134415" lon="5.337778">
        <ele>283.731539</ele>
        <time>2017-06-04T11:30:48.000Z</time>
      </trkpt>
      <trkpt lat="45.134330" lon="5.337712">
        <ele>283.577498</ele>
        <time>2017-06-04T11:30:50.000Z</time>
      </trkpt>
      <trkpt lat="45.134224" lon="5.337660">
        <ele>283.399216</ele>
        <time>2017-06-04T11:30:53.000Z</time>
      </trkpt>
      <trkpt lat="45.134125" lon="5.337635">
        <ele>283.239387</ele>
        <time>2017-06-04T11:30:58.000Z</time>
      </trkpt>
      <trkpt lat="45.134212" lon="5.337685">
        <ele>283.090175</ele>
        <time>2017-06-04T11:31:22.000Z</time>
      </trkpt>
      <trkpt lat="45.134117" lon="5.337652">
        <ele>282.934713</ele>
        <time>2017-06-04T11:32:45.000Z</time>
      </trkpt>
      <trkpt lat="45.134010" lon="5.337681">
        <ele>282.665104</ele>
        <time>2017-06-04T11:32:48.000Z</time>
      </trkpt>
      <trkpt lat="45.133910" lon="5.337687">
        <ele>282.172381</ele>
        <time>2017-06-04T11:32:50.000Z</time>
      </trkpt>
      <trkpt lat="45.133793" lon="5.337691">
        <ele>281.596243</ele>
        <time>2017-06-04T11:32:52.000Z</time>
      </trkpt>
      <trkpt lat="45.133675" lon="5.337695">
        <ele>281.015184</ele>
        <time>2017-06-04T11:32:54.000Z</time>
      </trkpt>
      <trkpt lat="45.133553" lon="5.337697">
        <ele>280.414559</ele>
        <time>2017-06-04T11:32:56.000Z</time>
      </trkpt>
      <trkpt lat="45.133442" lon="5.337717">
        <ele>279.863729</ele>
        <time>2017-06-04T11:32:58.000Z</time>
      </trkpt>
      <trkpt lat="45.133327" lon="5.337759">
        <ele>279.279116</ele>
        <time>2017-06-04T11:33:00.000Z</time>
      </trkpt>
      <trkpt lat="45.133200" lon="5.337826">
        <ele>278.612022</ele>
        <time>2017-06-04T11:33:02.000Z</time>
      </trkpt>
      <trkpt lat="45.133064" lon="5.337892">
        <ele>277.904369</ele>
        <time>2017-06-04T11:33:04.000Z</time>
      </trkpt>
      <trkpt lat="45.132920" lon="5.337908">
        <ele>277.193307</ele>
        <time>2017-06-04T11:33:06.000Z</time>
      </trkpt>
      <trkpt lat="45.132770" lon="5.337855">
        <ele>276.432289</ele>
        <time>2017-06-04T11:33:08.000Z</time>
      </trkpt>
      <trkpt lat="45.132626" lon="5.337738">
        <ele>275.615207</ele>
        <time>2017-06-04T11:33:10.000Z</time>
      </trkpt>
      <trkpt lat="45.132553" lon="5.337661">
        <ele>275.167263</ele>
        <time>2017-06-04T11:33:11.000Z</time>
      </trkpt>
      <trkpt lat="45.132484" lon="5.337568">
        <ele>274.698547</ele>
        <time>2017-06-04T11:33:12.000Z</time>
      </trkpt>
      <trkpt lat="45.132370" lon="5.337390">
        <ele>273.898220</ele>
        <time>2017-06-04T11:33:14.000Z</time>
      </trkpt>
      <trkpt lat="45.132317" lon="5.337285">
        <ele>273.623096</ele>
        <time>2017-06-04T11:33:15.000Z</time>
      </trkpt>
      <trkpt lat="45.132210" lon="5.337087">
        <ele>273.091604</ele>
        <time>2017-06-04T11:33:17.000Z</time>
      </trkpt>
      <trkpt lat="45.132103" lon="5.336913">
        <ele>272.599728</ele>
        <time>2017-06-04T11:33:19.000Z</time>
      </trkpt>
      <trkpt lat="45.131992" lon="5.336749">
        <ele>272.115423</ele>
        <time>2017-06-04T11:33:21.000Z</time>
      </trkpt>
      <trkpt lat="45.131870" lon="5.336608">
        <ele>271.639943</ele>
        <time>2017-06-04T11:33:23.000Z</time>
      </trkpt>
      <trkpt lat="45.131744" lon="5.336481">
        <ele>271.172937</ele>
        <time>2017-06-04T11:33:25.000Z</time>
      </trkpt>
      <trkpt lat="45.131615" lon="5.336370">
        <ele>270.717105</ele>
        <time>2017-06-04T11:33:27.000Z</time>
      </trkpt>
      <trkpt lat="45.131496" lon="5.336260">
        <ele>270.287976</ele>
        <time>2017-06-04T11:33:29.000Z</time>
      </trkpt>
      <trkpt lat="45.131382" lon="5.336153">
        <ele>269.874980</ele>
        <time>2017-06-04T11:33:31.000Z</time>
      </trkpt>
      <trkpt lat="45.131260" lon="5.336056">
        <ele>269.452453</ele>
        <time>2017-06-04T11:33:33.000Z</time>
      </trkpt>
      <trkpt lat="45.131150" lon="5.335979">
        <ele>269.081880</ele>
        <time>2017-06-04T11:33:35.000Z</time>
      </trkpt>
      <trkpt lat="45.131035" lon="5.335911">
        <ele>268.705498</ele>
        <time>2017-06-04T11:33:37.000Z</time>
      </trkpt>
      <trkpt lat="45.130913" lon="5.335862">
        <ele>268.551541</ele>
        <time>2017-06-04T11:33:39.000Z</time>
      </trkpt>
      <trkpt lat="45.130810" lon="5.335822">
        <ele>268.602719</ele>
        <time>2017-06-04T11:33:41.000Z</time>
      </trkpt>
      <trkpt lat="45.130710" lon="5.335781">
        <ele>268.652605</ele>
        <time>2017-06-04T11:33:43.000Z</time>
      </trkpt>
      <trkpt lat="45.130620" lon="5.335728">
        <ele>268.699308</ele>
        <time>2017-06-04T11:33:45.000Z</time>
      </trkpt>
      <trkpt lat="45.130530" lon="5.335602">
        <ele>268.759927</ele>
        <time>2017-06-04T11:33:48.000Z</time>
      </trkpt>
      <trkpt lat="45.130417" lon="5.335549">
        <ele>268.816966</ele>
        <time>2017-06-04T11:33:51.000Z</time>
      </trkpt>
      <trkpt lat="45.130320" lon="5.335563">
        <ele>268.863690</ele>
        <time>2017-06-04T11:33:53.000Z</time>
      </trkpt>
      <trkpt lat="45.130234" lon="5.335576">
        <ele>268.905135</ele>
        <time>2017-06-04T11:33:55.000Z</time>
      </trkpt>
      <trkpt lat="45.130140" lon="5.335570">
        <ele>268.950227</ele>
        <time>2017-06-04T11:33:57.000Z</time>
      </trkpt>
      <trkpt lat="45.130013" lon="5.335570">
        <ele>269.011087</ele>
        <time>2017-06-04T11:34:00.000Z</time>
      </trkpt>
      <trkpt lat="45.129887" lon="5.335589">
        <ele>269.071808</ele>
        <time>2017-06-04T11:34:03.000Z</time>
      </trkpt>
      <trkpt lat="45.129765" lon="5.335595">
        <ele>269.130307</ele>
        <time>2017-06-04T11:34:06.000Z</time>
      </trkpt>
      <trkpt lat="45.129640" lon="5.335581">
        <ele>269.190396</ele>
        <time>2017-06-04T11:34:09.000Z</time>
      </trkpt>
      <trkpt lat="45.129517" lon="5.335584">
        <ele>269.249347</ele>
        <time>2017-06-04T11:34:12.000Z</time>
      </trkpt>
      <trkpt lat="45.129390" lon="5.335599">
        <ele>269.310418</ele>
        <time>2017-06-04T11:34:15.000Z</time>
      </trkpt>
      <trkpt lat="45.129276" lon="5.335599">
        <ele>269.365048</ele>
        <time>2017-06-04T11:34:18.000Z</time>
      </trkpt>
      <trkpt lat="45.129180" lon="5.335618">
        <ele>268.984747</ele>
        <time>2017-06-04T11:34:21.000Z</time>
      </trkpt>
      <trkpt lat="45.129080" lon="5.335641">
        <ele>268.328394</ele>
        <time>2017-06-04T11:34:24.000Z</time>
      </trkpt>
      <trkpt lat="45.128918" lon="5.335653">
        <ele>267.277399</ele>
        <time>2017-06-04T11:34:28.000Z</time>
      </trkpt>
      <trkpt lat="45.128807" lon="5.335608">
        <ele>266.529417</ele>
        <time>2017-06-04T11:34:30.000Z</time>
      </trkpt>
      <trkpt lat="45.128704" lon="5.335493">
        <ele>265.679936</ele>
        <time>2017-06-04T11:34:32.000Z</time>
      </trkpt>
      <trkpt lat="45.128624" lon="5.335372">
        <ele>264.921956</ele>
        <time>2017-06-04T11:34:34.000Z</time>
      </trkpt>
      <trkpt lat="45.128560" lon="5.335243">
        <ele>264.201116</ele>
        <time>2017-06-04T11:34:36.000Z</time>
      </trkpt>
      <trkpt lat="45.128510" lon="5.335129">
        <ele>263.587550</ele>
        <time>2017-06-04T11:34:38.000Z</time>
      </trkpt>
      <trkpt lat="45.128460" lon="5.334993">
        <ele>262.886567</ele>
        <time>2017-06-04T11:34:41.000Z</time>
      </trkpt>
      <trkpt lat="45.128418" lon="5.334878">
        <ele>262.294658</ele>
        <time>2017-06-04T11:34:44.000Z</time>
      </trkpt>
      <trkpt lat="45.128387" lon="5.334731">
        <ele>261.593360</ele>
        <time>2017-06-04T11:34:47.000Z</time>
      </trkpt>
      <trkpt lat="45.128330" lon="5.334562">
        <ele>260.737142</ele>
        <time>2017-06-04T11:34:50.000Z</time>
      </trkpt>
      <trkpt lat="45.128277" lon="5.334449">
        <ele>260.116906</ele>
        <time>2017-06-04T11:34:52.000Z</time>
      </trkpt>
      <trkpt lat="45.128223" lon="5.334348">
        <ele>259.537655</ele>
        <time>2017-06-04T11:34:54.000Z</time>
      </trkpt>
      <trkpt lat="45.128130" lon="5.334220">
        <ele>258.697800</ele>
        <time>2017-06-04T11:34:57.000Z</time>
      </trkpt>
      <trkpt lat="45.128033" lon="5.334083">
        <ele>257.810620</ele>
        <time>2017-06-04T11:35:00.000Z</time>
      </trkpt>
      <trkpt lat="45.127945" lon="5.333999">
        <ele>257.095122</ele>
        <time>2017-06-04T11:35:02.000Z</time>
      </trkpt>
      <trkpt lat="45.127842" lon="5.333940">
        <ele>256.341954</ele>
        <time>2017-06-04T11:35:04.000Z</time>
      </trkpt>
      <trkpt lat="45.127750" lon="5.333884">
        <ele>255.663148</ele>
        <time>2017-06-04T11:35:06.000Z</time>
      </trkpt>
      <trkpt lat="45.127670" lon="5.333828">
        <ele>255.058242</ele>
        <time>2017-06-04T11:35:08.000Z</time>
      </trkpt>
      <trkpt lat="45.127580" lon="5.333775">
        <ele>254.397510</ele>
        <time>2017-06-04T11:35:10.000Z</time>
      </trkpt>
      <trkpt lat="45.127480" lon="5.333715">
        <ele>253.661308</ele>
        <time>2017-06-04T11:35:12.000Z</time>
      </trkpt>
      <trkpt lat="45.127384" lon="5.333634">
        <ele>252.903876</ele>
        <time>2017-06-04T11:35:14.000Z</time>
      </trkpt>
      <trkpt lat="45.127285" lon="5.333542">
        <ele>252.101297</ele>
        <time>2017-06-04T11:35:16.000Z</time>
      </trkpt>
      <trkpt lat="45.127167" lon="5.333460">
        <ele>251.210327</ele>
        <time>2017-06-04T11:35:18.000Z</time>
      </trkpt>
      <trkpt lat="45.127050" lon="5.333369">
        <ele>250.305534</ele>
        <time>2017-06-04T11:35:20.000Z</time>
      </trkpt>
      <trkpt lat="45.126915" lon="5.333233">
        <ele>249.182657</ele>
        <time>2017-06-04T11:35:22.000Z</time>
      </trkpt>
      <trkpt lat="45.126835" lon="5.333163">
        <ele>248.545261</ele>
        <time>2017-06-04T11:35:23.000Z</time>
      </trkpt>
      <trkpt lat="45.126762" lon="5.333066">
        <ele>247.866873</ele>
        <time>2017-06-04T11:35:24.000Z</time>
      </trkpt>
      <trkpt lat="45.126686" lon="5.332963">
        <ele>247.153982</ele>
        <time>2017-06-04T11:35:25.000Z</time>
      </trkpt>
      <trkpt lat="45.126614" lon="5.332856">
        <ele>246.446718</ele>
        <time>2017-06-04T11:35:26.000Z</time>
      </trkpt>
      <trkpt lat="45.126550" lon="5.332746">
        <ele>245.764728</ele>
        <time>2017-06-04T11:35:27.000Z</time>
      </trkpt>
      <trkpt lat="45.126484" lon="5.332625">
        <ele>244.907449</ele>
        <time>2017-06-04T11:35:28.000Z</time>
      </trkpt>
      <trkpt lat="45.126415" lon="5.332507">
        <ele>243.990747</ele>
        <time>2017-06-04T11:35:29.000Z</time>
      </trkpt>
      <trkpt lat="45.126358" lon="5.332387">
        <ele>243.125471</ele>
        <time>2017-06-04T11:35:30.000Z</time>
      </trkpt>
      <trkpt lat="45.126310" lon="5.332262">
        <ele>242.274229</ele>
        <time>2017-06-04T11:35:31.000Z</time>
      </trkpt>
      <trkpt lat="45.126266" lon="5.332132">
        <ele>241.411801</ele>
        <time>2017-06-04T11:35:32.000Z</time>
      </trkpt>
      <trkpt lat="45.126236" lon="5.331995">
        <ele>240.553785</ele>
        <time>2017-06-04T11:35:33.000Z</time>
      </trkpt>
      <trkpt lat="45.126217" lon="5.331859">
        <ele>239.724517</ele>
        <time>2017-06-04T11:35:34.000Z</time>
      </trkpt>
      <trkpt lat="45.126160" lon="5.331628">
        <ele>238.260743</ele>
        <time>2017-06-04T11:35:36.000Z</time>
      </trkpt>
      <trkpt lat="45.126100" lon="5.331434">
        <ele>236.993753</ele>
        <time>2017-06-04T11:35:38.000Z</time>
      </trkpt>
      <trkpt lat="45.126040" lon="5.331259">
        <ele>235.829954</ele>
        <time>2017-06-04T11:35:40.000Z</time>
      </trkpt>
      <trkpt lat="45.125990" lon="5.331090">
        <ele>234.733812</ele>
        <time>2017-06-04T11:35:42.000Z</time>
      </trkpt>
      <trkpt lat="45.125946" lon="5.330944">
        <ele>233.784190</ele>
        <time>2017-06-04T11:35:44.000Z</time>
      </trkpt>
      <trkpt lat="45.125908" lon="5.330802">
        <ele>232.875781</ele>
        <time>2017-06-04T11:35:46.000Z</time>
      </trkpt>
      <trkpt lat="45.125874" lon="5.330650">
        <ele>231.922001</ele>
        <time>2017-06-04T11:35:48.000Z</time>
      </trkpt>
      <trkpt lat="45.125850" lon="5.330503">
        <ele>231.019492</ele>
        <time>2017-06-04T11:35:50.000Z</time>
      </trkpt>
      <trkpt lat="45.125824" lon="5.330360">
        <ele>230.290575</ele>
        <time>2017-06-04T11:35:52.000Z</time>
      </trkpt>
      <trkpt lat="45.125805" lon="5.330227">
        <ele>230.311783</ele>
        <time>2017-06-04T11:35:54.000Z</time>
      </trkpt>
      <trkpt lat="45.125782" lon="5.330102">
        <ele>230.331973</ele>
        <time>2017-06-04T11:35:56.000Z</time>
      </trkpt>
      <trkpt lat="45.125760" lon="5.329938">
        <ele>230.358064</ele>
        <time>2017-06-04T11:35:59.000Z</time>
      </trkpt>
      <trkpt lat="45.125736" lon="5.329786">
        <ele>230.382408</ele>
        <time>2017-06-04T11:36:02.000Z</time>
      </trkpt>
      <trkpt lat="45.125713" lon="5.329650">
        <ele>230.404265</ele>
        <time>2017-06-04T11:36:05.000Z</time>
      </trkpt>
      <trkpt lat="45.125687" lon="5.329505">
        <ele>230.427648</ele>
        <time>2017-06-04T11:36:10.000Z</time>
      </trkpt>
      <trkpt lat="45.125595" lon="5.329572">
        <ele>230.450560</ele>
        <time>2017-06-04T11:37:57.000Z</time>
      </trkpt>
      <trkpt lat="45.125520" lon="5.329667">
        <ele>230.472842</ele>
        <time>2017-06-04T11:38:00.000Z</time>
      </trkpt>
      <trkpt lat="45.125416" lon="5.329755">
        <ele>230.499673</ele>
        <time>2017-06-04T11:38:03.000Z</time>
      </trkpt>
      <trkpt lat="45.125294" lon="5.329826">
        <ele>230.528887</ele>
        <time>2017-06-04T11:38:06.000Z</time>
      </trkpt>
      <trkpt lat="45.125175" lon="5.329893">
        <ele>230.557251</ele>
        <time>2017-06-04T11:38:09.000Z</time>
      </trkpt>
      <trkpt lat="45.125072" lon="5.329969">
        <ele>230.582974</ele>
        <time>2017-06-04T11:38:12.000Z</time>
      </trkpt>
      <trkpt lat="45.124970" lon="5.330040">
        <ele>230.608146</ele>
        <time>2017-06-04T11:38:15.000Z</time>
      </trkpt>
      <trkpt lat="45.124855" lon="5.330111">
        <ele>230.635933</ele>
        <time>2017-06-04T11:38:18.000Z</time>
      </trkpt>
      <trkpt lat="45.124775" lon="5.330171">
        <ele>230.655982</ele>
        <time>2017-06-04T11:38:20.000Z</time>
      </trkpt>
      <trkpt lat="45.124657" lon="5.330254">
        <ele>230.685682</ele>
        <time>2017-06-04T11:38:23.000Z</time>
      </trkpt>
      <trkpt lat="45.124570" lon="5.330313">
        <ele>230.827313</ele>
        <time>2017-06-04T11:38:25.000Z</time>
      </trkpt>
      <trkpt lat="45.124490" lon="5.330374">
        <ele>230.960715</ele>
        <time>2017-06-04T11:38:27.000Z</time>
      </trkpt>
      <trkpt lat="45.124405" lon="5.330439">
        <ele>231.102546</ele>
        <time>2017-06-04T11:38:29.000Z</time>
      </trkpt>
      <trkpt lat="45.124325" lon="5.330497">
        <ele>231.234504</ele>
        <time>2017-06-04T11:38:31.000Z</time>
      </trkpt>
      <trkpt lat="45.124207" lon="5.330576">
        <ele>231.426146</ele>
        <time>2017-06-04T11:38:34.000Z</time>
      </trkpt>
      <trkpt lat="45.124080" lon="5.330646">
        <ele>231.626251</ele>
        <time>2017-06-04T11:38:37.000Z</time>
      </trkpt>
      <trkpt lat="45.123985" lon="5.330685">
        <ele>231.771493</ele>
        <time>2017-06-04T11:38:39.000Z</time>
      </trkpt>
      <trkpt lat="45.123890" lon="5.330692">
        <ele>231.911188</ele>
        <time>2017-06-04T11:38:41.000Z</time>
      </trkpt>
      <trkpt lat="45.123800" lon="5.330663">
        <ele>232.046725</ele>
        <time>2017-06-04T11:38:43.000Z</time>
      </trkpt>
      <trkpt lat="45.123714" lon="5.330601">
        <ele>232.188415</ele>
        <time>2017-06-04T11:38:45.000Z</time>
      </trkpt>
      <trkpt lat="45.123634" lon="5.330529">
        <ele>232.327580</ele>
        <time>2017-06-04T11:38:47.000Z</time>
      </trkpt>
      <trkpt lat="45.123570" lon="5.330441">
        <ele>232.458525</ele>
        <time>2017-06-04T11:38:49.000Z</time>
      </trkpt>
      <trkpt lat="45.123512" lon="5.330338">
        <ele>232.595068</ele>
        <time>2017-06-04T11:38:51.000Z</time>
      </trkpt>
      <trkpt lat="45.123455" lon="5.330202">
        <ele>232.758969</ele>
        <time>2017-06-04T11:38:54.000Z</time>
      </trkpt>
      <trkpt lat="45.123400" lon="5.330065">
        <ele>232.922289</ele>
        <time>2017-06-04T11:38:57.000Z</time>
      </trkpt>
      <trkpt lat="45.123337" lon="5.329915">
        <ele>233.103161</ele>
        <time>2017-06-04T11:39:01.000Z</time>
      </trkpt>
      <trkpt lat="45.123276" lon="5.329786">
        <ele>233.264065</ele>
        <time>2017-06-04T11:39:05.000Z</time>
      </trkpt>
      <trkpt lat="45.123203" lon="5.329657">
        <ele>233.676362</ele>
        <time>2017-06-04T11:39:09.000Z</time>
      </trkpt>
      <trkpt lat="45.123158" lon="5.329522">
        <ele>234.172925</ele>
        <time>2017-06-04T11:39:13.000Z</time>
      </trkpt>
      <trkpt lat="45.123100" lon="5.329391">
        <ele>234.687274</ele>
        <time>2017-06-04T11:39:17.000Z</time>
      </trkpt>
      <trkpt lat="45.123047" lon="5.329265">
        <ele>235.175139</ele>
        <time>2017-06-04T11:39:21.000Z</time>
      </trkpt>
      <trkpt lat="45.122990" lon="5.329137">
        <ele>235.678534</ele>
        <time>2017-06-04T11:39:25.000Z</time>
      </trkpt>
      <trkpt lat="45.122917" lon="5.329027">
        <ele>236.180763</ele>
        <time>2017-06-04T11:39:29.000Z</time>
      </trkpt>
      <trkpt lat="45.122856" lon="5.328912">
        <ele>236.659253</ele>
        <time>2017-06-04T11:39:33.000Z</time>
      </trkpt>
      <trkpt lat="45.122807" lon="5.328787">
        <ele>237.134829</ele>
        <time>2017-06-04T11:39:37.000Z</time>
      </trkpt>
      <trkpt lat="45.122770" lon="5.328661">
        <ele>237.588724</ele>
        <time>2017-06-04T11:39:41.000Z</time>
      </trkpt>
      <trkpt lat="45.122740" lon="5.328531">
        <ele>238.043616</ele>
        <time>2017-06-04T11:39:45.000Z</time>
      </trkpt>
      <trkpt lat="45.122680" lon="5.328401">
        <ele>238.560254</ele>
        <time>2017-06-04T11:39:50.000Z</time>
      </trkpt>
      <trkpt lat="45.122604" lon="5.328238">
        <ele>239.210031</ele>
        <time>2017-06-04T11:40:43.000Z</time>
      </trkpt>
      <trkpt lat="45.122543" lon="5.328107">
        <ele>239.732037</ele>
        <time>2017-06-04T11:40:47.000Z</time>
      </trkpt>
      <trkpt lat="45.122480" lon="5.327974">
        <ele>240.264805</ele>
        <time>2017-06-04T11:40:51.000Z</time>
      </trkpt>
      <trkpt lat="45.122410" lon="5.327848">
        <ele>240.798164</ele>
        <time>2017-06-04T11:40:55.000Z</time>
      </trkpt>
      <trkpt lat="45.122340" lon="5.327727">
        <ele>241.318560</ele>
        <time>2017-06-04T11:41:00.000Z</time>
      </trkpt>
      <trkpt lat="45.122272" lon="5.327605">
        <ele>241.833293</ele>
        <time>2017-06-04T11:41:03.000Z</time>
      </trkpt>
      <trkpt lat="45.122196" lon="5.327514">
        <ele>242.267173</ele>
        <time>2017-06-04T11:41:07.000Z</time>
      </trkpt>
      <trkpt lat="45.122112" lon="5.327417">
        <ele>242.739693</ele>
        <time>2017-06-04T11:41:11.000Z</time>
      </trkpt>
      <trkpt lat="45.122032" lon="5.327325">
        <ele>243.188972</ele>
        <time>2017-06-04T11:41:15.000Z</time>
      </trkpt>
      <trkpt lat="45.121950" lon="5.327245">
        <ele>243.623105</ele>
        <time>2017-06-04T11:41:19.000Z</time>
      </trkpt>
      <trkpt lat="45.121860" lon="5.327165">
        <ele>244.086398</ele>
        <time>2017-06-04T11:41:23.000Z</time>
      </trkpt>
      <trkpt lat="45.121770" lon="5.327097">
        <ele>244.531172</ele>
        <time>2017-06-04T11:41:27.000Z</time>
      </trkpt>
      <trkpt lat="45.121685" lon="5.327034">
        <ele>244.949480</ele>
        <time>2017-06-04T11:41:31.000Z</time>
      </trkpt>
      <trkpt lat="45.121590" lon="5.326980">
        <ele>245.395848</ele>
        <time>2017-06-04T11:41:35.000Z</time>
      </trkpt>
      <trkpt lat="45.121480" lon="5.326942">
        <ele>245.889594</ele>
        <time>2017-06-04T11:41:39.000Z</time>
      </trkpt>
      <trkpt lat="45.121370" lon="5.326920">
        <ele>246.374048</ele>
        <time>2017-06-04T11:41:43.000Z</time>
      </trkpt>
      <trkpt lat="45.121258" lon="5.326903">
        <ele>246.865263</ele>
        <time>2017-06-04T11:41:47.000Z</time>
      </trkpt>
      <trkpt lat="45.121160" lon="5.326878">
        <ele>247.299501</ele>
        <time>2017-06-04T11:41:51.000Z</time>
      </trkpt>
      <trkpt lat="45.121044" lon="5.326881">
        <ele>247.805452</ele>
        <time>2017-06-04T11:41:55.000Z</time>
      </trkpt>
      <trkpt lat="45.120934" lon="5.326895">
        <ele>248.287083</ele>
        <time>2017-06-04T11:41:59.000Z</time>
      </trkpt>
      <trkpt lat="45.120830" lon="5.326908">
        <ele>248.742379</ele>
        <time>2017-06-04T11:42:03.000Z</time>
      </trkpt>
      <trkpt lat="45.120740" lon="5.326925">
        <ele>249.138332</ele>
        <time>2017-06-04T11:42:07.000Z</time>
      </trkpt>
      <trkpt lat="45.120640" lon="5.326924">
        <ele>249.574435</ele>
        <time>2017-06-04T11:42:11.000Z</time>
      </trkpt>
      <trkpt lat="45.120533" lon="5.326945">
        <ele>249.889175</ele>
        <time>2017-06-04T11:42:15.000Z</time>
      </trkpt>
      <trkpt lat="45.120434" lon="5.326958">
        <ele>250.152218</ele>
        <time>2017-06-04T11:42:19.000Z</time>
      </trkpt>
      <trkpt lat="45.120342" lon="5.326965">
        <ele>250.395971</ele>
        <time>2017-06-04T11:42:23.000Z</time>
      </trkpt>
      <trkpt lat="45.120228" lon="5.326976">
        <ele>250.698275</ele>
        <time>2017-06-04T11:42:27.000Z</time>
      </trkpt>
      <trkpt lat="45.120110" lon="5.326999">
        <ele>251.013403</ele>
        <time>2017-06-04T11:42:31.000Z</time>
      </trkpt>
      <trkpt lat="45.120018" lon="5.327004">
        <ele>251.256983</ele>
        <time>2017-06-04T11:42:34.000Z</time>
      </trkpt>
      <trkpt lat="45.119910" lon="5.327016">
        <ele>251.543592</ele>
        <time>2017-06-04T11:42:38.000Z</time>
      </trkpt>
      <trkpt lat="45.119812" lon="5.327033">
        <ele>251.804803</ele>
        <time>2017-06-04T11:42:41.000Z</time>
      </trkpt>
      <trkpt lat="45.119690" lon="5.327052">
        <ele>252.129518</ele>
        <time>2017-06-04T11:42:45.000Z</time>
      </trkpt>
      <trkpt lat="45.119583" lon="5.327069">
        <ele>252.414378</ele>
        <time>2017-06-04T11:42:49.000Z</time>
      </trkpt>
      <trkpt lat="45.119490" lon="5.327076">
        <ele>252.660772</ele>
        <time>2017-06-04T11:42:53.000Z</time>
      </trkpt>
      <trkpt lat="45.119380" lon="5.327082">
        <ele>252.952011</ele>
        <time>2017-06-04T11:42:57.000Z</time>
      </trkpt>
      <trkpt lat="45.119290" lon="5.327095">
        <ele>253.191355</ele>
        <time>2017-06-04T11:43:00.000Z</time>
      </trkpt>
      <trkpt lat="45.119194" lon="5.327112">
        <ele>253.447314</ele>
        <time>2017-06-04T11:43:03.000Z</time>
      </trkpt>
      <trkpt lat="45.119102" lon="5.327122">
        <ele>253.691430</ele>
        <time>2017-06-04T11:43:06.000Z</time>
      </trkpt>
      <trkpt lat="45.119000" lon="5.327138">
        <ele>253.962937</ele>
        <time>2017-06-04T11:43:09.000Z</time>
      </trkpt>
      <trkpt lat="45.118900" lon="5.327153">
        <ele>254.228982</ele>
        <time>2017-06-04T11:43:12.000Z</time>
      </trkpt>
      <trkpt lat="45.118800" lon="5.327172">
        <ele>254.595996</ele>
        <time>2017-06-04T11:43:15.000Z</time>
      </trkpt>
      <trkpt lat="45.118700" lon="5.327170">
        <ele>255.157269</ele>
        <time>2017-06-04T11:43:18.000Z</time>
      </trkpt>
      <trkpt lat="45.118580" lon="5.327171">
        <ele>255.830740</ele>
        <time>2017-06-04T11:43:22.000Z</time>
      </trkpt>
      <trkpt lat="45.118480" lon="5.327173">
        <ele>256.392013</ele>
        <time>2017-06-04T11:43:25.000Z</time>
      </trkpt>
      <trkpt lat="45.118366" lon="5.327191">
        <ele>257.035759</ele>
        <time>2017-06-04T11:43:28.000Z</time>
      </trkpt>
      <trkpt lat="45.118263" lon="5.327212">
        <ele>257.619764</ele>
        <time>2017-06-04T11:43:31.000Z</time>
      </trkpt>
      <trkpt lat="45.118145" lon="5.327233">
        <ele>258.287201</ele>
        <time>2017-06-04T11:43:34.000Z</time>
      </trkpt>
      <trkpt lat="45.118020" lon="5.327247">
        <ele>258.990909</ele>
        <time>2017-06-04T11:43:37.000Z</time>
      </trkpt>
      <trkpt lat="45.117920" lon="5.327244">
        <ele>259.552252</ele>
        <time>2017-06-04T11:43:40.000Z</time>
      </trkpt>
      <trkpt lat="45.117825" lon="5.327253">
        <ele>260.086598</ele>
        <time>2017-06-04T11:43:43.000Z</time>
      </trkpt>
      <trkpt lat="45.117710" lon="5.327269">
        <ele>260.735100</ele>
        <time>2017-06-04T11:43:47.000Z</time>
      </trkpt>
      <trkpt lat="45.117620" lon="5.327279">
        <ele>261.241745</ele>
        <time>2017-06-04T11:43:51.000Z</time>
      </trkpt>
      <trkpt lat="45.117520" lon="5.327323">
        <ele>261.829391</ele>
        <time>2017-06-04T11:43:55.000Z</time>
      </trkpt>
      <trkpt lat="45.117443" lon="5.327405">
        <ele>262.369945</ele>
        <time>2017-06-04T11:44:00.000Z</time>
      </trkpt>
      <trkpt lat="45.117430" lon="5.327532">
        <ele>262.878162</ele>
        <time>2017-06-04T11:47:04.000Z</time>
      </trkpt>
      <trkpt lat="45.117367" lon="5.327437">
        <ele>263.394451</ele>
        <time>2017-06-04T13:01:28.000Z</time>
      </trkpt>
      <trkpt lat="45.117287" lon="5.327373">
        <ele>263.910026</ele>
        <time>2017-06-04T13:01:34.000Z</time>
      </trkpt>
      <trkpt lat="45.117344" lon="5.327246">
        <ele>264.503114</ele>
        <time>2017-06-04T13:01:42.000Z</time>
      </trkpt>
      <trkpt lat="45.117245" lon="5.327220">
        <ele>264.741264</ele>
        <time>2017-06-04T13:01:46.000Z</time>
      </trkpt>
      <trkpt lat="45.117146" lon="5.327183">
        <ele>264.983434</ele>
        <time>2017-06-04T13:01:50.000Z</time>
      </trkpt>
      <trkpt lat="45.117054" lon="5.327070">
        <ele>265.271401</ele>
        <time>2017-06-04T13:01:54.000Z</time>
      </trkpt>
      <trkpt lat="45.116974" lon="5.326964">
        <ele>265.530451</ele>
        <time>2017-06-04T13:01:57.000Z</time>
      </trkpt>
      <trkpt lat="45.116886" lon="5.326866">
        <ele>265.795177</ele>
        <time>2017-06-04T13:02:00.000Z</time>
      </trkpt>
      <trkpt lat="45.116795" lon="5.326744">
        <ele>266.091477</ele>
        <time>2017-06-04T13:02:03.000Z</time>
      </trkpt>
      <trkpt lat="45.116703" lon="5.326623">
        <ele>266.388362</ele>
        <time>2017-06-04T13:02:06.000Z</time>
      </trkpt>
      <trkpt lat="45.116604" lon="5.326499">
        <ele>266.700881</ele>
        <time>2017-06-04T13:02:09.000Z</time>
      </trkpt>
      <trkpt lat="45.116512" lon="5.326382">
        <ele>266.993265</ele>
        <time>2017-06-04T13:02:12.000Z</time>
      </trkpt>
      <trkpt lat="45.116450" lon="5.326262">
        <ele>267.241505</ele>
        <time>2017-06-04T13:02:15.000Z</time>
      </trkpt>
      <trkpt lat="45.116455" lon="5.326120">
        <ele>267.478812</ele>
        <time>2017-06-04T13:02:18.000Z</time>
      </trkpt>
      <trkpt lat="45.116450" lon="5.325941">
        <ele>267.777816</ele>
        <time>2017-06-04T13:02:21.000Z</time>
      </trkpt>
      <trkpt lat="45.116450" lon="5.325783">
        <ele>268.041535</ele>
        <time>2017-06-04T13:02:24.000Z</time>
      </trkpt>
      <trkpt lat="45.116447" lon="5.325631">
        <ele>268.295338</ele>
        <time>2017-06-04T13:02:27.000Z</time>
      </trkpt>
      <trkpt lat="45.116444" lon="5.325484">
        <ele>268.540799</ele>
        <time>2017-06-04T13:02:30.000Z</time>
      </trkpt>
      <trkpt lat="45.116447" lon="5.325324">
        <ele>268.752036</ele>
        <time>2017-06-04T13:02:33.000Z</time>
      </trkpt>
      <trkpt lat="45.116450" lon="5.325153">
        <ele>268.734648</ele>
        <time>2017-06-04T13:02:36.000Z</time>
      </trkpt>
      <trkpt lat="45.116455" lon="5.324978">
        <ele>268.716843</ele>
        <time>2017-06-04T13:02:39.000Z</time>
      </trkpt>
      <trkpt lat="45.116450" lon="5.324848">
        <ele>268.703608</ele>
        <time>2017-06-04T13:02:41.000Z</time>
      </trkpt>
      <trkpt lat="45.116450" lon="5.324667">
        <ele>268.685207</ele>
        <time>2017-06-04T13:02:44.000Z</time>
      </trkpt>
      <trkpt lat="45.116467" lon="5.324474">
        <ele>268.665435</ele>
        <time>2017-06-04T13:02:47.000Z</time>
      </trkpt>
      <trkpt lat="45.116480" lon="5.324337">
        <ele>268.651383</ele>
        <time>2017-06-04T13:02:49.000Z</time>
      </trkpt>
      <trkpt lat="45.116490" lon="5.324199">
        <ele>268.637280</ele>
        <time>2017-06-04T13:02:51.000Z</time>
      </trkpt>
      <trkpt lat="45.116497" lon="5.324016">
        <ele>268.618649</ele>
        <time>2017-06-04T13:02:54.000Z</time>
      </trkpt>
      <trkpt lat="45.116516" lon="5.323840">
        <ele>268.600549</ele>
        <time>2017-06-04T13:02:57.000Z</time>
      </trkpt>
      <trkpt lat="45.116520" lon="5.323666">
        <ele>268.582851</ele>
        <time>2017-06-04T13:03:00.000Z</time>
      </trkpt>
      <trkpt lat="45.116530" lon="5.323476">
        <ele>268.563483</ele>
        <time>2017-06-04T13:03:03.000Z</time>
      </trkpt>
      <trkpt lat="45.116535" lon="5.323345">
        <ele>268.550146</ele>
        <time>2017-06-04T13:03:05.000Z</time>
      </trkpt>
      <trkpt lat="45.116558" lon="5.323166">
        <ele>268.531650</ele>
        <time>2017-06-04T13:03:08.000Z</time>
      </trkpt>
      <trkpt lat="45.116570" lon="5.322978">
        <ele>268.512460</ele>
        <time>2017-06-04T13:03:11.000Z</time>
      </trkpt>
      <trkpt lat="45.116560" lon="5.322803">
        <ele>268.488567</ele>
        <time>2017-06-04T13:03:14.000Z</time>
      </trkpt>
      <trkpt lat="45.116550" lon="5.322672">
        <ele>268.422003</ele>
        <time>2017-06-04T13:03:16.000Z</time>
      </trkpt>
      <trkpt lat="45.116524" lon="5.322532">
        <ele>268.348869</ele>
        <time>2017-06-04T13:03:18.000Z</time>
      </trkpt>
      <trkpt lat="45.116480" lon="5.322394">
        <ele>268.272369</ele>
        <time>2017-06-04T13:03:20.000Z</time>
      </trkpt>
      <trkpt lat="45.116440" lon="5.322267">
        <ele>268.202111</ele>
        <time>2017-06-04T13:03:22.000Z</time>
      </trkpt>
      <trkpt lat="45.116394" lon="5.322143">
        <ele>268.131340</ele>
        <time>2017-06-04T13:03:24.000Z</time>
      </trkpt>
      <trkpt lat="45.116340" lon="5.322021">
        <ele>268.058587</ele>
        <time>2017-06-04T13:03:26.000Z</time>
      </trkpt>
      <trkpt lat="45.116314" lon="5.321885">
        <ele>267.987406</ele>
        <time>2017-06-04T13:03:28.000Z</time>
      </trkpt>
      <trkpt lat="45.116302" lon="5.321744">
        <ele>267.915659</ele>
        <time>2017-06-04T13:03:30.000Z</time>
      </trkpt>
      <trkpt lat="45.116310" lon="5.321607">
        <ele>267.846213</ele>
        <time>2017-06-04T13:03:32.000Z</time>
      </trkpt>
      <trkpt lat="45.116340" lon="5.321465">
        <ele>267.771331</ele>
        <time>2017-06-04T13:03:34.000Z</time>
      </trkpt>
      <trkpt lat="45.116375" lon="5.321328">
        <ele>267.697725</ele>
        <time>2017-06-04T13:03:36.000Z</time>
      </trkpt>
      <trkpt lat="45.116390" lon="5.321178">
        <ele>267.621191</ele>
        <time>2017-06-04T13:03:38.000Z</time>
      </trkpt>
      <trkpt lat="45.116370" lon="5.321019">
        <ele>267.539601</ele>
        <time>2017-06-04T13:03:40.000Z</time>
      </trkpt>
      <trkpt lat="45.116310" lon="5.320887">
        <ele>267.460281</ele>
        <time>2017-06-04T13:03:42.000Z</time>
      </trkpt>
      <trkpt lat="45.116220" lon="5.320777">
        <ele>267.375197</ele>
        <time>2017-06-04T13:03:44.000Z</time>
      </trkpt>
      <trkpt lat="45.116123" lon="5.320681">
        <ele>267.290497</ele>
        <time>2017-06-04T13:03:46.000Z</time>
      </trkpt>
      <trkpt lat="45.116028" lon="5.320582">
        <ele>267.210521</ele>
        <time>2017-06-04T13:03:48.000Z</time>
      </trkpt>
      <trkpt lat="45.115936" lon="5.320489">
        <ele>267.277655</ele>
        <time>2017-06-04T13:03:50.000Z</time>
      </trkpt>
      <trkpt lat="45.115870" lon="5.320384">
        <ele>267.336603</ele>
        <time>2017-06-04T13:03:52.000Z</time>
      </trkpt>
      <trkpt lat="45.115803" lon="5.320238">
        <ele>267.409612</ele>
        <time>2017-06-04T13:03:55.000Z</time>
      </trkpt>
      <trkpt lat="45.115740" lon="5.320090">
        <ele>267.482070</ele>
        <time>2017-06-04T13:03:58.000Z</time>
      </trkpt>
      <trkpt lat="45.115692" lon="5.319951">
        <ele>267.546944</ele>
        <time>2017-06-04T13:04:02.000Z</time>
      </trkpt>
      <trkpt lat="45.115658" lon="5.319832">
        <ele>267.600765</ele>
        <time>2017-06-04T13:04:09.000Z</time>
      </trkpt>
      <trkpt lat="45.115593" lon="5.319586">
        <ele>267.710884</ele>
        <time>2017-06-04T13:04:36.000Z</time>
      </trkpt>
      <trkpt lat="45.115560" lon="5.319442">
        <ele>267.774355</ele>
        <time>2017-06-04T13:04:40.000Z</time>
      </trkpt>
      <trkpt lat="45.115530" lon="5.319309">
        <ele>267.832890</ele>
        <time>2017-06-04T13:04:43.000Z</time>
      </trkpt>
      <trkpt lat="45.115482" lon="5.319175">
        <ele>267.895888</ele>
        <time>2017-06-04T13:04:46.000Z</time>
      </trkpt>
      <trkpt lat="45.115433" lon="5.319028">
        <ele>267.964042</ele>
        <time>2017-06-04T13:04:49.000Z</time>
      </trkpt>
      <trkpt lat="45.115387" lon="5.318884">
        <ele>268.030307</ele>
        <time>2017-06-04T13:04:52.000Z</time>
      </trkpt>
      <trkpt lat="45.115330" lon="5.318738">
        <ele>268.100255</ele>
        <time>2017-06-04T13:04:55.000Z</time>
      </trkpt>
      <trkpt lat="45.115276" lon="5.318604">
        <ele>268.164945</ele>
        <time>2017-06-04T13:04:58.000Z</time>
      </trkpt>
      <trkpt lat="45.115246" lon="5.318464">
        <ele>268.226282</ele>
        <time>2017-06-04T13:05:01.000Z</time>
      </trkpt>
      <trkpt lat="45.115210" lon="5.318307">
        <ele>268.238994</ele>
        <time>2017-06-04T13:05:04.000Z</time>
      </trkpt>
      <trkpt lat="45.115166" lon="5.318165">
        <ele>268.105192</ele>
        <time>2017-06-04T13:05:07.000Z</time>
      </trkpt>
      <trkpt lat="45.115090" lon="5.318056">
        <ele>267.972990</ele>
        <time>2017-06-04T13:05:10.000Z</time>
      </trkpt>
      <trkpt lat="45.115005" lon="5.317940">
        <ele>267.828715</ele>
        <time>2017-06-04T13:05:13.000Z</time>
      </trkpt>
      <trkpt lat="45.114925" lon="5.317816">
        <ele>267.683761</ele>
        <time>2017-06-04T13:05:16.000Z</time>
      </trkpt>
      <trkpt lat="45.114850" lon="5.317683">
        <ele>267.536877</ele>
        <time>2017-06-04T13:05:19.000Z</time>
      </trkpt>
      <trkpt lat="45.114796" lon="5.317573">
        <ele>267.421268</ele>
        <time>2017-06-04T13:05:21.000Z</time>
      </trkpt>
      <trkpt lat="45.114716" lon="5.317425">
        <ele>267.260424</ele>
        <time>2017-06-04T13:05:24.000Z</time>
      </trkpt>
      <trkpt lat="45.114655" lon="5.317318">
        <ele>267.141748</ele>
        <time>2017-06-04T13:05:26.000Z</time>
      </trkpt>
      <trkpt lat="45.114597" lon="5.317218">
        <ele>267.030070</ele>
        <time>2017-06-04T13:05:28.000Z</time>
      </trkpt>
      <trkpt lat="45.114532" lon="5.317115">
        <ele>266.910855</ele>
        <time>2017-06-04T13:05:30.000Z</time>
      </trkpt>
      <trkpt lat="45.114487" lon="5.317004">
        <ele>266.800409</ele>
        <time>2017-06-04T13:05:32.000Z</time>
      </trkpt>
      <trkpt lat="45.114433" lon="5.316879">
        <ele>266.673960</ele>
        <time>2017-06-04T13:05:34.000Z</time>
      </trkpt>
      <trkpt lat="45.114384" lon="5.316750">
        <ele>266.547563</ele>
        <time>2017-06-04T13:05:36.000Z</time>
      </trkpt>
      <trkpt lat="45.114346" lon="5.316617">
        <ele>266.423767</ele>
        <time>2017-06-04T13:05:38.000Z</time>
      </trkpt>
      <trkpt lat="45.114307" lon="5.316474">
        <ele>266.291497</ele>
        <time>2017-06-04T13:05:40.000Z</time>
      </trkpt>
      <trkpt lat="45.114258" lon="5.316328">
        <ele>266.152012</ele>
        <time>2017-06-04T13:05:42.000Z</time>
      </trkpt>
      <trkpt lat="45.114212" lon="5.316179">
        <ele>266.070025</ele>
        <time>2017-06-04T13:05:44.000Z</time>
      </trkpt>
      <trkpt lat="45.114178" lon="5.316037">
        <ele>266.054440</ele>
        <time>2017-06-04T13:05:46.000Z</time>
      </trkpt>
      <trkpt lat="45.114132" lon="5.315899">
        <ele>266.038578</ele>
        <time>2017-06-04T13:05:48.000Z</time>
      </trkpt>
      <trkpt lat="45.114086" lon="5.315745">
        <ele>266.021198</ele>
        <time>2017-06-04T13:05:50.000Z</time>
      </trkpt>
      <trkpt lat="45.114033" lon="5.315602">
        <ele>266.004411</ele>
        <time>2017-06-04T13:05:52.000Z</time>
      </trkpt>
      <trkpt lat="45.113968" lon="5.315459">
        <ele>265.986733</ele>
        <time>2017-06-04T13:05:54.000Z</time>
      </trkpt>
      <trkpt lat="45.113900" lon="5.315341">
        <ele>265.970900</ele>
        <time>2017-06-04T13:05:56.000Z</time>
      </trkpt>
      <trkpt lat="45.113820" lon="5.315229">
        <ele>265.954337</ele>
        <time>2017-06-04T13:05:58.000Z</time>
      </trkpt>
      <trkpt lat="45.113743" lon="5.315118">
        <ele>265.938161</ele>
        <time>2017-06-04T13:06:00.000Z</time>
      </trkpt>
      <trkpt lat="45.113663" lon="5.315016">
        <ele>265.922311</ele>
        <time>2017-06-04T13:06:02.000Z</time>
      </trkpt>
      <trkpt lat="45.113586" lon="5.314922">
        <ele>265.907343</ele>
        <time>2017-06-04T13:06:04.000Z</time>
      </trkpt>
      <trkpt lat="45.113510" lon="5.314819">
        <ele>265.891855</ele>
        <time>2017-06-04T13:06:06.000Z</time>
      </trkpt>
      <trkpt lat="45.113430" lon="5.314718">
        <ele>265.876076</ele>
        <time>2017-06-04T13:06:08.000Z</time>
      </trkpt>
      <trkpt lat="45.113342" lon="5.314623">
        <ele>265.859783</ele>
        <time>2017-06-04T13:06:10.000Z</time>
      </trkpt>
      <trkpt lat="45.113260" lon="5.314530">
        <ele>265.844315</ele>
        <time>2017-06-04T13:06:12.000Z</time>
      </trkpt>
      <trkpt lat="45.113174" lon="5.314446">
        <ele>265.828932</ele>
        <time>2017-06-04T13:06:14.000Z</time>
      </trkpt>
      <trkpt lat="45.113094" lon="5.314372">
        <ele>265.814862</ele>
        <time>2017-06-04T13:06:16.000Z</time>
      </trkpt>
      <trkpt lat="45.113018" lon="5.314288">
        <ele>265.822494</ele>
        <time>2017-06-04T13:06:18.000Z</time>
      </trkpt>
      <trkpt lat="45.112915" lon="5.314185">
        <ele>265.836469</ele>
        <time>2017-06-04T13:06:21.000Z</time>
      </trkpt>
      <trkpt lat="45.112846" lon="5.314093">
        <ele>265.846971</ele>
        <time>2017-06-04T13:06:23.000Z</time>
      </trkpt>
      <trkpt lat="45.112778" lon="5.313992">
        <ele>265.857892</ele>
        <time>2017-06-04T13:06:25.000Z</time>
      </trkpt>
      <trkpt lat="45.112700" lon="5.313867">
        <ele>265.870945</ele>
        <time>2017-06-04T13:06:27.000Z</time>
      </trkpt>
      <trkpt lat="45.112633" lon="5.313763">
        <ele>265.881961</ele>
        <time>2017-06-04T13:06:29.000Z</time>
      </trkpt>
      <trkpt lat="45.112560" lon="5.313652">
        <ele>265.893831</ele>
        <time>2017-06-04T13:06:31.000Z</time>
      </trkpt>
      <trkpt lat="45.112484" lon="5.313536">
        <ele>265.906214</ele>
        <time>2017-06-04T13:06:33.000Z</time>
      </trkpt>
      <trkpt lat="45.112420" lon="5.313428">
        <ele>265.917246</ele>
        <time>2017-06-04T13:06:35.000Z</time>
      </trkpt>
      <trkpt lat="45.112360" lon="5.313318">
        <ele>265.928122</ele>
        <time>2017-06-04T13:06:37.000Z</time>
      </trkpt>
      <trkpt lat="45.112297" lon="5.313208">
        <ele>265.939205</ele>
        <time>2017-06-04T13:06:39.000Z</time>
      </trkpt>
      <trkpt lat="45.112230" lon="5.313089">
        <ele>265.951114</ele>
        <time>2017-06-04T13:06:41.000Z</time>
      </trkpt>
      <trkpt lat="45.112164" lon="5.312983">
        <ele>265.962173</ele>
        <time>2017-06-04T13:06:43.000Z</time>
      </trkpt>
      <trkpt lat="45.112095" lon="5.312866">
        <ele>265.974101</ele>
        <time>2017-06-04T13:06:45.000Z</time>
      </trkpt>
      <trkpt lat="45.112026" lon="5.312757">
        <ele>265.985556</ele>
        <time>2017-06-04T13:06:47.000Z</time>
      </trkpt>
      <trkpt lat="45.111965" lon="5.312649">
        <ele>265.996378</ele>
        <time>2017-06-04T13:06:49.000Z</time>
      </trkpt>
      <trkpt lat="45.111904" lon="5.312536">
        <ele>266.007508</ele>
        <time>2017-06-04T13:06:51.000Z</time>
      </trkpt>
      <trkpt lat="45.111840" lon="5.312428">
        <ele>266.031904</ele>
        <time>2017-06-04T13:06:53.000Z</time>
      </trkpt>
      <trkpt lat="45.111774" lon="5.312314">
        <ele>266.068983</ele>
        <time>2017-06-04T13:06:55.000Z</time>
      </trkpt>
      <trkpt lat="45.111710" lon="5.312213">
        <ele>266.103116</ele>
        <time>2017-06-04T13:06:57.000Z</time>
      </trkpt>
      <trkpt lat="45.111645" lon="5.312098">
        <ele>266.140166</ele>
        <time>2017-06-04T13:06:59.000Z</time>
      </trkpt>
      <trkpt lat="45.111580" lon="5.311982">
        <ele>266.177412</ele>
        <time>2017-06-04T13:07:01.000Z</time>
      </trkpt>
      <trkpt lat="45.111480" lon="5.311814">
        <ele>266.232678</ele>
        <time>2017-06-04T13:07:04.000Z</time>
      </trkpt>
      <trkpt lat="45.111430" lon="5.311706">
        <ele>266.265158</ele>
        <time>2017-06-04T13:07:06.000Z</time>
      </trkpt>
      <trkpt lat="45.111380" lon="5.311592">
        <ele>266.298910</ele>
        <time>2017-06-04T13:07:08.000Z</time>
      </trkpt>
      <trkpt lat="45.111320" lon="5.311380">
        <ele>266.356348</ele>
        <time>2017-06-04T13:07:11.000Z</time>
      </trkpt>
      <trkpt lat="45.111275" lon="5.311249">
        <ele>266.392985</ele>
        <time>2017-06-04T13:07:13.000Z</time>
      </trkpt>
      <trkpt lat="45.111240" lon="5.311116">
        <ele>266.428679</ele>
        <time>2017-06-04T13:07:15.000Z</time>
      </trkpt>
      <trkpt lat="45.111210" lon="5.310994">
        <ele>266.461167</ele>
        <time>2017-06-04T13:07:17.000Z</time>
      </trkpt>
      <trkpt lat="45.111176" lon="5.310802">
        <ele>266.510945</ele>
        <time>2017-06-04T13:07:20.000Z</time>
      </trkpt>
      <trkpt lat="45.111150" lon="5.310661">
        <ele>266.547591</ele>
        <time>2017-06-04T13:07:22.000Z</time>
      </trkpt>
      <trkpt lat="45.111110" lon="5.310453">
        <ele>266.601803</ele>
        <time>2017-06-04T13:07:25.000Z</time>
      </trkpt>
      <trkpt lat="45.111080" lon="5.310326">
        <ele>266.635481</ele>
        <time>2017-06-04T13:07:27.000Z</time>
      </trkpt>
      <trkpt lat="45.111040" lon="5.310194">
        <ele>266.623753</ele>
        <time>2017-06-04T13:07:29.000Z</time>
      </trkpt>
      <trkpt lat="45.110992" lon="5.310071">
        <ele>266.566231</ele>
        <time>2017-06-04T13:07:31.000Z</time>
      </trkpt>
      <trkpt lat="45.110947" lon="5.309948">
        <ele>266.509530</ele>
        <time>2017-06-04T13:07:33.000Z</time>
      </trkpt>
      <trkpt lat="45.110900" lon="5.309824">
        <ele>266.451926</ele>
        <time>2017-06-04T13:07:35.000Z</time>
      </trkpt>
      <trkpt lat="45.110850" lon="5.309688">
        <ele>266.389168</ele>
        <time>2017-06-04T13:07:37.000Z</time>
      </trkpt>
      <trkpt lat="45.110806" lon="5.309559">
        <ele>266.330531</ele>
        <time>2017-06-04T13:07:39.000Z</time>
      </trkpt>
      <trkpt lat="45.110760" lon="5.309434">
        <ele>266.272837</ele>
        <time>2017-06-04T13:07:41.000Z</time>
      </trkpt>
      <trkpt lat="45.110718" lon="5.309305">
        <ele>266.214695</ele>
        <time>2017-06-04T13:07:43.000Z</time>
      </trkpt>
      <trkpt lat="45.110683" lon="5.309179">
        <ele>266.159278</ele>
        <time>2017-06-04T13:07:45.000Z</time>
      </trkpt>
      <trkpt lat="45.110630" lon="5.309012">
        <ele>266.084339</ele>
        <time>2017-06-04T13:07:48.000Z</time>
      </trkpt>
      <trkpt lat="45.110584" lon="5.308887">
        <ele>266.026645</ele>
        <time>2017-06-04T13:07:50.000Z</time>
      </trkpt>
      <trkpt lat="45.110540" lon="5.308761">
        <ele>265.969111</ele>
        <time>2017-06-04T13:07:52.000Z</time>
      </trkpt>
      <trkpt lat="45.110500" lon="5.308633">
        <ele>265.911819</ele>
        <time>2017-06-04T13:07:54.000Z</time>
      </trkpt>
      <trkpt lat="45.110466" lon="5.308501">
        <ele>265.854312</ele>
        <time>2017-06-04T13:07:56.000Z</time>
      </trkpt>
      <trkpt lat="45.110420" lon="5.308369">
        <ele>265.794062</ele>
        <time>2017-06-04T13:07:58.000Z</time>
      </trkpt>
      <trkpt lat="45.110370" lon="5.308226">
        <ele>265.728749</ele>
        <time>2017-06-04T13:08:00.000Z</time>
      </trkpt>
      <trkpt lat="45.110300" lon="5.308099">
        <ele>265.662800</ele>
        <time>2017-06-04T13:08:02.000Z</time>
      </trkpt>
      <trkpt lat="45.110233" lon="5.307975">
        <ele>265.571459</ele>
        <time>2017-06-04T13:08:04.000Z</time>
      </trkpt>
      <trkpt lat="45.110160" lon="5.307859">
        <ele>265.355794</ele>
        <time>2017-06-04T13:08:06.000Z</time>
      </trkpt>
      <trkpt lat="45.110092" lon="5.307751">
        <ele>265.154958</ele>
        <time>2017-06-04T13:08:08.000Z</time>
      </trkpt>
      <trkpt lat="45.110027" lon="5.307646">
        <ele>264.961147</ele>
        <time>2017-06-04T13:08:10.000Z</time>
      </trkpt>
      <trkpt lat="45.109955" lon="5.307545">
        <ele>264.761940</ele>
        <time>2017-06-04T13:08:12.000Z</time>
      </trkpt>
      <trkpt lat="45.109890" lon="5.307438">
        <ele>264.566035</ele>
        <time>2017-06-04T13:08:14.000Z</time>
      </trkpt>
      <trkpt lat="45.109820" lon="5.307336">
        <ele>264.368610</ele>
        <time>2017-06-04T13:08:16.000Z</time>
      </trkpt>
      <trkpt lat="45.109760" lon="5.307231">
        <ele>264.181136</ele>
        <time>2017-06-04T13:08:18.000Z</time>
      </trkpt>
      <trkpt lat="45.109690" lon="5.307138">
        <ele>263.992464</ele>
        <time>2017-06-04T13:08:20.000Z</time>
      </trkpt>
      <trkpt lat="45.109627" lon="5.307034">
        <ele>263.802278</ele>
        <time>2017-06-04T13:08:22.000Z</time>
      </trkpt>
      <trkpt lat="45.109554" lon="5.306940">
        <ele>263.608331</ele>
        <time>2017-06-04T13:08:24.000Z</time>
      </trkpt>
      <trkpt lat="45.109478" lon="5.306841">
        <ele>263.405348</ele>
        <time>2017-06-04T13:08:26.000Z</time>
      </trkpt>
      <trkpt lat="45.109406" lon="5.306740">
        <ele>263.206140</ele>
        <time>2017-06-04T13:08:28.000Z</time>
      </trkpt>
      <trkpt lat="45.109337" lon="5.306633">
        <ele>263.005014</ele>
        <time>2017-06-04T13:08:30.000Z</time>
      </trkpt>
      <trkpt lat="45.109270" lon="5.306548">
        <ele>262.828191</ele>
        <time>2017-06-04T13:08:32.000Z</time>
      </trkpt>
      <trkpt lat="45.109196" lon="5.306471">
        <ele>262.647674</ele>
        <time>2017-06-04T13:08:34.000Z</time>
      </trkpt>
      <trkpt lat="45.109100" lon="5.306363">
        <ele>262.406658</ele>
        <time>2017-06-04T13:08:37.000Z</time>
      </trkpt>
      <trkpt lat="45.109020" lon="5.306268">
        <ele>262.201426</ele>
        <time>2017-06-04T13:08:40.000Z</time>
      </trkpt>
      <trkpt lat="45.108967" lon="5.306148">
        <ele>262.077355</ele>
        <time>2017-06-04T13:09:08.000Z</time>
      </trkpt>
      <trkpt lat="45.108955" lon="5.306003">
        <ele>262.087582</ele>
        <time>2017-06-04T13:09:14.000Z</time>
      </trkpt>
      <trkpt lat="45.108950" lon="5.305832">
        <ele>262.099570</ele>
        <time>2017-06-04T13:09:18.000Z</time>
      </trkpt>
      <trkpt lat="45.108944" lon="5.305670">
        <ele>262.110932</ele>
        <time>2017-06-04T13:09:21.000Z</time>
      </trkpt>
      <trkpt lat="45.108932" lon="5.305495">
        <ele>262.123248</ele>
        <time>2017-06-04T13:09:24.000Z</time>
      </trkpt>
      <trkpt lat="45.108910" lon="5.305359">
        <ele>262.133021</ele>
        <time>2017-06-04T13:09:26.000Z</time>
      </trkpt>
      <trkpt lat="45.108906" lon="5.305222">
        <ele>262.142626</ele>
        <time>2017-06-04T13:09:28.000Z</time>
      </trkpt>
      <trkpt lat="45.108906" lon="5.305091">
        <ele>262.151802</ele>
        <time>2017-06-04T13:09:30.000Z</time>
      </trkpt>
      <trkpt lat="45.108883" lon="5.304953">
        <ele>262.161734</ele>
        <time>2017-06-04T13:09:32.000Z</time>
      </trkpt>
      <trkpt lat="45.108875" lon="5.304820">
        <ele>262.171084</ele>
        <time>2017-06-04T13:09:34.000Z</time>
      </trkpt>
      <trkpt lat="45.108870" lon="5.304682">
        <ele>262.180762</ele>
        <time>2017-06-04T13:09:36.000Z</time>
      </trkpt>
      <trkpt lat="45.108856" lon="5.304551">
        <ele>262.190043</ele>
        <time>2017-06-04T13:09:38.000Z</time>
      </trkpt>
      <trkpt lat="45.108837" lon="5.304409">
        <ele>262.200167</ele>
        <time>2017-06-04T13:09:40.000Z</time>
      </trkpt>
      <trkpt lat="45.108820" lon="5.304271">
        <ele>262.209979</ele>
        <time>2017-06-04T13:09:42.000Z</time>
      </trkpt>
      <trkpt lat="45.108807" lon="5.304129">
        <ele>262.220009</ele>
        <time>2017-06-04T13:09:44.000Z</time>
      </trkpt>
      <trkpt lat="45.108800" lon="5.303996">
        <ele>262.229351</ele>
        <time>2017-06-04T13:09:46.000Z</time>
      </trkpt>
      <trkpt lat="45.108790" lon="5.303853">
        <ele>262.239416</ele>
        <time>2017-06-04T13:09:48.000Z</time>
      </trkpt>
      <trkpt lat="45.108772" lon="5.303709">
        <ele>262.249660</ele>
        <time>2017-06-04T13:09:50.000Z</time>
      </trkpt>
      <trkpt lat="45.108753" lon="5.303562">
        <ele>262.167604</ele>
        <time>2017-06-04T13:09:52.000Z</time>
      </trkpt>
      <trkpt lat="45.108740" lon="5.303410">
        <ele>262.050098</ele>
        <time>2017-06-04T13:09:54.000Z</time>
      </trkpt>
      <trkpt lat="45.108727" lon="5.303256">
        <ele>261.931068</ele>
        <time>2017-06-04T13:09:56.000Z</time>
      </trkpt>
      <trkpt lat="45.108715" lon="5.303100">
        <ele>261.810637</ele>
        <time>2017-06-04T13:09:58.000Z</time>
      </trkpt>
      <trkpt lat="45.108707" lon="5.302938">
        <ele>261.686006</ele>
        <time>2017-06-04T13:10:00.000Z</time>
      </trkpt>
      <trkpt lat="45.108680" lon="5.302777">
        <ele>261.559006</ele>
        <time>2017-06-04T13:10:02.000Z</time>
      </trkpt>
      <trkpt lat="45.108658" lon="5.302605">
        <ele>261.424854</ele>
        <time>2017-06-04T13:10:04.000Z</time>
      </trkpt>
      <trkpt lat="45.108646" lon="5.302431">
        <ele>261.290682</ele>
        <time>2017-06-04T13:10:06.000Z</time>
      </trkpt>
      <trkpt lat="45.108630" lon="5.302256">
        <ele>261.155256</ele>
        <time>2017-06-04T13:10:08.000Z</time>
      </trkpt>
      <trkpt lat="45.108624" lon="5.302078">
        <ele>261.018494</ele>
        <time>2017-06-04T13:10:10.000Z</time>
      </trkpt>
      <trkpt lat="45.108610" lon="5.301896">
        <ele>260.877990</ele>
        <time>2017-06-04T13:10:12.000Z</time>
      </trkpt>
      <trkpt lat="45.108600" lon="5.301723">
        <ele>260.744777</ele>
        <time>2017-06-04T13:10:14.000Z</time>
      </trkpt>
      <trkpt lat="45.108580" lon="5.301549">
        <ele>260.609481</ele>
        <time>2017-06-04T13:10:16.000Z</time>
      </trkpt>
      <trkpt lat="45.108574" lon="5.301380">
        <ele>260.479617</ele>
        <time>2017-06-04T13:10:18.000Z</time>
      </trkpt>
      <trkpt lat="45.108570" lon="5.301212">
        <ele>260.350612</ele>
        <time>2017-06-04T13:10:20.000Z</time>
      </trkpt>
      <trkpt lat="45.108550" lon="5.301042">
        <ele>260.200313</ele>
        <time>2017-06-04T13:10:22.000Z</time>
      </trkpt>
      <trkpt lat="45.108540" lon="5.300877">
        <ele>260.043909</ele>
        <time>2017-06-04T13:10:24.000Z</time>
      </trkpt>
      <trkpt lat="45.108530" lon="5.300707">
        <ele>259.882800</ele>
        <time>2017-06-04T13:10:26.000Z</time>
      </trkpt>
      <trkpt lat="45.108520" lon="5.300544">
        <ele>259.728277</ele>
        <time>2017-06-04T13:10:28.000Z</time>
      </trkpt>
      <trkpt lat="45.108505" lon="5.300385">
        <ele>259.576777</ele>
        <time>2017-06-04T13:10:30.000Z</time>
      </trkpt>
      <trkpt lat="45.108490" lon="5.300229">
        <ele>259.428085</ele>
        <time>2017-06-04T13:10:32.000Z</time>
      </trkpt>
      <trkpt lat="45.108475" lon="5.300070">
        <ele>259.276585</ele>
        <time>2017-06-04T13:10:34.000Z</time>
      </trkpt>
      <trkpt lat="45.108460" lon="5.299913">
        <ele>259.126957</ele>
        <time>2017-06-04T13:10:36.000Z</time>
      </trkpt>
      <trkpt lat="45.108444" lon="5.299755">
        <ele>258.976209</ele>
        <time>2017-06-04T13:10:38.000Z</time>
      </trkpt>
      <trkpt lat="45.108433" lon="5.299598">
        <ele>258.827205</ele>
        <time>2017-06-04T13:10:40.000Z</time>
      </trkpt>
      <trkpt lat="45.108418" lon="5.299436">
        <ele>258.672896</ele>
        <time>2017-06-04T13:10:42.000Z</time>
      </trkpt>
      <trkpt lat="45.108406" lon="5.299283">
        <ele>258.527508</ele>
        <time>2017-06-04T13:10:44.000Z</time>
      </trkpt>
      <trkpt lat="45.108387" lon="5.299130">
        <ele>258.380791</ele>
        <time>2017-06-04T13:10:46.000Z</time>
      </trkpt>
      <trkpt lat="45.108376" lon="5.298967">
        <ele>258.226146</ele>
        <time>2017-06-04T13:10:48.000Z</time>
      </trkpt>
      <trkpt lat="45.108364" lon="5.298803">
        <ele>258.070429</ele>
        <time>2017-06-04T13:10:50.000Z</time>
      </trkpt>
      <trkpt lat="45.108356" lon="5.298638">
        <ele>257.914231</ele>
        <time>2017-06-04T13:10:52.000Z</time>
      </trkpt>
      <trkpt lat="45.108340" lon="5.298472">
        <ele>257.821209</ele>
        <time>2017-06-04T13:10:54.000Z</time>
      </trkpt>
      <trkpt lat="45.108326" lon="5.298305">
        <ele>257.739867</ele>
        <time>2017-06-04T13:10:56.000Z</time>
      </trkpt>
      <trkpt lat="45.108303" lon="5.298146">
        <ele>257.661364</ele>
        <time>2017-06-04T13:10:58.000Z</time>
      </trkpt>
      <trkpt lat="45.108284" lon="5.297974">
        <ele>257.577158</ele>
        <time>2017-06-04T13:11:00.000Z</time>
      </trkpt>
      <trkpt lat="45.108273" lon="5.297808">
        <ele>257.496514</ele>
        <time>2017-06-04T13:11:02.000Z</time>
      </trkpt>
      <trkpt lat="45.108280" lon="5.297653">
        <ele>257.421391</ele>
        <time>2017-06-04T13:11:04.000Z</time>
      </trkpt>
      <trkpt lat="45.108273" lon="5.297490">
        <ele>257.342405</ele>
        <time>2017-06-04T13:11:06.000Z</time>
      </trkpt>
      <trkpt lat="45.108257" lon="5.297327">
        <ele>257.262807</ele>
        <time>2017-06-04T13:11:08.000Z</time>
      </trkpt>
      <trkpt lat="45.108246" lon="5.297166">
        <ele>257.184570</ele>
        <time>2017-06-04T13:11:10.000Z</time>
      </trkpt>
      <trkpt lat="45.108240" lon="5.297006">
        <ele>257.107073</ele>
        <time>2017-06-04T13:11:12.000Z</time>
      </trkpt>
      <trkpt lat="45.108230" lon="5.296850">
        <ele>257.031308</ele>
        <time>2017-06-04T13:11:14.000Z</time>
      </trkpt>
      <trkpt lat="45.108220" lon="5.296696">
        <ele>256.956507</ele>
        <time>2017-06-04T13:11:16.000Z</time>
      </trkpt>
      <trkpt lat="45.108208" lon="5.296540">
        <ele>256.880606</ele>
        <time>2017-06-04T13:11:18.000Z</time>
      </trkpt>
      <trkpt lat="45.108192" lon="5.296388">
        <ele>256.806274</ele>
        <time>2017-06-04T13:11:20.000Z</time>
      </trkpt>
      <trkpt lat="45.108180" lon="5.296231">
        <ele>256.729892</ele>
        <time>2017-06-04T13:11:22.000Z</time>
      </trkpt>
      <trkpt lat="45.108173" lon="5.296072">
        <ele>256.657555</ele>
        <time>2017-06-04T13:11:24.000Z</time>
      </trkpt>
      <trkpt lat="45.108160" lon="5.295911">
        <ele>256.667695</ele>
        <time>2017-06-04T13:11:26.000Z</time>
      </trkpt>
      <trkpt lat="45.108143" lon="5.295745">
        <ele>256.678190</ele>
        <time>2017-06-04T13:11:28.000Z</time>
      </trkpt>
      <trkpt lat="45.108130" lon="5.295592">
        <ele>256.687833</ele>
        <time>2017-06-04T13:11:30.000Z</time>
      </trkpt>
      <trkpt lat="45.108120" lon="5.295446">
        <ele>256.697011</ele>
        <time>2017-06-04T13:11:32.000Z</time>
      </trkpt>
      <trkpt lat="45.108105" lon="5.295293">
        <ele>256.706676</ele>
        <time>2017-06-04T13:11:34.000Z</time>
      </trkpt>
      <trkpt lat="45.108086" lon="5.295139">
        <ele>256.716458</ele>
        <time>2017-06-04T13:11:36.000Z</time>
      </trkpt>
      <trkpt lat="45.108078" lon="5.294993">
        <ele>256.725621</ele>
        <time>2017-06-04T13:11:38.000Z</time>
      </trkpt>
      <trkpt lat="45.108070" lon="5.294846">
        <ele>256.734847</ele>
        <time>2017-06-04T13:11:40.000Z</time>
      </trkpt>
      <trkpt lat="45.108050" lon="5.294695">
        <ele>256.744460</ele>
        <time>2017-06-04T13:11:42.000Z</time>
      </trkpt>
      <trkpt lat="45.108044" lon="5.294538">
        <ele>256.754298</ele>
        <time>2017-06-04T13:11:44.000Z</time>
      </trkpt>
      <trkpt lat="45.108030" lon="5.294389">
        <ele>256.763703</ele>
        <time>2017-06-04T13:11:46.000Z</time>
      </trkpt>
      <trkpt lat="45.108013" lon="5.294230">
        <ele>256.773766</ele>
        <time>2017-06-04T13:11:48.000Z</time>
      </trkpt>
      <trkpt lat="45.108000" lon="5.294078">
        <ele>256.783346</ele>
        <time>2017-06-04T13:11:50.000Z</time>
      </trkpt>
      <trkpt lat="45.107986" lon="5.293921">
        <ele>256.793248</ele>
        <time>2017-06-04T13:11:52.000Z</time>
      </trkpt>
      <trkpt lat="45.107970" lon="5.293765">
        <ele>256.803111</ele>
        <time>2017-06-04T13:11:54.000Z</time>
      </trkpt>
      <trkpt lat="45.107960" lon="5.293607">
        <ele>256.813037</ele>
        <time>2017-06-04T13:11:56.000Z</time>
      </trkpt>
      <trkpt lat="45.107944" lon="5.293452">
        <ele>256.800510</ele>
        <time>2017-06-04T13:11:58.000Z</time>
      </trkpt>
      <trkpt lat="45.107933" lon="5.293297">
        <ele>256.776053</ele>
        <time>2017-06-04T13:12:00.000Z</time>
      </trkpt>
      <trkpt lat="45.107930" lon="5.293139">
        <ele>256.751238</ele>
        <time>2017-06-04T13:12:02.000Z</time>
      </trkpt>
      <trkpt lat="45.107918" lon="5.292986">
        <ele>256.727070</ele>
        <time>2017-06-04T13:12:04.000Z</time>
      </trkpt>
      <trkpt lat="45.107906" lon="5.292832">
        <ele>256.702745</ele>
        <time>2017-06-04T13:12:06.000Z</time>
      </trkpt>
      <trkpt lat="45.107895" lon="5.292682">
        <ele>256.679069</ele>
        <time>2017-06-04T13:12:08.000Z</time>
      </trkpt>
      <trkpt lat="45.107883" lon="5.292539">
        <ele>256.656460</ele>
        <time>2017-06-04T13:12:10.000Z</time>
      </trkpt>
      <trkpt lat="45.107872" lon="5.292398">
        <ele>256.634189</ele>
        <time>2017-06-04T13:12:12.000Z</time>
      </trkpt>
      <trkpt lat="45.107857" lon="5.292248">
        <ele>256.610404</ele>
        <time>2017-06-04T13:12:14.000Z</time>
      </trkpt>
      <trkpt lat="45.107840" lon="5.292101">
        <ele>256.587018</ele>
        <time>2017-06-04T13:12:16.000Z</time>
      </trkpt>
      <trkpt lat="45.107834" lon="5.291944">
        <ele>256.562333</ele>
        <time>2017-06-04T13:12:18.000Z</time>
      </trkpt>
      <trkpt lat="45.107822" lon="5.291782">
        <ele>256.536760</ele>
        <time>2017-06-04T13:12:20.000Z</time>
      </trkpt>
      <trkpt lat="45.107807" lon="5.291617">
        <ele>256.510642</ele>
        <time>2017-06-04T13:12:22.000Z</time>
      </trkpt>
      <trkpt lat="45.107800" lon="5.291455">
        <ele>256.485160</ele>
        <time>2017-06-04T13:12:24.000Z</time>
      </trkpt>
      <trkpt lat="45.107788" lon="5.291285">
        <ele>256.458338</ele>
        <time>2017-06-04T13:12:26.000Z</time>
      </trkpt>
      <trkpt lat="45.107770" lon="5.291113">
        <ele>256.431039</ele>
        <time>2017-06-04T13:12:28.000Z</time>
      </trkpt>
      <trkpt lat="45.107754" lon="5.290937">
        <ele>256.368601</ele>
        <time>2017-06-04T13:12:30.000Z</time>
      </trkpt>
      <trkpt lat="45.107740" lon="5.290751">
        <ele>256.262277</ele>
        <time>2017-06-04T13:12:32.000Z</time>
      </trkpt>
      <trkpt lat="45.107723" lon="5.290566">
        <ele>256.156233</ele>
        <time>2017-06-04T13:12:34.000Z</time>
      </trkpt>
      <trkpt lat="45.107704" lon="5.290375">
        <ele>256.046593</ele>
        <time>2017-06-04T13:12:36.000Z</time>
      </trkpt>
      <trkpt lat="45.107690" lon="5.290196">
        <ele>255.944224</ele>
        <time>2017-06-04T13:12:38.000Z</time>
      </trkpt>
      <trkpt lat="45.107670" lon="5.290021">
        <ele>255.843456</ele>
        <time>2017-06-04T13:12:40.000Z</time>
      </trkpt>
      <trkpt lat="45.107655" lon="5.289851">
        <ele>255.746073</ele>
        <time>2017-06-04T13:12:42.000Z</time>
      </trkpt>
      <trkpt lat="45.107635" lon="5.289689">
        <ele>255.652592</ele>
        <time>2017-06-04T13:12:44.000Z</time>
      </trkpt>
      <trkpt lat="45.107620" lon="5.289521">
        <ele>255.556337</ele>
        <time>2017-06-04T13:12:46.000Z</time>
      </trkpt>
      <trkpt lat="45.107600" lon="5.289352">
        <ele>255.458934</ele>
        <time>2017-06-04T13:12:48.000Z</time>
      </trkpt>
      <trkpt lat="45.107594" lon="5.289184">
        <ele>255.363318</ele>
        <time>2017-06-04T13:12:50.000Z</time>
      </trkpt>
      <trkpt lat="45.107580" lon="5.289021">
        <ele>255.269982</ele>
        <time>2017-06-04T13:12:52.000Z</time>
      </trkpt>
      <trkpt lat="45.107574" lon="5.288859">
        <ele>255.177772</ele>
        <time>2017-06-04T13:12:54.000Z</time>
      </trkpt>
      <trkpt lat="45.107560" lon="5.288689">
        <ele>255.080486</ele>
        <time>2017-06-04T13:12:56.000Z</time>
      </trkpt>
      <trkpt lat="45.107544" lon="5.288522">
        <ele>254.984690</ele>
        <time>2017-06-04T13:12:58.000Z</time>
      </trkpt>
      <trkpt lat="45.107525" lon="5.288354">
        <ele>255.004521</ele>
        <time>2017-06-04T13:13:00.000Z</time>
      </trkpt>
      <trkpt lat="45.107510" lon="5.288188">
        <ele>255.048295</ele>
        <time>2017-06-04T13:13:02.000Z</time>
      </trkpt>
      <trkpt lat="45.107487" lon="5.288013">
        <ele>255.094856</ele>
        <time>2017-06-04T13:13:04.000Z</time>
      </trkpt>
      <trkpt lat="45.107470" lon="5.287838">
        <ele>255.141061</ele>
        <time>2017-06-04T13:13:06.000Z</time>
      </trkpt>
      <trkpt lat="45.107456" lon="5.287662">
        <ele>255.187388</ele>
        <time>2017-06-04T13:13:08.000Z</time>
      </trkpt>
      <trkpt lat="45.107452" lon="5.287493">
        <ele>255.231617</ele>
        <time>2017-06-04T13:13:10.000Z</time>
      </trkpt>
      <trkpt lat="45.107445" lon="5.287327">
        <ele>255.275114</ele>
        <time>2017-06-04T13:13:12.000Z</time>
      </trkpt>
      <trkpt lat="45.107430" lon="5.287159">
        <ele>255.319407</ele>
        <time>2017-06-04T13:13:14.000Z</time>
      </trkpt>
      <trkpt lat="45.107410" lon="5.286995">
        <ele>255.362939</ele>
        <time>2017-06-04T13:13:16.000Z</time>
      </trkpt>
      <trkpt lat="45.107414" lon="5.286842">
        <ele>255.402986</ele>
        <time>2017-06-04T13:13:18.000Z</time>
      </trkpt>
      <trkpt lat="45.107418" lon="5.286683">
        <ele>255.444601</ele>
        <time>2017-06-04T13:13:20.000Z</time>
      </trkpt>
      <trkpt lat="45.107403" lon="5.286518">
        <ele>255.488115</ele>
        <time>2017-06-04T13:13:22.000Z</time>
      </trkpt>
      <trkpt lat="45.107384" lon="5.286355">
        <ele>255.531328</ele>
        <time>2017-06-04T13:13:24.000Z</time>
      </trkpt>
      <trkpt lat="45.107376" lon="5.286190">
        <ele>255.574588</ele>
        <time>2017-06-04T13:13:26.000Z</time>
      </trkpt>
      <trkpt lat="45.107372" lon="5.286033">
        <ele>255.615680</ele>
        <time>2017-06-04T13:13:28.000Z</time>
      </trkpt>
      <trkpt lat="45.107360" lon="5.285873">
        <ele>255.588666</ele>
        <time>2017-06-04T13:13:30.000Z</time>
      </trkpt>
      <trkpt lat="45.107350" lon="5.285716">
        <ele>255.508088</ele>
        <time>2017-06-04T13:13:32.000Z</time>
      </trkpt>
      <trkpt lat="45.107334" lon="5.285551">
        <ele>255.422956</ele>
        <time>2017-06-04T13:13:34.000Z</time>
      </trkpt>
      <trkpt lat="45.107320" lon="5.285391">
        <ele>255.340545</ele>
        <time>2017-06-04T13:13:36.000Z</time>
      </trkpt>
      <trkpt lat="45.107300" lon="5.285235">
        <ele>255.259501</ele>
        <time>2017-06-04T13:13:38.000Z</time>
      </trkpt>
      <trkpt lat="45.107285" lon="5.285082">
        <ele>255.180543</ele>
        <time>2017-06-04T13:13:40.000Z</time>
      </trkpt>
      <trkpt lat="45.107277" lon="5.284926">
        <ele>255.100593</ele>
        <time>2017-06-04T13:13:42.000Z</time>
      </trkpt>
      <trkpt lat="45.107273" lon="5.284772">
        <ele>255.021822</ele>
        <time>2017-06-04T13:13:44.000Z</time>
      </trkpt>
      <trkpt lat="45.107260" lon="5.284610">
        <ele>254.938482</ele>
        <time>2017-06-04T13:13:46.000Z</time>
      </trkpt>
      <trkpt lat="45.107250" lon="5.284450">
        <ele>254.856377</ele>
        <time>2017-06-04T13:13:48.000Z</time>
      </trkpt>
      <trkpt lat="45.107243" lon="5.284302">
        <ele>254.780557</ele>
        <time>2017-06-04T13:13:50.000Z</time>
      </trkpt>
      <trkpt lat="45.107230" lon="5.284174">
        <ele>254.714455</ele>
        <time>2017-06-04T13:13:52.000Z</time>
      </trkpt>
      <trkpt lat="45.107224" lon="5.283995">
        <ele>254.622856</ele>
        <time>2017-06-04T13:13:55.000Z</time>
      </trkpt>
      <trkpt lat="45.107210" lon="5.283841">
        <ele>254.543488</ele>
        <time>2017-06-04T13:13:58.000Z</time>
      </trkpt>
      <trkpt lat="45.107190" lon="5.283672">
        <ele>254.455897</ele>
        <time>2017-06-04T13:14:01.000Z</time>
      </trkpt>
      <trkpt lat="45.107170" lon="5.283509">
        <ele>254.371329</ele>
        <time>2017-06-04T13:14:04.000Z</time>
      </trkpt>
      <trkpt lat="45.107160" lon="5.283341">
        <ele>254.226344</ele>
        <time>2017-06-04T13:14:07.000Z</time>
      </trkpt>
      <trkpt lat="45.107150" lon="5.283207">
        <ele>254.070514</ele>
        <time>2017-06-04T13:14:10.000Z</time>
      </trkpt>
      <trkpt lat="45.107143" lon="5.283078">
        <ele>253.920890</ele>
        <time>2017-06-04T13:14:13.000Z</time>
      </trkpt>
      <trkpt lat="45.107132" lon="5.282923">
        <ele>253.740734</ele>
        <time>2017-06-04T13:14:16.000Z</time>
      </trkpt>
      <trkpt lat="45.107110" lon="5.282739">
        <ele>253.524913</ele>
        <time>2017-06-04T13:14:19.000Z</time>
      </trkpt>
      <trkpt lat="45.107090" lon="5.282603">
        <ele>253.364256</ele>
        <time>2017-06-04T13:14:21.000Z</time>
      </trkpt>
      <trkpt lat="45.107080" lon="5.282454">
        <ele>253.191165</ele>
        <time>2017-06-04T13:14:23.000Z</time>
      </trkpt>
      <trkpt lat="45.107060" lon="5.282284">
        <ele>252.991854</ele>
        <time>2017-06-04T13:14:25.000Z</time>
      </trkpt>
      <trkpt lat="45.107040" lon="5.282114">
        <ele>252.792542</ele>
        <time>2017-06-04T13:14:27.000Z</time>
      </trkpt>
      <trkpt lat="45.107033" lon="5.281929">
        <ele>252.578289</ele>
        <time>2017-06-04T13:14:29.000Z</time>
      </trkpt>
      <trkpt lat="45.107014" lon="5.281737">
        <ele>252.354075</ele>
        <time>2017-06-04T13:14:31.000Z</time>
      </trkpt>
      <trkpt lat="45.106987" lon="5.281554">
        <ele>252.137867</ele>
        <time>2017-06-04T13:14:33.000Z</time>
      </trkpt>
      <trkpt lat="45.106976" lon="5.281371">
        <ele>251.925468</ele>
        <time>2017-06-04T13:14:35.000Z</time>
      </trkpt>
      <trkpt lat="45.106964" lon="5.281195">
        <ele>251.720982</ele>
        <time>2017-06-04T13:14:37.000Z</time>
      </trkpt>
      <trkpt lat="45.106960" lon="5.281030">
        <ele>251.530053</ele>
        <time>2017-06-04T13:14:39.000Z</time>
      </trkpt>
      <trkpt lat="45.106940" lon="5.280854">
        <ele>251.365425</ele>
        <time>2017-06-04T13:14:41.000Z</time>
      </trkpt>
      <trkpt lat="45.106922" lon="5.280678">
        <ele>251.300559</ele>
        <time>2017-06-04T13:14:43.000Z</time>
      </trkpt>
      <trkpt lat="45.106900" lon="5.280415">
        <ele>251.203960</ele>
        <time>2017-06-04T13:14:46.000Z</time>
      </trkpt>
      <trkpt lat="45.106880" lon="5.280242">
        <ele>251.140017</ele>
        <time>2017-06-04T13:14:48.000Z</time>
      </trkpt>
      <trkpt lat="45.106884" lon="5.280090">
        <ele>251.084537</ele>
        <time>2017-06-04T13:14:50.000Z</time>
      </trkpt>
      <trkpt lat="45.106857" lon="5.279857">
        <ele>250.998414</ele>
        <time>2017-06-04T13:14:53.000Z</time>
      </trkpt>
      <trkpt lat="45.106842" lon="5.279700">
        <ele>250.940626</ele>
        <time>2017-06-04T13:14:55.000Z</time>
      </trkpt>
      <trkpt lat="45.106842" lon="5.279550">
        <ele>250.885914</ele>
        <time>2017-06-04T13:14:57.000Z</time>
      </trkpt>
      <trkpt lat="45.106830" lon="5.279401">
        <ele>250.831214</ele>
        <time>2017-06-04T13:14:59.000Z</time>
      </trkpt>
      <trkpt lat="45.106810" lon="5.279254">
        <ele>250.776609</ele>
        <time>2017-06-04T13:15:01.000Z</time>
      </trkpt>
      <trkpt lat="45.106804" lon="5.279105">
        <ele>250.722173</ele>
        <time>2017-06-04T13:15:03.000Z</time>
      </trkpt>
      <trkpt lat="45.106790" lon="5.278948">
        <ele>250.664453</ele>
        <time>2017-06-04T13:15:05.000Z</time>
      </trkpt>
      <trkpt lat="45.106780" lon="5.278807">
        <ele>250.612764</ele>
        <time>2017-06-04T13:15:07.000Z</time>
      </trkpt>
      <trkpt lat="45.106766" lon="5.278674">
        <ele>250.563716</ele>
        <time>2017-06-04T13:15:09.000Z</time>
      </trkpt>
      <trkpt lat="45.106750" lon="5.278544">
        <ele>250.515583</ele>
        <time>2017-06-04T13:15:11.000Z</time>
      </trkpt>
      <trkpt lat="45.106740" lon="5.278409">
        <ele>250.466072</ele>
        <time>2017-06-04T13:15:13.000Z</time>
      </trkpt>
      <trkpt lat="45.106730" lon="5.278268">
        <ele>250.510585</ele>
        <time>2017-06-04T13:15:15.000Z</time>
      </trkpt>
      <trkpt lat="45.106720" lon="5.278116">
        <ele>250.586693</ele>
        <time>2017-06-04T13:15:17.000Z</time>
      </trkpt>
      <trkpt lat="45.106697" lon="5.277971">
        <ele>250.660785</ele>
        <time>2017-06-04T13:15:19.000Z</time>
      </trkpt>
      <trkpt lat="45.106678" lon="5.277837">
        <ele>250.728925</ele>
        <time>2017-06-04T13:15:21.000Z</time>
      </trkpt>
      <trkpt lat="45.106663" lon="5.277652">
        <ele>250.821762</ele>
        <time>2017-06-04T13:15:24.000Z</time>
      </trkpt>
      <trkpt lat="45.106647" lon="5.277488">
        <ele>250.904301</ele>
        <time>2017-06-04T13:15:27.000Z</time>
      </trkpt>
      <trkpt lat="45.106632" lon="5.277348">
        <ele>250.974897</ele>
        <time>2017-06-04T13:15:30.000Z</time>
      </trkpt>
      <trkpt lat="45.106655" lon="5.277096">
        <ele>251.101577</ele>
        <time>2017-06-04T13:16:43.000Z</time>
      </trkpt>
      <trkpt lat="45.106747" lon="5.277119">
        <ele>251.167567</ele>
        <time>2017-06-04T13:16:48.000Z</time>
      </trkpt>
      <trkpt lat="45.106830" lon="5.277227">
        <ele>251.247168</ele>
        <time>2017-06-04T13:16:52.000Z</time>
      </trkpt>
      <trkpt lat="45.106915" lon="5.277334">
        <ele>251.327483</ele>
        <time>2017-06-04T13:16:56.000Z</time>
      </trkpt>
      <trkpt lat="45.106995" lon="5.277428">
        <ele>251.400896</ele>
        <time>2017-06-04T13:17:00.000Z</time>
      </trkpt>
      <trkpt lat="45.107063" lon="5.277521">
        <ele>251.467655</ele>
        <time>2017-06-04T13:17:04.000Z</time>
      </trkpt>
      <trkpt lat="45.107136" lon="5.277606">
        <ele>251.534398</ele>
        <time>2017-06-04T13:17:08.000Z</time>
      </trkpt>
      <trkpt lat="45.107210" lon="5.277681">
        <ele>251.598666</ele>
        <time>2017-06-04T13:17:12.000Z</time>
      </trkpt>
      <trkpt lat="45.107290" lon="5.277779">
        <ele>251.673368</ele>
        <time>2017-06-04T13:17:16.000Z</time>
      </trkpt>
      <trkpt lat="45.107365" lon="5.277863">
        <ele>251.736656</ele>
        <time>2017-06-04T13:17:20.000Z</time>
      </trkpt>
      <trkpt lat="45.107548" lon="5.278072">
        <ele>251.856857</ele>
        <time>2017-06-04T13:17:51.000Z</time>
      </trkpt>
      <trkpt lat="45.107635" lon="5.278186">
        <ele>251.917458</ele>
        <time>2017-06-04T13:17:54.000Z</time>
      </trkpt>
      <trkpt lat="45.107754" lon="5.278294">
        <ele>251.989727</ele>
        <time>2017-06-04T13:17:57.000Z</time>
      </trkpt>
      <trkpt lat="45.107834" lon="5.278374">
        <ele>252.039801</ele>
        <time>2017-06-04T13:17:59.000Z</time>
      </trkpt>
      <trkpt lat="45.107930" lon="5.278500">
        <ele>252.106721</ele>
        <time>2017-06-04T13:18:02.000Z</time>
      </trkpt>
      <trkpt lat="45.108010" lon="5.278608">
        <ele>252.163229</ele>
        <time>2017-06-04T13:18:05.000Z</time>
      </trkpt>
      <trkpt lat="45.108070" lon="5.278705">
        <ele>252.209782</ele>
        <time>2017-06-04T13:18:08.000Z</time>
      </trkpt>
      <trkpt lat="45.108173" lon="5.278810">
        <ele>252.274672</ele>
        <time>2017-06-04T13:19:07.000Z</time>
      </trkpt>
      <trkpt lat="45.108260" lon="5.278895">
        <ele>252.328714</ele>
        <time>2017-06-04T13:19:11.000Z</time>
      </trkpt>
      <trkpt lat="45.108340" lon="5.278993">
        <ele>252.382796</ele>
        <time>2017-06-04T13:19:14.000Z</time>
      </trkpt>
      <trkpt lat="45.108430" lon="5.279106">
        <ele>252.444291</ele>
        <time>2017-06-04T13:19:17.000Z</time>
      </trkpt>
      <trkpt lat="45.108513" lon="5.279199">
        <ele>252.498404</ele>
        <time>2017-06-04T13:19:20.000Z</time>
      </trkpt>
      <trkpt lat="45.108610" lon="5.279303">
        <ele>252.560610</ele>
        <time>2017-06-04T13:19:24.000Z</time>
      </trkpt>
      <trkpt lat="45.108704" lon="5.279387">
        <ele>252.617443</ele>
        <time>2017-06-04T13:19:27.000Z</time>
      </trkpt>
      <trkpt lat="45.108788" lon="5.279503">
        <ele>252.514270</ele>
        <time>2017-06-04T13:19:30.000Z</time>
      </trkpt>
      <trkpt lat="45.108883" lon="5.279616">
        <ele>252.255176</ele>
        <time>2017-06-04T13:19:33.000Z</time>
      </trkpt>
      <trkpt lat="45.108980" lon="5.279733">
        <ele>251.989084</ele>
        <time>2017-06-04T13:19:36.000Z</time>
      </trkpt>
      <trkpt lat="45.109047" lon="5.279823">
        <ele>251.796235</ele>
        <time>2017-06-04T13:19:38.000Z</time>
      </trkpt>
      <trkpt lat="45.109150" lon="5.279941">
        <ele>251.519556</ele>
        <time>2017-06-04T13:19:41.000Z</time>
      </trkpt>
      <trkpt lat="45.109222" lon="5.280030">
        <ele>251.319971</ele>
        <time>2017-06-04T13:19:43.000Z</time>
      </trkpt>
      <trkpt lat="45.109300" lon="5.280118">
        <ele>251.111701</ele>
        <time>2017-06-04T13:19:45.000Z</time>
      </trkpt>
      <trkpt lat="45.109386" lon="5.280217">
        <ele>250.880246</ele>
        <time>2017-06-04T13:19:47.000Z</time>
      </trkpt>
      <trkpt lat="45.109478" lon="5.280322">
        <ele>250.633484</ele>
        <time>2017-06-04T13:19:49.000Z</time>
      </trkpt>
      <trkpt lat="45.109573" lon="5.280428">
        <ele>250.380902</ele>
        <time>2017-06-04T13:19:51.000Z</time>
      </trkpt>
      <trkpt lat="45.109676" lon="5.280549">
        <ele>250.101422</ele>
        <time>2017-06-04T13:19:53.000Z</time>
      </trkpt>
      <trkpt lat="45.109783" lon="5.280675">
        <ele>249.810806</ele>
        <time>2017-06-04T13:19:55.000Z</time>
      </trkpt>
      <trkpt lat="45.109898" lon="5.280802">
        <ele>249.506245</ele>
        <time>2017-06-04T13:19:57.000Z</time>
      </trkpt>
      <trkpt lat="45.110012" lon="5.280933">
        <ele>249.199650</ele>
        <time>2017-06-04T13:19:59.000Z</time>
      </trkpt>
      <trkpt lat="45.110126" lon="5.281058">
        <ele>248.898549</ele>
        <time>2017-06-04T13:20:01.000Z</time>
      </trkpt>
      <trkpt lat="45.110252" lon="5.281155">
        <ele>248.310091</ele>
        <time>2017-06-04T13:20:03.000Z</time>
      </trkpt>
      <trkpt lat="45.110405" lon="5.281208">
        <ele>247.652434</ele>
        <time>2017-06-04T13:20:05.000Z</time>
      </trkpt>
      <trkpt lat="45.110540" lon="5.281169">
        <ele>247.077152</ele>
        <time>2017-06-04T13:20:07.000Z</time>
      </trkpt>
      <trkpt lat="45.110660" lon="5.281060">
        <ele>246.481984</ele>
        <time>2017-06-04T13:20:09.000Z</time>
      </trkpt>
      <trkpt lat="45.110764" lon="5.280886">
        <ele>245.810068</ele>
        <time>2017-06-04T13:20:11.000Z</time>
      </trkpt>
      <trkpt lat="45.110855" lon="5.280710">
        <ele>245.167142</ele>
        <time>2017-06-04T13:20:13.000Z</time>
      </trkpt>
      <trkpt lat="45.110954" lon="5.280545">
        <ele>244.528956</ele>
        <time>2017-06-04T13:20:15.000Z</time>
      </trkpt>
      <trkpt lat="45.111040" lon="5.280384">
        <ele>243.933954</ele>
        <time>2017-06-04T13:20:17.000Z</time>
      </trkpt>
      <trkpt lat="45.111126" lon="5.280238">
        <ele>243.373562</ele>
        <time>2017-06-04T13:20:19.000Z</time>
      </trkpt>
      <trkpt lat="45.111214" lon="5.280094">
        <ele>242.812251</ele>
        <time>2017-06-04T13:20:21.000Z</time>
      </trkpt>
      <trkpt lat="45.111298" lon="5.279952">
        <ele>242.266258</ele>
        <time>2017-06-04T13:20:23.000Z</time>
      </trkpt>
      <trkpt lat="45.111378" lon="5.279821">
        <ele>241.755774</ele>
        <time>2017-06-04T13:20:25.000Z</time>
      </trkpt>
      <trkpt lat="45.111458" lon="5.279697">
        <ele>241.265812</ele>
        <time>2017-06-04T13:20:27.000Z</time>
      </trkpt>
      <trkpt lat="45.111526" lon="5.279581">
        <ele>240.840780</ele>
        <time>2017-06-04T13:20:29.000Z</time>
      </trkpt>
      <trkpt lat="45.111603" lon="5.279460">
        <ele>240.381563</ele>
        <time>2017-06-04T13:20:31.000Z</time>
      </trkpt>
      <trkpt lat="45.111670" lon="5.279359">
        <ele>239.990872</ele>
        <time>2017-06-04T13:20:33.000Z</time>
      </trkpt>
      <trkpt lat="45.111736" lon="5.279257">
        <ele>239.600832</ele>
        <time>2017-06-04T13:20:36.000Z</time>
      </trkpt>
      <trkpt lat="45.111713" lon="5.279129">
        <ele>239.228550</ele>
        <time>2017-06-04T13:20:41.000Z</time>
      </trkpt>
      <trkpt lat="45.111603" lon="5.279151">
        <ele>238.784877</ele>
        <time>2017-06-04T13:20:46.000Z</time>
      </trkpt>
      <trkpt lat="45.111485" lon="5.279152">
        <ele>238.313601</ele>
        <time>2017-06-04T13:20:50.000Z</time>
      </trkpt>
      <trkpt lat="45.111390" lon="5.279105">
        <ele>237.911728</ele>
        <time>2017-06-04T13:20:55.000Z</time>
      </trkpt>
      <trkpt lat="45.111313" lon="5.279027">
        <ele>237.533703</ele>
        <time>2017-06-04T13:20:59.000Z</time>
      </trkpt>
      <trkpt lat="45.111230" lon="5.278950">
        <ele>237.137491</ele>
        <time>2017-06-04T13:21:02.000Z</time>
      </trkpt>
      <trkpt lat="45.111156" lon="5.278823">
        <ele>236.673296</ele>
        <time>2017-06-04T13:21:05.000Z</time>
      </trkpt>
      <trkpt lat="45.111060" lon="5.278685">
        <ele>236.127136</ele>
        <time>2017-06-04T13:21:08.000Z</time>
      </trkpt>
      <trkpt lat="45.110977" lon="5.278575">
        <ele>235.673254</ele>
        <time>2017-06-04T13:21:10.000Z</time>
      </trkpt>
      <trkpt lat="45.110890" lon="5.278442">
        <ele>235.162122</ele>
        <time>2017-06-04T13:21:12.000Z</time>
      </trkpt>
      <trkpt lat="45.110810" lon="5.278303">
        <ele>234.656577</ele>
        <time>2017-06-04T13:21:14.000Z</time>
      </trkpt>
      <trkpt lat="45.110750" lon="5.278168">
        <ele>234.206902</ele>
        <time>2017-06-04T13:21:16.000Z</time>
      </trkpt>
      <trkpt lat="45.110700" lon="5.278032">
        <ele>233.550595</ele>
        <time>2017-06-04T13:21:18.000Z</time>
      </trkpt>
      <trkpt lat="45.110664" lon="5.277871">
        <ele>232.820601</ele>
        <time>2017-06-04T13:21:20.000Z</time>
      </trkpt>
      <trkpt lat="45.110626" lon="5.277713">
        <ele>232.099099</ele>
        <time>2017-06-04T13:21:22.000Z</time>
      </trkpt>
      <trkpt lat="45.110577" lon="5.277556">
        <ele>231.357089</ele>
        <time>2017-06-04T13:21:24.000Z</time>
      </trkpt>
      <trkpt lat="45.110508" lon="5.277404">
        <ele>230.575911</ele>
        <time>2017-06-04T13:21:26.000Z</time>
      </trkpt>
      <trkpt lat="45.110430" lon="5.277259">
        <ele>229.787860</ele>
        <time>2017-06-04T13:21:28.000Z</time>
      </trkpt>
      <trkpt lat="45.110367" lon="5.277111">
        <ele>229.040790</ele>
        <time>2017-06-04T13:21:30.000Z</time>
      </trkpt>
      <trkpt lat="45.110302" lon="5.276985">
        <ele>228.366183</ele>
        <time>2017-06-04T13:21:32.000Z</time>
      </trkpt>
      <trkpt lat="45.110220" lon="5.276871">
        <ele>227.662601</ele>
        <time>2017-06-04T13:21:34.000Z</time>
      </trkpt>
      <trkpt lat="45.110130" lon="5.276767">
        <ele>226.951324</ele>
        <time>2017-06-04T13:21:36.000Z</time>
      </trkpt>
      <trkpt lat="45.110043" lon="5.276663">
        <ele>226.254190</ele>
        <time>2017-06-04T13:21:38.000Z</time>
      </trkpt>
      <trkpt lat="45.109947" lon="5.276582">
        <ele>225.569881</ele>
        <time>2017-06-04T13:21:41.000Z</time>
      </trkpt>
      <trkpt lat="45.109863" lon="5.276360">
        <ele>224.481090</ele>
        <time>2017-06-04T13:24:37.000Z</time>
      </trkpt>
      <trkpt lat="45.109806" lon="5.276189">
        <ele>223.663658</ele>
        <time>2017-06-04T13:24:40.000Z</time>
      </trkpt>
      <trkpt lat="45.109756" lon="5.276041">
        <ele>222.995880</ele>
        <time>2017-06-04T13:24:42.000Z</time>
      </trkpt>
      <trkpt lat="45.109680" lon="5.275866">
        <ele>222.271877</ele>
        <time>2017-06-04T13:24:44.000Z</time>
      </trkpt>
      <trkpt lat="45.109627" lon="5.275649">
        <ele>221.462786</ele>
        <time>2017-06-04T13:24:46.000Z</time>
      </trkpt>
      <trkpt lat="45.109570" lon="5.275416">
        <ele>220.593887</ele>
        <time>2017-06-04T13:24:48.000Z</time>
      </trkpt>
      <trkpt lat="45.109510" lon="5.275199">
        <ele>219.772701</ele>
        <time>2017-06-04T13:24:50.000Z</time>
      </trkpt>
      <trkpt lat="45.109447" lon="5.274992">
        <ele>218.978405</ele>
        <time>2017-06-04T13:24:52.000Z</time>
      </trkpt>
      <trkpt lat="45.109394" lon="5.274800">
        <ele>218.251983</ele>
        <time>2017-06-04T13:24:54.000Z</time>
      </trkpt>
      <trkpt lat="45.109344" lon="5.274630">
        <ele>217.603051</ele>
        <time>2017-06-04T13:24:56.000Z</time>
      </trkpt>
      <trkpt lat="45.109300" lon="5.274492">
        <ele>217.069487</ele>
        <time>2017-06-04T13:24:58.000Z</time>
      </trkpt>
      <trkpt lat="45.109260" lon="5.274368">
        <ele>216.589094</ele>
        <time>2017-06-04T13:25:00.000Z</time>
      </trkpt>
      <trkpt lat="45.109220" lon="5.274249">
        <ele>216.124666</ele>
        <time>2017-06-04T13:25:04.000Z</time>
      </trkpt>
      <trkpt lat="45.109154" lon="5.274096">
        <ele>215.492840</ele>
        <time>2017-06-04T13:25:07.000Z</time>
      </trkpt>
      <trkpt lat="45.109097" lon="5.273966">
        <ele>214.953579</ele>
        <time>2017-06-04T13:25:10.000Z</time>
      </trkpt>
      <trkpt lat="45.109047" lon="5.273829">
        <ele>214.410130</ele>
        <time>2017-06-04T13:25:13.000Z</time>
      </trkpt>
      <trkpt lat="45.108974" lon="5.273711">
        <ele>214.196091</ele>
        <time>2017-06-04T13:25:16.000Z</time>
      </trkpt>
      <trkpt lat="45.108894" lon="5.273550">
        <ele>214.190352</ele>
        <time>2017-06-04T13:25:19.000Z</time>
      </trkpt>
      <trkpt lat="45.108830" lon="5.273456">
        <ele>214.186546</ele>
        <time>2017-06-04T13:25:21.000Z</time>
      </trkpt>
      <trkpt lat="45.108750" lon="5.273385">
        <ele>214.182648</ele>
        <time>2017-06-04T13:25:23.000Z</time>
      </trkpt>
      <trkpt lat="45.108665" lon="5.273285">
        <ele>214.178086</ele>
        <time>2017-06-04T13:25:26.000Z</time>
      </trkpt>
      <trkpt lat="45.108585" lon="5.273161">
        <ele>214.173189</ele>
        <time>2017-06-04T13:25:29.000Z</time>
      </trkpt>
      <trkpt lat="45.108494" lon="5.273028">
        <ele>214.167791</ele>
        <time>2017-06-04T13:25:32.000Z</time>
      </trkpt>
      <trkpt lat="45.108425" lon="5.272944">
        <ele>214.164034</ele>
        <time>2017-06-04T13:25:34.000Z</time>
      </trkpt>
      <trkpt lat="45.108370" lon="5.272826">
        <ele>214.159913</ele>
        <time>2017-06-04T13:25:36.000Z</time>
      </trkpt>
      <trkpt lat="45.108280" lon="5.272698">
        <ele>214.154647</ele>
        <time>2017-06-04T13:25:39.000Z</time>
      </trkpt>
      <trkpt lat="45.108177" lon="5.272591">
        <ele>214.149373</ele>
        <time>2017-06-04T13:25:42.000Z</time>
      </trkpt>
      <trkpt lat="45.108105" lon="5.272516">
        <ele>214.145683</ele>
        <time>2017-06-04T13:25:44.000Z</time>
      </trkpt>
      <trkpt lat="45.108032" lon="5.272434">
        <ele>214.141836</ele>
        <time>2017-06-04T13:25:46.000Z</time>
      </trkpt>
      <trkpt lat="45.107930" lon="5.272344">
        <ele>214.136874</ele>
        <time>2017-06-04T13:25:49.000Z</time>
      </trkpt>
      <trkpt lat="45.107820" lon="5.272255">
        <ele>214.131644</ele>
        <time>2017-06-04T13:25:52.000Z</time>
      </trkpt>
      <trkpt lat="45.107716" lon="5.272199">
        <ele>214.127049</ele>
        <time>2017-06-04T13:25:55.000Z</time>
      </trkpt>
      <trkpt lat="45.107616" lon="5.272117">
        <ele>214.271665</ele>
        <time>2017-06-04T13:25:58.000Z</time>
      </trkpt>
      <trkpt lat="45.107520" lon="5.272039">
        <ele>214.555675</ele>
        <time>2017-06-04T13:26:01.000Z</time>
      </trkpt>
      <trkpt lat="45.107418" lon="5.271963">
        <ele>214.851438</ele>
        <time>2017-06-04T13:26:04.000Z</time>
      </trkpt>
      <trkpt lat="45.107320" lon="5.271896">
        <ele>215.130695</ele>
        <time>2017-06-04T13:26:07.000Z</time>
      </trkpt>
      <trkpt lat="45.107227" lon="5.271816">
        <ele>215.409916</ele>
        <time>2017-06-04T13:26:10.000Z</time>
      </trkpt>
      <trkpt lat="45.107132" lon="5.271730">
        <ele>215.699240</ele>
        <time>2017-06-04T13:26:13.000Z</time>
      </trkpt>
      <trkpt lat="45.107037" lon="5.271673">
        <ele>215.964008</ele>
        <time>2017-06-04T13:26:16.000Z</time>
      </trkpt>
      <trkpt lat="45.106926" lon="5.271594">
        <ele>216.282800</ele>
        <time>2017-06-04T13:26:19.000Z</time>
      </trkpt>
      <trkpt lat="45.106834" lon="5.271545">
        <ele>216.535041</ele>
        <time>2017-06-04T13:26:22.000Z</time>
      </trkpt>
      <trkpt lat="45.106740" lon="5.271466">
        <ele>216.815530</ele>
        <time>2017-06-04T13:26:25.000Z</time>
      </trkpt>
      <trkpt lat="45.106647" lon="5.271388">
        <ele>217.092889</ele>
        <time>2017-06-04T13:26:28.000Z</time>
      </trkpt>
      <trkpt lat="45.106567" lon="5.271321">
        <ele>217.331388</ele>
        <time>2017-06-04T13:26:31.000Z</time>
      </trkpt>
      <trkpt lat="45.106472" lon="5.271253">
        <ele>217.604543</ele>
        <time>2017-06-04T13:26:34.000Z</time>
      </trkpt>
      <trkpt lat="45.106373" lon="5.271196">
        <ele>217.878795</ele>
        <time>2017-06-04T13:26:37.000Z</time>
      </trkpt>
      <trkpt lat="45.106262" lon="5.271149">
        <ele>218.176115</ele>
        <time>2017-06-04T13:26:41.000Z</time>
      </trkpt>
      <trkpt lat="45.106163" lon="5.271094">
        <ele>218.449024</ele>
        <time>2017-06-04T13:26:44.000Z</time>
      </trkpt>
      <trkpt lat="45.106060" lon="5.271046">
        <ele>218.727296</ele>
        <time>2017-06-04T13:26:47.000Z</time>
      </trkpt>
      <trkpt lat="45.105965" lon="5.271001">
        <ele>219.344152</ele>
        <time>2017-06-04T13:26:50.000Z</time>
      </trkpt>
      <trkpt lat="45.105896" lon="5.270920">
        <ele>219.913671</ele>
        <time>2017-06-04T13:26:53.000Z</time>
      </trkpt>
      <trkpt lat="45.105835" lon="5.270810">
        <ele>220.541209</ele>
        <time>2017-06-04T13:26:56.000Z</time>
      </trkpt>
      <trkpt lat="45.105760" lon="5.270693">
        <ele>221.250218</ele>
        <time>2017-06-04T13:26:59.000Z</time>
      </trkpt>
      <trkpt lat="45.105682" lon="5.270612">
        <ele>221.864869</ele>
        <time>2017-06-04T13:27:02.000Z</time>
      </trkpt>
      <trkpt lat="45.105595" lon="5.270543">
        <ele>222.498559</ele>
        <time>2017-06-04T13:27:05.000Z</time>
      </trkpt>
      <trkpt lat="45.105500" lon="5.270492">
        <ele>223.144247</ele>
        <time>2017-06-04T13:27:08.000Z</time>
      </trkpt>
      <trkpt lat="45.105404" lon="5.270469">
        <ele>223.763062</ele>
        <time>2017-06-04T13:27:11.000Z</time>
      </trkpt>
      <trkpt lat="45.105310" lon="5.270459">
        <ele>224.362186</ele>
        <time>2017-06-04T13:27:14.000Z</time>
      </trkpt>
      <trkpt lat="45.105213" lon="5.270467">
        <ele>224.979739</ele>
        <time>2017-06-04T13:27:17.000Z</time>
      </trkpt>
      <trkpt lat="45.105114" lon="5.270461">
        <ele>225.609535</ele>
        <time>2017-06-04T13:27:20.000Z</time>
      </trkpt>
      <trkpt lat="45.105020" lon="5.270451">
        <ele>226.208658</ele>
        <time>2017-06-04T13:27:23.000Z</time>
      </trkpt>
      <trkpt lat="45.104923" lon="5.270434">
        <ele>226.829866</ele>
        <time>2017-06-04T13:27:26.000Z</time>
      </trkpt>
      <trkpt lat="45.104836" lon="5.270420">
        <ele>227.386373</ele>
        <time>2017-06-04T13:27:29.000Z</time>
      </trkpt>
      <trkpt lat="45.104740" lon="5.270400">
        <ele>228.003087</ele>
        <time>2017-06-04T13:27:32.000Z</time>
      </trkpt>
      <trkpt lat="45.104618" lon="5.270385">
        <ele>228.781404</ele>
        <time>2017-06-04T13:27:36.000Z</time>
      </trkpt>
      <trkpt lat="45.104527" lon="5.270387">
        <ele>229.359849</ele>
        <time>2017-06-04T13:27:39.000Z</time>
      </trkpt>
      <trkpt lat="45.104416" lon="5.270394">
        <ele>230.066037</ele>
        <time>2017-06-04T13:27:43.000Z</time>
      </trkpt>
      <trkpt lat="45.104313" lon="5.270403">
        <ele>230.401363</ele>
        <time>2017-06-04T13:27:47.000Z</time>
      </trkpt>
      <trkpt lat="45.104210" lon="5.270407">
        <ele>230.674191</ele>
        <time>2017-06-04T13:27:51.000Z</time>
      </trkpt>
      <trkpt lat="45.104095" lon="5.270386">
        <ele>230.981210</ele>
        <time>2017-06-04T13:27:55.000Z</time>
      </trkpt>
      <trkpt lat="45.103985" lon="5.270318">
        <ele>231.298989</ele>
        <time>2017-06-04T13:27:59.000Z</time>
      </trkpt>
      <trkpt lat="45.103900" lon="5.270258">
        <ele>231.550441</ele>
        <time>2017-06-04T13:28:02.000Z</time>
      </trkpt>
      <trkpt lat="45.103794" lon="5.270170">
        <ele>231.875746</ele>
        <time>2017-06-04T13:28:06.000Z</time>
      </trkpt>
      <trkpt lat="45.103706" lon="5.270112">
        <ele>232.132734</ele>
        <time>2017-06-04T13:28:09.000Z</time>
      </trkpt>
      <trkpt lat="45.103615" lon="5.270067">
        <ele>232.387941</ele>
        <time>2017-06-04T13:28:12.000Z</time>
      </trkpt>
      <trkpt lat="45.103510" lon="5.270023">
        <ele>232.677869</ele>
        <time>2017-06-04T13:28:15.000Z</time>
      </trkpt>
      <trkpt lat="45.103397" lon="5.269976">
        <ele>232.989701</ele>
        <time>2017-06-04T13:28:18.000Z</time>
      </trkpt>
      <trkpt lat="45.103287" lon="5.269916">
        <ele>233.301802</ele>
        <time>2017-06-04T13:28:21.000Z</time>
      </trkpt>
      <trkpt lat="45.103207" lon="5.269851">
        <ele>233.545989</ele>
        <time>2017-06-04T13:28:24.000Z</time>
      </trkpt>
      <trkpt lat="45.103120" lon="5.269763">
        <ele>233.829035</ele>
        <time>2017-06-04T13:28:27.000Z</time>
      </trkpt>
      <trkpt lat="45.103024" lon="5.269630">
        <ele>234.184561</ele>
        <time>2017-06-04T13:28:30.000Z</time>
      </trkpt>
      <trkpt lat="45.102943" lon="5.269548">
        <ele>234.448161</ele>
        <time>2017-06-04T13:28:32.000Z</time>
      </trkpt>
      <trkpt lat="45.102825" lon="5.269489">
        <ele>234.779491</ele>
        <time>2017-06-04T13:28:35.000Z</time>
      </trkpt>
      <trkpt lat="45.102695" lon="5.269477">
        <ele>234.904169</ele>
        <time>2017-06-04T13:28:38.000Z</time>
      </trkpt>
      <trkpt lat="45.102585" lon="5.269498">
        <ele>234.856441</ele>
        <time>2017-06-04T13:28:41.000Z</time>
      </trkpt>
      <trkpt lat="45.102474" lon="5.269528">
        <ele>234.807849</ele>
        <time>2017-06-04T13:28:44.000Z</time>
      </trkpt>
      <trkpt lat="45.102367" lon="5.269540">
        <ele>234.761694</ele>
        <time>2017-06-04T13:28:47.000Z</time>
      </trkpt>
      <trkpt lat="45.102253" lon="5.269534">
        <ele>234.712640</ele>
        <time>2017-06-04T13:28:50.000Z</time>
      </trkpt>
      <trkpt lat="45.102127" lon="5.269506">
        <ele>234.657796</ele>
        <time>2017-06-04T13:28:53.000Z</time>
      </trkpt>
      <trkpt lat="45.102013" lon="5.269474">
        <ele>234.607822</ele>
        <time>2017-06-04T13:28:56.000Z</time>
      </trkpt>
      <trkpt lat="45.101917" lon="5.269486">
        <ele>234.566381</ele>
        <time>2017-06-04T13:28:59.000Z</time>
      </trkpt>
      <trkpt lat="45.101826" lon="5.269531">
        <ele>234.524935</ele>
        <time>2017-06-04T13:29:02.000Z</time>
      </trkpt>
      <trkpt lat="45.101715" lon="5.269598">
        <ele>234.473053</ele>
        <time>2017-06-04T13:29:05.000Z</time>
      </trkpt>
      <trkpt lat="45.101610" lon="5.269674">
        <ele>234.422351</ele>
        <time>2017-06-04T13:29:08.000Z</time>
      </trkpt>
      <trkpt lat="45.101524" lon="5.269733">
        <ele>234.381262</ele>
        <time>2017-06-04T13:29:10.000Z</time>
      </trkpt>
      <trkpt lat="45.101390" lon="5.269794">
        <ele>234.320739</ele>
        <time>2017-06-04T13:29:13.000Z</time>
      </trkpt>
      <trkpt lat="45.101276" lon="5.269818">
        <ele>234.271180</ele>
        <time>2017-06-04T13:29:15.000Z</time>
      </trkpt>
      <trkpt lat="45.101173" lon="5.269808">
        <ele>234.226786</ele>
        <time>2017-06-04T13:29:17.000Z</time>
      </trkpt>
      <trkpt lat="45.101063" lon="5.269758">
        <ele>234.177110</ele>
        <time>2017-06-04T13:29:19.000Z</time>
      </trkpt>
      <trkpt lat="45.100967" lon="5.269714">
        <ele>234.144016</ele>
        <time>2017-06-04T13:29:21.000Z</time>
      </trkpt>
      <trkpt lat="45.100864" lon="5.269690">
        <ele>234.115756</ele>
        <time>2017-06-04T13:29:23.000Z</time>
      </trkpt>
      <trkpt lat="45.100735" lon="5.269670">
        <ele>234.080624</ele>
        <time>2017-06-04T13:29:26.000Z</time>
      </trkpt>
      <trkpt lat="45.100624" lon="5.269726">
        <ele>234.048725</ele>
        <time>2017-06-04T13:29:29.000Z</time>
      </trkpt>
      <trkpt lat="45.100525" lon="5.269821">
        <ele>234.016353</ele>
        <time>2017-06-04T13:29:32.000Z</time>
      </trkpt>
      <trkpt lat="45.100410" lon="5.269926">
        <ele>233.979314</ele>
        <time>2017-06-04T13:29:35.000Z</time>
      </trkpt>
      <trkpt lat="45.100300" lon="5.270024">
        <ele>233.944134</ele>
        <time>2017-06-04T13:29:38.000Z</time>
      </trkpt>
      <trkpt lat="45.100220" lon="5.270089">
        <ele>233.919167</ele>
        <time>2017-06-04T13:29:40.000Z</time>
      </trkpt>
      <trkpt lat="45.100094" lon="5.270143">
        <ele>233.883529</ele>
        <time>2017-06-04T13:29:43.000Z</time>
      </trkpt>
      <trkpt lat="45.099968" lon="5.270145">
        <ele>233.849415</ele>
        <time>2017-06-04T13:29:46.000Z</time>
      </trkpt>
      <trkpt lat="45.099865" lon="5.270147">
        <ele>233.821527</ele>
        <time>2017-06-04T13:29:48.000Z</time>
      </trkpt>
      <trkpt lat="45.099754" lon="5.270132">
        <ele>233.791340</ele>
        <time>2017-06-04T13:29:50.000Z</time>
      </trkpt>
      <trkpt lat="45.099655" lon="5.270114">
        <ele>233.764318</ele>
        <time>2017-06-04T13:29:52.000Z</time>
      </trkpt>
      <trkpt lat="45.099552" lon="5.270111">
        <ele>233.736427</ele>
        <time>2017-06-04T13:29:54.000Z</time>
      </trkpt>
      <trkpt lat="45.099450" lon="5.270083">
        <ele>233.708299</ele>
        <time>2017-06-04T13:29:56.000Z</time>
      </trkpt>
      <trkpt lat="45.099346" lon="5.270046">
        <ele>233.679270</ele>
        <time>2017-06-04T13:29:58.000Z</time>
      </trkpt>
      <trkpt lat="45.099255" lon="5.269997">
        <ele>233.883095</ele>
        <time>2017-06-04T13:30:00.000Z</time>
      </trkpt>
      <trkpt lat="45.099155" lon="5.269964">
        <ele>234.150760</ele>
        <time>2017-06-04T13:30:02.000Z</time>
      </trkpt>
      <trkpt lat="45.099056" lon="5.269929">
        <ele>234.416754</ele>
        <time>2017-06-04T13:30:04.000Z</time>
      </trkpt>
      <trkpt lat="45.098946" lon="5.269921">
        <ele>234.703885</ele>
        <time>2017-06-04T13:30:06.000Z</time>
      </trkpt>
      <trkpt lat="45.098850" lon="5.269902">
        <ele>234.956574</ele>
        <time>2017-06-04T13:30:08.000Z</time>
      </trkpt>
      <trkpt lat="45.098763" lon="5.269886">
        <ele>235.185274</ele>
        <time>2017-06-04T13:30:10.000Z</time>
      </trkpt>
      <trkpt lat="45.098630" lon="5.269861">
        <ele>235.535024</ele>
        <time>2017-06-04T13:30:13.000Z</time>
      </trkpt>
      <trkpt lat="45.098500" lon="5.269826">
        <ele>235.879981</ele>
        <time>2017-06-04T13:30:16.000Z</time>
      </trkpt>
      <trkpt lat="45.098385" lon="5.269760">
        <ele>236.203436</ele>
        <time>2017-06-04T13:30:19.000Z</time>
      </trkpt>
      <trkpt lat="45.098290" lon="5.269676">
        <ele>236.495368</ele>
        <time>2017-06-04T13:30:22.000Z</time>
      </trkpt>
      <trkpt lat="45.098194" lon="5.269582">
        <ele>236.799588</ele>
        <time>2017-06-04T13:30:25.000Z</time>
      </trkpt>
      <trkpt lat="45.098100" lon="5.269506">
        <ele>237.081732</ele>
        <time>2017-06-04T13:30:28.000Z</time>
      </trkpt>
      <trkpt lat="45.097984" lon="5.269470">
        <ele>237.391299</ele>
        <time>2017-06-04T13:30:31.000Z</time>
      </trkpt>
      <trkpt lat="45.097866" lon="5.269450">
        <ele>237.701102</ele>
        <time>2017-06-04T13:30:34.000Z</time>
      </trkpt>
      <trkpt lat="45.097763" lon="5.269454">
        <ele>237.969709</ele>
        <time>2017-06-04T13:30:37.000Z</time>
      </trkpt>
      <trkpt lat="45.097660" lon="5.269451">
        <ele>238.238271</ele>
        <time>2017-06-04T13:30:40.000Z</time>
      </trkpt>
      <trkpt lat="45.097557" lon="5.269441">
        <ele>238.451766</ele>
        <time>2017-06-04T13:30:43.000Z</time>
      </trkpt>
      <trkpt lat="45.097450" lon="5.269413">
        <ele>238.625843</ele>
        <time>2017-06-04T13:30:47.000Z</time>
      </trkpt>
      <trkpt lat="45.097360" lon="5.269373">
        <ele>238.776746</ele>
        <time>2017-06-04T13:30:51.000Z</time>
      </trkpt>
      <trkpt lat="45.097244" lon="5.269346">
        <ele>238.964814</ele>
        <time>2017-06-04T13:30:55.000Z</time>
      </trkpt>
      <trkpt lat="45.097157" lon="5.269317">
        <ele>239.107799</ele>
        <time>2017-06-04T13:30:58.000Z</time>
      </trkpt>
      <trkpt lat="45.097057" lon="5.269282">
        <ele>239.272591</ele>
        <time>2017-06-04T13:31:01.000Z</time>
      </trkpt>
      <trkpt lat="45.096943" lon="5.269246">
        <ele>239.459447</ele>
        <time>2017-06-04T13:31:04.000Z</time>
      </trkpt>
      <trkpt lat="45.096832" lon="5.269200">
        <ele>239.644469</ele>
        <time>2017-06-04T13:31:07.000Z</time>
      </trkpt>
      <trkpt lat="45.096733" lon="5.269167">
        <ele>239.807177</ele>
        <time>2017-06-04T13:31:10.000Z</time>
      </trkpt>
      <trkpt lat="45.096634" lon="5.269139">
        <ele>239.968685</ele>
        <time>2017-06-04T13:31:13.000Z</time>
      </trkpt>
      <trkpt lat="45.096520" lon="5.269103">
        <ele>240.155540</ele>
        <time>2017-06-04T13:31:16.000Z</time>
      </trkpt>
      <trkpt lat="45.096394" lon="5.269066">
        <ele>240.361403</ele>
        <time>2017-06-04T13:31:19.000Z</time>
      </trkpt>
      <trkpt lat="45.096268" lon="5.269009">
        <ele>240.573009</ele>
        <time>2017-06-04T13:31:22.000Z</time>
      </trkpt>
      <trkpt lat="45.096170" lon="5.268987">
        <ele>240.731747</ele>
        <time>2017-06-04T13:31:24.000Z</time>
      </trkpt>
      <trkpt lat="45.096066" lon="5.268967">
        <ele>240.899654</ele>
        <time>2017-06-04T13:31:26.000Z</time>
      </trkpt>
      <trkpt lat="45.095932" lon="5.268940">
        <ele>241.116188</ele>
        <time>2017-06-04T13:31:28.000Z</time>
      </trkpt>
      <trkpt lat="45.095806" lon="5.268911">
        <ele>241.354739</ele>
        <time>2017-06-04T13:31:30.000Z</time>
      </trkpt>
      <trkpt lat="45.095695" lon="5.268882">
        <ele>241.613258</ele>
        <time>2017-06-04T13:31:32.000Z</time>
      </trkpt>
      <trkpt lat="45.095580" lon="5.268848">
        <ele>241.882327</ele>
        <time>2017-06-04T13:31:34.000Z</time>
      </trkpt>
      <trkpt lat="45.095474" lon="5.268822">
        <ele>242.128720</ele>
        <time>2017-06-04T13:31:36.000Z</time>
      </trkpt>
      <trkpt lat="45.095383" lon="5.268776">
        <ele>242.350017</ele>
        <time>2017-06-04T13:31:38.000Z</time>
      </trkpt>
      <trkpt lat="45.095264" lon="5.268724">
        <ele>242.635245</ele>
        <time>2017-06-04T13:31:41.000Z</time>
      </trkpt>
      <trkpt lat="45.095154" lon="5.268678">
        <ele>242.897935</ele>
        <time>2017-06-04T13:31:44.000Z</time>
      </trkpt>
      <trkpt lat="45.095043" lon="5.268644">
        <ele>243.158043</ele>
        <time>2017-06-04T13:31:47.000Z</time>
      </trkpt>
      <trkpt lat="45.094936" lon="5.268615">
        <ele>243.407558</ele>
        <time>2017-06-04T13:31:50.000Z</time>
      </trkpt>
      <trkpt lat="45.094837" lon="5.268591">
        <ele>243.637602</ele>
        <time>2017-06-04T13:31:53.000Z</time>
      </trkpt>
      <trkpt lat="45.094723" lon="5.268574">
        <ele>243.900148</ele>
        <time>2017-06-04T13:31:57.000Z</time>
      </trkpt>
      <trkpt lat="45.094624" lon="5.268589">
        <ele>244.128189</ele>
        <time>2017-06-04T13:32:01.000Z</time>
      </trkpt>
      <trkpt lat="45.094536" lon="5.268569">
        <ele>244.332320</ele>
        <time>2017-06-04T13:32:05.000Z</time>
      </trkpt>
      <trkpt lat="45.094444" lon="5.268573">
        <ele>244.543134</ele>
        <time>2017-06-04T13:32:09.000Z</time>
      </trkpt>
      <trkpt lat="45.094340" lon="5.268564">
        <ele>244.781777</ele>
        <time>2017-06-04T13:32:13.000Z</time>
      </trkpt>
      <trkpt lat="45.094220" lon="5.268571">
        <ele>245.056856</ele>
        <time>2017-06-04T13:32:17.000Z</time>
      </trkpt>
      <trkpt lat="45.094124" lon="5.268572">
        <ele>245.276738</ele>
        <time>2017-06-04T13:32:20.000Z</time>
      </trkpt>
      <trkpt lat="45.094020" lon="5.268583">
        <ele>245.345238</ele>
        <time>2017-06-04T13:32:23.000Z</time>
      </trkpt>
      <trkpt lat="45.093906" lon="5.268602">
        <ele>245.319465</ele>
        <time>2017-06-04T13:32:26.000Z</time>
      </trkpt>
      <trkpt lat="45.093807" lon="5.268634">
        <ele>245.296666</ele>
        <time>2017-06-04T13:32:29.000Z</time>
      </trkpt>
      <trkpt lat="45.093690" lon="5.268688">
        <ele>245.269037</ele>
        <time>2017-06-04T13:32:32.000Z</time>
      </trkpt>
      <trkpt lat="45.093594" lon="5.268716">
        <ele>245.247031</ele>
        <time>2017-06-04T13:32:34.000Z</time>
      </trkpt>
      <trkpt lat="45.093475" lon="5.268766">
        <ele>245.219161</ele>
        <time>2017-06-04T13:32:37.000Z</time>
      </trkpt>
      <trkpt lat="45.093357" lon="5.268818">
        <ele>245.191415</ele>
        <time>2017-06-04T13:32:40.000Z</time>
      </trkpt>
      <trkpt lat="45.093235" lon="5.268880">
        <ele>245.162313</ele>
        <time>2017-06-04T13:32:43.000Z</time>
      </trkpt>
      <trkpt lat="45.093120" lon="5.268928">
        <ele>245.135395</ele>
        <time>2017-06-04T13:32:46.000Z</time>
      </trkpt>
      <trkpt lat="45.093002" lon="5.268979">
        <ele>245.107695</ele>
        <time>2017-06-04T13:32:49.000Z</time>
      </trkpt>
      <trkpt lat="45.092865" lon="5.269023">
        <ele>245.076155</ele>
        <time>2017-06-04T13:32:52.000Z</time>
      </trkpt>
      <trkpt lat="45.092766" lon="5.269034">
        <ele>245.053858</ele>
        <time>2017-06-04T13:32:54.000Z</time>
      </trkpt>
      <trkpt lat="45.092667" lon="5.269058">
        <ele>245.031307</ele>
        <time>2017-06-04T13:32:56.000Z</time>
      </trkpt>
      <trkpt lat="45.092575" lon="5.269066">
        <ele>245.010612</ele>
        <time>2017-06-04T13:32:58.000Z</time>
      </trkpt>
      <trkpt lat="45.092480" lon="5.269078">
        <ele>244.989197</ele>
        <time>2017-06-04T13:33:00.000Z</time>
      </trkpt>
      <trkpt lat="45.092346" lon="5.269093">
        <ele>244.959017</ele>
        <time>2017-06-04T13:33:03.000Z</time>
      </trkpt>
      <trkpt lat="45.092255" lon="5.269099">
        <ele>245.029937</ele>
        <time>2017-06-04T13:33:05.000Z</time>
      </trkpt>
      <trkpt lat="45.092130" lon="5.269114">
        <ele>245.144414</ele>
        <time>2017-06-04T13:33:08.000Z</time>
      </trkpt>
      <trkpt lat="45.092037" lon="5.269126">
        <ele>245.229632</ele>
        <time>2017-06-04T13:33:10.000Z</time>
      </trkpt>
      <trkpt lat="45.091938" lon="5.269146">
        <ele>245.320888</ele>
        <time>2017-06-04T13:33:12.000Z</time>
      </trkpt>
      <trkpt lat="45.091840" lon="5.269141">
        <ele>245.410376</ele>
        <time>2017-06-04T13:33:14.000Z</time>
      </trkpt>
      <trkpt lat="45.091740" lon="5.269154">
        <ele>245.502014</ele>
        <time>2017-06-04T13:33:16.000Z</time>
      </trkpt>
      <trkpt lat="45.091602" lon="5.269141">
        <ele>245.628223</ele>
        <time>2017-06-04T13:33:19.000Z</time>
      </trkpt>
      <trkpt lat="45.091507" lon="5.269151">
        <ele>245.715154</ele>
        <time>2017-06-04T13:33:21.000Z</time>
      </trkpt>
      <trkpt lat="45.091380" lon="5.269160">
        <ele>245.831192</ele>
        <time>2017-06-04T13:33:24.000Z</time>
      </trkpt>
      <trkpt lat="45.091250" lon="5.269174">
        <ele>245.950165</ele>
        <time>2017-06-04T13:33:27.000Z</time>
      </trkpt>
      <trkpt lat="45.091118" lon="5.269174">
        <ele>246.070621</ele>
        <time>2017-06-04T13:33:30.000Z</time>
      </trkpt>
      <trkpt lat="45.090980" lon="5.269181">
        <ele>246.196633</ele>
        <time>2017-06-04T13:33:33.000Z</time>
      </trkpt>
      <trkpt lat="45.090890" lon="5.269190">
        <ele>246.278967</ele>
        <time>2017-06-04T13:33:35.000Z</time>
      </trkpt>
      <trkpt lat="45.090797" lon="5.269193">
        <ele>246.363855</ele>
        <time>2017-06-04T13:33:37.000Z</time>
      </trkpt>
      <trkpt lat="45.090694" lon="5.269192">
        <ele>246.457850</ele>
        <time>2017-06-04T13:33:39.000Z</time>
      </trkpt>
      <trkpt lat="45.090600" lon="5.269186">
        <ele>246.543716</ele>
        <time>2017-06-04T13:33:41.000Z</time>
      </trkpt>
      <trkpt lat="45.090466" lon="5.269183">
        <ele>246.603560</ele>
        <time>2017-06-04T13:33:44.000Z</time>
      </trkpt>
      <trkpt lat="45.090330" lon="5.269212">
        <ele>246.613908</ele>
        <time>2017-06-04T13:33:47.000Z</time>
      </trkpt>
      <trkpt lat="45.090230" lon="5.269232">
        <ele>246.621507</ele>
        <time>2017-06-04T13:33:49.000Z</time>
      </trkpt>
      <trkpt lat="45.090126" lon="5.269247">
        <ele>246.629372</ele>
        <time>2017-06-04T13:33:51.000Z</time>
      </trkpt>
      <trkpt lat="45.090027" lon="5.269278">
        <ele>246.637001</ele>
        <time>2017-06-04T13:33:53.000Z</time>
      </trkpt>
      <trkpt lat="45.089935" lon="5.269292">
        <ele>246.643963</ele>
        <time>2017-06-04T13:33:55.000Z</time>
      </trkpt>
      <trkpt lat="45.089848" lon="5.269320">
        <ele>246.650675</ele>
        <time>2017-06-04T13:33:57.000Z</time>
      </trkpt>
      <trkpt lat="45.089745" lon="5.269360">
        <ele>246.658711</ele>
        <time>2017-06-04T13:33:59.000Z</time>
      </trkpt>
      <trkpt lat="45.089634" lon="5.269374">
        <ele>246.667096</ele>
        <time>2017-06-04T13:34:01.000Z</time>
      </trkpt>
      <trkpt lat="45.089535" lon="5.269368">
        <ele>246.674551</ele>
        <time>2017-06-04T13:34:03.000Z</time>
      </trkpt>
      <trkpt lat="45.089440" lon="5.269372">
        <ele>246.681702</ele>
        <time>2017-06-04T13:34:05.000Z</time>
      </trkpt>
      <trkpt lat="45.089340" lon="5.269373">
        <ele>246.689226</ele>
        <time>2017-06-04T13:34:07.000Z</time>
      </trkpt>
      <trkpt lat="45.089240" lon="5.269369">
        <ele>246.696753</ele>
        <time>2017-06-04T13:34:09.000Z</time>
      </trkpt>
      <trkpt lat="45.089127" lon="5.269373">
        <ele>246.705258</ele>
        <time>2017-06-04T13:34:11.000Z</time>
      </trkpt>
      <trkpt lat="45.089016" lon="5.269373">
        <ele>246.713609</ele>
        <time>2017-06-04T13:34:13.000Z</time>
      </trkpt>
      <trkpt lat="45.088913" lon="5.269374">
        <ele>246.721359</ele>
        <time>2017-06-04T13:34:15.000Z</time>
      </trkpt>
      <trkpt lat="45.088806" lon="5.269383">
        <ele>246.729424</ele>
        <time>2017-06-04T13:34:17.000Z</time>
      </trkpt>
      <trkpt lat="45.088703" lon="5.269391">
        <ele>246.757230</ele>
        <time>2017-06-04T13:34:19.000Z</time>
      </trkpt>
      <trkpt lat="45.088593" lon="5.269410">
        <ele>246.808334</ele>
        <time>2017-06-04T13:34:21.000Z</time>
      </trkpt>
      <trkpt lat="45.088480" lon="5.269431">
        <ele>246.860893</ele>
        <time>2017-06-04T13:34:23.000Z</time>
      </trkpt>
      <trkpt lat="45.088367" lon="5.269449">
        <ele>246.913333</ele>
        <time>2017-06-04T13:34:25.000Z</time>
      </trkpt>
      <trkpt lat="45.088260" lon="5.269454">
        <ele>246.962705</ele>
        <time>2017-06-04T13:34:27.000Z</time>
      </trkpt>
      <trkpt lat="45.088154" lon="5.269438">
        <ele>247.011866</ele>
        <time>2017-06-04T13:34:29.000Z</time>
      </trkpt>
      <trkpt lat="45.088050" lon="5.269401">
        <ele>247.061317</ele>
        <time>2017-06-04T13:34:31.000Z</time>
      </trkpt>
      <trkpt lat="45.087948" lon="5.269371">
        <ele>247.109359</ele>
        <time>2017-06-04T13:34:33.000Z</time>
      </trkpt>
      <trkpt lat="45.087833" lon="5.269331">
        <ele>247.163969</ele>
        <time>2017-06-04T13:34:35.000Z</time>
      </trkpt>
      <trkpt lat="45.087710" lon="5.269298">
        <ele>247.221702</ele>
        <time>2017-06-04T13:34:37.000Z</time>
      </trkpt>
      <trkpt lat="45.087585" lon="5.269280">
        <ele>247.279645</ele>
        <time>2017-06-04T13:34:39.000Z</time>
      </trkpt>
      <trkpt lat="45.087460" lon="5.269258">
        <ele>247.337734</ele>
        <time>2017-06-04T13:34:41.000Z</time>
      </trkpt>
      <trkpt lat="45.087326" lon="5.269233">
        <ele>247.400064</ele>
        <time>2017-06-04T13:34:43.000Z</time>
      </trkpt>
      <trkpt lat="45.087204" lon="5.269211">
        <ele>247.456781</ele>
        <time>2017-06-04T13:34:45.000Z</time>
      </trkpt>
      <trkpt lat="45.087093" lon="5.269179">
        <ele>247.509020</ele>
        <time>2017-06-04T13:34:47.000Z</time>
      </trkpt>
      <trkpt lat="45.086987" lon="5.269155">
        <ele>247.558525</ele>
        <time>2017-06-04T13:34:49.000Z</time>
      </trkpt>
      <trkpt lat="45.086880" lon="5.269130">
        <ele>247.565792</ele>
        <time>2017-06-04T13:34:51.000Z</time>
      </trkpt>
      <trkpt lat="45.086773" lon="5.269101">
        <ele>247.569126</ele>
        <time>2017-06-04T13:34:53.000Z</time>
      </trkpt>
      <trkpt lat="45.086662" lon="5.269084">
        <ele>247.572542</ele>
        <time>2017-06-04T13:34:55.000Z</time>
      </trkpt>
      <trkpt lat="45.086555" lon="5.269068">
        <ele>247.575835</ele>
        <time>2017-06-04T13:34:57.000Z</time>
      </trkpt>
      <trkpt lat="45.086456" lon="5.269037">
        <ele>247.578938</ele>
        <time>2017-06-04T13:34:59.000Z</time>
      </trkpt>
      <trkpt lat="45.086353" lon="5.268990">
        <ele>247.582250</ele>
        <time>2017-06-04T13:35:01.000Z</time>
      </trkpt>
      <trkpt lat="45.086250" lon="5.268953">
        <ele>247.585502</ele>
        <time>2017-06-04T13:35:03.000Z</time>
      </trkpt>
      <trkpt lat="45.086150" lon="5.268900">
        <ele>247.588770</ele>
        <time>2017-06-04T13:35:05.000Z</time>
      </trkpt>
      <trkpt lat="45.086056" lon="5.268855">
        <ele>247.591806</ele>
        <time>2017-06-04T13:35:07.000Z</time>
      </trkpt>
      <trkpt lat="45.085957" lon="5.268808">
        <ele>247.595002</ele>
        <time>2017-06-04T13:35:09.000Z</time>
      </trkpt>
      <trkpt lat="45.085860" lon="5.268755">
        <ele>247.598184</ele>
        <time>2017-06-04T13:35:11.000Z</time>
      </trkpt>
      <trkpt lat="45.085770" lon="5.268702">
        <ele>247.601167</ele>
        <time>2017-06-04T13:35:13.000Z</time>
      </trkpt>
      <trkpt lat="45.085674" lon="5.268652">
        <ele>247.604297</ele>
        <time>2017-06-04T13:35:15.000Z</time>
      </trkpt>
      <trkpt lat="45.085580" lon="5.268588">
        <ele>247.607489</ele>
        <time>2017-06-04T13:35:17.000Z</time>
      </trkpt>
      <trkpt lat="45.085480" lon="5.268520">
        <ele>247.610884</ele>
        <time>2017-06-04T13:35:19.000Z</time>
      </trkpt>
      <trkpt lat="45.085373" lon="5.268459">
        <ele>247.614414</ele>
        <time>2017-06-04T13:35:21.000Z</time>
      </trkpt>
      <trkpt lat="45.085270" lon="5.268410">
        <ele>247.617739</ele>
        <time>2017-06-04T13:35:23.000Z</time>
      </trkpt>
      <trkpt lat="45.085167" lon="5.268349">
        <ele>247.607590</ele>
        <time>2017-06-04T13:35:25.000Z</time>
      </trkpt>
      <trkpt lat="45.085064" lon="5.268287">
        <ele>247.597174</ele>
        <time>2017-06-04T13:35:27.000Z</time>
      </trkpt>
      <trkpt lat="45.084970" lon="5.268225">
        <ele>247.587522</ele>
        <time>2017-06-04T13:35:29.000Z</time>
      </trkpt>
      <trkpt lat="45.084873" lon="5.268163">
        <ele>247.577617</ele>
        <time>2017-06-04T13:35:31.000Z</time>
      </trkpt>
      <trkpt lat="45.084778" lon="5.268095">
        <ele>247.567710</ele>
        <time>2017-06-04T13:35:33.000Z</time>
      </trkpt>
      <trkpt lat="45.084680" lon="5.268030">
        <ele>247.557637</ele>
        <time>2017-06-04T13:35:35.000Z</time>
      </trkpt>
      <trkpt lat="45.084576" lon="5.267966">
        <ele>247.547083</ele>
        <time>2017-06-04T13:35:37.000Z</time>
      </trkpt>
      <trkpt lat="45.084473" lon="5.267912">
        <ele>247.536861</ele>
        <time>2017-06-04T13:35:39.000Z</time>
      </trkpt>
      <trkpt lat="45.084373" lon="5.267850">
        <ele>247.526700</ele>
        <time>2017-06-04T13:35:41.000Z</time>
      </trkpt>
      <trkpt lat="45.084267" lon="5.267804">
        <ele>247.516381</ele>
        <time>2017-06-04T13:35:43.000Z</time>
      </trkpt>
      <trkpt lat="45.084164" lon="5.267759">
        <ele>247.506349</ele>
        <time>2017-06-04T13:35:45.000Z</time>
      </trkpt>
      <trkpt lat="45.084060" lon="5.267722">
        <ele>247.496368</ele>
        <time>2017-06-04T13:35:47.000Z</time>
      </trkpt>
      <trkpt lat="45.083960" lon="5.267681">
        <ele>247.486678</ele>
        <time>2017-06-04T13:35:49.000Z</time>
      </trkpt>
      <trkpt lat="45.083860" lon="5.267631">
        <ele>247.476808</ele>
        <time>2017-06-04T13:35:51.000Z</time>
      </trkpt>
      <trkpt lat="45.083767" lon="5.267587">
        <ele>247.467681</ele>
        <time>2017-06-04T13:35:53.000Z</time>
      </trkpt>
      <trkpt lat="45.083670" lon="5.267545">
        <ele>247.458240</ele>
        <time>2017-06-04T13:35:55.000Z</time>
      </trkpt>
      <trkpt lat="45.083580" lon="5.267504">
        <ele>247.449544</ele>
        <time>2017-06-04T13:35:57.000Z</time>
      </trkpt>
      <trkpt lat="45.083492" lon="5.267464">
        <ele>247.441884</ele>
        <time>2017-06-04T13:35:59.000Z</time>
      </trkpt>
      <trkpt lat="45.083366" lon="5.267412">
        <ele>247.431007</ele>
        <time>2017-06-04T13:36:02.000Z</time>
      </trkpt>
      <trkpt lat="45.083280" lon="5.267388">
        <ele>247.423742</ele>
        <time>2017-06-04T13:36:04.000Z</time>
      </trkpt>
      <trkpt lat="45.083145" lon="5.267386">
        <ele>247.412552</ele>
        <time>2017-06-04T13:36:07.000Z</time>
      </trkpt>
      <trkpt lat="45.083050" lon="5.267407">
        <ele>247.404583</ele>
        <time>2017-06-04T13:36:09.000Z</time>
      </trkpt>
      <trkpt lat="45.082897" lon="5.267430">
        <ele>247.391831</ele>
        <time>2017-06-04T13:36:12.000Z</time>
      </trkpt>
      <trkpt lat="45.082790" lon="5.267417">
        <ele>247.382930</ele>
        <time>2017-06-04T13:36:14.000Z</time>
      </trkpt>
      <trkpt lat="45.082684" lon="5.267389">
        <ele>247.373993</ele>
        <time>2017-06-04T13:36:16.000Z</time>
      </trkpt>
      <trkpt lat="45.082530" lon="5.267348">
        <ele>247.361005</ele>
        <time>2017-06-04T13:36:19.000Z</time>
      </trkpt>
      <trkpt lat="45.082397" lon="5.267266">
        <ele>247.348983</ele>
        <time>2017-06-04T13:36:22.000Z</time>
      </trkpt>
      <trkpt lat="45.082260" lon="5.267152">
        <ele>247.335813</ele>
        <time>2017-06-04T13:36:25.000Z</time>
      </trkpt>
      <trkpt lat="45.082165" lon="5.267072">
        <ele>247.326652</ele>
        <time>2017-06-04T13:36:27.000Z</time>
      </trkpt>
      <trkpt lat="45.082080" lon="5.266985">
        <ele>247.317960</ele>
        <time>2017-06-04T13:36:29.000Z</time>
      </trkpt>
      <trkpt lat="45.082005" lon="5.266910">
        <ele>247.310350</ele>
        <time>2017-06-04T13:36:31.000Z</time>
      </trkpt>
      <trkpt lat="45.081930" lon="5.266836">
        <ele>247.302774</ele>
        <time>2017-06-04T13:36:33.000Z</time>
      </trkpt>
      <trkpt lat="45.081830" lon="5.266756">
        <ele>247.325085</ele>
        <time>2017-06-04T13:36:35.000Z</time>
      </trkpt>
      <trkpt lat="45.081722" lon="5.266680">
        <ele>247.354580</ele>
        <time>2017-06-04T13:36:37.000Z</time>
      </trkpt>
      <trkpt lat="45.081630" lon="5.266594">
        <ele>247.381540</ele>
        <time>2017-06-04T13:36:39.000Z</time>
      </trkpt>
      <trkpt lat="45.081528" lon="5.266513">
        <ele>247.410140</ele>
        <time>2017-06-04T13:36:41.000Z</time>
      </trkpt>
      <trkpt lat="45.081436" lon="5.266434">
        <ele>247.436453</ele>
        <time>2017-06-04T13:36:43.000Z</time>
      </trkpt>
      <trkpt lat="45.081352" lon="5.266357">
        <ele>247.460925</ele>
        <time>2017-06-04T13:36:45.000Z</time>
      </trkpt>
      <trkpt lat="45.081260" lon="5.266282">
        <ele>247.486888</ele>
        <time>2017-06-04T13:36:47.000Z</time>
      </trkpt>
      <trkpt lat="45.081160" lon="5.266197">
        <ele>247.515412</ele>
        <time>2017-06-04T13:36:49.000Z</time>
      </trkpt>
      <trkpt lat="45.081066" lon="5.266112">
        <ele>247.542688</ele>
        <time>2017-06-04T13:36:51.000Z</time>
      </trkpt>
      <trkpt lat="45.080967" lon="5.266028">
        <ele>247.570914</ele>
        <time>2017-06-04T13:36:53.000Z</time>
      </trkpt>
      <trkpt lat="45.080883" lon="5.265939">
        <ele>247.596571</ele>
        <time>2017-06-04T13:36:55.000Z</time>
      </trkpt>
      <trkpt lat="45.080803" lon="5.265848">
        <ele>247.621666</ele>
        <time>2017-06-04T13:36:57.000Z</time>
      </trkpt>
      <trkpt lat="45.080730" lon="5.265750">
        <ele>247.646267</ele>
        <time>2017-06-04T13:36:59.000Z</time>
      </trkpt>
      <trkpt lat="45.080647" lon="5.265653">
        <ele>247.672585</ele>
        <time>2017-06-04T13:37:01.000Z</time>
      </trkpt>
      <trkpt lat="45.080547" lon="5.265578">
        <ele>247.700260</ele>
        <time>2017-06-04T13:37:03.000Z</time>
      </trkpt>
      <trkpt lat="45.080444" lon="5.265508">
        <ele>247.728202</ele>
        <time>2017-06-04T13:37:05.000Z</time>
      </trkpt>
      <trkpt lat="45.080350" lon="5.265431">
        <ele>247.769336</ele>
        <time>2017-06-04T13:37:07.000Z</time>
      </trkpt>
      <trkpt lat="45.080257" lon="5.265354">
        <ele>247.824023</ele>
        <time>2017-06-04T13:37:09.000Z</time>
      </trkpt>
      <trkpt lat="45.080177" lon="5.265276">
        <ele>247.873328</ele>
        <time>2017-06-04T13:37:11.000Z</time>
      </trkpt>
      <trkpt lat="45.080093" lon="5.265202">
        <ele>247.923547</ele>
        <time>2017-06-04T13:37:13.000Z</time>
      </trkpt>
      <trkpt lat="45.080017" lon="5.265124">
        <ele>247.971194</ele>
        <time>2017-06-04T13:37:15.000Z</time>
      </trkpt>
      <trkpt lat="45.079937" lon="5.265042">
        <ele>248.021326</ele>
        <time>2017-06-04T13:37:17.000Z</time>
      </trkpt>
      <trkpt lat="45.079850" lon="5.264952">
        <ele>248.076019</ele>
        <time>2017-06-04T13:37:19.000Z</time>
      </trkpt>
      <trkpt lat="45.079758" lon="5.264857">
        <ele>248.133819</ele>
        <time>2017-06-04T13:37:21.000Z</time>
      </trkpt>
      <trkpt lat="45.079662" lon="5.264759">
        <ele>248.193894</ele>
        <time>2017-06-04T13:37:23.000Z</time>
      </trkpt>
      <trkpt lat="45.079575" lon="5.264649">
        <ele>248.253099</ele>
        <time>2017-06-04T13:37:25.000Z</time>
      </trkpt>
      <trkpt lat="45.079510" lon="5.264525">
        <ele>248.308457</ele>
        <time>2017-06-04T13:37:27.000Z</time>
      </trkpt>
      <trkpt lat="45.079468" lon="5.264397">
        <ele>248.359052</ele>
        <time>2017-06-04T13:37:29.000Z</time>
      </trkpt>
      <trkpt lat="45.079414" lon="5.264288">
        <ele>248.406781</ele>
        <time>2017-06-04T13:37:31.000Z</time>
      </trkpt>
      <trkpt lat="45.079340" lon="5.264191">
        <ele>248.457968</ele>
        <time>2017-06-04T13:37:33.000Z</time>
      </trkpt>
      <trkpt lat="45.079250" lon="5.264136">
        <ele>248.507728</ele>
        <time>2017-06-04T13:37:35.000Z</time>
      </trkpt>
      <trkpt lat="45.079150" lon="5.264093">
        <ele>248.560781</ele>
        <time>2017-06-04T13:37:37.000Z</time>
      </trkpt>
      <trkpt lat="45.079040" lon="5.264060">
        <ele>248.617861</ele>
        <time>2017-06-04T13:37:39.000Z</time>
      </trkpt>
      <trkpt lat="45.078938" lon="5.264019">
        <ele>248.671134</ele>
        <time>2017-06-04T13:37:41.000Z</time>
      </trkpt>
      <trkpt lat="45.078842" lon="5.263976">
        <ele>248.720628</ele>
        <time>2017-06-04T13:37:43.000Z</time>
      </trkpt>
      <trkpt lat="45.078760" lon="5.263900">
        <ele>248.768802</ele>
        <time>2017-06-04T13:37:45.000Z</time>
      </trkpt>
      <trkpt lat="45.078667" lon="5.263824">
        <ele>248.821583</ele>
        <time>2017-06-04T13:37:47.000Z</time>
      </trkpt>
      <trkpt lat="45.078575" lon="5.263752">
        <ele>248.873252</ele>
        <time>2017-06-04T13:37:49.000Z</time>
      </trkpt>
      <trkpt lat="45.078484" lon="5.263680">
        <ele>248.924493</ele>
        <time>2017-06-04T13:37:51.000Z</time>
      </trkpt>
      <trkpt lat="45.078396" lon="5.263613">
        <ele>248.973606</ele>
        <time>2017-06-04T13:37:53.000Z</time>
      </trkpt>
      <trkpt lat="45.078297" lon="5.263568">
        <ele>249.024716</ele>
        <time>2017-06-04T13:37:55.000Z</time>
      </trkpt>
      <trkpt lat="45.078197" lon="5.263537">
        <ele>249.075036</ele>
        <time>2017-06-04T13:37:57.000Z</time>
      </trkpt>
      <trkpt lat="45.078102" lon="5.263498">
        <ele>249.123657</ele>
        <time>2017-06-04T13:37:59.000Z</time>
      </trkpt>
      <trkpt lat="45.078010" lon="5.263452">
        <ele>249.171617</ele>
        <time>2017-06-04T13:38:01.000Z</time>
      </trkpt>
      <trkpt lat="45.077910" lon="5.263403">
        <ele>249.223632</ele>
        <time>2017-06-04T13:38:03.000Z</time>
      </trkpt>
      <trkpt lat="45.077812" lon="5.263351">
        <ele>249.275076</ele>
        <time>2017-06-04T13:38:05.000Z</time>
      </trkpt>
      <trkpt lat="45.077705" lon="5.263299">
        <ele>249.330684</ele>
        <time>2017-06-04T13:38:07.000Z</time>
      </trkpt>
      <trkpt lat="45.077595" lon="5.263248">
        <ele>249.387580</ele>
        <time>2017-06-04T13:38:09.000Z</time>
      </trkpt>
      <trkpt lat="45.077484" lon="5.263211">
        <ele>249.443635</ele>
        <time>2017-06-04T13:38:11.000Z</time>
      </trkpt>
      <trkpt lat="45.077374" lon="5.263170">
        <ele>249.499548</ele>
        <time>2017-06-04T13:38:13.000Z</time>
      </trkpt>
      <trkpt lat="45.077274" lon="5.263130">
        <ele>249.544950</ele>
        <time>2017-06-04T13:38:15.000Z</time>
      </trkpt>
      <trkpt lat="45.077164" lon="5.263106">
        <ele>249.574212</ele>
        <time>2017-06-04T13:38:17.000Z</time>
      </trkpt>
      <trkpt lat="45.077057" lon="5.263084">
        <ele>249.602639</ele>
        <time>2017-06-04T13:38:19.000Z</time>
      </trkpt>
      <trkpt lat="45.076946" lon="5.263064">
        <ele>249.632057</ele>
        <time>2017-06-04T13:38:21.000Z</time>
      </trkpt>
      <trkpt lat="45.076850" lon="5.263046">
        <ele>249.657517</ele>
        <time>2017-06-04T13:38:23.000Z</time>
      </trkpt>
      <trkpt lat="45.076725" lon="5.263027">
        <ele>249.690570</ele>
        <time>2017-06-04T13:38:26.000Z</time>
      </trkpt>
      <trkpt lat="45.076595" lon="5.262983">
        <ele>249.725712</ele>
        <time>2017-06-04T13:38:29.000Z</time>
      </trkpt>
      <trkpt lat="45.076496" lon="5.262924">
        <ele>249.753951</ele>
        <time>2017-06-04T13:38:31.000Z</time>
      </trkpt>
      <trkpt lat="45.076405" lon="5.262857">
        <ele>249.780917</ele>
        <time>2017-06-04T13:38:33.000Z</time>
      </trkpt>
      <trkpt lat="45.076317" lon="5.262783">
        <ele>249.807825</ele>
        <time>2017-06-04T13:38:35.000Z</time>
      </trkpt>
      <trkpt lat="45.076225" lon="5.262706">
        <ele>249.835922</ele>
        <time>2017-06-04T13:38:37.000Z</time>
      </trkpt>
      <trkpt lat="45.076145" lon="5.262627">
        <ele>249.861564</ele>
        <time>2017-06-04T13:38:39.000Z</time>
      </trkpt>
      <trkpt lat="45.076077" lon="5.262522">
        <ele>249.888016</ele>
        <time>2017-06-04T13:38:41.000Z</time>
      </trkpt>
      <trkpt lat="45.076040" lon="5.262368">
        <ele>249.918217</ele>
        <time>2017-06-04T13:38:43.000Z</time>
      </trkpt>
      <trkpt lat="45.075985" lon="5.262221">
        <ele>249.949103</ele>
        <time>2017-06-04T13:38:45.000Z</time>
      </trkpt>
      <trkpt lat="45.075916" lon="5.262091">
        <ele>249.979297</ele>
        <time>2017-06-04T13:38:47.000Z</time>
      </trkpt>
      <trkpt lat="45.075840" lon="5.261978">
        <ele>250.008269</ele>
        <time>2017-06-04T13:38:49.000Z</time>
      </trkpt>
      <trkpt lat="45.075760" lon="5.261857">
        <ele>250.152804</ele>
        <time>2017-06-04T13:38:51.000Z</time>
      </trkpt>
      <trkpt lat="45.075680" lon="5.261744">
        <ele>250.304368</ele>
        <time>2017-06-04T13:38:53.000Z</time>
      </trkpt>
      <trkpt lat="45.075596" lon="5.261626">
        <ele>250.463076</ele>
        <time>2017-06-04T13:38:55.000Z</time>
      </trkpt>
      <trkpt lat="45.075510" lon="5.261516">
        <ele>250.618522</ele>
        <time>2017-06-04T13:38:57.000Z</time>
      </trkpt>
      <trkpt lat="45.075424" lon="5.261406">
        <ele>250.773967</ele>
        <time>2017-06-04T13:38:59.000Z</time>
      </trkpt>
      <trkpt lat="45.075340" lon="5.261301">
        <ele>250.924258</ele>
        <time>2017-06-04T13:39:02.000Z</time>
      </trkpt>
      <trkpt lat="45.075245" lon="5.261176">
        <ele>251.098204</ele>
        <time>2017-06-04T13:39:55.000Z</time>
      </trkpt>
      <trkpt lat="45.075150" lon="5.261077">
        <ele>251.256417</ele>
        <time>2017-06-04T13:40:00.000Z</time>
      </trkpt>
      <trkpt lat="45.075070" lon="5.260969">
        <ele>251.404675</ele>
        <time>2017-06-04T13:40:04.000Z</time>
      </trkpt>
      <trkpt lat="45.074986" lon="5.260866">
        <ele>251.553719</ele>
        <time>2017-06-04T13:40:08.000Z</time>
      </trkpt>
      <trkpt lat="45.074894" lon="5.260760">
        <ele>251.712810</ele>
        <time>2017-06-04T13:40:12.000Z</time>
      </trkpt>
      <trkpt lat="45.074818" lon="5.260672">
        <ele>251.844493</ele>
        <time>2017-06-04T13:40:15.000Z</time>
      </trkpt>
      <trkpt lat="45.074726" lon="5.260572">
        <ele>252.000060</ele>
        <time>2017-06-04T13:40:18.000Z</time>
      </trkpt>
      <trkpt lat="45.074630" lon="5.260473">
        <ele>252.159357</ele>
        <time>2017-06-04T13:40:21.000Z</time>
      </trkpt>
      <trkpt lat="45.074535" lon="5.260383">
        <ele>252.312672</ele>
        <time>2017-06-04T13:40:24.000Z</time>
      </trkpt>
      <trkpt lat="45.074448" lon="5.260296">
        <ele>252.421552</ele>
        <time>2017-06-04T13:40:27.000Z</time>
      </trkpt>
      <trkpt lat="45.074368" lon="5.260212">
        <ele>252.411599</ele>
        <time>2017-06-04T13:40:30.000Z</time>
      </trkpt>
      <trkpt lat="45.074287" lon="5.260121">
        <ele>252.401266</ele>
        <time>2017-06-04T13:40:33.000Z</time>
      </trkpt>
      <trkpt lat="45.074200" lon="5.260003">
        <ele>252.389226</ele>
        <time>2017-06-04T13:40:36.000Z</time>
      </trkpt>
      <trkpt lat="45.074112" lon="5.259884">
        <ele>252.377066</ele>
        <time>2017-06-04T13:40:39.000Z</time>
      </trkpt>
      <trkpt lat="45.074028" lon="5.259780">
        <ele>252.365915</ele>
        <time>2017-06-04T13:40:42.000Z</time>
      </trkpt>
      <trkpt lat="45.073960" lon="5.259687">
        <ele>252.356467</ele>
        <time>2017-06-04T13:40:45.000Z</time>
      </trkpt>
      <trkpt lat="45.073887" lon="5.259577">
        <ele>252.345813</ele>
        <time>2017-06-04T13:40:48.000Z</time>
      </trkpt>
      <trkpt lat="45.073820" lon="5.259435">
        <ele>252.333760</ele>
        <time>2017-06-04T13:40:51.000Z</time>
      </trkpt>
      <trkpt lat="45.073742" lon="5.259279">
        <ele>252.320270</ele>
        <time>2017-06-04T13:40:54.000Z</time>
      </trkpt>
      <trkpt lat="45.073690" lon="5.259177">
        <ele>252.311392</ele>
        <time>2017-06-04T13:40:56.000Z</time>
      </trkpt>
      <trkpt lat="45.073597" lon="5.259037">
        <ele>252.297827</ele>
        <time>2017-06-04T13:40:59.000Z</time>
      </trkpt>
      <trkpt lat="45.073480" lon="5.258935">
        <ele>252.284095</ele>
        <time>2017-06-04T13:41:02.000Z</time>
      </trkpt>
      <trkpt lat="45.073387" lon="5.258872">
        <ele>252.273792</ele>
        <time>2017-06-04T13:41:04.000Z</time>
      </trkpt>
      <trkpt lat="45.073307" lon="5.258771">
        <ele>252.263081</ele>
        <time>2017-06-04T13:41:06.000Z</time>
      </trkpt>
      <trkpt lat="45.073240" lon="5.258659">
        <ele>252.252722</ele>
        <time>2017-06-04T13:41:08.000Z</time>
      </trkpt>
      <trkpt lat="45.073174" lon="5.258555">
        <ele>252.227755</ele>
        <time>2017-06-04T13:41:10.000Z</time>
      </trkpt>
      <trkpt lat="45.073082" lon="5.258449">
        <ele>252.078381</ele>
        <time>2017-06-04T13:41:13.000Z</time>
      </trkpt>
      <trkpt lat="45.072975" lon="5.258425">
        <ele>251.941945</ele>
        <time>2017-06-04T13:41:17.000Z</time>
      </trkpt>
      <trkpt lat="45.072884" lon="5.258519">
        <ele>251.800086</ele>
        <time>2017-06-04T13:41:20.000Z</time>
      </trkpt>
      <trkpt lat="45.072807" lon="5.258643">
        <ele>251.653230</ele>
        <time>2017-06-04T13:41:23.000Z</time>
      </trkpt>
      <trkpt lat="45.072758" lon="5.258752">
        <ele>251.538311</ele>
        <time>2017-06-04T13:41:25.000Z</time>
      </trkpt>
      <trkpt lat="45.072690" lon="5.258841">
        <ele>251.421693</ele>
        <time>2017-06-04T13:41:27.000Z</time>
      </trkpt>
      <trkpt lat="45.072605" lon="5.258963">
        <ele>251.269269</ele>
        <time>2017-06-04T13:41:30.000Z</time>
      </trkpt>
      <trkpt lat="45.072510" lon="5.259067">
        <ele>251.118039</ele>
        <time>2017-06-04T13:41:34.000Z</time>
      </trkpt>
      <trkpt lat="45.072422" lon="5.259139">
        <ele>250.990042</ele>
        <time>2017-06-04T13:41:38.000Z</time>
      </trkpt>
      <trkpt lat="45.072346" lon="5.259213">
        <ele>250.873882</ele>
        <time>2017-06-04T13:41:43.000Z</time>
      </trkpt>
      <trkpt lat="45.072258" lon="5.259302">
        <ele>250.737690</ele>
        <time>2017-06-04T13:41:47.000Z</time>
      </trkpt>
      <trkpt lat="45.072163" lon="5.259321">
        <ele>250.616859</ele>
        <time>2017-06-04T13:41:53.000Z</time>
      </trkpt>
      <trkpt lat="45.072075" lon="5.259275">
        <ele>250.498721</ele>
        <time>2017-06-04T13:41:58.000Z</time>
      </trkpt>
      <trkpt lat="45.071983" lon="5.259257">
        <ele>250.381756</ele>
        <time>2017-06-04T13:42:05.000Z</time>
      </trkpt>
      <trkpt lat="45.072067" lon="5.259305">
        <ele>250.267677</ele>
        <time>2017-06-04T13:47:14.000Z</time>
      </trkpt>
      <trkpt lat="45.072163" lon="5.259348">
        <ele>250.140870</ele>
        <time>2017-06-04T13:47:22.000Z</time>
      </trkpt>
      <trkpt lat="45.072277" lon="5.259275">
        <ele>249.983300</ele>
        <time>2017-06-04T13:47:49.000Z</time>
      </trkpt>
      <trkpt lat="45.072365" lon="5.259181">
        <ele>250.128680</ele>
        <time>2017-06-04T13:47:54.000Z</time>
      </trkpt>
      <trkpt lat="45.072453" lon="5.259138">
        <ele>250.259230</ele>
        <time>2017-06-04T13:47:58.000Z</time>
      </trkpt>
      <trkpt lat="45.072517" lon="5.259047">
        <ele>250.386422</ele>
        <time>2017-06-04T13:48:02.000Z</time>
      </trkpt>
      <trkpt lat="45.072598" lon="5.258956">
        <ele>250.531424</ele>
        <time>2017-06-04T13:48:05.000Z</time>
      </trkpt>
      <trkpt lat="45.072680" lon="5.258864">
        <ele>250.678139</ele>
        <time>2017-06-04T13:48:09.000Z</time>
      </trkpt>
      <trkpt lat="45.072770" lon="5.258729">
        <ele>250.862002</ele>
        <time>2017-06-04T13:48:12.000Z</time>
      </trkpt>
      <trkpt lat="45.072830" lon="5.258624">
        <ele>250.995769</ele>
        <time>2017-06-04T13:48:15.000Z</time>
      </trkpt>
      <trkpt lat="45.072890" lon="5.258518">
        <ele>251.130307</ele>
        <time>2017-06-04T13:48:18.000Z</time>
      </trkpt>
      <trkpt lat="45.072960" lon="5.258436">
        <ele>251.257711</ele>
        <time>2017-06-04T13:48:21.000Z</time>
      </trkpt>
      <trkpt lat="45.073013" lon="5.258333">
        <ele>251.383924</ele>
        <time>2017-06-04T13:48:26.000Z</time>
      </trkpt>
      <trkpt lat="45.072926" lon="5.258291">
        <ele>251.512826</ele>
        <time>2017-06-04T13:48:31.000Z</time>
      </trkpt>
      <trkpt lat="45.072840" lon="5.258251">
        <ele>251.639770</ele>
        <time>2017-06-04T13:48:35.000Z</time>
      </trkpt>
      <trkpt lat="45.072742" lon="5.258203">
        <ele>251.785192</ele>
        <time>2017-06-04T13:48:40.000Z</time>
      </trkpt>
      <trkpt lat="45.072650" lon="5.258148">
        <ele>251.925237</ele>
        <time>2017-06-04T13:48:44.000Z</time>
      </trkpt>
      <trkpt lat="45.072536" lon="5.258030">
        <ele>252.123267</ele>
        <time>2017-06-04T13:49:32.000Z</time>
      </trkpt>
      <trkpt lat="45.072450" lon="5.257976">
        <ele>252.255197</ele>
        <time>2017-06-04T13:49:35.000Z</time>
      </trkpt>
      <trkpt lat="45.072357" lon="5.257887">
        <ele>252.412610</ele>
        <time>2017-06-04T13:49:38.000Z</time>
      </trkpt>
      <trkpt lat="45.072258" lon="5.257758">
        <ele>252.627678</ele>
        <time>2017-06-04T13:49:41.000Z</time>
      </trkpt>
      <trkpt lat="45.072210" lon="5.257639">
        <ele>252.799239</ele>
        <time>2017-06-04T13:49:43.000Z</time>
      </trkpt>
      <trkpt lat="45.072163" lon="5.257525">
        <ele>252.964493</ele>
        <time>2017-06-04T13:49:45.000Z</time>
      </trkpt>
      <trkpt lat="45.072098" lon="5.257369">
        <ele>253.191244</ele>
        <time>2017-06-04T13:49:48.000Z</time>
      </trkpt>
      <trkpt lat="45.072014" lon="5.257219">
        <ele>253.430900</ele>
        <time>2017-06-04T13:49:51.000Z</time>
      </trkpt>
      <trkpt lat="45.071940" lon="5.257069">
        <ele>253.659963</ele>
        <time>2017-06-04T13:49:54.000Z</time>
      </trkpt>
      <trkpt lat="45.071900" lon="5.256913">
        <ele>253.867731</ele>
        <time>2017-06-04T13:49:57.000Z</time>
      </trkpt>
      <trkpt lat="45.071857" lon="5.256753">
        <ele>254.082046</ele>
        <time>2017-06-04T13:50:00.000Z</time>
      </trkpt>
      <trkpt lat="45.071810" lon="5.256597">
        <ele>254.294370</ele>
        <time>2017-06-04T13:50:03.000Z</time>
      </trkpt>
      <trkpt lat="45.071774" lon="5.256449">
        <ele>254.490332</ele>
        <time>2017-06-04T13:50:06.000Z</time>
      </trkpt>
      <trkpt lat="45.071740" lon="5.256281">
        <ele>254.709115</ele>
        <time>2017-06-04T13:50:09.000Z</time>
      </trkpt>
      <trkpt lat="45.071710" lon="5.256123">
        <ele>254.913939</ele>
        <time>2017-06-04T13:50:12.000Z</time>
      </trkpt>
      <trkpt lat="45.071680" lon="5.256000">
        <ele>255.076846</ele>
        <time>2017-06-04T13:50:15.000Z</time>
      </trkpt>
      <trkpt lat="45.071630" lon="5.255850">
        <ele>255.284496</ele>
        <time>2017-06-04T13:50:19.000Z</time>
      </trkpt>
      <trkpt lat="45.071587" lon="5.255713">
        <ele>255.472181</ele>
        <time>2017-06-04T13:50:22.000Z</time>
      </trkpt>
      <trkpt lat="45.071537" lon="5.255572">
        <ele>255.669701</ele>
        <time>2017-06-04T13:50:25.000Z</time>
      </trkpt>
      <trkpt lat="45.071490" lon="5.255442">
        <ele>255.521681</ele>
        <time>2017-06-04T13:50:28.000Z</time>
      </trkpt>
      <trkpt lat="45.071445" lon="5.255333">
        <ele>255.358579</ele>
        <time>2017-06-04T13:50:31.000Z</time>
      </trkpt>
      <trkpt lat="45.071410" lon="5.255194">
        <ele>255.167946</ele>
        <time>2017-06-04T13:50:35.000Z</time>
      </trkpt>
      <trkpt lat="45.071365" lon="5.255031">
        <ele>254.941863</ele>
        <time>2017-06-04T13:50:37.000Z</time>
      </trkpt>
      <trkpt lat="45.071323" lon="5.254858">
        <ele>254.705543</ele>
        <time>2017-06-04T13:50:40.000Z</time>
      </trkpt>
      <trkpt lat="45.071290" lon="5.254732">
        <ele>254.531942</ele>
        <time>2017-06-04T13:50:42.000Z</time>
      </trkpt>
      <trkpt lat="45.071266" lon="5.254597">
        <ele>254.352106</ele>
        <time>2017-06-04T13:50:44.000Z</time>
      </trkpt>
      <trkpt lat="45.071240" lon="5.254472">
        <ele>254.183772</ele>
        <time>2017-06-04T13:50:46.000Z</time>
      </trkpt>
      <trkpt lat="45.071210" lon="5.254295">
        <ele>253.948627</ele>
        <time>2017-06-04T13:50:49.000Z</time>
      </trkpt>
      <trkpt lat="45.071180" lon="5.254170">
        <ele>253.778081</ele>
        <time>2017-06-04T13:50:51.000Z</time>
      </trkpt>
      <trkpt lat="45.071144" lon="5.254042">
        <ele>253.600098</ele>
        <time>2017-06-04T13:50:53.000Z</time>
      </trkpt>
      <trkpt lat="45.071095" lon="5.253865">
        <ele>253.354506</ele>
        <time>2017-06-04T13:50:56.000Z</time>
      </trkpt>
      <trkpt lat="45.071060" lon="5.253746">
        <ele>253.187981</ele>
        <time>2017-06-04T13:50:58.000Z</time>
      </trkpt>
      <trkpt lat="45.071022" lon="5.253627">
        <ele>253.019271</ele>
        <time>2017-06-04T13:51:00.000Z</time>
      </trkpt>
      <trkpt lat="45.070980" lon="5.253495">
        <ele>252.832243</ele>
        <time>2017-06-04T13:51:02.000Z</time>
      </trkpt>
      <trkpt lat="45.070940" lon="5.253374">
        <ele>252.659655</ele>
        <time>2017-06-04T13:51:04.000Z</time>
      </trkpt>
      <trkpt lat="45.070900" lon="5.253249">
        <ele>252.482374</ele>
        <time>2017-06-04T13:51:06.000Z</time>
      </trkpt>
      <trkpt lat="45.070858" lon="5.253127">
        <ele>252.409464</ele>
        <time>2017-06-04T13:51:08.000Z</time>
      </trkpt>
      <trkpt lat="45.070820" lon="5.253000">
        <ele>252.428323</ele>
        <time>2017-06-04T13:51:10.000Z</time>
      </trkpt>
      <trkpt lat="45.070786" lon="5.252867">
        <ele>252.447662</ele>
        <time>2017-06-04T13:51:12.000Z</time>
      </trkpt>
      <trkpt lat="45.070750" lon="5.252746">
        <ele>252.465615</ele>
        <time>2017-06-04T13:51:14.000Z</time>
      </trkpt>
      <trkpt lat="45.070713" lon="5.252619">
        <ele>252.484399</ele>
        <time>2017-06-04T13:51:16.000Z</time>
      </trkpt>
      <trkpt lat="45.070675" lon="5.252497">
        <ele>252.502630</ele>
        <time>2017-06-04T13:51:18.000Z</time>
      </trkpt>
      <trkpt lat="45.070640" lon="5.252368">
        <ele>252.521524</ele>
        <time>2017-06-04T13:51:20.000Z</time>
      </trkpt>
      <trkpt lat="45.070606" lon="5.252228">
        <ele>252.541766</ele>
        <time>2017-06-04T13:51:22.000Z</time>
      </trkpt>
      <trkpt lat="45.070568" lon="5.252082">
        <ele>252.563041</ele>
        <time>2017-06-04T13:51:24.000Z</time>
      </trkpt>
      <trkpt lat="45.070526" lon="5.251947">
        <ele>252.583211</ele>
        <time>2017-06-04T13:51:26.000Z</time>
      </trkpt>
      <trkpt lat="45.070488" lon="5.251812">
        <ele>252.603082</ele>
        <time>2017-06-04T13:51:28.000Z</time>
      </trkpt>
      <trkpt lat="45.070457" lon="5.251678">
        <ele>252.622361</ele>
        <time>2017-06-04T13:51:30.000Z</time>
      </trkpt>
      <trkpt lat="45.070404" lon="5.251510">
        <ele>252.647519</ele>
        <time>2017-06-04T13:51:33.000Z</time>
      </trkpt>
      <trkpt lat="45.070377" lon="5.251370">
        <ele>252.667362</ele>
        <time>2017-06-04T13:51:36.000Z</time>
      </trkpt>
      <trkpt lat="45.070350" lon="5.251243">
        <ele>252.685496</ele>
        <time>2017-06-04T13:51:41.000Z</time>
      </trkpt>
      <trkpt lat="45.070430" lon="5.251158">
        <ele>252.704860</ele>
        <time>2017-06-04T13:52:41.000Z</time>
      </trkpt>
      <trkpt lat="45.070526" lon="5.251172">
        <ele>252.723544</ele>
        <time>2017-06-04T13:52:45.000Z</time>
      </trkpt>
      <trkpt lat="45.070644" lon="5.251161">
        <ele>252.746438</ele>
        <time>2017-06-04T13:52:49.000Z</time>
      </trkpt>
      <trkpt lat="45.070744" lon="5.251129">
        <ele>252.936323</ele>
        <time>2017-06-04T13:52:52.000Z</time>
      </trkpt>
      <trkpt lat="45.070843" lon="5.251081">
        <ele>253.143745</ele>
        <time>2017-06-04T13:52:55.000Z</time>
      </trkpt>
      <trkpt lat="45.070940" lon="5.251037">
        <ele>253.345642</ele>
        <time>2017-06-04T13:52:58.000Z</time>
      </trkpt>
      <trkpt lat="45.071037" lon="5.250990">
        <ele>253.548860</ele>
        <time>2017-06-04T13:53:01.000Z</time>
      </trkpt>
      <trkpt lat="45.071140" lon="5.250943">
        <ele>253.763365</ele>
        <time>2017-06-04T13:53:04.000Z</time>
      </trkpt>
      <trkpt lat="45.071260" lon="5.250909">
        <ele>254.005943</ele>
        <time>2017-06-04T13:53:07.000Z</time>
      </trkpt>
      <trkpt lat="45.071365" lon="5.250853">
        <ele>254.228347</ele>
        <time>2017-06-04T13:53:10.000Z</time>
      </trkpt>
      <trkpt lat="45.071476" lon="5.250810">
        <ele>254.456455</ele>
        <time>2017-06-04T13:53:13.000Z</time>
      </trkpt>
      <trkpt lat="45.071590" lon="5.250757">
        <ele>254.694293</ele>
        <time>2017-06-04T13:53:16.000Z</time>
      </trkpt>
      <trkpt lat="45.071700" lon="5.250718">
        <ele>254.919064</ele>
        <time>2017-06-04T13:53:19.000Z</time>
      </trkpt>
      <trkpt lat="45.071820" lon="5.250664">
        <ele>255.168650</ele>
        <time>2017-06-04T13:53:22.000Z</time>
      </trkpt>
      <trkpt lat="45.071930" lon="5.250630">
        <ele>255.391825</ele>
        <time>2017-06-04T13:53:25.000Z</time>
      </trkpt>
      <trkpt lat="45.072030" lon="5.250608">
        <ele>255.592422</ele>
        <time>2017-06-04T13:53:28.000Z</time>
      </trkpt>
      <trkpt lat="45.072120" lon="5.250581">
        <ele>255.774778</ele>
        <time>2017-06-04T13:53:31.000Z</time>
      </trkpt>
      <trkpt lat="45.072212" lon="5.250485">
        <ele>256.001307</ele>
        <time>2017-06-04T13:53:35.000Z</time>
      </trkpt>
      <trkpt lat="45.072227" lon="5.250355">
        <ele>256.185700</ele>
        <time>2017-06-04T13:53:38.000Z</time>
      </trkpt>
      <trkpt lat="45.072224" lon="5.250214">
        <ele>256.294480</ele>
        <time>2017-06-04T13:53:41.000Z</time>
      </trkpt>
      <trkpt lat="45.072212" lon="5.250036">
        <ele>256.227826</ele>
        <time>2017-06-04T13:53:44.000Z</time>
      </trkpt>
      <trkpt lat="45.072200" lon="5.249851">
        <ele>256.158574</ele>
        <time>2017-06-04T13:53:47.000Z</time>
      </trkpt>
      <trkpt lat="45.072186" lon="5.249723">
        <ele>256.110292</ele>
        <time>2017-06-04T13:53:49.000Z</time>
      </trkpt>
      <trkpt lat="45.072170" lon="5.249589">
        <ele>256.059632</ele>
        <time>2017-06-04T13:53:51.000Z</time>
      </trkpt>
      <trkpt lat="45.072150" lon="5.249455">
        <ele>256.008579</ele>
        <time>2017-06-04T13:53:53.000Z</time>
      </trkpt>
      <trkpt lat="45.072132" lon="5.249322">
        <ele>255.958099</ele>
        <time>2017-06-04T13:53:55.000Z</time>
      </trkpt>
      <trkpt lat="45.072113" lon="5.249187">
        <ele>255.906786</ele>
        <time>2017-06-04T13:53:57.000Z</time>
      </trkpt>
      <trkpt lat="45.072098" lon="5.249044">
        <ele>255.852896</ele>
        <time>2017-06-04T13:53:59.000Z</time>
      </trkpt>
      <trkpt lat="45.072083" lon="5.248910">
        <ele>255.802322</ele>
        <time>2017-06-04T13:54:01.000Z</time>
      </trkpt>
      <trkpt lat="45.072063" lon="5.248737">
        <ele>255.736975</ele>
        <time>2017-06-04T13:54:04.000Z</time>
      </trkpt>
      <trkpt lat="45.072033" lon="5.248570">
        <ele>255.672741</ele>
        <time>2017-06-04T13:54:07.000Z</time>
      </trkpt>
      <trkpt lat="45.072014" lon="5.248383">
        <ele>255.602316</ele>
        <time>2017-06-04T13:54:10.000Z</time>
      </trkpt>
      <trkpt lat="45.072000" lon="5.248202">
        <ele>255.534442</ele>
        <time>2017-06-04T13:54:13.000Z</time>
      </trkpt>
      <trkpt lat="45.071976" lon="5.248019">
        <ele>255.465060</ele>
        <time>2017-06-04T13:54:16.000Z</time>
      </trkpt>
      <trkpt lat="45.071957" lon="5.247892">
        <ele>255.416668</ele>
        <time>2017-06-04T13:54:18.000Z</time>
      </trkpt>
      <trkpt lat="45.071938" lon="5.247767">
        <ele>255.369005</ele>
        <time>2017-06-04T13:54:20.000Z</time>
      </trkpt>
      <trkpt lat="45.071915" lon="5.247632">
        <ele>255.358610</ele>
        <time>2017-06-04T13:54:22.000Z</time>
      </trkpt>
      <trkpt lat="45.071884" lon="5.247503">
        <ele>255.353002</ele>
        <time>2017-06-04T13:54:24.000Z</time>
      </trkpt>
      <trkpt lat="45.071823" lon="5.247341">
        <ele>255.345445</ele>
        <time>2017-06-04T13:54:27.000Z</time>
      </trkpt>
      <trkpt lat="45.071777" lon="5.247168">
        <ele>255.337836</ele>
        <time>2017-06-04T13:54:30.000Z</time>
      </trkpt>
      <trkpt lat="45.071740" lon="5.247021">
        <ele>255.331412</ele>
        <time>2017-06-04T13:54:33.000Z</time>
      </trkpt>
      <trkpt lat="45.071705" lon="5.246886">
        <ele>255.325493</ele>
        <time>2017-06-04T13:54:36.000Z</time>
      </trkpt>
      <trkpt lat="45.071660" lon="5.246772">
        <ele>255.320117</ele>
        <time>2017-06-04T13:54:40.000Z</time>
      </trkpt>
      <trkpt lat="45.071617" lon="5.246564">
        <ele>255.311196</ele>
        <time>2017-06-04T13:54:59.000Z</time>
      </trkpt>
      <trkpt lat="45.071564" lon="5.246421">
        <ele>255.304548</ele>
        <time>2017-06-04T13:55:02.000Z</time>
      </trkpt>
      <trkpt lat="45.071503" lon="5.246324">
        <ele>255.299202</ele>
        <time>2017-06-04T13:55:04.000Z</time>
      </trkpt>
      <trkpt lat="45.071434" lon="5.246225">
        <ele>255.293477</ele>
        <time>2017-06-04T13:55:06.000Z</time>
      </trkpt>
      <trkpt lat="45.071370" lon="5.246124">
        <ele>255.287891</ele>
        <time>2017-06-04T13:55:08.000Z</time>
      </trkpt>
      <trkpt lat="45.071297" lon="5.246032">
        <ele>255.282195</ele>
        <time>2017-06-04T13:55:10.000Z</time>
      </trkpt>
      <trkpt lat="45.071240" lon="5.245935">
        <ele>255.277001</ele>
        <time>2017-06-04T13:55:12.000Z</time>
      </trkpt>
      <trkpt lat="45.071210" lon="5.245794">
        <ele>255.270939</ele>
        <time>2017-06-04T13:55:15.000Z</time>
      </trkpt>
      <trkpt lat="45.071140" lon="5.245685">
        <ele>255.264875</ele>
        <time>2017-06-04T13:55:20.000Z</time>
      </trkpt>
      <trkpt lat="45.071087" lon="5.245547">
        <ele>255.258912</ele>
        <time>2017-06-04T13:55:24.000Z</time>
      </trkpt>
      <trkpt lat="45.071022" lon="5.245456">
        <ele>255.258912</ele>
        <time>2017-06-04T13:55:27.000Z</time>
      </trkpt>
      <trkpt lat="45.070980" lon="5.245328">
        <ele>255.258912</ele>
        <time>2017-06-04T13:55:30.000Z</time>
      </trkpt>
      <trkpt lat="45.070957" lon="5.245187">
        <ele>255.258912</ele>
        <time>2017-06-04T13:55:33.000Z</time>
      </trkpt>
      <trkpt lat="45.070960" lon="5.245051">
        <ele>255.258912</ele>
        <time>2017-06-04T13:55:36.000Z</time>
      </trkpt>
      <trkpt lat="45.071050" lon="5.244964">
        <ele>255.258912</ele>
        <time>2017-06-04T13:55:41.000Z</time>
      </trkpt>
      <trkpt lat="45.071064" lon="5.244837">
        <ele>255.258912</ele>
        <time>2017-06-04T13:55:54.000Z</time>
      </trkpt>
      <trkpt lat="45.071056" lon="5.244701">
        <ele>255.258912</ele>
        <time>2017-06-04T13:56:02.000Z</time>
      </trkpt>
      <trkpt lat="45.071040" lon="5.244530">
        <ele>255.258912</ele>
        <time>2017-06-04T13:56:22.000Z</time>
      </trkpt>
      <trkpt lat="45.071040" lon="5.244392">
        <ele>255.258912</ele>
        <time>2017-06-04T13:56:30.000Z</time>
      </trkpt>
      <trkpt lat="45.071026" lon="5.244256">
        <ele>255.258912</ele>
        <time>2017-06-04T13:56:39.000Z</time>
      </trkpt>
      <trkpt lat="45.071022" lon="5.244122">
        <ele>255.258912</ele>
        <time>2017-06-04T13:56:47.000Z</time>
      </trkpt>
      <trkpt lat="45.071003" lon="5.243980">
        <ele>255.258912</ele>
        <time>2017-06-04T13:56:55.000Z</time>
      </trkpt>
      <trkpt lat="45.070984" lon="5.243854">
        <ele>255.258912</ele>
        <time>2017-06-04T13:57:03.000Z</time>
      </trkpt>
      <trkpt lat="45.070934" lon="5.243745">
        <ele>255.258912</ele>
        <time>2017-06-04T13:57:13.000Z</time>
      </trkpt>
      <trkpt lat="45.070847" lon="5.243663">
        <ele>255.258912</ele>
        <time>2017-06-04T13:57:33.000Z</time>
      </trkpt>
      <trkpt lat="45.070760" lon="5.243570">
        <ele>255.258912</ele>
        <time>2017-06-04T13:57:36.000Z</time>
      </trkpt>
      <trkpt lat="45.070670" lon="5.243511">
        <ele>255.258912</ele>
        <time>2017-06-04T13:57:39.000Z</time>
      </trkpt>
    </trkseg>
  </trk>
</gpx>